<?xml version='1.0' encoding='UTF-8'?><gpx version="1.1" creator="JPX - https://github.com/jenetics/jpx" xmlns="http://www.topografix.com/GPX/1/1"><trk><trkseg><trkpt lat="45.885278956898745" lon="9.805367064924477"><ele>1025.0</ele><time>2026-04-05T15:33:45.999Z</time></trkpt><trkpt lat="45.88525491253372" lon="9.805254603796827"><ele>1025.0</ele><time>2026-04-05T15:33:47.999Z</time></trkpt><trkpt lat="45.88522617131253" lon="9.805074347906482"><ele>1025.0</ele><time>2026-04-05T15:33:49.999Z</time></trkpt><trkpt lat="45.88521196531686" lon="9.804971991324335"><ele>1025.0</ele><time>2026-04-05T15:33:50.999Z</time></trkpt><trkpt lat="45.88518710089884" lon="9.80486504912409"><ele>1025.0</ele><time>2026-04-05T15:33:51.999Z</time></trkpt><trkpt lat="45.8851388583203" lon="9.80477093524902"><ele>1025.0</ele><time>2026-04-05T15:33:52.999Z</time></trkpt><trkpt lat="45.885095927020934" lon="9.804658653714382"><ele>1025.6666666666667</ele><time>2026-04-05T15:33:53.999Z</time></trkpt><trkpt lat="45.885059579132204" lon="9.80457583626766"><ele>1026.3333333333335</ele><time>2026-04-05T15:33:54.999Z</time></trkpt><trkpt lat="45.88502581611474" lon="9.804492645579682"><ele>1027.0</ele><time>2026-04-05T15:33:55.999Z</time></trkpt><trkpt lat="45.884987267172285" lon="9.804411563824031"><ele>1027.6666666666667</ele><time>2026-04-05T15:33:56.999Z</time></trkpt><trkpt lat="45.88493790617607" lon="9.804348809113117"><ele>1028.3333333333333</ele><time>2026-04-05T15:33:57.999Z</time></trkpt><trkpt lat="45.884832569557524" lon="9.804260458491665"><ele>1029.0</ele><time>2026-04-05T15:33:59.999Z</time></trkpt><trkpt lat="45.884775439550275" lon="9.804216071664607"><ele>1029.0</ele><time>2026-04-05T15:34:00.999Z</time></trkpt><trkpt lat="45.884710808133256" lon="9.804211208527713"><ele>1029.0</ele><time>2026-04-05T15:34:01.999Z</time></trkpt><trkpt lat="45.88465537203344" lon="9.80426222566755"><ele>1029.0</ele><time>2026-04-05T15:34:02.999Z</time></trkpt><trkpt lat="45.88459820059244" lon="9.804315583828897"><ele>1029.0</ele><time>2026-04-05T15:34:03.999Z</time></trkpt><trkpt lat="45.884519560307496" lon="9.804345110762737"><ele>1029.0</ele><time>2026-04-05T15:34:04.999Z</time></trkpt><trkpt lat="45.88444294631545" lon="9.804366621595934"><ele>1029.0</ele><time>2026-04-05T15:34:05.999Z</time></trkpt><trkpt lat="45.88438216735356" lon="9.804395635564006"><ele>1029.0</ele><time>2026-04-05T15:34:06.999Z</time></trkpt><trkpt lat="45.88432946975562" lon="9.804454565707484"><ele>1026.6666666666667</ele><time>2026-04-05T15:34:07.999Z</time></trkpt><trkpt lat="45.884291324805325" lon="9.804529721772717"><ele>1024.3333333333333</ele><time>2026-04-05T15:34:08.999Z</time></trkpt><trkpt lat="45.88424866599392" lon="9.804606039676191"><ele>1022.0</ele><time>2026-04-05T15:34:09.999Z</time></trkpt><trkpt lat="45.88417031606588" lon="9.804734991685615"><ele>1019.6666666666666</ele><time>2026-04-05T15:34:11.999Z</time></trkpt><trkpt lat="45.884089243745564" lon="9.804854810034099"><ele>1017.3333333333333</ele><time>2026-04-05T15:34:13.999Z</time></trkpt><trkpt lat="45.884029698934036" lon="9.804925405458352"><ele>1015.0</ele><time>2026-04-05T15:34:15.999Z</time></trkpt><trkpt lat="45.88407075160645" lon="9.805021701963819"><ele>1014.9999999999999</ele><time>2026-04-05T15:34:21.999Z</time></trkpt><trkpt lat="45.88413046086715" lon="9.805057964350809"><ele>1015.0</ele><time>2026-04-05T15:34:22.999Z</time></trkpt><trkpt lat="45.884203305522924" lon="9.805084547286702"><ele>1015.0</ele><time>2026-04-05T15:34:23.999Z</time></trkpt><trkpt lat="45.8842940194496" lon="9.805136829878318"><ele>1015.0</ele><time>2026-04-05T15:34:24.999Z</time></trkpt><trkpt lat="45.884371084502824" lon="9.805175406054271"><ele>1014.9999999999999</ele><time>2026-04-05T15:34:25.999Z</time></trkpt><trkpt lat="45.884433223486276" lon="9.805208588852606"><ele>1015.0</ele><time>2026-04-05T15:34:26.999Z</time></trkpt><trkpt lat="45.88448955698438" lon="9.805256373485518"><ele>1012.2</ele><time>2026-04-05T15:34:27.999Z</time></trkpt><trkpt lat="45.88455623929559" lon="9.805320706816405"><ele>1009.4</ele><time>2026-04-05T15:34:28.999Z</time></trkpt><trkpt lat="45.884634272243524" lon="9.805384169204007"><ele>1006.5999999999999</ele><time>2026-04-05T15:34:29.999Z</time></trkpt><trkpt lat="45.88471405872164" lon="9.805474514382945"><ele>1003.8</ele><time>2026-04-05T15:34:30.999Z</time></trkpt><trkpt lat="45.88478148808353" lon="9.805579748760099"><ele>1001.0</ele><time>2026-04-05T15:34:31.999Z</time></trkpt><trkpt lat="45.88483932594098" lon="9.805694538859793"><ele>1001.0</ele><time>2026-04-05T15:34:32.999Z</time></trkpt><trkpt lat="45.88488776168034" lon="9.80578870759401"><ele>1000.9999999999999</ele><time>2026-04-05T15:34:33.999Z</time></trkpt><trkpt lat="45.884959084563576" lon="9.805908765354"><ele>1000.9999999999999</ele><time>2026-04-05T15:34:34.999Z</time></trkpt><trkpt lat="45.885028616556305" lon="9.806023113332618"><ele>1001.0</ele><time>2026-04-05T15:34:35.999Z</time></trkpt><trkpt lat="45.88510244942633" lon="9.806161673272921"><ele>1001.0</ele><time>2026-04-05T15:34:36.999Z</time></trkpt><trkpt lat="45.88519103650684" lon="9.806319031240113"><ele>999.25</ele><time>2026-04-05T15:34:37.999Z</time></trkpt><trkpt lat="45.885275925611026" lon="9.806473518977079"><ele>997.5</ele><time>2026-04-05T15:34:38.999Z</time></trkpt><trkpt lat="45.88536594269427" lon="9.806595018630166"><ele>995.75</ele><time>2026-04-05T15:34:39.999Z</time></trkpt><trkpt lat="45.885472116582136" lon="9.80669483232927"><ele>994.0</ele><time>2026-04-05T15:34:40.999Z</time></trkpt><trkpt lat="45.88558691415483" lon="9.806740856543717"><ele>994.0</ele><time>2026-04-05T15:34:41.999Z</time></trkpt><trkpt lat="45.885687190339965" lon="9.80675414029764"><ele>994.0000000000001</ele><time>2026-04-05T15:34:42.999Z</time></trkpt><trkpt lat="45.88576369565945" lon="9.80680329805805"><ele>994.0000000000001</ele><time>2026-04-05T15:34:43.999Z</time></trkpt><trkpt lat="45.885831646955296" lon="9.806941280641077"><ele>994.0</ele><time>2026-04-05T15:34:45.999Z</time></trkpt><trkpt lat="45.88578405711276" lon="9.807057933448478"><ele>994.0</ele><time>2026-04-05T15:34:46.999Z</time></trkpt><trkpt lat="45.88569820345522" lon="9.807120933362011"><ele>994.0</ele><time>2026-04-05T15:34:47.999Z</time></trkpt><trkpt lat="45.88560245880779" lon="9.807097119201421"><ele>994.0</ele><time>2026-04-05T15:34:48.999Z</time></trkpt><trkpt lat="45.88550963584605" lon="9.807009269647892"><ele>994.0</ele><time>2026-04-05T15:34:49.999Z</time></trkpt><trkpt lat="45.88540824683691" lon="9.806902007332544"><ele>994.0</ele><time>2026-04-05T15:34:50.999Z</time></trkpt><trkpt lat="45.88528403597995" lon="9.806791813718089"><ele>994.0</ele><time>2026-04-05T15:34:51.999Z</time></trkpt><trkpt lat="45.88514782701377" lon="9.806699614146428"><ele>994.0</ele><time>2026-04-05T15:34:52.999Z</time></trkpt><trkpt lat="45.88500961016915" lon="9.80661081528213"><ele>994.0</ele><time>2026-04-05T15:34:53.999Z</time></trkpt><trkpt lat="45.884863113334404" lon="9.806531991274587"><ele>991.5</ele><time>2026-04-05T15:34:54.999Z</time></trkpt><trkpt lat="45.88473146032067" lon="9.806470591011712"><ele>989.0</ele><time>2026-04-05T15:34:55.999Z</time></trkpt><trkpt lat="45.884596304428406" lon="9.806454569437483"><ele>986.5</ele><time>2026-04-05T15:34:56.998Z</time></trkpt><trkpt lat="45.884440702187646" lon="9.806477245275392"><ele>984.0</ele><time>2026-04-05T15:34:57.998Z</time></trkpt><trkpt lat="45.884293764225454" lon="9.806522978098728"><ele>980.0</ele><time>2026-04-05T15:34:58.998Z</time></trkpt><trkpt lat="45.88416515380748" lon="9.806545999251997"><ele>976.0</ele><time>2026-04-05T15:34:59.998Z</time></trkpt><trkpt lat="45.88404047598389" lon="9.8065355027985"><ele>972.0</ele><time>2026-04-05T15:35:00.998Z</time></trkpt><trkpt lat="45.88391176935881" lon="9.806484687938864"><ele>968.0</ele><time>2026-04-05T15:35:01.998Z</time></trkpt><trkpt lat="45.883788069659815" lon="9.806416953233903"><ele>968.0</ele><time>2026-04-05T15:35:02.998Z</time></trkpt><trkpt lat="45.88368673936516" lon="9.806328953943233"><ele>968.0</ele><time>2026-04-05T15:35:03.998Z</time></trkpt><trkpt lat="45.88360684358196" lon="9.806228415725375"><ele>968.0</ele><time>2026-04-05T15:35:04.998Z</time></trkpt><trkpt lat="45.88355610669685" lon="9.806112921626983"><ele>968.0</ele><time>2026-04-05T15:35:05.998Z</time></trkpt><trkpt lat="45.88355256756361" lon="9.805958574836815"><ele>968.0</ele><time>2026-04-05T15:35:06.998Z</time></trkpt><trkpt lat="45.88353372995218" lon="9.805809487677699"><ele>966.5999999999999</ele><time>2026-04-05T15:35:07.998Z</time></trkpt><trkpt lat="45.88351091427553" lon="9.805688192871003"><ele>965.1999999999999</ele><time>2026-04-05T15:35:08.998Z</time></trkpt><trkpt lat="45.88344518819419" lon="9.80563503655565"><ele>963.8</ele><time>2026-04-05T15:35:09.998Z</time></trkpt><trkpt lat="45.883368880016796" lon="9.805593084727557"><ele>962.4</ele><time>2026-04-05T15:35:10.998Z</time></trkpt><trkpt lat="45.88326261425359" lon="9.805650759649094"><ele>961.0</ele><time>2026-04-05T15:35:11.998Z</time></trkpt><trkpt lat="45.88315919292548" lon="9.805621130711092"><ele>961.0</ele><time>2026-04-05T15:35:12.998Z</time></trkpt><trkpt lat="45.883073540406954" lon="9.805560587474176"><ele>960.9999999999999</ele><time>2026-04-05T15:35:13.998Z</time></trkpt><trkpt lat="45.88297474304512" lon="9.805482302546336"><ele>960.9999999999999</ele><time>2026-04-05T15:35:14.998Z</time></trkpt><trkpt lat="45.88286636865374" lon="9.805391820610179"><ele>961.0</ele><time>2026-04-05T15:35:15.998Z</time></trkpt><trkpt lat="45.882774535092445" lon="9.805311383077834"><ele>961.0</ele><time>2026-04-05T15:35:16.998Z</time></trkpt><trkpt lat="45.88263438251331" lon="9.80533620373927"><ele>964.0</ele><time>2026-04-05T15:35:18.998Z</time></trkpt><trkpt lat="45.882590513582535" lon="9.805544311704804"><ele>967.0</ele><time>2026-04-05T15:35:19.998Z</time></trkpt><trkpt lat="45.882597443381435" lon="9.805747019359657"><ele>970.0</ele><time>2026-04-05T15:35:20.998Z</time></trkpt><trkpt lat="45.88257082059878" lon="9.805955847113978"><ele>973.0</ele><time>2026-04-05T15:35:21.998Z</time></trkpt><trkpt lat="45.88257477861014" lon="9.806182705452608"><ele>965.5</ele><time>2026-04-05T15:35:22.998Z</time></trkpt><trkpt lat="45.882519825164785" lon="9.806354875607587"><ele>958.0</ele><time>2026-04-05T15:35:23.998Z</time></trkpt><trkpt lat="45.88246594086356" lon="9.80646948718557"><ele>950.5</ele><time>2026-04-05T15:35:24.998Z</time></trkpt><trkpt lat="45.88237623177124" lon="9.80656898528077"><ele>943.0</ele><time>2026-04-05T15:35:25.998Z</time></trkpt><trkpt lat="45.882250390850054" lon="9.806692309345214"><ele>934.6666666666666</ele><time>2026-04-05T15:35:26.998Z</time></trkpt><trkpt lat="45.88209727688338" lon="9.806840955442288"><ele>926.3333333333333</ele><time>2026-04-05T15:35:27.998Z</time></trkpt><trkpt lat="45.881937594439826" lon="9.80699748256861"><ele>918.0</ele><time>2026-04-05T15:35:28.998Z</time></trkpt><trkpt lat="45.88179345126876" lon="9.807127500210377"><ele>919.4</ele><time>2026-04-05T15:35:29.998Z</time></trkpt><trkpt lat="45.88168470033807" lon="9.807207904026825"><ele>920.8</ele><time>2026-04-05T15:35:30.998Z</time></trkpt><trkpt lat="45.88158435466902" lon="9.807245947041789"><ele>922.2</ele><time>2026-04-05T15:35:31.998Z</time></trkpt><trkpt lat="45.88150204764986" lon="9.807228429488234"><ele>923.6</ele><time>2026-04-05T15:35:32.998Z</time></trkpt><trkpt lat="45.88139911222149" lon="9.807162025735868"><ele>925.0</ele><time>2026-04-05T15:35:33.998Z</time></trkpt><trkpt lat="45.88128237532197" lon="9.807058324464249"><ele>925.0</ele><time>2026-04-05T15:35:34.999Z</time></trkpt><trkpt lat="45.88114336685322" lon="9.806943272426922"><ele>925.0</ele><time>2026-04-05T15:35:35.999Z</time></trkpt><trkpt lat="45.88098308306063" lon="9.806848518509693"><ele>925.0</ele><time>2026-04-05T15:35:36.999Z</time></trkpt><trkpt lat="45.88081076357879" lon="9.806783172245702"><ele>930.3333333333333</ele><time>2026-04-05T15:35:37.999Z</time></trkpt><trkpt lat="45.88062321492453" lon="9.80676884524391"><ele>935.6666666666667</ele><time>2026-04-05T15:35:38.999Z</time></trkpt><trkpt lat="45.88045645645386" lon="9.806700479859876"><ele>941.0</ele><time>2026-04-05T15:35:39.999Z</time></trkpt><trkpt lat="45.88031681483161" lon="9.806623194476849"><ele>941.0</ele><time>2026-04-05T15:35:40.999Z</time></trkpt><trkpt lat="45.8801964914336" lon="9.806520113215976"><ele>941.0</ele><time>2026-04-05T15:35:41.999Z</time></trkpt><trkpt lat="45.88007071681728" lon="9.806382446040267"><ele>941.0</ele><time>2026-04-05T15:35:42.999Z</time></trkpt><trkpt lat="45.87994206534509" lon="9.806219589085796"><ele>940.0</ele><time>2026-04-05T15:35:43.999Z</time></trkpt><trkpt lat="45.87983219103607" lon="9.806053544551007"><ele>939.0</ele><time>2026-04-05T15:35:44.999Z</time></trkpt><trkpt lat="45.879751033174756" lon="9.80589565494234"><ele>938.0</ele><time>2026-04-05T15:35:45.999Z</time></trkpt><trkpt lat="45.87968211462502" lon="9.80573107201258"><ele>937.0</ele><time>2026-04-05T15:35:46.999Z</time></trkpt><trkpt lat="45.8796015598298" lon="9.80552310424738"><ele>937.0</ele><time>2026-04-05T15:35:47.999Z</time></trkpt><trkpt lat="45.8795179620392" lon="9.805293722403176"><ele>937.0</ele><time>2026-04-05T15:35:48.999Z</time></trkpt><trkpt lat="45.8794187482088" lon="9.805050640478834"><ele>937.0</ele><time>2026-04-05T15:35:49.999Z</time></trkpt><trkpt lat="45.879300366719775" lon="9.804811431389862"><ele>935.0</ele><time>2026-04-05T15:35:50.999Z</time></trkpt><trkpt lat="45.87918238231889" lon="9.804581495150572"><ele>933.0</ele><time>2026-04-05T15:35:51.999Z</time></trkpt><trkpt lat="45.87907767425621" lon="9.804366392175549"><ele>931.0</ele><time>2026-04-05T15:35:52.999Z</time></trkpt><trkpt lat="45.87899536078794" lon="9.804194678480588"><ele>931.0</ele><time>2026-04-05T15:35:53.999Z</time></trkpt><trkpt lat="45.8789164464844" lon="9.804077346544766"><ele>930.9999999999999</ele><time>2026-04-05T15:35:54.999Z</time></trkpt><trkpt lat="45.87884409819576" lon="9.803975357102509"><ele>930.9999999999999</ele><time>2026-04-05T15:35:55.999Z</time></trkpt><trkpt lat="45.87875515404188" lon="9.803956472820063"><ele>931.0</ele><time>2026-04-05T15:35:56.999Z</time></trkpt><trkpt lat="45.878648233531734" lon="9.803966651395013"><ele>931.0</ele><time>2026-04-05T15:35:57.999Z</time></trkpt><trkpt lat="45.87852661220111" lon="9.803963169686481"><ele>929.4</ele><time>2026-04-05T15:35:58.999Z</time></trkpt><trkpt lat="45.878412990951915" lon="9.803903285349248"><ele>927.8</ele><time>2026-04-05T15:35:59.999Z</time></trkpt><trkpt lat="45.8783276897383" lon="9.803819404938524"><ele>926.1999999999999</ele><time>2026-04-05T15:36:00.999Z</time></trkpt><trkpt lat="45.87827250818718" lon="9.803700835686282"><ele>924.5999999999999</ele><time>2026-04-05T15:36:01.999Z</time></trkpt><trkpt lat="45.8782079818178" lon="9.80356063085983"><ele>923.0</ele><time>2026-04-05T15:36:02.999Z</time></trkpt><trkpt lat="45.87812570732779" lon="9.803436926413122"><ele>923.0</ele><time>2026-04-05T15:36:03.999Z</time></trkpt><trkpt lat="45.87804653378082" lon="9.803346094754742"><ele>923.0</ele><time>2026-04-05T15:36:04.999Z</time></trkpt><trkpt lat="45.87795554983209" lon="9.803293564716425"><ele>923.0</ele><time>2026-04-05T15:36:05.999Z</time></trkpt><trkpt lat="45.87784590945232" lon="9.803362343464602"><ele>923.0</ele><time>2026-04-05T15:36:06.999Z</time></trkpt><trkpt lat="45.87775744262091" lon="9.803456427370609"><ele>923.0</ele><time>2026-04-05T15:36:07.999Z</time></trkpt><trkpt lat="45.87767669941589" lon="9.803645026621203"><ele>915.6666666666667</ele><time>2026-04-05T15:36:08.999Z</time></trkpt><trkpt lat="45.87758230401514" lon="9.803820672082187"><ele>908.3333333333333</ele><time>2026-04-05T15:36:09.999Z</time></trkpt><trkpt lat="45.87748595866871" lon="9.80402777173922"><ele>901.0</ele><time>2026-04-05T15:36:10.999Z</time></trkpt><trkpt lat="45.87739871770551" lon="9.804263840723275"><ele>895.0</ele><time>2026-04-05T15:36:11.999Z</time></trkpt><trkpt lat="45.87730846459665" lon="9.804520419472164"><ele>889.0</ele><time>2026-04-05T15:36:12.999Z</time></trkpt><trkpt lat="45.877225378540864" lon="9.80476307361021"><ele>883.0</ele><time>2026-04-05T15:36:13.999Z</time></trkpt><trkpt lat="45.877155261615165" lon="9.804972305612273"><ele>883.0</ele><time>2026-04-05T15:36:14.999Z</time></trkpt><trkpt lat="45.87709363665758" lon="9.805137318968635"><ele>883.0</ele><time>2026-04-05T15:36:15.999Z</time></trkpt><trkpt lat="45.87700889594272" lon="9.805250374900032"><ele>883.0</ele><time>2026-04-05T15:36:16.999Z</time></trkpt><trkpt lat="45.876906304245495" lon="9.805367015044846"><ele>883.0</ele><time>2026-04-05T15:36:17.999Z</time></trkpt><trkpt lat="45.876814779928516" lon="9.805470422028314"><ele>880.0</ele><time>2026-04-05T15:36:18.999Z</time></trkpt><trkpt lat="45.876765573195144" lon="9.805620297093242"><ele>877.0</ele><time>2026-04-05T15:36:19.999Z</time></trkpt><trkpt lat="45.87675600447815" lon="9.805784078215188"><ele>874.0</ele><time>2026-04-05T15:36:20.999Z</time></trkpt><trkpt lat="45.876774472056276" lon="9.805978035134876"><ele>871.0</ele><time>2026-04-05T15:36:21.999Z</time></trkpt><trkpt lat="45.87679025911932" lon="9.80617793034933"><ele>868.8</ele><time>2026-04-05T15:36:22.999Z</time></trkpt><trkpt lat="45.87679468671199" lon="9.806342068304655"><ele>866.5999999999999</ele><time>2026-04-05T15:36:23.999Z</time></trkpt><trkpt lat="45.87675178153129" lon="9.80643486286489"><ele>864.4</ele><time>2026-04-05T15:36:24.999Z</time></trkpt><trkpt lat="45.87669632716571" lon="9.806484151375745"><ele>862.2</ele><time>2026-04-05T15:36:25.999Z</time></trkpt><trkpt lat="45.87661225270972" lon="9.806522813710762"><ele>860.0</ele><time>2026-04-05T15:36:26.999Z</time></trkpt><trkpt lat="45.87650924384134" lon="9.806601009974086"><ele>862.25</ele><time>2026-04-05T15:36:27.999Z</time></trkpt><trkpt lat="45.876419241913425" lon="9.806733514400845"><ele>864.5</ele><time>2026-04-05T15:36:28.999Z</time></trkpt><trkpt lat="45.876340566646675" lon="9.806907987079017"><ele>866.75</ele><time>2026-04-05T15:36:29.999Z</time></trkpt><trkpt lat="45.8762835918203" lon="9.807092242590782"><ele>869.0</ele><time>2026-04-05T15:36:30.999Z</time></trkpt><trkpt lat="45.87619590188202" lon="9.807270890619499"><ele>869.0</ele><time>2026-04-05T15:36:31.999Z</time></trkpt><trkpt lat="45.876278133284394" lon="9.807542846583782"><ele>869.0</ele><time>2026-04-05T15:36:32.999Z</time></trkpt><trkpt lat="45.876272315474026" lon="9.807800108696133"><ele>869.0</ele><time>2026-04-05T15:36:33.999Z</time></trkpt><trkpt lat="45.876242253362676" lon="9.808068778578386"><ele>864.0</ele><time>2026-04-05T15:36:34.999Z</time></trkpt><trkpt lat="45.87620421438324" lon="9.808333110362648"><ele>859.0</ele><time>2026-04-05T15:36:35.999Z</time></trkpt><trkpt lat="45.8761425717774" lon="9.80852848624228"><ele>854.0</ele><time>2026-04-05T15:36:36.999Z</time></trkpt><trkpt lat="45.87609029389095" lon="9.808674432356076"><ele>856.1666666666667</ele><time>2026-04-05T15:36:37.999Z</time></trkpt><trkpt lat="45.87603244914811" lon="9.808787091480108"><ele>858.3333333333334</ele><time>2026-04-05T15:36:38.999Z</time></trkpt><trkpt lat="45.875964029319505" lon="9.80888192287177"><ele>860.5</ele><time>2026-04-05T15:36:39.999Z</time></trkpt><trkpt lat="45.87589468626996" lon="9.808941551468024"><ele>862.6666666666667</ele><time>2026-04-05T15:36:40.999Z</time></trkpt><trkpt lat="45.875818498485806" lon="9.808902902724576"><ele>864.8333333333334</ele><time>2026-04-05T15:36:41.999Z</time></trkpt><trkpt lat="45.87577621208831" lon="9.808828042188798"><ele>867.0</ele><time>2026-04-05T15:36:42.999Z</time></trkpt><trkpt lat="45.87572342767782" lon="9.808733725309546"><ele>867.0</ele><time>2026-04-05T15:36:43.999Z</time></trkpt><trkpt lat="45.87567783880603" lon="9.808592403397734"><ele>867.0</ele><time>2026-04-05T15:36:44.999Z</time></trkpt><trkpt lat="45.875615868751645" lon="9.808472973748952"><ele>867.0</ele><time>2026-04-05T15:36:45.999Z</time></trkpt><trkpt lat="45.87552853769674" lon="9.8084255963461"><ele>867.0</ele><time>2026-04-05T15:36:46.999Z</time></trkpt><trkpt lat="45.875435378264804" lon="9.808427330631934"><ele>867.0</ele><time>2026-04-05T15:36:47.999Z</time></trkpt><trkpt lat="45.87533802575734" lon="9.808410881699961"><ele>867.2</ele><time>2026-04-05T15:36:48.999Z</time></trkpt><trkpt lat="45.87525143641776" lon="9.808390709446801"><ele>867.4000000000001</ele><time>2026-04-05T15:36:49.999Z</time></trkpt><trkpt lat="45.87516070712672" lon="9.808287755911191"><ele>867.5999999999999</ele><time>2026-04-05T15:36:50.999Z</time></trkpt><trkpt lat="45.875075251286695" lon="9.808165691536903"><ele>867.8</ele><time>2026-04-05T15:36:51.999Z</time></trkpt><trkpt lat="45.875020700573394" lon="9.808032133532391"><ele>868.0</ele><time>2026-04-05T15:36:52.999Z</time></trkpt><trkpt lat="45.87498496994708" lon="9.807880235100052"><ele>868.0</ele><time>2026-04-05T15:36:53.999Z</time></trkpt><trkpt lat="45.87493664036992" lon="9.807734886162264"><ele>868.0</ele><time>2026-04-05T15:36:54.999Z</time></trkpt><trkpt lat="45.87484998689217" lon="9.807602403492714"><ele>868.0</ele><time>2026-04-05T15:36:55.999Z</time></trkpt><trkpt lat="45.8747320028118" lon="9.807519287576223"><ele>868.0</ele><time>2026-04-05T15:36:56.999Z</time></trkpt><trkpt lat="45.87462289786207" lon="9.807450996628507"><ele>868.5</ele><time>2026-04-05T15:36:57.999Z</time></trkpt><trkpt lat="45.87449352139431" lon="9.807465129708142"><ele>869.0</ele><time>2026-04-05T15:36:58.999Z</time></trkpt><trkpt lat="45.874366185349444" lon="9.807549877028164"><ele>869.5</ele><time>2026-04-05T15:36:59.999Z</time></trkpt><trkpt lat="45.87426343813882" lon="9.80767913098604"><ele>870.0</ele><time>2026-04-05T15:37:00.999Z</time></trkpt><trkpt lat="45.87419957027132" lon="9.807860932403454"><ele>870.0</ele><time>2026-04-05T15:37:01.999Z</time></trkpt><trkpt lat="45.874115984665536" lon="9.808051917339267"><ele>870.0</ele><time>2026-04-05T15:37:02.999Z</time></trkpt><trkpt lat="45.87403820245222" lon="9.808282915091732"><ele>870.0</ele><time>2026-04-05T15:37:03.999Z</time></trkpt><trkpt lat="45.87394731409779" lon="9.808531741662817"><ele>862.3333333333333</ele><time>2026-04-05T15:37:04.999Z</time></trkpt><trkpt lat="45.873850372607954" lon="9.808799361947733"><ele>854.6666666666666</ele><time>2026-04-05T15:37:05.999Z</time></trkpt><trkpt lat="45.87376483894103" lon="9.809075564199933"><ele>847.0</ele><time>2026-04-05T15:37:06.999Z</time></trkpt><trkpt lat="45.873694232624835" lon="9.809325789552819"><ele>841.0</ele><time>2026-04-05T15:37:07.999Z</time></trkpt><trkpt lat="45.87364039321872" lon="9.80956055327366"><ele>835.0</ele><time>2026-04-05T15:37:08.999Z</time></trkpt><trkpt lat="45.8735851117357" lon="9.80974832386746"><ele>829.0</ele><time>2026-04-05T15:37:09.999Z</time></trkpt><trkpt lat="45.87353769188255" lon="9.809899806192774"><ele>823.0</ele><time>2026-04-05T15:37:10.999Z</time></trkpt><trkpt lat="45.873497875204656" lon="9.80998764330511"><ele>823.0</ele><time>2026-04-05T15:37:11.999Z</time></trkpt><trkpt lat="45.87343911891879" lon="9.810040851690932"><ele>823.0</ele><time>2026-04-05T15:37:12.999Z</time></trkpt><trkpt lat="45.8733584729434" lon="9.810054042391867"><ele>823.0</ele><time>2026-04-05T15:37:13.999Z</time></trkpt><trkpt lat="45.87327448693009" lon="9.809976447605"><ele>823.0</ele><time>2026-04-05T15:37:14.999Z</time></trkpt><trkpt lat="45.87317888448453" lon="9.809887747629263"><ele>823.0</ele><time>2026-04-05T15:37:15.999Z</time></trkpt><trkpt lat="45.873070458551965" lon="9.809775820636506"><ele>827.0</ele><time>2026-04-05T15:37:16.999Z</time></trkpt><trkpt lat="45.8729339368737" lon="9.809700364208261"><ele>831.0</ele><time>2026-04-05T15:37:17.999Z</time></trkpt><trkpt lat="45.872804775158926" lon="9.8096536249041"><ele>835.0</ele><time>2026-04-05T15:37:18.999Z</time></trkpt><trkpt lat="45.872677466472844" lon="9.809586853000937"><ele>839.0</ele><time>2026-04-05T15:37:19.999Z</time></trkpt><trkpt lat="45.87255469742104" lon="9.809533907405601"><ele>839.0</ele><time>2026-04-05T15:37:20.999Z</time></trkpt><trkpt lat="45.87244602377743" lon="9.80948216264064"><ele>839.0</ele><time>2026-04-05T15:37:21.999Z</time></trkpt><trkpt lat="45.87235207879827" lon="9.809396856033246"><ele>839.0</ele><time>2026-04-05T15:37:22.998Z</time></trkpt><trkpt lat="45.8722550039684" lon="9.809357951963664"><ele>839.0</ele><time>2026-04-05T15:37:23.998Z</time></trkpt><trkpt lat="45.872155345663515" lon="9.809350063707452"><ele>839.0</ele><time>2026-04-05T15:37:24.998Z</time></trkpt><trkpt lat="45.872064166567846" lon="9.80946419672485"><ele>839.0</ele><time>2026-04-05T15:37:25.998Z</time></trkpt><trkpt lat="45.87200582631715" lon="9.80960289378925"><ele>839.0</ele><time>2026-04-05T15:37:26.998Z</time></trkpt><trkpt lat="45.87201258485764" lon="9.809752791392148"><ele>839.0</ele><time>2026-04-05T15:37:27.998Z</time></trkpt><trkpt lat="45.87205712838343" lon="9.809882492947894"><ele>839.0</ele><time>2026-04-05T15:37:28.998Z</time></trkpt><trkpt lat="45.87212841021138" lon="9.80995931935109"><ele>839.0</ele><time>2026-04-05T15:37:29.998Z</time></trkpt><trkpt lat="45.87222927208688" lon="9.809992081805808"><ele>839.0</ele><time>2026-04-05T15:37:30.998Z</time></trkpt><trkpt lat="45.87233269180298" lon="9.80997339506448"><ele>839.0</ele><time>2026-04-05T15:37:31.998Z</time></trkpt><trkpt lat="45.87242803807717" lon="9.809895035229145"><ele>839.0</ele><time>2026-04-05T15:37:32.998Z</time></trkpt><trkpt lat="45.872543282827564" lon="9.8098500343878"><ele>839.0</ele><time>2026-04-05T15:37:33.998Z</time></trkpt><trkpt lat="45.87264623895241" lon="9.809817492030174"><ele>839.0</ele><time>2026-04-05T15:37:34.998Z</time></trkpt><trkpt lat="45.87275400557208" lon="9.809798743929889"><ele>840.4000000000001</ele><time>2026-04-05T15:37:35.998Z</time></trkpt><trkpt lat="45.87285437271276" lon="9.80988004206303"><ele>841.8</ele><time>2026-04-05T15:37:36.998Z</time></trkpt><trkpt lat="45.87293940956032" lon="9.809965974309804"><ele>843.2</ele><time>2026-04-05T15:37:37.998Z</time></trkpt><trkpt lat="45.87301492964175" lon="9.810055216751065"><ele>844.5999999999999</ele><time>2026-04-05T15:37:38.998Z</time></trkpt><trkpt lat="45.87307945101044" lon="9.810162047099226"><ele>846.0</ele><time>2026-04-05T15:37:39.998Z</time></trkpt><trkpt lat="45.87311719508974" lon="9.810278400918907"><ele>840.8333333333334</ele><time>2026-04-05T15:37:40.998Z</time></trkpt><trkpt lat="45.8731746746504" lon="9.81037468805483"><ele>835.6666666666667</ele><time>2026-04-05T15:37:41.998Z</time></trkpt><trkpt lat="45.87324170340408" lon="9.810453648861662"><ele>830.5</ele><time>2026-04-05T15:37:42.998Z</time></trkpt><trkpt lat="45.87331913683087" lon="9.8104971746268"><ele>825.3333333333334</ele><time>2026-04-05T15:37:43.998Z</time></trkpt><trkpt lat="45.87340042646643" lon="9.810528850766262"><ele>820.1666666666667</ele><time>2026-04-05T15:37:44.999Z</time></trkpt><trkpt lat="45.873488639645906" lon="9.81052153919174"><ele>815.0</ele><time>2026-04-05T15:37:45.999Z</time></trkpt><trkpt lat="45.87358357034524" lon="9.810483909712815"><ele>816.3333333333334</ele><time>2026-04-05T15:37:46.999Z</time></trkpt><trkpt lat="45.87365958173464" lon="9.810399634013688"><ele>817.6666666666667</ele><time>2026-04-05T15:37:47.999Z</time></trkpt><trkpt lat="45.87372318629154" lon="9.810307370770232"><ele>819.0</ele><time>2026-04-05T15:37:48.999Z</time></trkpt><trkpt lat="45.87377863372079" lon="9.810213840073615"><ele>820.3333333333333</ele><time>2026-04-05T15:37:49.999Z</time></trkpt><trkpt lat="45.87383138957408" lon="9.810121336861421"><ele>821.6666666666666</ele><time>2026-04-05T15:37:50.999Z</time></trkpt><trkpt lat="45.87388260558075" lon="9.810024454278706"><ele>823.0</ele><time>2026-04-05T15:37:51.999Z</time></trkpt><trkpt lat="45.87392722330262" lon="9.809917495149794"><ele>823.0</ele><time>2026-04-05T15:37:52.999Z</time></trkpt><trkpt lat="45.873986917225146" lon="9.809820368452487"><ele>823.0</ele><time>2026-04-05T15:37:53.999Z</time></trkpt><trkpt lat="45.87402954842971" lon="9.809713491982594"><ele>823.0</ele><time>2026-04-05T15:37:54.999Z</time></trkpt><trkpt lat="45.87406983986789" lon="9.809600494166618"><ele>823.0</ele><time>2026-04-05T15:37:55.999Z</time></trkpt><trkpt lat="45.87412084706404" lon="9.809489628460017"><ele>823.0</ele><time>2026-04-05T15:37:56.999Z</time></trkpt><trkpt lat="45.87416758426224" lon="9.809371816567854"><ele>826.3333333333333</ele><time>2026-04-05T15:37:57.999Z</time></trkpt><trkpt lat="45.87421699659977" lon="9.809260151938272"><ele>829.6666666666666</ele><time>2026-04-05T15:37:58.999Z</time></trkpt><trkpt lat="45.874255614767215" lon="9.809155011899916"><ele>833.0</ele><time>2026-04-05T15:37:59.999Z</time></trkpt><trkpt lat="45.87429786236007" lon="9.809055051958353"><ele>836.3333333333333</ele><time>2026-04-05T15:38:00.999Z</time></trkpt><trkpt lat="45.87432769146758" lon="9.80896317164059"><ele>839.6666666666666</ele><time>2026-04-05T15:38:01.999Z</time></trkpt><trkpt lat="45.87436755001955" lon="9.808884319178718"><ele>843.0</ele><time>2026-04-05T15:38:02.999Z</time></trkpt><trkpt lat="45.87441113042413" lon="9.808807485321099"><ele>843.0</ele><time>2026-04-05T15:38:03.999Z</time></trkpt><trkpt lat="45.87447238156117" lon="9.808756565029276"><ele>843.0</ele><time>2026-04-05T15:38:04.999Z</time></trkpt><trkpt lat="45.87454509755078" lon="9.8087523032172"><ele>843.0</ele><time>2026-04-05T15:38:05.999Z</time></trkpt><trkpt lat="45.874610955868825" lon="9.808811071586064"><ele>843.0</ele><time>2026-04-05T15:38:06.999Z</time></trkpt><trkpt lat="45.874659767646264" lon="9.808919162220743"><ele>843.0</ele><time>2026-04-05T15:38:07.999Z</time></trkpt><trkpt lat="45.87467020855686" lon="9.809052631861775"><ele>843.0</ele><time>2026-04-05T15:38:08.999Z</time></trkpt><trkpt lat="45.87468879406784" lon="9.809183464801722"><ele>837.0</ele><time>2026-04-05T15:38:09.999Z</time></trkpt><trkpt lat="45.87471868533013" lon="9.809374136855231"><ele>831.0</ele><time>2026-04-05T15:38:10.999Z</time></trkpt><trkpt lat="45.87477832792504" lon="9.809589017876656"><ele>825.0</ele><time>2026-04-05T15:38:11.999Z</time></trkpt><trkpt lat="45.87479488889613" lon="9.809787436934062"><ele>819.0</ele><time>2026-04-05T15:38:12.999Z</time></trkpt><trkpt lat="45.87483738930093" lon="9.809938863629394"><ele>819.0</ele><time>2026-04-05T15:38:13.999Z</time></trkpt><trkpt lat="45.87486977071194" lon="9.810058759293787"><ele>819.0</ele><time>2026-04-05T15:38:14.999Z</time></trkpt><trkpt lat="45.874895531671804" lon="9.81016418040315"><ele>819.0</ele><time>2026-04-05T15:38:15.999Z</time></trkpt><trkpt lat="45.87491896757613" lon="9.810276940853743"><ele>819.0</ele><time>2026-04-05T15:38:16.999Z</time></trkpt><trkpt lat="45.87495373858246" lon="9.810370475620633"><ele>819.0</ele><time>2026-04-05T15:38:17.999Z</time></trkpt><trkpt lat="45.8749909368991" lon="9.810452325635627"><ele>819.0</ele><time>2026-04-05T15:38:18.999Z</time></trkpt><trkpt lat="45.87505238961532" lon="9.810533479268651"><ele>815.8000000000001</ele><time>2026-04-05T15:38:19.999Z</time></trkpt><trkpt lat="45.87513430097641" lon="9.810600997786533"><ele>812.6</ele><time>2026-04-05T15:38:20.999Z</time></trkpt><trkpt lat="45.87522098941004" lon="9.810688535782404"><ele>809.4</ele><time>2026-04-05T15:38:21.999Z</time></trkpt><trkpt lat="45.875313209364634" lon="9.810740903322635"><ele>806.2</ele><time>2026-04-05T15:38:22.999Z</time></trkpt><trkpt lat="45.87540430495672" lon="9.810771756765497"><ele>803.0</ele><time>2026-04-05T15:38:23.999Z</time></trkpt><trkpt lat="45.8754813571024" lon="9.810817236388376"><ele>803.0</ele><time>2026-04-05T15:38:24.999Z</time></trkpt><trkpt lat="45.87560571892693" lon="9.810894315514409"><ele>803.0</ele><time>2026-04-05T15:38:26.999Z</time></trkpt><trkpt lat="45.87569066258429" lon="9.810923648264572"><ele>803.0</ele><time>2026-04-05T15:38:27.999Z</time></trkpt><trkpt lat="45.87578970635253" lon="9.81093286039537"><ele>803.0</ele><time>2026-04-05T15:38:28.999Z</time></trkpt><trkpt lat="45.8758985282169" lon="9.810945369876745"><ele>803.0</ele><time>2026-04-05T15:38:29.999Z</time></trkpt><trkpt lat="45.87600203511527" lon="9.810899034675753"><ele>800.4</ele><time>2026-04-05T15:38:30.999Z</time></trkpt><trkpt lat="45.87609971350072" lon="9.810834376309101"><ele>797.8</ele><time>2026-04-05T15:38:31.999Z</time></trkpt><trkpt lat="45.876188402822834" lon="9.810772949351728"><ele>795.2</ele><time>2026-04-05T15:38:32.999Z</time></trkpt><trkpt lat="45.8762796848531" lon="9.810708628641741"><ele>792.6</ele><time>2026-04-05T15:38:33.999Z</time></trkpt><trkpt lat="45.87639497520411" lon="9.810634661738868"><ele>790.0</ele><time>2026-04-05T15:38:34.999Z</time></trkpt><trkpt lat="45.87654135739232" lon="9.810558784590265"><ele>790.0</ele><time>2026-04-05T15:38:35.999Z</time></trkpt><trkpt lat="45.87670060468375" lon="9.810485376710691"><ele>790.0</ele><time>2026-04-05T15:38:36.999Z</time></trkpt><trkpt lat="45.87687491998114" lon="9.810411130606832"><ele>790.0</ele><time>2026-04-05T15:38:37.999Z</time></trkpt><trkpt lat="45.87704490874177" lon="9.810337572810766"><ele>789.0</ele><time>2026-04-05T15:38:38.999Z</time></trkpt><trkpt lat="45.8772082854853" lon="9.810264065872666"><ele>788.0</ele><time>2026-04-05T15:38:39.999Z</time></trkpt><trkpt lat="45.877365268477156" lon="9.810218914969619"><ele>787.0</ele><time>2026-04-05T15:38:40.999Z</time></trkpt><trkpt lat="45.87752031597868" lon="9.810207276970917"><ele>787.3333333333333</ele><time>2026-04-05T15:38:41.999Z</time></trkpt><trkpt lat="45.8776811605516" lon="9.810220952750006"><ele>787.6666666666667</ele><time>2026-04-05T15:38:42.999Z</time></trkpt><trkpt lat="45.87785856952003" lon="9.81021589165724"><ele>788.0</ele><time>2026-04-05T15:38:43.999Z</time></trkpt><trkpt lat="45.877996309111694" lon="9.81020912099901"><ele>788.0</ele><time>2026-04-05T15:38:44.999Z</time></trkpt><trkpt lat="45.878101568700814" lon="9.810221515670953"><ele>788.0</ele><time>2026-04-05T15:38:45.999Z</time></trkpt><trkpt lat="45.878170361359366" lon="9.810258741444095"><ele>788.0</ele><time>2026-04-05T15:38:46.999Z</time></trkpt><trkpt lat="45.878240195482675" lon="9.81031597223309"><ele>788.0</ele><time>2026-04-05T15:38:47.999Z</time></trkpt><trkpt lat="45.8782647752671" lon="9.810441282177308"><ele>788.0</ele><time>2026-04-05T15:38:48.999Z</time></trkpt><trkpt lat="45.87826676854808" lon="9.810603056897916"><ele>788.0</ele><time>2026-04-05T15:38:49.999Z</time></trkpt><trkpt lat="45.878302136079405" lon="9.810800565069256"><ele>788.0</ele><time>2026-04-05T15:38:50.999Z</time></trkpt><trkpt lat="45.87836578838936" lon="9.810975668880408"><ele>788.0</ele><time>2026-04-05T15:38:51.999Z</time></trkpt><trkpt lat="45.878463799738874" lon="9.811082401059517"><ele>788.0</ele><time>2026-04-05T15:38:52.999Z</time></trkpt><trkpt lat="45.878608622667464" lon="9.81119004384325"><ele>781.6666666666667</ele><time>2026-04-05T15:38:53.999Z</time></trkpt><trkpt lat="45.878767633652224" lon="9.811243567234689"><ele>775.3333333333333</ele><time>2026-04-05T15:38:54.999Z</time></trkpt><trkpt lat="45.87891366147063" lon="9.811251042558427"><ele>769.0</ele><time>2026-04-05T15:38:55.999Z</time></trkpt><trkpt lat="45.879059345920496" lon="9.811212615975709"><ele>769.0</ele><time>2026-04-05T15:38:56.999Z</time></trkpt><trkpt lat="45.87919422343158" lon="9.81116678323374"><ele>769.0</ele><time>2026-04-05T15:38:57.999Z</time></trkpt><trkpt lat="45.87929507042339" lon="9.81112121485386"><ele>769.0</ele><time>2026-04-05T15:38:58.999Z</time></trkpt><trkpt lat="45.87940132090837" lon="9.81115429551381"><ele>769.0</ele><time>2026-04-05T15:38:59.999Z</time></trkpt><trkpt lat="45.87948730912309" lon="9.811173384954108"><ele>769.0</ele><time>2026-04-05T15:39:00.999Z</time></trkpt><trkpt lat="45.87955944095895" lon="9.811292425450512"><ele>772.2</ele><time>2026-04-05T15:39:01.999Z</time></trkpt><trkpt lat="45.87960241424487" lon="9.811459205804095"><ele>775.4000000000001</ele><time>2026-04-05T15:39:02.999Z</time></trkpt><trkpt lat="45.87964289604758" lon="9.811630518256427"><ele>778.6</ele><time>2026-04-05T15:39:03.999Z</time></trkpt><trkpt lat="45.87966599546947" lon="9.811757885321013"><ele>781.8</ele><time>2026-04-05T15:39:04.999Z</time></trkpt><trkpt lat="45.87964862562484" lon="9.811864068149154"><ele>785.0</ele><time>2026-04-05T15:39:05.999Z</time></trkpt><trkpt lat="45.87959498735058" lon="9.81194402684353"><ele>785.75</ele><time>2026-04-05T15:39:07Z</time></trkpt><trkpt lat="45.879493729540606" lon="9.812000052032024"><ele>786.5</ele><time>2026-04-05T15:39:08Z</time></trkpt><trkpt lat="45.87937345553881" lon="9.812075052125339"><ele>787.25</ele><time>2026-04-05T15:39:09Z</time></trkpt><trkpt lat="45.87922996527045" lon="9.81216252282678"><ele>788.0</ele><time>2026-04-05T15:39:10Z</time></trkpt><trkpt lat="45.87908503943946" lon="9.812251453955229"><ele>788.0</ele><time>2026-04-05T15:39:11Z</time></trkpt><trkpt lat="45.87892186701385" lon="9.812327385122236"><ele>788.0</ele><time>2026-04-05T15:39:12Z</time></trkpt><trkpt lat="45.87874287471513" lon="9.812406093471981"><ele>788.0</ele><time>2026-04-05T15:39:13Z</time></trkpt><trkpt lat="45.87858505400609" lon="9.812472712048637"><ele>788.0</ele><time>2026-04-05T15:39:14Z</time></trkpt><trkpt lat="45.87844761061446" lon="9.812560571334245"><ele>788.0</ele><time>2026-04-05T15:39:15Z</time></trkpt><trkpt lat="45.87833385357995" lon="9.812687068177935"><ele>788.0</ele><time>2026-04-05T15:39:16Z</time></trkpt><trkpt lat="45.87822364435454" lon="9.81285459128574"><ele>789.0</ele><time>2026-04-05T15:39:17Z</time></trkpt><trkpt lat="45.87811248252234" lon="9.812996473395089"><ele>790.0</ele><time>2026-04-05T15:39:18Z</time></trkpt><trkpt lat="45.8779855380449" lon="9.813096203489982"><ele>791.0</ele><time>2026-04-05T15:39:19Z</time></trkpt><trkpt lat="45.87785429545384" lon="9.813156147548005"><ele>792.0</ele><time>2026-04-05T15:39:20Z</time></trkpt><trkpt lat="45.87772028434897" lon="9.813148415772728"><ele>789.0</ele><time>2026-04-05T15:39:21Z</time></trkpt><trkpt lat="45.877575990392" lon="9.81312610222586"><ele>786.0</ele><time>2026-04-05T15:39:22Z</time></trkpt><trkpt lat="45.8774176050534" lon="9.813119325228694"><ele>783.0</ele><time>2026-04-05T15:39:23Z</time></trkpt><trkpt lat="45.87725077457169" lon="9.813123642656954"><ele>783.0</ele><time>2026-04-05T15:39:24Z</time></trkpt><trkpt lat="45.87709500680293" lon="9.813120354181729"><ele>783.0</ele><time>2026-04-05T15:39:25Z</time></trkpt><trkpt lat="45.87695617712184" lon="9.813103690406532"><ele>783.0</ele><time>2026-04-05T15:39:26Z</time></trkpt><trkpt lat="45.87681995778763" lon="9.813035763555266"><ele>783.0</ele><time>2026-04-05T15:39:27Z</time></trkpt><trkpt lat="45.87666741833396" lon="9.812919226113575"><ele>785.25</ele><time>2026-04-05T15:39:28Z</time></trkpt><trkpt lat="45.87652059838584" lon="9.81280518306507"><ele>787.5</ele><time>2026-04-05T15:39:28.998Z</time></trkpt><trkpt lat="45.87639828645247" lon="9.81273223753193"><ele>789.75</ele><time>2026-04-05T15:39:29.998Z</time></trkpt><trkpt lat="45.876274317919375" lon="9.812714889460153"><ele>792.0</ele><time>2026-04-05T15:39:30.998Z</time></trkpt><trkpt lat="45.87614094167389" lon="9.812756976357578"><ele>792.0</ele><time>2026-04-05T15:39:31.998Z</time></trkpt><trkpt lat="45.876011628126086" lon="9.81285354134223"><ele>792.0</ele><time>2026-04-05T15:39:32.998Z</time></trkpt><trkpt lat="45.87586997726312" lon="9.812980994374428"><ele>792.0</ele><time>2026-04-05T15:39:33.998Z</time></trkpt><trkpt lat="45.87571076822001" lon="9.813110063655422"><ele>794.3333333333333</ele><time>2026-04-05T15:39:34.998Z</time></trkpt><trkpt lat="45.87554470068669" lon="9.813268943279617"><ele>796.6666666666666</ele><time>2026-04-05T15:39:35.998Z</time></trkpt><trkpt lat="45.875399550405206" lon="9.813423922146178"><ele>799.0</ele><time>2026-04-05T15:39:36.998Z</time></trkpt><trkpt lat="45.87527335530173" lon="9.813569545248331"><ele>799.0</ele><time>2026-04-05T15:39:37.998Z</time></trkpt><trkpt lat="45.8751447763912" lon="9.8136613751404"><ele>799.0</ele><time>2026-04-05T15:39:38.998Z</time></trkpt><trkpt lat="45.87497795196227" lon="9.813712756816791"><ele>799.0</ele><time>2026-04-05T15:39:39.998Z</time></trkpt><trkpt lat="45.874791599175936" lon="9.813767422057017"><ele>793.6666666666666</ele><time>2026-04-05T15:39:40.998Z</time></trkpt><trkpt lat="45.87460049069667" lon="9.813829107084167"><ele>788.3333333333333</ele><time>2026-04-05T15:39:41.998Z</time></trkpt><trkpt lat="45.87439944957202" lon="9.81390271321521"><ele>783.0</ele><time>2026-04-05T15:39:42.998Z</time></trkpt><trkpt lat="45.87420799047412" lon="9.813967853841921"><ele>773.6666666666666</ele><time>2026-04-05T15:39:43.998Z</time></trkpt><trkpt lat="45.874041175666555" lon="9.814024344551216"><ele>764.3333333333333</ele><time>2026-04-05T15:39:44.998Z</time></trkpt><trkpt lat="45.87389179670227" lon="9.814102251236118"><ele>755.0</ele><time>2026-04-05T15:39:45.998Z</time></trkpt><trkpt lat="45.87375705411847" lon="9.814232247108757"><ele>762.0</ele><time>2026-04-05T15:39:46.998Z</time></trkpt><trkpt lat="45.87362360166001" lon="9.814392464390618"><ele>769.0</ele><time>2026-04-05T15:39:47.998Z</time></trkpt><trkpt lat="45.87348761577693" lon="9.814529249179325"><ele>776.0</ele><time>2026-04-05T15:39:48.999Z</time></trkpt><trkpt lat="45.87336992801604" lon="9.814645557724868"><ele>776.0</ele><time>2026-04-05T15:39:49.999Z</time></trkpt><trkpt lat="45.87324480852045" lon="9.814748223569795"><ele>776.0</ele><time>2026-04-05T15:39:50.999Z</time></trkpt><trkpt lat="45.87309544356793" lon="9.814793899514628"><ele>776.0</ele><time>2026-04-05T15:39:51.999Z</time></trkpt><trkpt lat="45.872975607512636" lon="9.814828805736783"><ele>776.0</ele><time>2026-04-05T15:39:52.999Z</time></trkpt><trkpt lat="45.87287763619183" lon="9.814828084161752"><ele>776.0</ele><time>2026-04-05T15:39:53.999Z</time></trkpt><trkpt lat="45.87278975369936" lon="9.81476739534409"><ele>776.0</ele><time>2026-04-05T15:39:54.999Z</time></trkpt><trkpt lat="45.87270712417019" lon="9.814676711456762"><ele>776.0</ele><time>2026-04-05T15:39:55.999Z</time></trkpt><trkpt lat="45.872623836714766" lon="9.8146339811378"><ele>776.0</ele><time>2026-04-05T15:39:56.999Z</time></trkpt><trkpt lat="45.87253599895278" lon="9.814658062273493"><ele>776.0</ele><time>2026-04-05T15:39:57.999Z</time></trkpt><trkpt lat="45.872470216353605" lon="9.814757314649132"><ele>769.75</ele><time>2026-04-05T15:39:58.999Z</time></trkpt><trkpt lat="45.872444778683764" lon="9.814896104613604"><ele>763.5</ele><time>2026-04-05T15:39:59.999Z</time></trkpt><trkpt lat="45.8724632162773" lon="9.815053301251062"><ele>757.25</ele><time>2026-04-05T15:40:00.999Z</time></trkpt><trkpt lat="45.872501587966376" lon="9.815239507747986"><ele>751.0</ele><time>2026-04-05T15:40:01.999Z</time></trkpt><trkpt lat="45.872538030847075" lon="9.815440158050233"><ele>751.0</ele><time>2026-04-05T15:40:02.999Z</time></trkpt><trkpt lat="45.87256523431883" lon="9.815620841266547"><ele>751.0</ele><time>2026-04-05T15:40:03.999Z</time></trkpt><trkpt lat="45.872579619015454" lon="9.815755128136328"><ele>751.0</ele><time>2026-04-05T15:40:04.999Z</time></trkpt><trkpt lat="45.87255147251313" lon="9.815864750510844"><ele>751.0</ele><time>2026-04-05T15:40:05.999Z</time></trkpt><trkpt lat="45.872474320968074" lon="9.815936458097822"><ele>751.0</ele><time>2026-04-05T15:40:06.999Z</time></trkpt><trkpt lat="45.87238435353236" lon="9.815998857361743"><ele>752.25</ele><time>2026-04-05T15:40:07.999Z</time></trkpt><trkpt lat="45.8722795265216" lon="9.816069522742035"><ele>753.5</ele><time>2026-04-05T15:40:08.999Z</time></trkpt><trkpt lat="45.872187655073546" lon="9.816161624077367"><ele>754.75</ele><time>2026-04-05T15:40:09.999Z</time></trkpt><trkpt lat="45.872122534515924" lon="9.81629154591597"><ele>756.0</ele><time>2026-04-05T15:40:10.999Z</time></trkpt><trkpt lat="45.87208028979815" lon="9.81645951898562"><ele>756.0</ele><time>2026-04-05T15:40:11.999Z</time></trkpt><trkpt lat="45.872044361546806" lon="9.816657318034455"><ele>756.0</ele><time>2026-04-05T15:40:12.999Z</time></trkpt><trkpt lat="45.872003776324995" lon="9.81681936016386"><ele>756.0</ele><time>2026-04-05T15:40:13.999Z</time></trkpt><trkpt lat="45.87193240948877" lon="9.816947164497336"><ele>756.0</ele><time>2026-04-05T15:40:14.999Z</time></trkpt><trkpt lat="45.871860962877236" lon="9.817125918808411"><ele>759.25</ele><time>2026-04-05T15:40:15.999Z</time></trkpt><trkpt lat="45.87178923374071" lon="9.81728724381808"><ele>762.5</ele><time>2026-04-05T15:40:16.999Z</time></trkpt><trkpt lat="45.871736146406555" lon="9.817455159913292"><ele>765.75</ele><time>2026-04-05T15:40:17.999Z</time></trkpt><trkpt lat="45.871702221743334" lon="9.817621739476632"><ele>769.0</ele><time>2026-04-05T15:40:18.999Z</time></trkpt><trkpt lat="45.871611550394285" lon="9.817754600536198"><ele>762.25</ele><time>2026-04-05T15:40:19.999Z</time></trkpt><trkpt lat="45.87156933321865" lon="9.817909913929727"><ele>755.5</ele><time>2026-04-05T15:40:20.999Z</time></trkpt><trkpt lat="45.87152526095667" lon="9.818054626776629"><ele>748.75</ele><time>2026-04-05T15:40:21.999Z</time></trkpt><trkpt lat="45.87151304045284" lon="9.818229268522948"><ele>742.0</ele><time>2026-04-05T15:40:22.999Z</time></trkpt><trkpt lat="45.871466239129425" lon="9.818374453887436"><ele>742.0</ele><time>2026-04-05T15:40:23.999Z</time></trkpt><trkpt lat="45.87139024005393" lon="9.818504837768126"><ele>742.0</ele><time>2026-04-05T15:40:24.999Z</time></trkpt><trkpt lat="45.87131684280275" lon="9.818631860271683"><ele>742.0</ele><time>2026-04-05T15:40:25.999Z</time></trkpt><trkpt lat="45.871211013508336" lon="9.818731940611967"><ele>742.0</ele><time>2026-04-05T15:40:26.999Z</time></trkpt><trkpt lat="45.8711560498546" lon="9.818869599726545"><ele>742.0</ele><time>2026-04-05T15:40:27.999Z</time></trkpt><trkpt lat="45.87111922583734" lon="9.81899657443324"><ele>742.0</ele><time>2026-04-05T15:40:29Z</time></trkpt><trkpt lat="45.871114257570284" lon="9.819141913633763"><ele>742.0</ele><time>2026-04-05T15:40:30Z</time></trkpt><trkpt lat="45.87114320387954" lon="9.819301014775457"><ele>742.0</ele><time>2026-04-05T15:40:31Z</time></trkpt><trkpt lat="45.87119861759487" lon="9.819477951362375"><ele>742.0</ele><time>2026-04-05T15:40:32Z</time></trkpt><trkpt lat="45.87125154255138" lon="9.81964345148655"><ele>742.4000000000001</ele><time>2026-04-05T15:40:33Z</time></trkpt><trkpt lat="45.871288966338035" lon="9.819770463852992"><ele>742.8000000000001</ele><time>2026-04-05T15:40:34Z</time></trkpt><trkpt lat="45.871303713367936" lon="9.819870661362527"><ele>743.2</ele><time>2026-04-05T15:40:35Z</time></trkpt><trkpt lat="45.8713033322113" lon="9.819962116703953"><ele>743.6</ele><time>2026-04-05T15:40:36Z</time></trkpt><trkpt lat="45.87118740640449" lon="9.820104578914354"><ele>744.0</ele><time>2026-04-05T15:40:38Z</time></trkpt><trkpt lat="45.87107270402071" lon="9.820159919748422"><ele>746.0</ele><time>2026-04-05T15:40:39Z</time></trkpt><trkpt lat="45.87095723836432" lon="9.820246209665576"><ele>748.0</ele><time>2026-04-05T15:40:40Z</time></trkpt><trkpt lat="45.870847848123034" lon="9.82035981302655"><ele>750.0</ele><time>2026-04-05T15:40:41Z</time></trkpt><trkpt lat="45.87075623445306" lon="9.820537879151907"><ele>752.0</ele><time>2026-04-05T15:40:42Z</time></trkpt><trkpt lat="45.8706810590607" lon="9.820739705124048"><ele>747.25</ele><time>2026-04-05T15:40:43Z</time></trkpt><trkpt lat="45.870606296793405" lon="9.820900877495928"><ele>742.5</ele><time>2026-04-05T15:40:44Z</time></trkpt><trkpt lat="45.87050838470213" lon="9.821008529999006"><ele>737.75</ele><time>2026-04-05T15:40:45Z</time></trkpt><trkpt lat="45.870404442585865" lon="9.821124775646673"><ele>733.0</ele><time>2026-04-05T15:40:46Z</time></trkpt><trkpt lat="45.870329427532624" lon="9.821248292772873"><ele>733.0</ele><time>2026-04-05T15:40:47Z</time></trkpt><trkpt lat="45.870299578197454" lon="9.821416301883172"><ele>733.0</ele><time>2026-04-05T15:40:48Z</time></trkpt><trkpt lat="45.87026424405337" lon="9.821556947706648"><ele>733.0</ele><time>2026-04-05T15:40:49Z</time></trkpt><trkpt lat="45.8702233482361" lon="9.821658452119"><ele>733.0</ele><time>2026-04-05T15:40:50Z</time></trkpt><trkpt lat="45.87015708238687" lon="9.821690256533058"><ele>733.0</ele><time>2026-04-05T15:40:51Z</time></trkpt><trkpt lat="45.87006722236929" lon="9.821744584473024"><ele>727.8</ele><time>2026-04-05T15:40:52Z</time></trkpt><trkpt lat="45.86998360374295" lon="9.82181209789915"><ele>722.5999999999999</ele><time>2026-04-05T15:40:53Z</time></trkpt><trkpt lat="45.86991388617149" lon="9.82190538498604"><ele>717.4000000000001</ele><time>2026-04-05T15:40:54Z</time></trkpt><trkpt lat="45.869892937837" lon="9.822053837287301"><ele>712.2</ele><time>2026-04-05T15:40:55Z</time></trkpt><trkpt lat="45.86991778925793" lon="9.822205805751114"><ele>707.0</ele><time>2026-04-05T15:40:56Z</time></trkpt><trkpt lat="45.86998761920765" lon="9.822361941292733"><ele>707.0</ele><time>2026-04-05T15:40:57Z</time></trkpt><trkpt lat="45.870041748869156" lon="9.822504741979664"><ele>707.0</ele><time>2026-04-05T15:40:58Z</time></trkpt><trkpt lat="45.870076975409916" lon="9.822642728957485"><ele>707.0</ele><time>2026-04-05T15:40:59Z</time></trkpt><trkpt lat="45.87008335245218" lon="9.822751452258847"><ele>707.0</ele><time>2026-04-05T15:41:00Z</time></trkpt><trkpt lat="45.870016322466384" lon="9.822865240954048"><ele>707.0</ele><time>2026-04-05T15:41:02Z</time></trkpt><trkpt lat="45.869913580925264" lon="9.822862120506034"><ele>712.5</ele><time>2026-04-05T15:41:03Z</time></trkpt><trkpt lat="45.86980325590373" lon="9.822913719648485"><ele>718.0</ele><time>2026-04-05T15:41:04Z</time></trkpt><trkpt lat="45.86967450582665" lon="9.822872446737575"><ele>723.5</ele><time>2026-04-05T15:41:05Z</time></trkpt><trkpt lat="45.86950591082275" lon="9.822839231097166"><ele>729.0</ele><time>2026-04-05T15:41:06Z</time></trkpt><trkpt lat="45.86932328046408" lon="9.822808001785006"><ele>726.0</ele><time>2026-04-05T15:41:07Z</time></trkpt><trkpt lat="45.86916294142614" lon="9.822745511629678"><ele>723.0</ele><time>2026-04-05T15:41:08Z</time></trkpt><trkpt lat="45.86903998878923" lon="9.822712521246954"><ele>720.0</ele><time>2026-04-05T15:41:09Z</time></trkpt><trkpt lat="45.86891286487642" lon="9.82272033650845"><ele>717.0</ele><time>2026-04-05T15:41:10Z</time></trkpt><trkpt lat="45.86879411844715" lon="9.822785330830376"><ele>717.0</ele><time>2026-04-05T15:41:11Z</time></trkpt><trkpt lat="45.86869190261487" lon="9.822899111127468"><ele>717.0</ele><time>2026-04-05T15:41:12Z</time></trkpt><trkpt lat="45.86858852413492" lon="9.823039966172626"><ele>717.0</ele><time>2026-04-05T15:41:13Z</time></trkpt><trkpt lat="45.86849269759096" lon="9.823238984826023"><ele>717.0</ele><time>2026-04-05T15:41:14Z</time></trkpt><trkpt lat="45.86838057499269" lon="9.823438313972776"><ele>712.2</ele><time>2026-04-05T15:41:15Z</time></trkpt><trkpt lat="45.868292490317465" lon="9.823600667254158"><ele>707.4000000000001</ele><time>2026-04-05T15:41:16Z</time></trkpt><trkpt lat="45.86821885005869" lon="9.82374797859566"><ele>702.5999999999999</ele><time>2026-04-05T15:41:17Z</time></trkpt><trkpt lat="45.86816793622982" lon="9.823866888958921"><ele>697.8</ele><time>2026-04-05T15:41:18Z</time></trkpt><trkpt lat="45.86814312319389" lon="9.823975232378299"><ele>693.0</ele><time>2026-04-05T15:41:19Z</time></trkpt><trkpt lat="45.86815287567419" lon="9.824094517421415"><ele>693.0</ele><time>2026-04-05T15:41:20Z</time></trkpt><trkpt lat="45.86817047468192" lon="9.824238235389663"><ele>693.0</ele><time>2026-04-05T15:41:21Z</time></trkpt><trkpt lat="45.868193170979985" lon="9.824427174752676"><ele>693.0</ele><time>2026-04-05T15:41:22Z</time></trkpt><trkpt lat="45.86822269750485" lon="9.824652747409143"><ele>693.0</ele><time>2026-04-05T15:41:23Z</time></trkpt><trkpt lat="45.86826091855211" lon="9.82486396428658"><ele>692.6666666666666</ele><time>2026-04-05T15:41:24Z</time></trkpt><trkpt lat="45.86830022500192" lon="9.825065425085704"><ele>692.3333333333333</ele><time>2026-04-05T15:41:25Z</time></trkpt><trkpt lat="45.868336636838485" lon="9.825282598329004"><ele>692.0</ele><time>2026-04-05T15:41:26Z</time></trkpt><trkpt lat="45.86834739845915" lon="9.825504743739506"><ele>693.3333333333333</ele><time>2026-04-05T15:41:27Z</time></trkpt><trkpt lat="45.86833113012201" lon="9.82572876471493"><ele>694.6666666666666</ele><time>2026-04-05T15:41:28Z</time></trkpt><trkpt lat="45.86830979301897" lon="9.825957457381326"><ele>696.0</ele><time>2026-04-05T15:41:29Z</time></trkpt><trkpt lat="45.86828939421935" lon="9.826179678505495"><ele>697.6666666666666</ele><time>2026-04-05T15:41:30Z</time></trkpt><trkpt lat="45.86826032833809" lon="9.826382076609953"><ele>699.3333333333333</ele><time>2026-04-05T15:41:31Z</time></trkpt><trkpt lat="45.86821695007322" lon="9.826587276490315"><ele>701.0</ele><time>2026-04-05T15:41:32Z</time></trkpt><trkpt lat="45.868153269592455" lon="9.826799105290181"><ele>704.3333333333333</ele><time>2026-04-05T15:41:33Z</time></trkpt><trkpt lat="45.86808289856761" lon="9.827019373110252"><ele>707.6666666666666</ele><time>2026-04-05T15:41:34Z</time></trkpt><trkpt lat="45.86802184880793" lon="9.827225907837292"><ele>711.0</ele><time>2026-04-05T15:41:34.998Z</time></trkpt><trkpt lat="45.86797167272526" lon="9.827416191310963"><ele>711.0</ele><time>2026-04-05T15:41:35.998Z</time></trkpt><trkpt lat="45.86794106828255" lon="9.827618831218803"><ele>711.0</ele><time>2026-04-05T15:41:36.998Z</time></trkpt><trkpt lat="45.86793765905089" lon="9.827820130796146"><ele>711.0</ele><time>2026-04-05T15:41:37.998Z</time></trkpt><trkpt lat="45.867930023510596" lon="9.827992045321535"><ele>711.0</ele><time>2026-04-05T15:41:38.998Z</time></trkpt><trkpt lat="45.86790092549061" lon="9.828164473701555"><ele>714.3333333333334</ele><time>2026-04-05T15:41:39.998Z</time></trkpt><trkpt lat="45.867849084026965" lon="9.828355854280161"><ele>717.6666666666667</ele><time>2026-04-05T15:41:40.998Z</time></trkpt><trkpt lat="45.86778442413318" lon="9.828565155891331"><ele>721.0</ele><time>2026-04-05T15:41:41.998Z</time></trkpt><trkpt lat="45.86771336153774" lon="9.828781206052819"><ele>724.6666666666667</ele><time>2026-04-05T15:41:42.998Z</time></trkpt><trkpt lat="45.86766170670262" lon="9.829009039654114"><ele>728.3333333333334</ele><time>2026-04-05T15:41:43.998Z</time></trkpt><trkpt lat="45.86758843753059" lon="9.829210922876399"><ele>732.0</ele><time>2026-04-05T15:41:44.998Z</time></trkpt><trkpt lat="45.86751829157715" lon="9.829396831709849"><ele>723.75</ele><time>2026-04-05T15:41:45.999Z</time></trkpt><trkpt lat="45.867438929891" lon="9.829593935212923"><ele>715.5</ele><time>2026-04-05T15:41:46.999Z</time></trkpt><trkpt lat="45.86736644661077" lon="9.829771388687638"><ele>707.25</ele><time>2026-04-05T15:41:47.999Z</time></trkpt><trkpt lat="45.86729490237324" lon="9.829943628193467"><ele>699.0</ele><time>2026-04-05T15:41:48.999Z</time></trkpt><trkpt lat="45.86722694144221" lon="9.830105723294118"><ele>700.0</ele><time>2026-04-05T15:41:49.999Z</time></trkpt><trkpt lat="45.86715884585211" lon="9.830259944841231"><ele>701.0</ele><time>2026-04-05T15:41:50.999Z</time></trkpt><trkpt lat="45.867084299214845" lon="9.8304112309526"><ele>702.0</ele><time>2026-04-05T15:41:51.999Z</time></trkpt><trkpt lat="45.86702607903443" lon="9.830555536618427"><ele>703.0</ele><time>2026-04-05T15:41:52.999Z</time></trkpt><trkpt lat="45.86700342434695" lon="9.830719811347226"><ele>703.0</ele><time>2026-04-05T15:41:53.999Z</time></trkpt><trkpt lat="45.86699326276677" lon="9.830874760644566"><ele>703.0</ele><time>2026-04-05T15:41:54.999Z</time></trkpt><trkpt lat="45.86701459093501" lon="9.831030270508533"><ele>703.0</ele><time>2026-04-05T15:41:55.999Z</time></trkpt><trkpt lat="45.86705824212022" lon="9.831185774278325"><ele>703.0</ele><time>2026-04-05T15:41:56.999Z</time></trkpt><trkpt lat="45.8671137275243" lon="9.831336420423835"><ele>703.0</ele><time>2026-04-05T15:41:57.999Z</time></trkpt><trkpt lat="45.86713996768534" lon="9.831488985539446"><ele>703.0</ele><time>2026-04-05T15:41:58.999Z</time></trkpt><trkpt lat="45.867183452366284" lon="9.831614837393424"><ele>703.0</ele><time>2026-04-05T15:41:59.999Z</time></trkpt><trkpt lat="45.867195061223946" lon="9.831746936074532"><ele>703.0</ele><time>2026-04-05T15:42:00.999Z</time></trkpt><trkpt lat="45.867195355884036" lon="9.831863400479449"><ele>703.0</ele><time>2026-04-05T15:42:01.999Z</time></trkpt><trkpt lat="45.86714134826508" lon="9.831954502474716"><ele>702.4</ele><time>2026-04-05T15:42:02.999Z</time></trkpt><trkpt lat="45.867082311955386" lon="9.832031912706283"><ele>701.8</ele><time>2026-04-05T15:42:03.999Z</time></trkpt><trkpt lat="45.867002271882626" lon="9.832043822502252"><ele>701.2</ele><time>2026-04-05T15:42:04.999Z</time></trkpt><trkpt lat="45.86691160261494" lon="9.83207831243236"><ele>700.6</ele><time>2026-04-05T15:42:05.999Z</time></trkpt><trkpt lat="45.866800536797655" lon="9.8320619602338"><ele>700.0</ele><time>2026-04-05T15:42:06.999Z</time></trkpt><trkpt lat="45.86667988046256" lon="9.832031979129049"><ele>700.0</ele><time>2026-04-05T15:42:08Z</time></trkpt><trkpt lat="45.866558924513896" lon="9.831988364104749"><ele>700.0</ele><time>2026-04-05T15:42:09Z</time></trkpt><trkpt lat="45.86645709557999" lon="9.831947542728766"><ele>700.0</ele><time>2026-04-05T15:42:10Z</time></trkpt><trkpt lat="45.866374510103604" lon="9.831916051661771"><ele>700.0</ele><time>2026-04-05T15:42:11Z</time></trkpt><trkpt lat="45.866295136104135" lon="9.831909207556873"><ele>700.0</ele><time>2026-04-05T15:42:12Z</time></trkpt><trkpt lat="45.86622039668397" lon="9.831930210815576"><ele>700.0</ele><time>2026-04-05T15:42:13Z</time></trkpt><trkpt lat="45.86615844010019" lon="9.831987753199462"><ele>700.0</ele><time>2026-04-05T15:42:14Z</time></trkpt><trkpt lat="45.86612182466455" lon="9.832083662612778"><ele>700.0</ele><time>2026-04-05T15:42:15Z</time></trkpt><trkpt lat="45.866091771965486" lon="9.832208306264343"><ele>700.0</ele><time>2026-04-05T15:42:16Z</time></trkpt><trkpt lat="45.866052664417545" lon="9.832354124566855"><ele>700.0</ele><time>2026-04-05T15:42:17Z</time></trkpt><trkpt lat="45.8660107763999" lon="9.832494156111506"><ele>697.8</ele><time>2026-04-05T15:42:18Z</time></trkpt><trkpt lat="45.865932778222216" lon="9.83260114304827"><ele>695.6</ele><time>2026-04-05T15:42:19Z</time></trkpt><trkpt lat="45.86586616638593" lon="9.83272834650787"><ele>693.4000000000001</ele><time>2026-04-05T15:42:20Z</time></trkpt><trkpt lat="45.865786389711474" lon="9.832831201675923"><ele>691.2</ele><time>2026-04-05T15:42:21Z</time></trkpt><trkpt lat="45.86570004748666" lon="9.832926875792904"><ele>689.0</ele><time>2026-04-05T15:42:22Z</time></trkpt><trkpt lat="45.86562323812817" lon="9.833033373927277"><ele>689.0</ele><time>2026-04-05T15:42:23Z</time></trkpt><trkpt lat="45.865546859854575" lon="9.83316631919164"><ele>689.0</ele><time>2026-04-05T15:42:24Z</time></trkpt><trkpt lat="45.86548381813542" lon="9.833328982464153"><ele>689.0</ele><time>2026-04-05T15:42:25Z</time></trkpt><trkpt lat="45.86543000935637" lon="9.833474512521983"><ele>689.0</ele><time>2026-04-05T15:42:26Z</time></trkpt><trkpt lat="45.8653779120076" lon="9.833611717955096"><ele>691.8000000000001</ele><time>2026-04-05T15:42:27Z</time></trkpt><trkpt lat="45.86531779219377" lon="9.83374967957586"><ele>694.6</ele><time>2026-04-05T15:42:28Z</time></trkpt><trkpt lat="45.86526383255411" lon="9.833876581496009"><ele>697.4</ele><time>2026-04-05T15:42:29Z</time></trkpt><trkpt lat="45.86523141265731" lon="9.834008679227507"><ele>700.2</ele><time>2026-04-05T15:42:30Z</time></trkpt><trkpt lat="45.865201026055644" lon="9.834132638233362"><ele>703.0</ele><time>2026-04-05T15:42:31Z</time></trkpt><trkpt lat="45.865185209736026" lon="9.834247463752073"><ele>702.8</ele><time>2026-04-05T15:42:32Z</time></trkpt><trkpt lat="45.86516436583249" lon="9.834334694668359"><ele>702.5999999999999</ele><time>2026-04-05T15:42:33Z</time></trkpt><trkpt lat="45.865064637113896" lon="9.834443757198782"><ele>702.4000000000001</ele><time>2026-04-05T15:42:35Z</time></trkpt><trkpt lat="45.864977324350896" lon="9.834401005555486"><ele>702.2</ele><time>2026-04-05T15:42:36Z</time></trkpt><trkpt lat="45.86488873453402" lon="9.834376712602088"><ele>702.0</ele><time>2026-04-05T15:42:37Z</time></trkpt><trkpt lat="45.86479055428258" lon="9.834349931071538"><ele>702.0</ele><time>2026-04-05T15:42:38Z</time></trkpt><trkpt lat="45.864678886320334" lon="9.834353253348274"><ele>702.0</ele><time>2026-04-05T15:42:39Z</time></trkpt><trkpt lat="45.86456566077248" lon="9.834331370196985"><ele>702.0</ele><time>2026-04-05T15:42:40Z</time></trkpt><trkpt lat="45.86446810361787" lon="9.834342200707109"><ele>702.0</ele><time>2026-04-05T15:42:41Z</time></trkpt><trkpt lat="45.86437751129378" lon="9.834404186955295"><ele>702.0</ele><time>2026-04-05T15:42:42Z</time></trkpt><trkpt lat="45.86429338683132" lon="9.834482150838632"><ele>692.0</ele><time>2026-04-05T15:42:43Z</time></trkpt><trkpt lat="45.864216311625654" lon="9.834611993783993"><ele>682.0</ele><time>2026-04-05T15:42:44Z</time></trkpt><trkpt lat="45.86413428852947" lon="9.83477290081094"><ele>672.0</ele><time>2026-04-05T15:42:45Z</time></trkpt><trkpt lat="45.86405366642566" lon="9.834930346954483"><ele>662.0</ele><time>2026-04-05T15:42:46Z</time></trkpt><trkpt lat="45.86398046106412" lon="9.835068871978512"><ele>665.0</ele><time>2026-04-05T15:42:47Z</time></trkpt><trkpt lat="45.863905525395715" lon="9.835187518806519"><ele>668.0</ele><time>2026-04-05T15:42:48Z</time></trkpt><trkpt lat="45.863828024905324" lon="9.835257426053758"><ele>671.0</ele><time>2026-04-05T15:42:49Z</time></trkpt><trkpt lat="45.86374622109032" lon="9.835282259334909"><ele>674.0</ele><time>2026-04-05T15:42:50Z</time></trkpt><trkpt lat="45.86366142656671" lon="9.835312181477553"><ele>677.0</ele><time>2026-04-05T15:42:51Z</time></trkpt><trkpt lat="45.86358377679754" lon="9.835332845307102"><ele>677.0</ele><time>2026-04-05T15:42:52Z</time></trkpt><trkpt lat="45.863501479089216" lon="9.835385967682535"><ele>677.0</ele><time>2026-04-05T15:42:53Z</time></trkpt><trkpt lat="45.86343190186086" lon="9.835498507080118"><ele>677.0</ele><time>2026-04-05T15:42:54Z</time></trkpt><trkpt lat="45.86339707590953" lon="9.83565955621521"><ele>677.0</ele><time>2026-04-05T15:42:55Z</time></trkpt><trkpt lat="45.86333452174207" lon="9.83581011218821"><ele>677.0</ele><time>2026-04-05T15:42:56Z</time></trkpt><trkpt lat="45.86328539156747" lon="9.835966193399756"><ele>669.5</ele><time>2026-04-05T15:42:57Z</time></trkpt><trkpt lat="45.863240525763516" lon="9.836130273276495"><ele>662.0</ele><time>2026-04-05T15:42:58.001Z</time></trkpt><trkpt lat="45.86320184546648" lon="9.836290260526477"><ele>654.5</ele><time>2026-04-05T15:42:59.001Z</time></trkpt><trkpt lat="45.86318010835617" lon="9.836449611311567"><ele>647.0</ele><time>2026-04-05T15:43:00.001Z</time></trkpt><trkpt lat="45.863185502301285" lon="9.836622951192002"><ele>647.5</ele><time>2026-04-05T15:43:01.001Z</time></trkpt><trkpt lat="45.86320192488018" lon="9.836820988635523"><ele>648.0</ele><time>2026-04-05T15:43:02.001Z</time></trkpt><trkpt lat="45.86322097727288" lon="9.837025665677082"><ele>648.5</ele><time>2026-04-05T15:43:03.001Z</time></trkpt><trkpt lat="45.863242890786765" lon="9.837217134004833"><ele>649.0</ele><time>2026-04-05T15:43:04.001Z</time></trkpt><trkpt lat="45.86326915939822" lon="9.837392182246795"><ele>649.0</ele><time>2026-04-05T15:43:05.001Z</time></trkpt><trkpt lat="45.86330064602797" lon="9.837557166739082"><ele>649.0</ele><time>2026-04-05T15:43:06.001Z</time></trkpt><trkpt lat="45.86332878440169" lon="9.837709728986615"><ele>649.0</ele><time>2026-04-05T15:43:07.001Z</time></trkpt><trkpt lat="45.863348399979394" lon="9.837820650685755"><ele>649.0</ele><time>2026-04-05T15:43:08.001Z</time></trkpt><trkpt lat="45.86333777657356" lon="9.837963361076284"><ele>649.0</ele><time>2026-04-05T15:43:10.001Z</time></trkpt><trkpt lat="45.863214741997595" lon="9.837960468532707"><ele>649.0</ele><time>2026-04-05T15:43:12.001Z</time></trkpt><trkpt lat="45.86315604174027" lon="9.837911034575942"><ele>649.0</ele><time>2026-04-05T15:43:13.001Z</time></trkpt><trkpt lat="45.86309269231535" lon="9.837840453878817"><ele>649.0</ele><time>2026-04-05T15:43:14.001Z</time></trkpt><trkpt lat="45.86302086205821" lon="9.837771972484836"><ele>649.0</ele><time>2026-04-05T15:43:15.001Z</time></trkpt><trkpt lat="45.8629370274315" lon="9.837704237376629"><ele>649.0</ele><time>2026-04-05T15:43:16.001Z</time></trkpt><trkpt lat="45.86284795712285" lon="9.837642259495434"><ele>649.0</ele><time>2026-04-05T15:43:17.001Z</time></trkpt><trkpt lat="45.86275835064947" lon="9.837587237866655"><ele>649.0</ele><time>2026-04-05T15:43:18.001Z</time></trkpt><trkpt lat="45.86266902100399" lon="9.83755057604631"><ele>649.0</ele><time>2026-04-05T15:43:19.001Z</time></trkpt><trkpt lat="45.862580873790556" lon="9.837534551803328"><ele>649.0</ele><time>2026-04-05T15:43:20.001Z</time></trkpt><trkpt lat="45.86249127482994" lon="9.837597240128046"><ele>649.0</ele><time>2026-04-05T15:43:21.001Z</time></trkpt><trkpt lat="45.86241170579539" lon="9.83771594651402"><ele>649.0</ele><time>2026-04-05T15:43:22.001Z</time></trkpt><trkpt lat="45.86231599975252" lon="9.8377976609022"><ele>649.5</ele><time>2026-04-05T15:43:23.001Z</time></trkpt><trkpt lat="45.862214255830075" lon="9.837897258556007"><ele>650.0</ele><time>2026-04-05T15:43:24.001Z</time></trkpt><trkpt lat="45.86209393435863" lon="9.837963298748884"><ele>650.5</ele><time>2026-04-05T15:43:25.001Z</time></trkpt><trkpt lat="45.86198828732767" lon="9.838015524776832"><ele>651.0</ele><time>2026-04-05T15:43:26.001Z</time></trkpt><trkpt lat="45.86189664326726" lon="9.838063568324444"><ele>651.0</ele><time>2026-04-05T15:43:27.001Z</time></trkpt><trkpt lat="45.86182938774431" lon="9.83810526518324"><ele>651.0</ele><time>2026-04-05T15:43:28.001Z</time></trkpt><trkpt lat="45.86177095473253" lon="9.83816363820904"><ele>651.0</ele><time>2026-04-05T15:43:29.001Z</time></trkpt><trkpt lat="45.86171882931088" lon="9.838258498995142"><ele>651.0</ele><time>2026-04-05T15:43:30.001Z</time></trkpt><trkpt lat="45.86168110572019" lon="9.838384818886249"><ele>651.0</ele><time>2026-04-05T15:43:31.001Z</time></trkpt><trkpt lat="45.86165178795297" lon="9.838559453045004"><ele>651.0</ele><time>2026-04-05T15:43:32.001Z</time></trkpt><trkpt lat="45.861606299992125" lon="9.838728110489384"><ele>644.75</ele><time>2026-04-05T15:43:33.001Z</time></trkpt><trkpt lat="45.86155317054395" lon="9.8388954417241"><ele>638.5</ele><time>2026-04-05T15:43:34.001Z</time></trkpt><trkpt lat="45.86151204875558" lon="9.839051673000807"><ele>632.25</ele><time>2026-04-05T15:43:35.001Z</time></trkpt><trkpt lat="45.861473348338144" lon="9.839204275776915"><ele>626.0</ele><time>2026-04-05T15:43:36.001Z</time></trkpt><trkpt lat="45.86143291861267" lon="9.839358431184127"><ele>626.0</ele><time>2026-04-05T15:43:37.001Z</time></trkpt><trkpt lat="45.86138879029987" lon="9.839523895181125"><ele>626.0</ele><time>2026-04-05T15:43:38.001Z</time></trkpt><trkpt lat="45.86134576275068" lon="9.83969182597493"><ele>626.0</ele><time>2026-04-05T15:43:39.001Z</time></trkpt><trkpt lat="45.86130796696604" lon="9.839836893326252"><ele>626.0</ele><time>2026-04-05T15:43:40.001Z</time></trkpt><trkpt lat="45.86127040987792" lon="9.8399694828596"><ele>626.0</ele><time>2026-04-05T15:43:40.999Z</time></trkpt><trkpt lat="45.861241055324896" lon="9.84010026674538"><ele>626.0</ele><time>2026-04-05T15:43:41.999Z</time></trkpt><trkpt lat="45.86120248815766" lon="9.840223786919768"><ele>626.0</ele><time>2026-04-05T15:43:42.999Z</time></trkpt><trkpt lat="45.86111978697229" lon="9.840319825093502"><ele>626.0</ele><time>2026-04-05T15:43:43.999Z</time></trkpt><trkpt lat="45.86103918576434" lon="9.840433114075715"><ele>626.0</ele><time>2026-04-05T15:43:44.999Z</time></trkpt><trkpt lat="45.86093676440848" lon="9.840522610380193"><ele>620.0</ele><time>2026-04-05T15:43:45.999Z</time></trkpt><trkpt lat="45.86082853336498" lon="9.840608739704948"><ele>614.0</ele><time>2026-04-05T15:43:46.999Z</time></trkpt><trkpt lat="45.86072557685902" lon="9.84068463107045"><ele>608.0</ele><time>2026-04-05T15:43:47.999Z</time></trkpt><trkpt lat="45.860632777715544" lon="9.840782578029737"><ele>602.0</ele><time>2026-04-05T15:43:48.999Z</time></trkpt><trkpt lat="45.86053839530107" lon="9.840856432666275"><ele>602.0</ele><time>2026-04-05T15:43:49.999Z</time></trkpt><trkpt lat="45.860457323530696" lon="9.840940885345772"><ele>602.0</ele><time>2026-04-05T15:43:50.999Z</time></trkpt><trkpt lat="45.86037750342814" lon="9.84101718811795"><ele>602.0</ele><time>2026-04-05T15:43:51.999Z</time></trkpt><trkpt lat="45.860328148373455" lon="9.841125506561568"><ele>602.0</ele><time>2026-04-05T15:43:52.999Z</time></trkpt><trkpt lat="45.8602564510262" lon="9.841236795729582"><ele>602.0</ele><time>2026-04-05T15:43:53.999Z</time></trkpt><trkpt lat="45.86020346812728" lon="9.841380968659827"><ele>603.6666666666666</ele><time>2026-04-05T15:43:54.999Z</time></trkpt><trkpt lat="45.860151483712045" lon="9.841562474193342"><ele>605.3333333333334</ele><time>2026-04-05T15:43:55.999Z</time></trkpt><trkpt lat="45.86010154841905" lon="9.841771860841485"><ele>607.0</ele><time>2026-04-05T15:43:56.999Z</time></trkpt><trkpt lat="45.86003857626041" lon="9.842045971994247"><ele>603.3333333333334</ele><time>2026-04-05T15:43:57.999Z</time></trkpt><trkpt lat="45.859952285052366" lon="9.842328819757595"><ele>599.6666666666666</ele><time>2026-04-05T15:43:59Z</time></trkpt><trkpt lat="45.85985514510921" lon="9.84257211305087"><ele>596.0</ele><time>2026-04-05T15:44:00Z</time></trkpt><trkpt lat="45.859785975370116" lon="9.842833426317073"><ele>596.0</ele><time>2026-04-05T15:44:01Z</time></trkpt><trkpt lat="45.85970741137432" lon="9.84310588150168"><ele>596.0</ele><time>2026-04-05T15:44:02Z</time></trkpt><trkpt lat="45.85964935731746" lon="9.843386435906773"><ele>596.0</ele><time>2026-04-05T15:44:03Z</time></trkpt><trkpt lat="45.8596132126275" lon="9.843695830890205"><ele>596.6666666666666</ele><time>2026-04-05T15:44:04Z</time></trkpt><trkpt lat="45.859581136532654" lon="9.84398089670679"><ele>597.3333333333334</ele><time>2026-04-05T15:44:05Z</time></trkpt><trkpt lat="45.85952013733839" lon="9.844269205218136"><ele>598.0</ele><time>2026-04-05T15:44:06Z</time></trkpt><trkpt lat="45.85942494735697" lon="9.84452708148751"><ele>599.25</ele><time>2026-04-05T15:44:07Z</time></trkpt><trkpt lat="45.85938014225042" lon="9.844759639598353"><ele>600.5</ele><time>2026-04-05T15:44:08Z</time></trkpt><trkpt lat="45.859337443024295" lon="9.8449493529233"><ele>601.75</ele><time>2026-04-05T15:44:09Z</time></trkpt><trkpt lat="45.85933798900255" lon="9.84514568083665"><ele>603.0</ele><time>2026-04-05T15:44:10Z</time></trkpt><trkpt lat="45.85935344380703" lon="9.845372536739871"><ele>598.0</ele><time>2026-04-05T15:44:11Z</time></trkpt><trkpt lat="45.85938485312808" lon="9.845632398958381"><ele>593.0</ele><time>2026-04-05T15:44:12Z</time></trkpt><trkpt lat="45.85943040853109" lon="9.845885273711954"><ele>588.0</ele><time>2026-04-05T15:44:13Z</time></trkpt><trkpt lat="45.859496656573256" lon="9.846108900056326"><ele>586.0</ele><time>2026-04-05T15:44:14Z</time></trkpt><trkpt lat="45.85958560477053" lon="9.846301649576661"><ele>584.0</ele><time>2026-04-05T15:44:15Z</time></trkpt><trkpt lat="45.859651637684365" lon="9.846476313122276"><ele>582.0</ele><time>2026-04-05T15:44:16Z</time></trkpt><trkpt lat="45.859700911678644" lon="9.846603100283287"><ele>580.0</ele><time>2026-04-05T15:44:17Z</time></trkpt><trkpt lat="45.85972713603865" lon="9.846699911665468"><ele>585.5</ele><time>2026-04-05T15:44:18Z</time></trkpt><trkpt lat="45.85966038668736" lon="9.84685028566579"><ele>591.0</ele><time>2026-04-05T15:44:20Z</time></trkpt><trkpt lat="45.85956648546172" lon="9.846896805657986"><ele>596.5</ele><time>2026-04-05T15:44:21Z</time></trkpt><trkpt lat="45.859455803785615" lon="9.846894843769235"><ele>602.0</ele><time>2026-04-05T15:44:22Z</time></trkpt><trkpt lat="45.85932673106186" lon="9.84683044108827"><ele>591.25</ele><time>2026-04-05T15:44:23Z</time></trkpt><trkpt lat="45.85920580540165" lon="9.84680386865613"><ele>580.5</ele><time>2026-04-05T15:44:24Z</time></trkpt><trkpt lat="45.859099915594484" lon="9.846831899404396"><ele>569.75</ele><time>2026-04-05T15:44:25Z</time></trkpt><trkpt lat="45.85900519650737" lon="9.846902317366888"><ele>559.0</ele><time>2026-04-05T15:44:26Z</time></trkpt><trkpt lat="45.858927740705354" lon="9.847021890504589"><ele>559.0</ele><time>2026-04-05T15:44:27Z</time></trkpt><trkpt lat="45.85886947931424" lon="9.847180728297982"><ele>559.0</ele><time>2026-04-05T15:44:28Z</time></trkpt><trkpt lat="45.858848345691854" lon="9.847384222510694"><ele>559.0</ele><time>2026-04-05T15:44:29Z</time></trkpt><trkpt lat="45.858825548852714" lon="9.847627321263696"><ele>559.0</ele><time>2026-04-05T15:44:30Z</time></trkpt><trkpt lat="45.858804783184254" lon="9.84785854059338"><ele>557.0</ele><time>2026-04-05T15:44:31Z</time></trkpt><trkpt lat="45.85878106351597" lon="9.84812178542166"><ele>555.0</ele><time>2026-04-05T15:44:32Z</time></trkpt><trkpt lat="45.85875843680642" lon="9.848370491619193"><ele>553.0</ele><time>2026-04-05T15:44:33Z</time></trkpt><trkpt lat="45.85873699209188" lon="9.848583296980289"><ele>552.5</ele><time>2026-04-05T15:44:34Z</time></trkpt><trkpt lat="45.85868013732074" lon="9.84875429041592"><ele>552.0</ele><time>2026-04-05T15:44:35Z</time></trkpt><trkpt lat="45.85860218028383" lon="9.848935258306067"><ele>551.5</ele><time>2026-04-05T15:44:36Z</time></trkpt><trkpt lat="45.85852988240353" lon="9.849120574486578"><ele>551.0</ele><time>2026-04-05T15:44:37Z</time></trkpt><trkpt lat="45.85849933707357" lon="9.849319727382484"><ele>553.6666666666666</ele><time>2026-04-05T15:44:38Z</time></trkpt><trkpt lat="45.85849014898864" lon="9.84954045043203"><ele>556.3333333333334</ele><time>2026-04-05T15:44:39Z</time></trkpt><trkpt lat="45.85847334810725" lon="9.849810910886122"><ele>559.0</ele><time>2026-04-05T15:44:40.001Z</time></trkpt><trkpt lat="45.858465435354326" lon="9.850109829763651"><ele>563.0</ele><time>2026-04-05T15:44:41.001Z</time></trkpt><trkpt lat="45.85845457273094" lon="9.850445942622722"><ele>567.0</ele><time>2026-04-05T15:44:42.001Z</time></trkpt><trkpt lat="45.85843829085733" lon="9.850737713912254"><ele>571.0</ele><time>2026-04-05T15:44:43.001Z</time></trkpt><trkpt lat="45.858420212707514" lon="9.851033824046956"><ele>555.3333333333334</ele><time>2026-04-05T15:44:44.001Z</time></trkpt><trkpt lat="45.85840526704371" lon="9.851331430580274"><ele>539.6666666666666</ele><time>2026-04-05T15:44:45.001Z</time></trkpt><trkpt lat="45.85839724828983" lon="9.851630821081944"><ele>524.0</ele><time>2026-04-05T15:44:46.001Z</time></trkpt><trkpt lat="45.85838915464331" lon="9.851899356621074"><ele>522.6666666666666</ele><time>2026-04-05T15:44:47.001Z</time></trkpt><trkpt lat="45.85838334481738" lon="9.852162964027269"><ele>521.3333333333334</ele><time>2026-04-05T15:44:48.001Z</time></trkpt><trkpt lat="45.858381920972874" lon="9.852410244567196"><ele>520.0</ele><time>2026-04-05T15:44:49.001Z</time></trkpt><trkpt lat="45.858391149377915" lon="9.852645848482505"><ele>518.0</ele><time>2026-04-05T15:44:50.001Z</time></trkpt><trkpt lat="45.85842248059564" lon="9.852867714044498"><ele>516.0</ele><time>2026-04-05T15:44:51.001Z</time></trkpt><trkpt lat="45.8584281007584" lon="9.85309271112444"><ele>514.0</ele><time>2026-04-05T15:44:52.001Z</time></trkpt><trkpt lat="45.85844767105657" lon="9.853295437530962"><ele>518.75</ele><time>2026-04-05T15:44:53.001Z</time></trkpt><trkpt lat="45.85847044365448" lon="9.853496712243807"><ele>523.5</ele><time>2026-04-05T15:44:54.001Z</time></trkpt><trkpt lat="45.85849867635107" lon="9.85369806283287"><ele>528.25</ele><time>2026-04-05T15:44:55.001Z</time></trkpt><trkpt lat="45.85853141415287" lon="9.853884660512412"><ele>533.0</ele><time>2026-04-05T15:44:56.001Z</time></trkpt><trkpt lat="45.8585626288387" lon="9.8540599605838"><ele>533.0</ele><time>2026-04-05T15:44:57.001Z</time></trkpt><trkpt lat="45.85859479946289" lon="9.854240629176909"><ele>533.0</ele><time>2026-04-05T15:44:58.001Z</time></trkpt><trkpt lat="45.85862839776248" lon="9.854423423332713"><ele>533.0</ele><time>2026-04-05T15:44:59.001Z</time></trkpt><trkpt lat="45.85866350167428" lon="9.85460937042645"><ele>533.0</ele><time>2026-04-05T15:45:00.001Z</time></trkpt><trkpt lat="45.85870016170716" lon="9.85479723357439"><ele>532.0</ele><time>2026-04-05T15:45:01.001Z</time></trkpt><trkpt lat="45.85873131622607" lon="9.854979358394996"><ele>531.0</ele><time>2026-04-05T15:45:02.001Z</time></trkpt><trkpt lat="45.858752738772125" lon="9.855159856664397"><ele>530.0</ele><time>2026-04-05T15:45:03.001Z</time></trkpt><trkpt lat="45.85877133477886" lon="9.855353134604474"><ele>529.0</ele><time>2026-04-05T15:45:04.001Z</time></trkpt><trkpt lat="45.85876642767753" lon="9.855541125865535"><ele>527.75</ele><time>2026-04-05T15:45:05.001Z</time></trkpt><trkpt lat="45.85874253938065" lon="9.85572416836008"><ele>526.5</ele><time>2026-04-05T15:45:06.001Z</time></trkpt><trkpt lat="45.85870465643082" lon="9.855906451302715"><ele>525.25</ele><time>2026-04-05T15:45:07.001Z</time></trkpt><trkpt lat="45.858667646401706" lon="9.856096342293586"><ele>524.0</ele><time>2026-04-05T15:45:08.001Z</time></trkpt><trkpt lat="45.858633826978696" lon="9.856289468257366"><ele>524.0</ele><time>2026-04-05T15:45:09.001Z</time></trkpt><trkpt lat="45.858605854500304" lon="9.856465512791747"><ele>524.0</ele><time>2026-04-05T15:45:10.001Z</time></trkpt><trkpt lat="45.8585612564194" lon="9.856630042057327"><ele>524.0</ele><time>2026-04-05T15:45:11.001Z</time></trkpt><trkpt lat="45.858538682412295" lon="9.85680349817495"><ele>524.0</ele><time>2026-04-05T15:45:12.001Z</time></trkpt><trkpt lat="45.858511527374965" lon="9.856973256343831"><ele>524.0</ele><time>2026-04-05T15:45:13.001Z</time></trkpt><trkpt lat="45.85847874288231" lon="9.85714275655339"><ele>524.0</ele><time>2026-04-05T15:45:14.001Z</time></trkpt><trkpt lat="45.8584774952625" lon="9.857316896012485"><ele>524.0</ele><time>2026-04-05T15:45:15.001Z</time></trkpt><trkpt lat="45.85850094471386" lon="9.857491814264835"><ele>524.0</ele><time>2026-04-05T15:45:16.001Z</time></trkpt><trkpt lat="45.85855271011363" lon="9.857666588704685"><ele>522.75</ele><time>2026-04-05T15:45:17.001Z</time></trkpt><trkpt lat="45.85862172215763" lon="9.857838125202239"><ele>521.5</ele><time>2026-04-05T15:45:18.001Z</time></trkpt><trkpt lat="45.85868657355159" lon="9.858001729575902"><ele>520.25</ele><time>2026-04-05T15:45:19.001Z</time></trkpt><trkpt lat="45.858748056244984" lon="9.858158379677315"><ele>519.0</ele><time>2026-04-05T15:45:20.001Z</time></trkpt><trkpt lat="45.8588108799882" lon="9.858327588109711"><ele>515.75</ele><time>2026-04-05T15:45:21.001Z</time></trkpt><trkpt lat="45.85886905492201" lon="9.858509125297552"><ele>512.5</ele><time>2026-04-05T15:45:22.001Z</time></trkpt><trkpt lat="45.85892428889447" lon="9.858705181279118"><ele>509.25</ele><time>2026-04-05T15:45:23.001Z</time></trkpt><trkpt lat="45.858973816597" lon="9.858909314592339"><ele>506.0</ele><time>2026-04-05T15:45:24.001Z</time></trkpt><trkpt lat="45.85901815758825" lon="9.859124435598172"><ele>503.66666666666663</ele><time>2026-04-05T15:45:25.001Z</time></trkpt><trkpt lat="45.85905999957885" lon="9.859358119696394"><ele>501.33333333333337</ele><time>2026-04-05T15:45:26.001Z</time></trkpt><trkpt lat="45.85910704108201" lon="9.85963191839176"><ele>499.0</ele><time>2026-04-05T15:45:27.001Z</time></trkpt><trkpt lat="45.85915412118573" lon="9.859940084984576"><ele>497.0</ele><time>2026-04-05T15:45:28.001Z</time></trkpt><trkpt lat="45.859198382498334" lon="9.860244825939692"><ele>495.0</ele><time>2026-04-05T15:45:29.001Z</time></trkpt><trkpt lat="45.85924045716387" lon="9.860519465243057"><ele>493.0</ele><time>2026-04-05T15:45:30.001Z</time></trkpt><trkpt lat="45.859278982484874" lon="9.860774968068926"><ele>506.0</ele><time>2026-04-05T15:45:31.001Z</time></trkpt><trkpt lat="45.85931485784973" lon="9.861031073485016"><ele>519.0</ele><time>2026-04-05T15:45:32.001Z</time></trkpt><trkpt lat="45.85934260598287" lon="9.861316212950106"><ele>532.0</ele><time>2026-04-05T15:45:33.001Z</time></trkpt><trkpt lat="45.85935418208572" lon="9.861638492833784"><ele>530.0</ele><time>2026-04-05T15:45:34.002Z</time></trkpt><trkpt lat="45.859350528735185" lon="9.861990643858105"><ele>528.0</ele><time>2026-04-05T15:45:35.002Z</time></trkpt><trkpt lat="45.85933411986296" lon="9.862351241856196"><ele>527.5</ele><time>2026-04-05T15:45:36.002Z</time></trkpt><trkpt lat="45.85930648682697" lon="9.862737489941505"><ele>527.0</ele><time>2026-04-05T15:45:37.002Z</time></trkpt><trkpt lat="45.85927410559501" lon="9.863157693000431"><ele>506.5</ele><time>2026-04-05T15:45:38.002Z</time></trkpt><trkpt lat="45.85924476323965" lon="9.863576566101807"><ele>486.0</ele><time>2026-04-05T15:45:39.002Z</time></trkpt><trkpt lat="45.8592102555209" lon="9.864009730627444"><ele>484.0</ele><time>2026-04-05T15:45:40.002Z</time></trkpt><trkpt lat="45.85917829019123" lon="9.864445313390677"><ele>482.0</ele><time>2026-04-05T15:45:41.002Z</time></trkpt><trkpt lat="45.859154512187125" lon="9.864875937476025"><ele>481.0</ele><time>2026-04-05T15:45:42.002Z</time></trkpt><trkpt lat="45.8591338041479" lon="9.865266750287374"><ele>480.0</ele><time>2026-04-05T15:45:43.002Z</time></trkpt><trkpt lat="45.85911834168789" lon="9.865629823378713"><ele>479.5</ele><time>2026-04-05T15:45:44.002Z</time></trkpt><trkpt lat="45.859083243169266" lon="9.865997508155456"><ele>479.0</ele><time>2026-04-05T15:45:45.002Z</time></trkpt><trkpt lat="45.859035389515334" lon="9.866365817231415"><ele>479.0</ele><time>2026-04-05T15:45:46.002Z</time></trkpt><trkpt lat="45.858998321322396" lon="9.866723386178261"><ele>479.0</ele><time>2026-04-05T15:45:47Z</time></trkpt><trkpt lat="45.858971306998825" lon="9.867058017087956"><ele>478.3333333333333</ele><time>2026-04-05T15:45:48Z</time></trkpt><trkpt lat="45.858961331440355" lon="9.867367614013984"><ele>477.66666666666663</ele><time>2026-04-05T15:45:49Z</time></trkpt><trkpt lat="45.85898062884295" lon="9.86766315871081"><ele>477.0</ele><time>2026-04-05T15:45:50Z</time></trkpt><trkpt lat="45.8590266985681" lon="9.867935294850579"><ele>476.5</ele><time>2026-04-05T15:45:51Z</time></trkpt><trkpt lat="45.85911073229291" lon="9.86822638903072"><ele>476.0</ele><time>2026-04-05T15:45:52Z</time></trkpt><trkpt lat="45.859178694684694" lon="9.868545992846798"><ele>476.0</ele><time>2026-04-05T15:45:53Z</time></trkpt><trkpt lat="45.85924127321652" lon="9.86887380820101"><ele>476.0</ele><time>2026-04-05T15:45:54Z</time></trkpt><trkpt lat="45.859297892906554" lon="9.869182375670853"><ele>476.0</ele><time>2026-04-05T15:45:55Z</time></trkpt><trkpt lat="45.859316890585326" lon="9.869486103534475"><ele>476.0</ele><time>2026-04-05T15:45:56Z</time></trkpt><trkpt lat="45.85935094760183" lon="9.869800845688296"><ele>476.0</ele><time>2026-04-05T15:45:57Z</time></trkpt><trkpt lat="45.859366734426395" lon="9.870129716547492"><ele>476.0</ele><time>2026-04-05T15:45:58Z</time></trkpt><trkpt lat="45.85937954646031" lon="9.87045664873532"><ele>476.0</ele><time>2026-04-05T15:45:59Z</time></trkpt><trkpt lat="45.859375753715106" lon="9.870765939023277"><ele>476.0</ele><time>2026-04-05T15:46:00Z</time></trkpt><trkpt lat="45.85939668467161" lon="9.871045083283065"><ele>476.0</ele><time>2026-04-05T15:46:01Z</time></trkpt><trkpt lat="45.85940389666182" lon="9.871338732733493"><ele>476.0</ele><time>2026-04-05T15:46:02Z</time></trkpt><trkpt lat="45.85941596632829" lon="9.871634535500498"><ele>476.0</ele><time>2026-04-05T15:46:03Z</time></trkpt><trkpt lat="45.85942661497446" lon="9.871934766270368"><ele>474.66666666666663</ele><time>2026-04-05T15:46:04Z</time></trkpt><trkpt lat="45.85942916630149" lon="9.872204363763643"><ele>473.33333333333337</ele><time>2026-04-05T15:46:05Z</time></trkpt><trkpt lat="45.8594416738965" lon="9.872472005511927"><ele>472.0</ele><time>2026-04-05T15:46:06Z</time></trkpt><trkpt lat="45.859437929604006" lon="9.872719127361629"><ele>471.33333333333337</ele><time>2026-04-05T15:46:07Z</time></trkpt><trkpt lat="45.85944574948534" lon="9.87296942914814"><ele>470.66666666666663</ele><time>2026-04-05T15:46:08Z</time></trkpt><trkpt lat="45.85945414375597" lon="9.873238116401112"><ele>470.0</ele><time>2026-04-05T15:46:09Z</time></trkpt><trkpt lat="45.85946259658996" lon="9.873508678235687"><ele>469.3333333333333</ele><time>2026-04-05T15:46:10Z</time></trkpt><trkpt lat="45.85947059577849" lon="9.873764719512547"><ele>468.66666666666663</ele><time>2026-04-05T15:46:11Z</time></trkpt><trkpt lat="45.859476307684616" lon="9.87400438781663"><ele>468.0</ele><time>2026-04-05T15:46:12Z</time></trkpt><trkpt lat="45.85949871978251" lon="9.874269546447545"><ele>468.0</ele><time>2026-04-05T15:46:13Z</time></trkpt><trkpt lat="45.85948985682232" lon="9.8745246530786"><ele>468.0</ele><time>2026-04-05T15:46:14Z</time></trkpt><trkpt lat="45.85948826165805" lon="9.874784271724012"><ele>468.0</ele><time>2026-04-05T15:46:15Z</time></trkpt><trkpt lat="45.859490010097446" lon="9.87505445858219"><ele>472.0</ele><time>2026-04-05T15:46:16Z</time></trkpt><trkpt lat="45.859471349765855" lon="9.87533417397143"><ele>476.0</ele><time>2026-04-05T15:46:17Z</time></trkpt><trkpt lat="45.85945143934675" lon="9.875619639818275"><ele>480.0</ele><time>2026-04-05T15:46:18Z</time></trkpt><trkpt lat="45.859431576054305" lon="9.87590370081469"><ele>483.0</ele><time>2026-04-05T15:46:19Z</time></trkpt><trkpt lat="45.85941772444123" lon="9.876165637416777"><ele>486.0</ele><time>2026-04-05T15:46:20Z</time></trkpt><trkpt lat="45.85940158866125" lon="9.876411813621441"><ele>489.0</ele><time>2026-04-05T15:46:21Z</time></trkpt><trkpt lat="45.859388144300965" lon="9.876646896877372"><ele>488.5</ele><time>2026-04-05T15:46:22Z</time></trkpt><trkpt lat="45.859375137295544" lon="9.876871055564541"><ele>488.0</ele><time>2026-04-05T15:46:23Z</time></trkpt><trkpt lat="45.8593529039415" lon="9.87708207999436"><ele>487.5</ele><time>2026-04-05T15:46:24Z</time></trkpt><trkpt lat="45.859343838160704" lon="9.877286299738246"><ele>487.0</ele><time>2026-04-05T15:46:25Z</time></trkpt><trkpt lat="45.859332492973515" lon="9.877492567100486"><ele>485.25</ele><time>2026-04-05T15:46:26Z</time></trkpt><trkpt lat="45.85931524461726" lon="9.877698306068675"><ele>483.5</ele><time>2026-04-05T15:46:27Z</time></trkpt><trkpt lat="45.85930453643871" lon="9.877890341354933"><ele>481.75</ele><time>2026-04-05T15:46:28Z</time></trkpt><trkpt lat="45.85929344047828" lon="9.878070587293909"><ele>480.0</ele><time>2026-04-05T15:46:29Z</time></trkpt><trkpt lat="45.859283950741975" lon="9.878244622044654"><ele>474.4</ele><time>2026-04-05T15:46:30Z</time></trkpt><trkpt lat="45.859273521249385" lon="9.878410962439954"><ele>468.8</ele><time>2026-04-05T15:46:31.001Z</time></trkpt><trkpt lat="45.85926016755236" lon="9.87857626290482"><ele>463.20000000000005</ele><time>2026-04-05T15:46:32.001Z</time></trkpt><trkpt lat="45.8592523396765" lon="9.878734187905293"><ele>457.6</ele><time>2026-04-05T15:46:33.001Z</time></trkpt><trkpt lat="45.85924295928142" lon="9.878885949268875"><ele>452.0</ele><time>2026-04-05T15:46:34.001Z</time></trkpt><trkpt lat="45.85923173587289" lon="9.879026081691775"><ele>451.8</ele><time>2026-04-05T15:46:35.001Z</time></trkpt><trkpt lat="45.85922282077909" lon="9.879133645428638"><ele>451.6</ele><time>2026-04-05T15:46:36.001Z</time></trkpt><trkpt lat="45.85921812658946" lon="9.879230020229299"><ele>451.40000000000003</ele><time>2026-04-05T15:46:38.001Z</time></trkpt><trkpt lat="45.85920376678292" lon="9.87932826021119"><ele>451.20000000000005</ele><time>2026-04-05T15:46:49.001Z</time></trkpt><trkpt lat="45.85920956744926" lon="9.879442429970863"><ele>451.0</ele><time>2026-04-05T15:46:51.001Z</time></trkpt><trkpt lat="45.859455355897495" lon="9.879489187705111"><ele>450.5</ele><time>2026-04-05T15:46:52.001Z</time></trkpt><trkpt lat="45.85959319813718" lon="9.879531530362566"><ele>450.0</ele><time>2026-04-05T15:46:53.001Z</time></trkpt><trkpt lat="45.8597255255873" lon="9.87957074512535"><ele>449.5</ele><time>2026-04-05T15:46:54.001Z</time></trkpt><trkpt lat="45.85987129637212" lon="9.87962107749921"><ele>449.0</ele><time>2026-04-05T15:46:55.001Z</time></trkpt><trkpt lat="45.86002776479022" lon="9.879692639696184"><ele>452.0</ele><time>2026-04-05T15:46:56.001Z</time></trkpt><trkpt lat="45.86016985462348" lon="9.87977385948435"><ele>455.0</ele><time>2026-04-05T15:46:57.001Z</time></trkpt><trkpt lat="45.860307525453166" lon="9.87986121807852"><ele>458.0</ele><time>2026-04-05T15:46:58.001Z</time></trkpt><trkpt lat="45.86044049396437" lon="9.879957014217918"><ele>458.0</ele><time>2026-04-05T15:46:59.001Z</time></trkpt><trkpt lat="45.86057510308029" lon="9.880051963749123"><ele>458.0</ele><time>2026-04-05T15:47:00.001Z</time></trkpt><trkpt lat="45.860703966959484" lon="9.880159762304332"><ele>458.0</ele><time>2026-04-05T15:47:01.001Z</time></trkpt><trkpt lat="45.86084405118376" lon="9.880263369436854"><ele>457.0</ele><time>2026-04-05T15:47:02.001Z</time></trkpt><trkpt lat="45.86098877595391" lon="9.880370820384472"><ele>456.0</ele><time>2026-04-05T15:47:03.001Z</time></trkpt><trkpt lat="45.861131087092865" lon="9.880480049299354"><ele>455.0</ele><time>2026-04-05T15:47:04.001Z</time></trkpt><trkpt lat="45.86126390965659" lon="9.880585591229085"><ele>455.0</ele><time>2026-04-05T15:47:05.001Z</time></trkpt><trkpt lat="45.86139290090941" lon="9.880679471021871"><ele>455.0</ele><time>2026-04-05T15:47:06.001Z</time></trkpt><trkpt lat="45.86152208588767" lon="9.880791583148575"><ele>455.0</ele><time>2026-04-05T15:47:07.001Z</time></trkpt><trkpt lat="45.86165992932389" lon="9.88089876273885"><ele>456.0</ele><time>2026-04-05T15:47:08.001Z</time></trkpt><trkpt lat="45.8618025893857" lon="9.880988794706022"><ele>457.0</ele><time>2026-04-05T15:47:09.001Z</time></trkpt><trkpt lat="45.861936311286755" lon="9.881127755967059"><ele>458.0</ele><time>2026-04-05T15:47:10.001Z</time></trkpt><trkpt lat="45.86207535357892" lon="9.881265976757474"><ele>458.0</ele><time>2026-04-05T15:47:11.001Z</time></trkpt><trkpt lat="45.862221519430555" lon="9.88138709711378"><ele>458.0</ele><time>2026-04-05T15:47:12.001Z</time></trkpt><trkpt lat="45.86235256244061" lon="9.881494001465532"><ele>458.0</ele><time>2026-04-05T15:47:13.001Z</time></trkpt><trkpt lat="45.862466439532405" lon="9.881586051201513"><ele>458.0</ele><time>2026-04-05T15:47:14.001Z</time></trkpt><trkpt lat="45.862550999007716" lon="9.881677785126524"><ele>457.99999999999994</ele><time>2026-04-05T15:47:15.001Z</time></trkpt><trkpt lat="45.86260987392079" lon="9.881772418671313"><ele>457.99999999999994</ele><time>2026-04-05T15:47:16.001Z</time></trkpt><trkpt lat="45.86266725590124" lon="9.881853822279155"><ele>458.0</ele><time>2026-04-05T15:47:17.001Z</time></trkpt><trkpt lat="45.862751373251406" lon="9.881927290529696"><ele>458.0</ele><time>2026-04-05T15:47:18.001Z</time></trkpt><trkpt lat="45.86284175013901" lon="9.882008939112636"><ele>457.4</ele><time>2026-04-05T15:47:19.001Z</time></trkpt><trkpt lat="45.862937807921675" lon="9.88210512458083"><ele>456.79999999999995</ele><time>2026-04-05T15:47:20.001Z</time></trkpt><trkpt lat="45.86302692312543" lon="9.882198065381775"><ele>456.2</ele><time>2026-04-05T15:47:21.001Z</time></trkpt><trkpt lat="45.863110124407044" lon="9.88227407842792"><ele>455.6</ele><time>2026-04-05T15:47:22.001Z</time></trkpt><trkpt lat="45.86319157851043" lon="9.882342370138542"><ele>455.0</ele><time>2026-04-05T15:47:23.001Z</time></trkpt><trkpt lat="45.86326767093935" lon="9.882396708908894"><ele>455.0</ele><time>2026-04-05T15:47:24.002Z</time></trkpt><trkpt lat="45.863316695974696" lon="9.882455493363311"><ele>455.0</ele><time>2026-04-05T15:47:25.002Z</time></trkpt><trkpt lat="45.86337986593998" lon="9.882499913248397"><ele>455.0</ele><time>2026-04-05T15:47:27.002Z</time></trkpt><trkpt lat="45.86344615282098" lon="9.88256640777059"><ele>455.0</ele><time>2026-04-05T15:47:30.002Z</time></trkpt><trkpt lat="45.86350443756767" lon="9.882607118068394"><ele>455.0</ele><time>2026-04-05T15:47:32.002Z</time></trkpt><trkpt lat="45.86357612673633" lon="9.882679454663805"><ele>455.0</ele><time>2026-04-05T15:47:34.002Z</time></trkpt><trkpt lat="45.86363875737495" lon="9.882692237082408"><ele>455.0</ele><time>2026-04-05T15:47:35.002Z</time></trkpt><trkpt lat="45.86369856275368" lon="9.882743653981775"><ele>454.66666666666663</ele><time>2026-04-05T15:47:36.002Z</time></trkpt><trkpt lat="45.86376075930032" lon="9.882806095441671"><ele>454.3333333333333</ele><time>2026-04-05T15:47:37.002Z</time></trkpt><trkpt lat="45.863806735508845" lon="9.88288538379302"><ele>454.0</ele><time>2026-04-05T15:47:38.002Z</time></trkpt><trkpt lat="45.863821927868884" lon="9.882989787291937"><ele>453.66666666666663</ele><time>2026-04-05T15:47:39.002Z</time></trkpt><trkpt lat="45.86382568856173" lon="9.883110762173505"><ele>453.3333333333333</ele><time>2026-04-05T15:47:40.002Z</time></trkpt><trkpt lat="45.86382848545329" lon="9.883241885263505"><ele>453.0</ele><time>2026-04-05T15:47:41.002Z</time></trkpt><trkpt lat="45.8638521069732" lon="9.883345852997438"><ele>453.0</ele><time>2026-04-05T15:47:42.002Z</time></trkpt><trkpt lat="45.86391030204662" lon="9.883424755656376"><ele>452.99999999999994</ele><time>2026-04-05T15:47:43.002Z</time></trkpt><trkpt lat="45.86398881406113" lon="9.883506441021884"><ele>452.99999999999994</ele><time>2026-04-05T15:47:44.002Z</time></trkpt><trkpt lat="45.864075216987594" lon="9.883574254933633"><ele>453.0</ele><time>2026-04-05T15:47:45.002Z</time></trkpt><trkpt lat="45.86417521859055" lon="9.883608494953576"><ele>453.0</ele><time>2026-04-05T15:47:46.002Z</time></trkpt><trkpt lat="45.86427368472682" lon="9.883587851894408"><ele>452.8333333333333</ele><time>2026-04-05T15:47:47.002Z</time></trkpt><trkpt lat="45.86436685477495" lon="9.883567944487586"><ele>452.66666666666663</ele><time>2026-04-05T15:47:49.002Z</time></trkpt><trkpt lat="45.864436003414944" lon="9.883558649134246"><ele>452.5</ele><time>2026-04-05T15:47:53Z</time></trkpt><trkpt lat="45.86447517482199" lon="9.883649416050055"><ele>452.3333333333333</ele><time>2026-04-05T15:47:54Z</time></trkpt><trkpt lat="45.864555486126854" lon="9.883707165442623"><ele>452.16666666666663</ele><time>2026-04-05T15:47:55Z</time></trkpt><trkpt lat="45.8646609129306" lon="9.883693998663967"><ele>452.0</ele><time>2026-04-05T15:47:56Z</time></trkpt><trkpt lat="45.864738609234095" lon="9.883608193814924"><ele>451.99999999999994</ele><time>2026-04-05T15:47:57Z</time></trkpt><trkpt lat="45.86477884368343" lon="9.88350249819963"><ele>452.0</ele><time>2026-04-05T15:47:58Z</time></trkpt><trkpt lat="45.864755407824646" lon="9.883362840940302"><ele>452.0</ele><time>2026-04-05T15:47:59Z</time></trkpt><trkpt lat="45.86470054090357" lon="9.883281964099735"><ele>452.0</ele><time>2026-04-05T15:48:00Z</time></trkpt><trkpt lat="45.864630409373994" lon="9.883226450747136"><ele>451.99999999999994</ele><time>2026-04-05T15:48:01Z</time></trkpt><trkpt lat="45.864549833851356" lon="9.883197657033948"><ele>452.0</ele><time>2026-04-05T15:48:02Z</time></trkpt><trkpt lat="45.86446702198318" lon="9.883170651481317"><ele>452.20000000000005</ele><time>2026-04-05T15:48:03Z</time></trkpt><trkpt lat="45.86439531106142" lon="9.883134615758873"><ele>452.40000000000003</ele><time>2026-04-05T15:48:04Z</time></trkpt><trkpt lat="45.8643159497889" lon="9.88307472890354"><ele>452.59999999999997</ele><time>2026-04-05T15:48:05Z</time></trkpt><trkpt lat="45.86421484746233" lon="9.882985434444047"><ele>452.79999999999995</ele><time>2026-04-05T15:48:06Z</time></trkpt><trkpt lat="45.86410783384478" lon="9.88288007413433"><ele>453.0</ele><time>2026-04-05T15:48:07Z</time></trkpt><trkpt lat="45.86401758282859" lon="9.88279759440314"><ele>453.0</ele><time>2026-04-05T15:48:08Z</time></trkpt><trkpt lat="45.863939870992176" lon="9.882732985114712"><ele>453.0</ele><time>2026-04-05T15:48:09Z</time></trkpt><trkpt lat="45.86386971079345" lon="9.88267183820898"><ele>453.0</ele><time>2026-04-05T15:48:10Z</time></trkpt><trkpt lat="45.86380245199786" lon="9.88261830076001"><ele>453.0</ele><time>2026-04-05T15:48:11Z</time></trkpt><trkpt lat="45.863746481338644" lon="9.882565948028343"><ele>453.0</ele><time>2026-04-05T15:48:12Z</time></trkpt><trkpt lat="45.863691247962215" lon="9.882513950688287"><ele>453.0</ele><time>2026-04-05T15:48:13Z</time></trkpt><trkpt lat="45.863631479744576" lon="9.882461483723494"><ele>453.2857142857142</ele><time>2026-04-05T15:48:14Z</time></trkpt><trkpt lat="45.86356999339306" lon="9.882416399676329"><ele>453.57142857142856</ele><time>2026-04-05T15:48:15Z</time></trkpt><trkpt lat="45.86351200444117" lon="9.882371682383635"><ele>453.85714285714283</ele><time>2026-04-05T15:48:16Z</time></trkpt><trkpt lat="45.86345437103438" lon="9.882327547581438"><ele>454.1428571428571</ele><time>2026-04-05T15:48:17Z</time></trkpt><trkpt lat="45.86339536064474" lon="9.882283494134464"><ele>454.42857142857144</ele><time>2026-04-05T15:48:18Z</time></trkpt><trkpt lat="45.8633413759895" lon="9.882233953328356"><ele>454.7142857142857</ele><time>2026-04-05T15:48:19Z</time></trkpt><trkpt lat="45.86328221663152" lon="9.882196165119081"><ele>455.0</ele><time>2026-04-05T15:48:20Z</time></trkpt><trkpt lat="45.86322496540747" lon="9.882142674084802"><ele>454.99999999999994</ele><time>2026-04-05T15:48:21Z</time></trkpt><trkpt lat="45.86316285512427" lon="9.882091095210612"><ele>455.0</ele><time>2026-04-05T15:48:22Z</time></trkpt><trkpt lat="45.86309140920347" lon="9.882034397037822"><ele>455.0</ele><time>2026-04-05T15:48:23Z</time></trkpt><trkpt lat="45.863018364002485" lon="9.881972860911517"><ele>455.0</ele><time>2026-04-05T15:48:24Z</time></trkpt><trkpt lat="45.86294614163689" lon="9.881911195572851"><ele>454.99999999999994</ele><time>2026-04-05T15:48:25Z</time></trkpt><trkpt lat="45.86287139440483" lon="9.881851309437643"><ele>455.0</ele><time>2026-04-05T15:48:26Z</time></trkpt><trkpt lat="45.86279339562077" lon="9.881792942788342"><ele>455.75</ele><time>2026-04-05T15:48:27Z</time></trkpt><trkpt lat="45.862706161170536" lon="9.88172379217191"><ele>456.5</ele><time>2026-04-05T15:48:28Z</time></trkpt><trkpt lat="45.86260820013487" lon="9.881640294304765"><ele>457.25</ele><time>2026-04-05T15:48:29.001Z</time></trkpt><trkpt lat="45.86250138294486" lon="9.881551597869423"><ele>458.0</ele><time>2026-04-05T15:48:30.001Z</time></trkpt><trkpt lat="45.86238600625691" lon="9.881462212651416"><ele>458.0</ele><time>2026-04-05T15:48:31.001Z</time></trkpt><trkpt lat="45.86226305055087" lon="9.88137131290225"><ele>458.0</ele><time>2026-04-05T15:48:32.001Z</time></trkpt><trkpt lat="45.86212312428169" lon="9.881266788073376"><ele>458.0</ele><time>2026-04-05T15:48:33.001Z</time></trkpt><trkpt lat="45.861977544358226" lon="9.881157081092878"><ele>458.0</ele><time>2026-04-05T15:48:34.001Z</time></trkpt><trkpt lat="45.86184507551812" lon="9.881037905629587"><ele>458.0</ele><time>2026-04-05T15:48:35.001Z</time></trkpt><trkpt lat="45.86174063897158" lon="9.880907825663327"><ele>458.0</ele><time>2026-04-05T15:48:36.001Z</time></trkpt><trkpt lat="45.86162577825903" lon="9.880830454397097"><ele>458.0</ele><time>2026-04-05T15:48:37.001Z</time></trkpt><trkpt lat="45.861529162554476" lon="9.880749548053503"><ele>457.4</ele><time>2026-04-05T15:48:38.001Z</time></trkpt><trkpt lat="45.86143927393001" lon="9.880674051492504"><ele>456.79999999999995</ele><time>2026-04-05T15:48:39.001Z</time></trkpt><trkpt lat="45.861349012183226" lon="9.880611251477685"><ele>456.2</ele><time>2026-04-05T15:48:40.001Z</time></trkpt><trkpt lat="45.86126464746367" lon="9.880539660045757"><ele>455.6</ele><time>2026-04-05T15:48:41.001Z</time></trkpt><trkpt lat="45.86118293394075" lon="9.880472018836006"><ele>455.0</ele><time>2026-04-05T15:48:42.001Z</time></trkpt><trkpt lat="45.86110228753353" lon="9.88041002403533"><ele>454.99999999999994</ele><time>2026-04-05T15:48:43.001Z</time></trkpt><trkpt lat="45.86102482485428" lon="9.880348634679619"><ele>455.0</ele><time>2026-04-05T15:48:44.001Z</time></trkpt><trkpt lat="45.86095106790369" lon="9.88029614778265"><ele>455.0</ele><time>2026-04-05T15:48:45.001Z</time></trkpt><trkpt lat="45.86087920378224" lon="9.880250775985663"><ele>455.0</ele><time>2026-04-05T15:48:46.001Z</time></trkpt><trkpt lat="45.860814478344714" lon="9.880203412891435"><ele>454.99999999999994</ele><time>2026-04-05T15:48:47.001Z</time></trkpt><trkpt lat="45.860731013233924" lon="9.880142166103722"><ele>455.0</ele><time>2026-04-05T15:48:49.001Z</time></trkpt><trkpt lat="45.860662280870734" lon="9.880067158294917"><ele>455.6</ele><time>2026-04-05T15:48:52.001Z</time></trkpt><trkpt lat="45.860601900351156" lon="9.880028049822004"><ele>456.2</ele><time>2026-04-05T15:48:53.001Z</time></trkpt><trkpt lat="45.86051383032397" lon="9.879968841451126"><ele>456.79999999999995</ele><time>2026-04-05T15:48:54.001Z</time></trkpt><trkpt lat="45.860412590493986" lon="9.879884621285298"><ele>457.4</ele><time>2026-04-05T15:48:55.001Z</time></trkpt><trkpt lat="45.86031226935606" lon="9.879809055060441"><ele>458.0</ele><time>2026-04-05T15:48:56.001Z</time></trkpt><trkpt lat="45.860223050861826" lon="9.879749756126552"><ele>457.99999999999994</ele><time>2026-04-05T15:48:57.001Z</time></trkpt><trkpt lat="45.860127312188624" lon="9.87968951717885"><ele>458.0</ele><time>2026-04-05T15:48:58.001Z</time></trkpt><trkpt lat="45.860033132928415" lon="9.879640301294478"><ele>458.0</ele><time>2026-04-05T15:48:59.001Z</time></trkpt><trkpt lat="45.85995530105374" lon="9.87959875600908"><ele>458.0</ele><time>2026-04-05T15:49:00.001Z</time></trkpt><trkpt lat="45.85989823828592" lon="9.87955933918261"><ele>457.99999999999994</ele><time>2026-04-05T15:49:01.001Z</time></trkpt><trkpt lat="45.85981710246916" lon="9.879501524889658"><ele>458.0</ele><time>2026-04-05T15:49:03.001Z</time></trkpt><trkpt lat="45.85968758586487" lon="9.879460674115613"><ele>456.49999999999994</ele><time>2026-04-05T15:49:05.001Z</time></trkpt><trkpt lat="45.859611580762824" lon="9.879438130421052"><ele>455.0</ele><time>2026-04-05T15:49:06.001Z</time></trkpt><trkpt lat="45.8595335544337" lon="9.879417882256393"><ele>453.5</ele><time>2026-04-05T15:49:07.001Z</time></trkpt><trkpt lat="45.85946249941982" lon="9.879400803611361"><ele>452.0</ele><time>2026-04-05T15:49:08.001Z</time></trkpt><trkpt lat="45.85936336841111" lon="9.879367154914796"><ele>450.49999999999994</ele><time>2026-04-05T15:49:10.001Z</time></trkpt><trkpt lat="45.85929494712563" lon="9.879356823577803"><ele>449.0</ele><time>2026-04-05T15:49:12.001Z</time></trkpt><trkpt lat="45.859228892202694" lon="9.879333097054941"><ele>448.66666666666663</ele><time>2026-04-05T15:49:18.001Z</time></trkpt><trkpt lat="45.859162966972654" lon="9.87932981000492"><ele>448.3333333333333</ele><time>2026-04-05T15:49:19.001Z</time></trkpt><trkpt lat="45.85908046609409" lon="9.879327362567743"><ele>448.0</ele><time>2026-04-05T15:49:20.001Z</time></trkpt><trkpt lat="45.85899405555408" lon="9.879324957345965"><ele>447.66666666666663</ele><time>2026-04-05T15:49:21.001Z</time></trkpt><trkpt lat="45.85890767475703" lon="9.879304619415038"><ele>447.3333333333333</ele><time>2026-04-05T15:49:22.001Z</time></trkpt><trkpt lat="45.858840134246336" lon="9.87927688288149"><ele>447.0</ele><time>2026-04-05T15:49:23.001Z</time></trkpt><trkpt lat="45.85877516081733" lon="9.879263679780626"><ele>447.6</ele><time>2026-04-05T15:49:24.001Z</time></trkpt><trkpt lat="45.8587130875639" lon="9.879247925306853"><ele>448.20000000000005</ele><time>2026-04-05T15:49:25.001Z</time></trkpt><trkpt lat="45.8585970552008" lon="9.879213438384243"><ele>448.8</ele><time>2026-04-05T15:49:27.001Z</time></trkpt><trkpt lat="45.858479105151496" lon="9.87918629446038"><ele>449.4</ele><time>2026-04-05T15:49:29.002Z</time></trkpt><trkpt lat="45.85841385400733" lon="9.87916883393105"><ele>450.0</ele><time>2026-04-05T15:49:31.002Z</time></trkpt><trkpt lat="45.85830463816544" lon="9.879144066124072"><ele>450.0</ele><time>2026-04-05T15:49:34.002Z</time></trkpt><trkpt lat="45.85821184604957" lon="9.879129558779077"><ele>450.0</ele><time>2026-04-05T15:49:36.002Z</time></trkpt><trkpt lat="45.858147695906396" lon="9.879123885039656"><ele>450.0</ele><time>2026-04-05T15:49:38.002Z</time></trkpt><trkpt lat="45.85808018013325" lon="9.87912654694516"><ele>450.0</ele><time>2026-04-05T15:49:39.002Z</time></trkpt><trkpt lat="45.85798165801558" lon="9.879142227316498"><ele>450.0</ele><time>2026-04-05T15:49:40.002Z</time></trkpt><trkpt lat="45.857864335484976" lon="9.879184863514805"><ele>450.0</ele><time>2026-04-05T15:49:41.002Z</time></trkpt><trkpt lat="45.85775938762293" lon="9.879237797339252"><ele>449.25</ele><time>2026-04-05T15:49:42.002Z</time></trkpt><trkpt lat="45.85763072172036" lon="9.879273917445811"><ele>448.5</ele><time>2026-04-05T15:49:43.002Z</time></trkpt><trkpt lat="45.85749323442332" lon="9.879341112327898"><ele>447.75</ele><time>2026-04-05T15:49:44.002Z</time></trkpt><trkpt lat="45.85734281647785" lon="9.87941511046842"><ele>447.0</ele><time>2026-04-05T15:49:45.002Z</time></trkpt><trkpt lat="45.857197880425204" lon="9.879484864188989"><ele>446.66666666666663</ele><time>2026-04-05T15:49:46.002Z</time></trkpt><trkpt lat="45.85704915892818" lon="9.879571589655374"><ele>446.3333333333333</ele><time>2026-04-05T15:49:47.002Z</time></trkpt><trkpt lat="45.856889796322704" lon="9.879648700010248"><ele>446.0</ele><time>2026-04-05T15:49:48.002Z</time></trkpt><trkpt lat="45.8567275750143" lon="9.879723976022563"><ele>446.0</ele><time>2026-04-05T15:49:49.002Z</time></trkpt><trkpt lat="45.856572165679125" lon="9.879800898625467"><ele>446.0</ele><time>2026-04-05T15:49:50.002Z</time></trkpt><trkpt lat="45.85641893597514" lon="9.879873794042565"><ele>446.0</ele><time>2026-04-05T15:49:51.002Z</time></trkpt><trkpt lat="45.85626789736411" lon="9.879941760809764"><ele>446.0</ele><time>2026-04-05T15:49:52.002Z</time></trkpt><trkpt lat="45.85612236073187" lon="9.880012773229343"><ele>446.0</ele><time>2026-04-05T15:49:53.002Z</time></trkpt><trkpt lat="45.85597878833608" lon="9.880080152340184"><ele>446.0</ele><time>2026-04-05T15:49:54.002Z</time></trkpt><trkpt lat="45.855831225409155" lon="9.880122740286371"><ele>445.5</ele><time>2026-04-05T15:49:55.002Z</time></trkpt><trkpt lat="45.85569744278391" lon="9.880198427105896"><ele>445.0</ele><time>2026-04-05T15:49:56.002Z</time></trkpt><trkpt lat="45.855572428816046" lon="9.88024627007548"><ele>444.5</ele><time>2026-04-05T15:49:57.002Z</time></trkpt><trkpt lat="45.8554447113164" lon="9.880252732430439"><ele>444.0</ele><time>2026-04-05T15:49:58.002Z</time></trkpt><trkpt lat="45.855326484887314" lon="9.880274678664515"><ele>444.0</ele><time>2026-04-05T15:49:59Z</time></trkpt><trkpt lat="45.85520691862034" lon="9.880295386930873"><ele>444.0</ele><time>2026-04-05T15:50:00Z</time></trkpt><trkpt lat="45.85508336747175" lon="9.88031682339689"><ele>444.0</ele><time>2026-04-05T15:50:01Z</time></trkpt><trkpt lat="45.85495989244786" lon="9.880339596730602"><ele>444.0</ele><time>2026-04-05T15:50:02Z</time></trkpt><trkpt lat="45.85484183693905" lon="9.880362142272263"><ele>443.5</ele><time>2026-04-05T15:50:03Z</time></trkpt><trkpt lat="45.85471747708009" lon="9.880399906703794"><ele>443.0</ele><time>2026-04-05T15:50:04Z</time></trkpt><trkpt lat="45.854604174957814" lon="9.880473360992747"><ele>442.5</ele><time>2026-04-05T15:50:05Z</time></trkpt><trkpt lat="45.854487084042724" lon="9.880530389367522"><ele>442.0</ele><time>2026-04-05T15:50:06Z</time></trkpt><trkpt lat="45.85436793200817" lon="9.88059229092953"><ele>443.40000000000003</ele><time>2026-04-05T15:50:07Z</time></trkpt><trkpt lat="45.85425208876793" lon="9.88066260777863"><ele>444.80000000000007</ele><time>2026-04-05T15:50:08Z</time></trkpt><trkpt lat="45.85413866063952" lon="9.880732799709183"><ele>446.2</ele><time>2026-04-05T15:50:09Z</time></trkpt><trkpt lat="45.85405375081573" lon="9.880784225577141"><ele>447.6</ele><time>2026-04-05T15:50:10Z</time></trkpt><trkpt lat="45.85399452172552" lon="9.880827420027636"><ele>449.0</ele><time>2026-04-05T15:50:11Z</time></trkpt><trkpt lat="45.85392982984617" lon="9.880868350242228"><ele>448.99999999999994</ele><time>2026-04-05T15:50:13Z</time></trkpt><trkpt lat="45.85386005027536" lon="9.880901036186469"><ele>449.0</ele><time>2026-04-05T15:50:17Z</time></trkpt><trkpt lat="45.8537635815062" lon="9.8809744704556"><ele>449.0</ele><time>2026-04-05T15:50:20Z</time></trkpt><trkpt lat="45.85370137226633" lon="9.880996400380482"><ele>449.0</ele><time>2026-04-05T15:50:21Z</time></trkpt><trkpt lat="45.85361584547706" lon="9.881046000671596"><ele>448.99999999999994</ele><time>2026-04-05T15:50:22Z</time></trkpt><trkpt lat="45.853537939391494" lon="9.881091781295712"><ele>449.0</ele><time>2026-04-05T15:50:23Z</time></trkpt><trkpt lat="45.85346889779103" lon="9.881129839469315"><ele>448.2</ele><time>2026-04-05T15:50:24Z</time></trkpt><trkpt lat="45.853408600347244" lon="9.881164703884044"><ele>447.4</ele><time>2026-04-05T15:50:25Z</time></trkpt><trkpt lat="45.853297248838246" lon="9.881225414463529"><ele>446.6</ele><time>2026-04-05T15:50:27Z</time></trkpt><trkpt lat="45.853222851218625" lon="9.881266379245357"><ele>445.8</ele><time>2026-04-05T15:50:28Z</time></trkpt><trkpt lat="45.85312800477495" lon="9.881304860584372"><ele>445.0</ele><time>2026-04-05T15:50:29Z</time></trkpt><trkpt lat="45.8530094931521" lon="9.881338571312721"><ele>445.0</ele><time>2026-04-05T15:50:30Z</time></trkpt><trkpt lat="45.852873908048764" lon="9.88138227062856"><ele>445.0</ele><time>2026-04-05T15:50:31Z</time></trkpt><trkpt lat="45.85274097521593" lon="9.881429535482386"><ele>445.0</ele><time>2026-04-05T15:50:32Z</time></trkpt><trkpt lat="45.852618032157174" lon="9.881463857680604"><ele>445.0</ele><time>2026-04-05T15:50:33Z</time></trkpt><trkpt lat="45.852489494782965" lon="9.881506509428814"><ele>446.0</ele><time>2026-04-05T15:50:34Z</time></trkpt><trkpt lat="45.85235264731542" lon="9.881537045345945"><ele>447.0</ele><time>2026-04-05T15:50:35.001Z</time></trkpt><trkpt lat="45.85220523493257" lon="9.88156335292751"><ele>448.0</ele><time>2026-04-05T15:50:36.001Z</time></trkpt><trkpt lat="45.85205216674031" lon="9.88159067876121"><ele>449.0</ele><time>2026-04-05T15:50:37.001Z</time></trkpt><trkpt lat="45.85190036211405" lon="9.881609013089141"><ele>449.66666666666663</ele><time>2026-04-05T15:50:38.001Z</time></trkpt><trkpt lat="45.85173999900305" lon="9.881625017609824"><ele>450.33333333333337</ele><time>2026-04-05T15:50:39.001Z</time></trkpt><trkpt lat="45.85157830703629" lon="9.881641330316711"><ele>451.0</ele><time>2026-04-05T15:50:40.001Z</time></trkpt><trkpt lat="45.851415513827135" lon="9.881635384150128"><ele>451.0</ele><time>2026-04-05T15:50:41.001Z</time></trkpt><trkpt lat="45.85125331802379" lon="9.881650972625849"><ele>451.0</ele><time>2026-04-05T15:50:42.001Z</time></trkpt><trkpt lat="45.85107984979177" lon="9.88166728285058"><ele>451.0</ele><time>2026-04-05T15:50:43.001Z</time></trkpt><trkpt lat="45.85089815140063" lon="9.881684728315042"><ele>450.0</ele><time>2026-04-05T15:50:44.001Z</time></trkpt><trkpt lat="45.85071317234301" lon="9.881696100080525"><ele>449.0</ele><time>2026-04-05T15:50:45.001Z</time></trkpt><trkpt lat="45.85054565582584" lon="9.881718605049143"><ele>448.0</ele><time>2026-04-05T15:50:46.001Z</time></trkpt><trkpt lat="45.85038543356359" lon="9.88173153856328"><ele>448.0</ele><time>2026-04-05T15:50:47.001Z</time></trkpt><trkpt lat="45.85022732068706" lon="9.881716767099219"><ele>448.0</ele><time>2026-04-05T15:50:48.001Z</time></trkpt><trkpt lat="45.850071233366045" lon="9.881688149855261"><ele>448.0</ele><time>2026-04-05T15:50:49.001Z</time></trkpt><trkpt lat="45.84991471521429" lon="9.881644587204955"><ele>446.0</ele><time>2026-04-05T15:50:50.001Z</time></trkpt><trkpt lat="45.84975208030306" lon="9.881583472087668"><ele>444.0</ele><time>2026-04-05T15:50:51.001Z</time></trkpt><trkpt lat="45.84959014956824" lon="9.881509459097034"><ele>442.0</ele><time>2026-04-05T15:50:52.001Z</time></trkpt><trkpt lat="45.84943787092846" lon="9.881407525270026"><ele>442.0</ele><time>2026-04-05T15:50:53.001Z</time></trkpt><trkpt lat="45.84930032829563" lon="9.881296038713247"><ele>442.0</ele><time>2026-04-05T15:50:54.001Z</time></trkpt><trkpt lat="45.84917259799309" lon="9.88114949924899"><ele>442.0</ele><time>2026-04-05T15:50:55.001Z</time></trkpt><trkpt lat="45.84905329231199" lon="9.881011803151486"><ele>443.5</ele><time>2026-04-05T15:50:56.001Z</time></trkpt><trkpt lat="45.84894633779476" lon="9.880884643816305"><ele>445.0</ele><time>2026-04-05T15:50:57.001Z</time></trkpt><trkpt lat="45.84883531211112" lon="9.88075264422676"><ele>446.5</ele><time>2026-04-05T15:50:58.001Z</time></trkpt><trkpt lat="45.84871355250111" lon="9.880607218694673"><ele>448.0</ele><time>2026-04-05T15:50:59.001Z</time></trkpt><trkpt lat="45.84857983405856" lon="9.880446795420575"><ele>444.33333333333337</ele><time>2026-04-05T15:51:00.001Z</time></trkpt><trkpt lat="45.84844576209596" lon="9.880285948024408"><ele>440.66666666666663</ele><time>2026-04-05T15:51:01.001Z</time></trkpt><trkpt lat="45.848323478918" lon="9.880139243746473"><ele>437.0</ele><time>2026-04-05T15:51:02.001Z</time></trkpt><trkpt lat="45.84792932113762" lon="9.879673892856776"><ele>437.0</ele><time>2026-04-05T15:51:05.001Z</time></trkpt><trkpt lat="45.84779006830607" lon="9.879542170876293"><ele>437.0</ele><time>2026-04-05T15:51:06.001Z</time></trkpt><trkpt lat="45.847654108411135" lon="9.879442916558503"><ele>437.0</ele><time>2026-04-05T15:51:07.001Z</time></trkpt><trkpt lat="45.84751842864705" lon="9.879371496448417"><ele>437.0</ele><time>2026-04-05T15:51:08.001Z</time></trkpt><trkpt lat="45.84738495111205" lon="9.87931895817691"><ele>437.0</ele><time>2026-04-05T15:51:09.001Z</time></trkpt><trkpt lat="45.84723770373583" lon="9.879285759564384"><ele>437.0</ele><time>2026-04-05T15:51:10.001Z</time></trkpt><trkpt lat="45.847083983366275" lon="9.879276483508187"><ele>437.0</ele><time>2026-04-05T15:51:11.001Z</time></trkpt><trkpt lat="45.846922457991596" lon="9.879286616322089"><ele>436.0</ele><time>2026-04-05T15:51:12.001Z</time></trkpt><trkpt lat="45.84676405710999" lon="9.879306176162988"><ele>435.0</ele><time>2026-04-05T15:51:13.001Z</time></trkpt><trkpt lat="45.846609365264186" lon="9.879325857379577"><ele>434.0</ele><time>2026-04-05T15:51:14.001Z</time></trkpt><trkpt lat="45.84646024148476" lon="9.87934545301347"><ele>434.0</ele><time>2026-04-05T15:51:15.001Z</time></trkpt><trkpt lat="45.84630722417432" lon="9.879365560277362"><ele>434.0</ele><time>2026-04-05T15:51:16.001Z</time></trkpt><trkpt lat="45.84614263836384" lon="9.879387348686828"><ele>434.0</ele><time>2026-04-05T15:51:17.001Z</time></trkpt><trkpt lat="45.845971567154145" lon="9.879410614879456"><ele>434.66666666666663</ele><time>2026-04-05T15:51:18.001Z</time></trkpt><trkpt lat="45.84579804689613" lon="9.879434216160524"><ele>435.33333333333337</ele><time>2026-04-05T15:51:19.001Z</time></trkpt><trkpt lat="45.84562358646559" lon="9.879481894125853"><ele>436.0</ele><time>2026-04-05T15:51:20.001Z</time></trkpt><trkpt lat="45.8454534790361" lon="9.879481673423687"><ele>436.0</ele><time>2026-04-05T15:51:21.001Z</time></trkpt><trkpt lat="45.84529527421191" lon="9.87950937744563"><ele>436.0</ele><time>2026-04-05T15:51:22.001Z</time></trkpt><trkpt lat="45.84515428479668" lon="9.879539219294484"><ele>436.0</ele><time>2026-04-05T15:51:23.001Z</time></trkpt><trkpt lat="45.84502447576127" lon="9.87957630868275"><ele>436.0</ele><time>2026-04-05T15:51:24.001Z</time></trkpt><trkpt lat="45.84490162462392" lon="9.879635566866412"><ele>436.25</ele><time>2026-04-05T15:51:25.001Z</time></trkpt><trkpt lat="45.844780449137794" lon="9.87968521981892"><ele>436.5</ele><time>2026-04-05T15:51:26.001Z</time></trkpt><trkpt lat="45.8446701441363" lon="9.879737490383635"><ele>436.75</ele><time>2026-04-05T15:51:27.001Z</time></trkpt><trkpt lat="45.844557224407275" lon="9.879794974416841"><ele>437.0</ele><time>2026-04-05T15:51:28.001Z</time></trkpt><trkpt lat="45.844442859859456" lon="9.879854767943348"><ele>437.0</ele><time>2026-04-05T15:51:29.001Z</time></trkpt><trkpt lat="45.844324739276225" lon="9.87991605566135"><ele>437.00000000000006</ele><time>2026-04-05T15:51:30.001Z</time></trkpt><trkpt lat="45.844214894708095" lon="9.879972741038486"><ele>437.00000000000006</ele><time>2026-04-05T15:51:31.001Z</time></trkpt><trkpt lat="45.844117466274554" lon="9.88002363946269"><ele>437.0</ele><time>2026-04-05T15:51:32.001Z</time></trkpt><trkpt lat="45.84402362267246" lon="9.880059314915805"><ele>437.0</ele><time>2026-04-05T15:51:33.002Z</time></trkpt><trkpt lat="45.84392985377485" lon="9.880064915182336"><ele>436.8</ele><time>2026-04-05T15:51:34.002Z</time></trkpt><trkpt lat="45.843832875596874" lon="9.88003829733865"><ele>436.6</ele><time>2026-04-05T15:51:35.002Z</time></trkpt><trkpt lat="45.84373687057921" lon="9.879979237898505"><ele>436.40000000000003</ele><time>2026-04-05T15:51:36.002Z</time></trkpt><trkpt lat="45.843644592062034" lon="9.879884487169567"><ele>436.20000000000005</ele><time>2026-04-05T15:51:37.002Z</time></trkpt><trkpt lat="45.843573107410144" lon="9.879762698723383"><ele>436.0</ele><time>2026-04-05T15:51:38.002Z</time></trkpt><trkpt lat="45.843511321099555" lon="9.879662197711681"><ele>436.0</ele><time>2026-04-05T15:51:39.002Z</time></trkpt><trkpt lat="45.84345470081938" lon="9.879561786752154"><ele>436.0</ele><time>2026-04-05T15:51:40.002Z</time></trkpt><trkpt lat="45.84340286230113" lon="9.879467017109214"><ele>436.0</ele><time>2026-04-05T15:51:41.002Z</time></trkpt><trkpt lat="45.8433531408565" lon="9.879364841928247"><ele>436.0</ele><time>2026-04-05T15:51:42.002Z</time></trkpt><trkpt lat="45.843305498417244" lon="9.879246290771626"><ele>436.0</ele><time>2026-04-05T15:51:43.002Z</time></trkpt><trkpt lat="45.843254326482466" lon="9.879129875528262"><ele>436.0</ele><time>2026-04-05T15:51:44.002Z</time></trkpt><trkpt lat="45.8432008648552" lon="9.879008016368308"><ele>436.0</ele><time>2026-04-05T15:51:45.002Z</time></trkpt><trkpt lat="45.84314758127379" lon="9.878873610576267"><ele>436.0</ele><time>2026-04-05T15:51:46.002Z</time></trkpt><trkpt lat="45.84309414963907" lon="9.87872050049179"><ele>436.0</ele><time>2026-04-05T15:51:47.002Z</time></trkpt><trkpt lat="45.84303832680209" lon="9.878560579695707"><ele>435.0</ele><time>2026-04-05T15:51:48.002Z</time></trkpt><trkpt lat="45.842980623191245" lon="9.878385790158376"><ele>434.0</ele><time>2026-04-05T15:51:49.002Z</time></trkpt><trkpt lat="45.842915473642854" lon="9.878192042293103"><ele>433.0</ele><time>2026-04-05T15:51:50.002Z</time></trkpt><trkpt lat="45.84285113746515" lon="9.87799355625038"><ele>432.0</ele><time>2026-04-05T15:51:51.002Z</time></trkpt><trkpt lat="45.84278396290602" lon="9.877780811671519"><ele>431.0</ele><time>2026-04-05T15:51:52.002Z</time></trkpt><trkpt lat="45.8427325226346" lon="9.877558554686894"><ele>430.0</ele><time>2026-04-05T15:51:53.002Z</time></trkpt><trkpt lat="45.842662343251924" lon="9.877334200541291"><ele>429.0</ele><time>2026-04-05T15:51:54.002Z</time></trkpt><trkpt lat="45.842586059394264" lon="9.877097321525286"><ele>431.33333333333337</ele><time>2026-04-05T15:51:55.002Z</time></trkpt><trkpt lat="45.84250268506918" lon="9.876871348990525"><ele>433.6666666666667</ele><time>2026-04-05T15:51:56.002Z</time></trkpt><trkpt lat="45.842425806731946" lon="9.876651153874013"><ele>436.0</ele><time>2026-04-05T15:51:57.002Z</time></trkpt><trkpt lat="45.84234273102662" lon="9.876450200150071"><ele>436.0</ele><time>2026-04-05T15:51:58.002Z</time></trkpt><trkpt lat="45.842254551579416" lon="9.876275789972984"><ele>436.0</ele><time>2026-04-05T15:51:59.002Z</time></trkpt><trkpt lat="45.84216542356936" lon="9.876123892057477"><ele>436.0</ele><time>2026-04-05T15:52:00.002Z</time></trkpt><trkpt lat="45.842073794434945" lon="9.875983609995677"><ele>436.0</ele><time>2026-04-05T15:52:01.002Z</time></trkpt><trkpt lat="45.84197711287269" lon="9.875852069213042"><ele>436.5</ele><time>2026-04-05T15:52:02.002Z</time></trkpt><trkpt lat="45.84186731646797" lon="9.875724388437488"><ele>437.0</ele><time>2026-04-05T15:52:03.002Z</time></trkpt><trkpt lat="45.84174722589074" lon="9.875603734209523"><ele>437.5</ele><time>2026-04-05T15:52:04.002Z</time></trkpt><trkpt lat="45.841616066662446" lon="9.875491747303453"><ele>438.0</ele><time>2026-04-05T15:52:05Z</time></trkpt><trkpt lat="45.84146116766498" lon="9.875378324936694"><ele>438.0</ele><time>2026-04-05T15:52:06Z</time></trkpt><trkpt lat="45.84130481361067" lon="9.875225681858474"><ele>438.0</ele><time>2026-04-05T15:52:07Z</time></trkpt><trkpt lat="45.841133686994965" lon="9.875086631175714"><ele>438.0</ele><time>2026-04-05T15:52:08Z</time></trkpt><trkpt lat="45.84095048599317" lon="9.874965900856935"><ele>436.33333333333337</ele><time>2026-04-05T15:52:09Z</time></trkpt><trkpt lat="45.84078236858339" lon="9.874819817168264"><ele>434.6666666666667</ele><time>2026-04-05T15:52:10Z</time></trkpt><trkpt lat="45.84061718979929" lon="9.874682672816938"><ele>433.0</ele><time>2026-04-05T15:52:11Z</time></trkpt><trkpt lat="45.8404606085058" lon="9.874539324729026"><ele>433.0</ele><time>2026-04-05T15:52:12Z</time></trkpt><trkpt lat="45.84030925774292" lon="9.874387596577726"><ele>433.0</ele><time>2026-04-05T15:52:13Z</time></trkpt><trkpt lat="45.84016089681528" lon="9.874225967813137"><ele>433.0</ele><time>2026-04-05T15:52:14Z</time></trkpt><trkpt lat="45.840013340999576" lon="9.8740572763325"><ele>432.33333333333337</ele><time>2026-04-05T15:52:15Z</time></trkpt><trkpt lat="45.83987742244963" lon="9.873892309905276"><ele>431.66666666666663</ele><time>2026-04-05T15:52:16Z</time></trkpt><trkpt lat="45.83974207862508" lon="9.873717223041108"><ele>431.0</ele><time>2026-04-05T15:52:17Z</time></trkpt><trkpt lat="45.83961038042649" lon="9.873555620456035"><ele>427.66666666666663</ele><time>2026-04-05T15:52:18Z</time></trkpt><trkpt lat="45.83948068991973" lon="9.873401395694703"><ele>424.33333333333337</ele><time>2026-04-05T15:52:19Z</time></trkpt><trkpt lat="45.83935699351399" lon="9.873244925763842"><ele>421.0</ele><time>2026-04-05T15:52:20Z</time></trkpt><trkpt lat="45.839237594830976" lon="9.873078523285246"><ele>422.0</ele><time>2026-04-05T15:52:21Z</time></trkpt><trkpt lat="45.83912245990057" lon="9.87287428895141"><ele>423.0</ele><time>2026-04-05T15:52:22Z</time></trkpt><trkpt lat="45.83898258322878" lon="9.872663450928117"><ele>424.0</ele><time>2026-04-05T15:52:23Z</time></trkpt><trkpt lat="45.83882475409103" lon="9.872451957243243"><ele>424.0</ele><time>2026-04-05T15:52:24Z</time></trkpt><trkpt lat="45.838673930882834" lon="9.872219784628442"><ele>424.0</ele><time>2026-04-05T15:52:25Z</time></trkpt><trkpt lat="45.83853171899682" lon="9.871979254628338"><ele>424.0</ele><time>2026-04-05T15:52:26Z</time></trkpt><trkpt lat="45.83841979034324" lon="9.87172387163261"><ele>425.6666666666667</ele><time>2026-04-05T15:52:27Z</time></trkpt><trkpt lat="45.83829540891183" lon="9.871518242209058"><ele>427.33333333333337</ele><time>2026-04-05T15:52:28Z</time></trkpt><trkpt lat="45.8381860614699" lon="9.871321076137434"><ele>429.0</ele><time>2026-04-05T15:52:29Z</time></trkpt><trkpt lat="45.83806674183157" lon="9.871157590009647"><ele>429.0</ele><time>2026-04-05T15:52:30Z</time></trkpt><trkpt lat="45.83793380961592" lon="9.871009393860207"><ele>429.0</ele><time>2026-04-05T15:52:31Z</time></trkpt><trkpt lat="45.83779554544006" lon="9.87087900482821"><ele>429.0</ele><time>2026-04-05T15:52:32Z</time></trkpt><trkpt lat="45.837666149945" lon="9.870735548015675"><ele>429.33333333333337</ele><time>2026-04-05T15:52:33Z</time></trkpt><trkpt lat="45.83751303874938" lon="9.87064605243554"><ele>429.6666666666667</ele><time>2026-04-05T15:52:34Z</time></trkpt><trkpt lat="45.837367182974056" lon="9.87051741864493"><ele>430.0</ele><time>2026-04-05T15:52:35Z</time></trkpt><trkpt lat="45.83722173988382" lon="9.870375545558776"><ele>430.0</ele><time>2026-04-05T15:52:36Z</time></trkpt><trkpt lat="45.83709015291242" lon="9.870238073822787"><ele>430.0</ele><time>2026-04-05T15:52:37Z</time></trkpt><trkpt lat="45.8369638269795" lon="9.87011662643555"><ele>430.0</ele><time>2026-04-05T15:52:38Z</time></trkpt><trkpt lat="45.83683884975407" lon="9.870005691563508"><ele>430.0</ele><time>2026-04-05T15:52:39Z</time></trkpt><trkpt lat="45.83671198616866" lon="9.86989096762689"><ele>430.0</ele><time>2026-04-05T15:52:40Z</time></trkpt><trkpt lat="45.836592585307116" lon="9.869749775869343"><ele>430.0</ele><time>2026-04-05T15:52:41Z</time></trkpt><trkpt lat="45.83646014943963" lon="9.869629872244273"><ele>430.0</ele><time>2026-04-05T15:52:42Z</time></trkpt><trkpt lat="45.836337371913196" lon="9.869517643187306"><ele>430.0</ele><time>2026-04-05T15:52:43Z</time></trkpt><trkpt lat="45.83622061808313" lon="9.869410920182231"><ele>430.0</ele><time>2026-04-05T15:52:44Z</time></trkpt><trkpt lat="45.83608632116085" lon="9.869327580156257"><ele>430.0</ele><time>2026-04-05T15:52:45Z</time></trkpt><trkpt lat="45.83595311754307" lon="9.869212237162143"><ele>429.33333333333337</ele><time>2026-04-05T15:52:46Z</time></trkpt><trkpt lat="45.83581546357787" lon="9.869084002727432"><ele>428.66666666666663</ele><time>2026-04-05T15:52:47Z</time></trkpt><trkpt lat="45.835694498220626" lon="9.868957824486094"><ele>428.0</ele><time>2026-04-05T15:52:48Z</time></trkpt><trkpt lat="45.83557753159326" lon="9.868846762223837"><ele>428.0</ele><time>2026-04-05T15:52:49Z</time></trkpt><trkpt lat="45.83547297525315" lon="9.868760112399913"><ele>427.99999999999994</ele><time>2026-04-05T15:52:50Z</time></trkpt><trkpt lat="45.835375088090316" lon="9.86868092197373"><ele>427.99999999999994</ele><time>2026-04-05T15:52:51Z</time></trkpt><trkpt lat="45.83528432115356" lon="9.86860611560194"><ele>428.0</ele><time>2026-04-05T15:52:52Z</time></trkpt><trkpt lat="45.83519768842901" lon="9.868534568085744"><ele>428.0</ele><time>2026-04-05T15:52:53.001Z</time></trkpt><trkpt lat="45.83511037403876" lon="9.868460284127563"><ele>428.0</ele><time>2026-04-05T15:52:54.001Z</time></trkpt><trkpt lat="45.835017225899634" lon="9.868385884244372"><ele>427.99999999999994</ele><time>2026-04-05T15:52:55.001Z</time></trkpt><trkpt lat="45.834920125401794" lon="9.868309619493122"><ele>427.99999999999994</ele><time>2026-04-05T15:52:56.001Z</time></trkpt><trkpt lat="45.834822072629656" lon="9.868236527585974"><ele>428.0</ele><time>2026-04-05T15:52:57.001Z</time></trkpt><trkpt lat="45.83472594264023" lon="9.86816741429777"><ele>428.0</ele><time>2026-04-05T15:52:58.001Z</time></trkpt><trkpt lat="45.83462971499636" lon="9.868094536370819"><ele>428.0</ele><time>2026-04-05T15:52:59.001Z</time></trkpt><trkpt lat="45.834520147912215" lon="9.8680121837001"><ele>428.0</ele><time>2026-04-05T15:53:00.001Z</time></trkpt><trkpt lat="45.834395886577525" lon="9.867918710558342"><ele>428.0</ele><time>2026-04-05T15:53:01.001Z</time></trkpt><trkpt lat="45.834263568334734" lon="9.867816808227879"><ele>428.0</ele><time>2026-04-05T15:53:02.001Z</time></trkpt><trkpt lat="45.83412380370866" lon="9.86770321820053"><ele>425.66666666666663</ele><time>2026-04-05T15:53:03.001Z</time></trkpt><trkpt lat="45.833973312218305" lon="9.867589871905992"><ele>423.33333333333337</ele><time>2026-04-05T15:53:04.001Z</time></trkpt><trkpt lat="45.83382284915362" lon="9.867486463190737"><ele>421.0</ele><time>2026-04-05T15:53:05.001Z</time></trkpt><trkpt lat="45.833667222919104" lon="9.867363647624185"><ele>421.0</ele><time>2026-04-05T15:53:06.001Z</time></trkpt><trkpt lat="45.83350086116827" lon="9.867238049231783"><ele>421.0</ele><time>2026-04-05T15:53:07.001Z</time></trkpt><trkpt lat="45.83332744349375" lon="9.867107788793893"><ele>421.0</ele><time>2026-04-05T15:53:08.001Z</time></trkpt><trkpt lat="45.83314903203341" lon="9.866972187816906"><ele>421.0</ele><time>2026-04-05T15:53:09.001Z</time></trkpt><trkpt lat="45.83296547336053" lon="9.866829993890196"><ele>421.0</ele><time>2026-04-05T15:53:10.001Z</time></trkpt><trkpt lat="45.83277873530776" lon="9.866677778367338"><ele>421.0</ele><time>2026-04-05T15:53:11.001Z</time></trkpt><trkpt lat="45.83258975070236" lon="9.866529917332574"><ele>420.6666666666667</ele><time>2026-04-05T15:53:12.001Z</time></trkpt><trkpt lat="45.832394993198086" lon="9.86638310128112"><ele>420.33333333333337</ele><time>2026-04-05T15:53:13.001Z</time></trkpt><trkpt lat="45.832202804052926" lon="9.866234667691675"><ele>420.0</ele><time>2026-04-05T15:53:14.001Z</time></trkpt><trkpt lat="45.83201556732345" lon="9.866094929253716"><ele>420.0</ele><time>2026-04-05T15:53:15.001Z</time></trkpt><trkpt lat="45.83184284924563" lon="9.865960794608528"><ele>420.0</ele><time>2026-04-05T15:53:16.001Z</time></trkpt><trkpt lat="45.831674568356114" lon="9.86583468641408"><ele>420.0</ele><time>2026-04-05T15:53:17.001Z</time></trkpt><trkpt lat="45.831499075299455" lon="9.865706112698376"><ele>419.66666666666663</ele><time>2026-04-05T15:53:18.001Z</time></trkpt><trkpt lat="45.831320898306025" lon="9.865591165964645"><ele>419.3333333333333</ele><time>2026-04-05T15:53:19.001Z</time></trkpt><trkpt lat="45.83114783005324" lon="9.865485191893283"><ele>419.0</ele><time>2026-04-05T15:53:20.001Z</time></trkpt><trkpt lat="45.8309798460012" lon="9.86538218292446"><ele>417.0</ele><time>2026-04-05T15:53:21.001Z</time></trkpt><trkpt lat="45.83080781016938" lon="9.865281104164987"><ele>415.0</ele><time>2026-04-05T15:53:22.001Z</time></trkpt><trkpt lat="45.83062761024889" lon="9.865170911553776"><ele>413.0</ele><time>2026-04-05T15:53:23.001Z</time></trkpt><trkpt lat="45.83044611750081" lon="9.865061796176878"><ele>413.0</ele><time>2026-04-05T15:53:24.001Z</time></trkpt><trkpt lat="45.830267055191655" lon="9.864951079316437"><ele>413.0</ele><time>2026-04-05T15:53:25.001Z</time></trkpt><trkpt lat="45.83009343184547" lon="9.864846714557121"><ele>413.0</ele><time>2026-04-05T15:53:26.001Z</time></trkpt><trkpt lat="45.82992783082058" lon="9.864726680926358"><ele>418.0</ele><time>2026-04-05T15:53:27.001Z</time></trkpt><trkpt lat="45.82975735549044" lon="9.86462146075866"><ele>423.0</ele><time>2026-04-05T15:53:28.001Z</time></trkpt><trkpt lat="45.82958214926907" lon="9.864517327735037"><ele>428.0</ele><time>2026-04-05T15:53:29.001Z</time></trkpt><trkpt lat="45.82940419731467" lon="9.864411624757935"><ele>425.66666666666663</ele><time>2026-04-05T15:53:30.001Z</time></trkpt><trkpt lat="45.82923609409309" lon="9.864311597863603"><ele>423.33333333333337</ele><time>2026-04-05T15:53:31.001Z</time></trkpt><trkpt lat="45.82908268232177" lon="9.864217380357607"><ele>421.0</ele><time>2026-04-05T15:53:32.001Z</time></trkpt><trkpt lat="45.82893208835999" lon="9.8641277653756"><ele>421.0</ele><time>2026-04-05T15:53:33.001Z</time></trkpt><trkpt lat="45.82879012725674" lon="9.864040282437657"><ele>421.0</ele><time>2026-04-05T15:53:34.001Z</time></trkpt><trkpt lat="45.82865617819501" lon="9.863952253639747"><ele>421.0</ele><time>2026-04-05T15:53:35.001Z</time></trkpt><trkpt lat="45.82852369160657" lon="9.863865948430037"><ele>421.0</ele><time>2026-04-05T15:53:36.001Z</time></trkpt><trkpt lat="45.828397824316816" lon="9.863781887057236"><ele>418.75</ele><time>2026-04-05T15:53:37.001Z</time></trkpt><trkpt lat="45.82827690404569" lon="9.863698284927171"><ele>416.5</ele><time>2026-04-05T15:53:38.001Z</time></trkpt><trkpt lat="45.82815736980015" lon="9.863613883932901"><ele>414.25</ele><time>2026-04-05T15:53:39.001Z</time></trkpt><trkpt lat="45.82803293871328" lon="9.863519283916688"><ele>412.0</ele><time>2026-04-05T15:53:40.001Z</time></trkpt><trkpt lat="45.82790767661091" lon="9.863430072333184"><ele>412.0</ele><time>2026-04-05T15:53:41.001Z</time></trkpt><trkpt lat="45.827779001050715" lon="9.863335300538957"><ele>412.0</ele><time>2026-04-05T15:53:42.001Z</time></trkpt><trkpt lat="45.82764880623472" lon="9.863243577823903"><ele>412.0</ele><time>2026-04-05T15:53:43.001Z</time></trkpt><trkpt lat="45.82752339508761" lon="9.863148782162288"><ele>412.0</ele><time>2026-04-05T15:53:44.001Z</time></trkpt><trkpt lat="45.82740319452847" lon="9.863053676523919"><ele>414.0</ele><time>2026-04-05T15:53:45.001Z</time></trkpt><trkpt lat="45.82727654886055" lon="9.862959392273405"><ele>416.0</ele><time>2026-04-05T15:53:46.001Z</time></trkpt><trkpt lat="45.827147373386424" lon="9.862868839321788"><ele>418.0</ele><time>2026-04-05T15:53:47.001Z</time></trkpt><trkpt lat="45.82701469725773" lon="9.862788545770371"><ele>420.0</ele><time>2026-04-05T15:53:48.002Z</time></trkpt><trkpt lat="45.826874588691865" lon="9.862720684335942"><ele>419.0</ele><time>2026-04-05T15:53:49.002Z</time></trkpt><trkpt lat="45.82672899608965" lon="9.862670648696495"><ele>418.0</ele><time>2026-04-05T15:53:50.002Z</time></trkpt><trkpt lat="45.82657914464556" lon="9.862634617343298"><ele>417.0</ele><time>2026-04-05T15:53:51.002Z</time></trkpt><trkpt lat="45.826429654759536" lon="9.862605395444023"><ele>417.0</ele><time>2026-04-05T15:53:52.002Z</time></trkpt><trkpt lat="45.8262796445834" lon="9.86258391682508"><ele>417.0</ele><time>2026-04-05T15:53:53.002Z</time></trkpt><trkpt lat="45.82614843785397" lon="9.86255035550451"><ele>417.0</ele><time>2026-04-05T15:53:54.002Z</time></trkpt><trkpt lat="45.82602221242029" lon="9.862541055843979"><ele>417.0</ele><time>2026-04-05T15:53:55.002Z</time></trkpt><trkpt lat="45.82589929828852" lon="9.862512692221923"><ele>418.5</ele><time>2026-04-05T15:53:56.002Z</time></trkpt><trkpt lat="45.82576594349217" lon="9.862484599588086"><ele>420.0</ele><time>2026-04-05T15:53:57.002Z</time></trkpt><trkpt lat="45.82562815590405" lon="9.862431324151046"><ele>421.5</ele><time>2026-04-05T15:53:58.002Z</time></trkpt><trkpt lat="45.825481442357905" lon="9.862369226816567"><ele>423.0</ele><time>2026-04-05T15:53:59.002Z</time></trkpt><trkpt lat="45.82533050856748" lon="9.862296799375686"><ele>423.0</ele><time>2026-04-05T15:54:00.002Z</time></trkpt><trkpt lat="45.82516407773778" lon="9.862217760673317"><ele>423.0</ele><time>2026-04-05T15:54:01.002Z</time></trkpt><trkpt lat="45.82498634864114" lon="9.862104645278881"><ele>423.0</ele><time>2026-04-05T15:54:02.002Z</time></trkpt><trkpt lat="45.824793714503045" lon="9.862009236208607"><ele>424.66666666666663</ele><time>2026-04-05T15:54:03.002Z</time></trkpt><trkpt lat="45.824593341599524" lon="9.861909995975973"><ele>426.3333333333333</ele><time>2026-04-05T15:54:04.002Z</time></trkpt><trkpt lat="45.82438780981767" lon="9.861833108395917"><ele>428.0</ele><time>2026-04-05T15:54:05.002Z</time></trkpt><trkpt lat="45.824195642815944" lon="9.86173814727416"><ele>424.0</ele><time>2026-04-05T15:54:06.002Z</time></trkpt><trkpt lat="45.82400368671689" lon="9.86164365932319"><ele>420.0</ele><time>2026-04-05T15:54:07.002Z</time></trkpt><trkpt lat="45.82380898404533" lon="9.861545229254581"><ele>416.0</ele><time>2026-04-05T15:54:08.002Z</time></trkpt><trkpt lat="45.82362465147653" lon="9.861448063004952"><ele>421.66666666666663</ele><time>2026-04-05T15:54:09.002Z</time></trkpt><trkpt lat="45.82344842799137" lon="9.861363514881642"><ele>427.33333333333337</ele><time>2026-04-05T15:54:10.002Z</time></trkpt><trkpt lat="45.82327927477788" lon="9.861283346647001"><ele>433.0</ele><time>2026-04-05T15:54:11Z</time></trkpt><trkpt lat="45.823110901210704" lon="9.861200621193499"><ele>433.0</ele><time>2026-04-05T15:54:12Z</time></trkpt><trkpt lat="45.82294244837263" lon="9.861119535197984"><ele>433.0</ele><time>2026-04-05T15:54:13Z</time></trkpt><trkpt lat="45.822784893374745" lon="9.861042039580715"><ele>433.0</ele><time>2026-04-05T15:54:14Z</time></trkpt><trkpt lat="45.82263754392876" lon="9.860964741434556"><ele>426.0</ele><time>2026-04-05T15:54:15Z</time></trkpt><trkpt lat="45.82248506531731" lon="9.860890931125397"><ele>419.0</ele><time>2026-04-05T15:54:16Z</time></trkpt><trkpt lat="45.82232910965043" lon="9.860819736156513"><ele>412.0</ele><time>2026-04-05T15:54:17Z</time></trkpt><trkpt lat="45.82218320421975" lon="9.8607501539389"><ele>412.0</ele><time>2026-04-05T15:54:18Z</time></trkpt><trkpt lat="45.822042787553244" lon="9.860677508908136"><ele>412.0</ele><time>2026-04-05T15:54:19Z</time></trkpt><trkpt lat="45.82190518131837" lon="9.86061127055021"><ele>412.0</ele><time>2026-04-05T15:54:20Z</time></trkpt><trkpt lat="45.821770385448175" lon="9.86055473153264"><ele>412.0</ele><time>2026-04-05T15:54:21Z</time></trkpt><trkpt lat="45.82164009819878" lon="9.860517754267583"><ele>413.0</ele><time>2026-04-05T15:54:22Z</time></trkpt><trkpt lat="45.8215035364934" lon="9.860466873089187"><ele>414.0</ele><time>2026-04-05T15:54:23Z</time></trkpt><trkpt lat="45.821349006439455" lon="9.860453614850574"><ele>415.0</ele><time>2026-04-05T15:54:24Z</time></trkpt><trkpt lat="45.82118359467418" lon="9.860448491973106"><ele>415.0</ele><time>2026-04-05T15:54:25Z</time></trkpt><trkpt lat="45.821005421050586" lon="9.86044454665728"><ele>415.0</ele><time>2026-04-05T15:54:26Z</time></trkpt><trkpt lat="45.82081786425136" lon="9.860439850946527"><ele>415.0</ele><time>2026-04-05T15:54:27Z</time></trkpt><trkpt lat="45.82063442666337" lon="9.860455833056958"><ele>414.33333333333337</ele><time>2026-04-05T15:54:28Z</time></trkpt><trkpt lat="45.82046199083288" lon="9.860445574820131"><ele>413.66666666666663</ele><time>2026-04-05T15:54:29Z</time></trkpt><trkpt lat="45.82029767960401" lon="9.860437112230525"><ele>413.0</ele><time>2026-04-05T15:54:30Z</time></trkpt><trkpt lat="45.82014582923822" lon="9.860437621757066"><ele>413.0</ele><time>2026-04-05T15:54:31Z</time></trkpt><trkpt lat="45.8200068936571" lon="9.860438067635638"><ele>413.0</ele><time>2026-04-05T15:54:32Z</time></trkpt><trkpt lat="45.81987882791553" lon="9.860416897103576"><ele>413.0</ele><time>2026-04-05T15:54:33Z</time></trkpt><trkpt lat="45.81974365232734" lon="9.86040789048647"><ele>413.0</ele><time>2026-04-05T15:54:34Z</time></trkpt><trkpt lat="45.81960454168752" lon="9.860403631514394"><ele>413.0</ele><time>2026-04-05T15:54:35Z</time></trkpt><trkpt lat="45.81946897346184" lon="9.860399482304675"><ele>413.0</ele><time>2026-04-05T15:54:36Z</time></trkpt><trkpt lat="45.81934311673627" lon="9.860395874090704"><ele>413.0</ele><time>2026-04-05T15:54:37Z</time></trkpt><trkpt lat="45.81922664318192" lon="9.860392544804684"><ele>413.0</ele><time>2026-04-05T15:54:38Z</time></trkpt><trkpt lat="45.81911733055959" lon="9.860389527737151"><ele>411.79999999999995</ele><time>2026-04-05T15:54:39Z</time></trkpt><trkpt lat="45.81901378854792" lon="9.860386669938888"><ele>410.6</ele><time>2026-04-05T15:54:40Z</time></trkpt><trkpt lat="45.81891494728576" lon="9.860401709445055"><ele>409.4</ele><time>2026-04-05T15:54:41Z</time></trkpt><trkpt lat="45.818825927676606" lon="9.860393491022794"><ele>408.20000000000005</ele><time>2026-04-05T15:54:42Z</time></trkpt><trkpt lat="45.818741325561525" lon="9.86039201271496"><ele>407.0</ele><time>2026-04-05T15:54:43Z</time></trkpt><trkpt lat="45.81866129654835" lon="9.86038651576028"><ele>406.99999999999994</ele><time>2026-04-05T15:54:44Z</time></trkpt><trkpt lat="45.81857814775225" lon="9.860385272029342"><ele>407.0</ele><time>2026-04-05T15:54:45Z</time></trkpt><trkpt lat="45.81849202952733" lon="9.860398429119341"><ele>407.0</ele><time>2026-04-05T15:54:46Z</time></trkpt><trkpt lat="45.818413431786944" lon="9.86042053663378"><ele>407.0</ele><time>2026-04-05T15:54:47Z</time></trkpt><trkpt lat="45.81834048740142" lon="9.860445418135004"><ele>406.99999999999994</ele><time>2026-04-05T15:54:48Z</time></trkpt><trkpt lat="45.818268677226605" lon="9.860460673853838"><ele>407.0</ele><time>2026-04-05T15:54:49.001Z</time></trkpt><trkpt lat="45.818197276556155" lon="9.860465396831227"><ele>407.16666666666663</ele><time>2026-04-05T15:54:50.001Z</time></trkpt><trkpt lat="45.818122916789356" lon="9.860465679724783"><ele>407.3333333333333</ele><time>2026-04-05T15:54:51.001Z</time></trkpt><trkpt lat="45.81804090271393" lon="9.860462861437293"><ele>407.5</ele><time>2026-04-05T15:54:52.001Z</time></trkpt><trkpt lat="45.81796317845882" lon="9.860461104081761"><ele>407.66666666666663</ele><time>2026-04-05T15:54:53.001Z</time></trkpt><trkpt lat="45.817885811153815" lon="9.860459127028353"><ele>407.8333333333333</ele><time>2026-04-05T15:54:54.001Z</time></trkpt><trkpt lat="45.817803427091334" lon="9.860447046126605"><ele>408.0</ele><time>2026-04-05T15:54:55.001Z</time></trkpt><trkpt lat="45.81771001590194" lon="9.860409643917315"><ele>407.0</ele><time>2026-04-05T15:54:56.001Z</time></trkpt><trkpt lat="45.81760733333819" lon="9.860373379595757"><ele>406.0</ele><time>2026-04-05T15:54:57.001Z</time></trkpt><trkpt lat="45.81749556876626" lon="9.86035603833583"><ele>405.0</ele><time>2026-04-05T15:54:58.001Z</time></trkpt><trkpt lat="45.81737689856377" lon="9.860361495238225"><ele>404.0</ele><time>2026-04-05T15:54:59.001Z</time></trkpt><trkpt lat="45.817270235917945" lon="9.860356361743277"><ele>403.0</ele><time>2026-04-05T15:55:00.001Z</time></trkpt><trkpt lat="45.81716788116627" lon="9.860357476818955"><ele>403.0</ele><time>2026-04-05T15:55:01.001Z</time></trkpt><trkpt lat="45.81706295193819" lon="9.860354407484436"><ele>403.0</ele><time>2026-04-05T15:55:02.001Z</time></trkpt><trkpt lat="45.81695304128997" lon="9.860352262278342"><ele>403.0</ele><time>2026-04-05T15:55:03.001Z</time></trkpt><trkpt lat="45.816837882915735" lon="9.860347102105475"><ele>403.0</ele><time>2026-04-05T15:55:04.001Z</time></trkpt><trkpt lat="45.81672745493404" lon="9.860353775557167"><ele>403.0</ele><time>2026-04-05T15:55:05.001Z</time></trkpt><trkpt lat="45.81660172071045" lon="9.860354957721556"><ele>402.33333333333337</ele><time>2026-04-05T15:55:06.001Z</time></trkpt><trkpt lat="45.81644547963738" lon="9.86035436547591"><ele>401.66666666666663</ele><time>2026-04-05T15:55:07.001Z</time></trkpt><trkpt lat="45.816271628979095" lon="9.860338492630389"><ele>401.0</ele><time>2026-04-05T15:55:08.001Z</time></trkpt><trkpt lat="45.81609725026306" lon="9.860333100431454"><ele>401.25</ele><time>2026-04-05T15:55:09.001Z</time></trkpt><trkpt lat="45.81594500862187" lon="9.860327003729218"><ele>401.5</ele><time>2026-04-05T15:55:10.001Z</time></trkpt><trkpt lat="45.81579904490796" lon="9.860321603951842"><ele>401.75</ele><time>2026-04-05T15:55:11.001Z</time></trkpt><trkpt lat="45.815653398995885" lon="9.860316071564883"><ele>402.0</ele><time>2026-04-05T15:55:12.001Z</time></trkpt><trkpt lat="45.81551967535338" lon="9.860311710228151"><ele>402.0</ele><time>2026-04-05T15:55:13.001Z</time></trkpt><trkpt lat="45.81539273749016" lon="9.860298017861354"><ele>402.0</ele><time>2026-04-05T15:55:14.001Z</time></trkpt><trkpt lat="45.81526668972027" lon="9.86029515038268"><ele>402.0</ele><time>2026-04-05T15:55:15.001Z</time></trkpt><trkpt lat="45.815139359420556" lon="9.860285462987267"><ele>402.0</ele><time>2026-04-05T15:55:16.001Z</time></trkpt><trkpt lat="45.81500794170523" lon="9.860277518250006"><ele>402.5</ele><time>2026-04-05T15:55:17.001Z</time></trkpt><trkpt lat="45.814873145502354" lon="9.860282613899807"><ele>403.0</ele><time>2026-04-05T15:55:18.001Z</time></trkpt><trkpt lat="45.814724800771145" lon="9.860280538678413"><ele>403.5</ele><time>2026-04-05T15:55:19.001Z</time></trkpt><trkpt lat="45.8145792830173" lon="9.860279628359622"><ele>404.0</ele><time>2026-04-05T15:55:20.001Z</time></trkpt><trkpt lat="45.81443148295999" lon="9.860276858336771"><ele>404.5</ele><time>2026-04-05T15:55:21.001Z</time></trkpt><trkpt lat="45.81429907703331" lon="9.860289228686915"><ele>405.0</ele><time>2026-04-05T15:55:22.001Z</time></trkpt><trkpt lat="45.81415986801003" lon="9.860314778157607"><ele>405.5</ele><time>2026-04-05T15:55:23.001Z</time></trkpt><trkpt lat="45.81400608718178" lon="9.860341633939468"><ele>406.0</ele><time>2026-04-05T15:55:24.001Z</time></trkpt><trkpt lat="45.81381899914399" lon="9.860352718694607"><ele>406.0</ele><time>2026-04-05T15:55:25.001Z</time></trkpt><trkpt lat="45.81361821084887" lon="9.860388659015946"><ele>406.0</ele><time>2026-04-05T15:55:26.001Z</time></trkpt><trkpt lat="45.81340708594354" lon="9.860451332464645"><ele>406.0</ele><time>2026-04-05T15:55:27.001Z</time></trkpt><trkpt lat="45.81315990160597" lon="9.860488520284157"><ele>402.5</ele><time>2026-04-05T15:55:28.001Z</time></trkpt><trkpt lat="45.81290160004361" lon="9.860518797851347"><ele>399.0</ele><time>2026-04-05T15:55:29.001Z</time></trkpt><trkpt lat="45.81264794597323" lon="9.86054752455018"><ele>398.0</ele><time>2026-04-05T15:55:30.001Z</time></trkpt><trkpt lat="45.812403352368534" lon="9.860560447808073"><ele>397.0</ele><time>2026-04-05T15:55:31.001Z</time></trkpt><trkpt lat="45.8121880773589" lon="9.86053392866304"><ele>397.0</ele><time>2026-04-05T15:55:32.001Z</time></trkpt><trkpt lat="45.811992124795935" lon="9.86048183072433"><ele>397.0</ele><time>2026-04-05T15:55:33.001Z</time></trkpt><trkpt lat="45.81180779571769" lon="9.8604155820342"><ele>397.0</ele><time>2026-04-05T15:55:34.001Z</time></trkpt><trkpt lat="45.81163680415225" lon="9.860338506430972"><ele>396.6666666666667</ele><time>2026-04-05T15:55:35.001Z</time></trkpt><trkpt lat="45.811467251675175" lon="9.860241592665933"><ele>396.33333333333337</ele><time>2026-04-05T15:55:36.001Z</time></trkpt><trkpt lat="45.81130608073061" lon="9.860132484262655"><ele>396.0</ele><time>2026-04-05T15:55:37.001Z</time></trkpt><trkpt lat="45.811150056132185" lon="9.860009143693773"><ele>395.66666666666663</ele><time>2026-04-05T15:55:38.001Z</time></trkpt><trkpt lat="45.810999121812706" lon="9.859863566907908"><ele>395.3333333333333</ele><time>2026-04-05T15:55:39.001Z</time></trkpt><trkpt lat="45.81083613599859" lon="9.859702125631426"><ele>395.0</ele><time>2026-04-05T15:55:40.001Z</time></trkpt><trkpt lat="45.81066349073361" lon="9.859543198942154"><ele>395.0</ele><time>2026-04-05T15:55:41.001Z</time></trkpt><trkpt lat="45.81049601831929" lon="9.85937850844578"><ele>395.0</ele><time>2026-04-05T15:55:42.001Z</time></trkpt><trkpt lat="45.810320477671084" lon="9.859197860784287"><ele>395.0</ele><time>2026-04-05T15:55:43.001Z</time></trkpt><trkpt lat="45.81013701532912" lon="9.85902438504517"><ele>394.66666666666663</ele><time>2026-04-05T15:55:44.001Z</time></trkpt><trkpt lat="45.80995640208542" lon="9.858860497676826"><ele>394.33333333333337</ele><time>2026-04-05T15:55:45.001Z</time></trkpt><trkpt lat="45.80977122369422" lon="9.858698728575975"><ele>394.0</ele><time>2026-04-05T15:55:46.002Z</time></trkpt><trkpt lat="45.809594954654244" lon="9.85850725194513"><ele>394.5</ele><time>2026-04-05T15:55:47.002Z</time></trkpt><trkpt lat="45.80939687853398" lon="9.858346619311215"><ele>395.0</ele><time>2026-04-05T15:55:48.002Z</time></trkpt><trkpt lat="45.80920946480562" lon="9.858163172204284"><ele>395.3333333333333</ele><time>2026-04-05T15:55:49.002Z</time></trkpt><trkpt lat="45.809027419034386" lon="9.857983572148246"><ele>395.66666666666663</ele><time>2026-04-05T15:55:50.002Z</time></trkpt><trkpt lat="45.80886241932362" lon="9.857818351672318"><ele>396.0</ele><time>2026-04-05T15:55:51.002Z</time></trkpt><trkpt lat="45.808707294947965" lon="9.857666571349656"><ele>395.66666666666663</ele><time>2026-04-05T15:55:52.002Z</time></trkpt><trkpt lat="45.8085519999229" lon="9.857516960484134"><ele>395.3333333333333</ele><time>2026-04-05T15:55:53.002Z</time></trkpt><trkpt lat="45.80840264691181" lon="9.857372713168026"><ele>395.0</ele><time>2026-04-05T15:55:54.002Z</time></trkpt><trkpt lat="45.80826211026579" lon="9.857230850523155"><ele>395.3333333333333</ele><time>2026-04-05T15:55:55.002Z</time></trkpt><trkpt lat="45.80813434680218" lon="9.857095584372653"><ele>395.66666666666663</ele><time>2026-04-05T15:55:56.002Z</time></trkpt><trkpt lat="45.808002059289564" lon="9.856940416077855"><ele>396.0</ele><time>2026-04-05T15:55:57.002Z</time></trkpt><trkpt lat="45.8078680461004" lon="9.856782801446197"><ele>396.0</ele><time>2026-04-05T15:55:58.002Z</time></trkpt><trkpt lat="45.807740939366234" lon="9.856614826704305"><ele>396.0</ele><time>2026-04-05T15:55:59.002Z</time></trkpt><trkpt lat="45.80760934317145" lon="9.856421252796553"><ele>396.0</ele><time>2026-04-05T15:56:00.002Z</time></trkpt><trkpt lat="45.80747770902256" lon="9.85621088668673"><ele>396.0</ele><time>2026-04-05T15:56:01.002Z</time></trkpt><trkpt lat="45.80735773994901" lon="9.856006972193406"><ele>396.0</ele><time>2026-04-05T15:56:02.002Z</time></trkpt><trkpt lat="45.80724393833179" lon="9.85583082146505"><ele>396.0</ele><time>2026-04-05T15:56:03.002Z</time></trkpt><trkpt lat="45.80713089785807" lon="9.855627468999298"><ele>396.0</ele><time>2026-04-05T15:56:04.002Z</time></trkpt><trkpt lat="45.806995688467374" lon="9.85543057557806"><ele>396.0</ele><time>2026-04-05T15:56:05.002Z</time></trkpt><trkpt lat="45.80688850016244" lon="9.855225851588857"><ele>396.0</ele><time>2026-04-05T15:56:06.002Z</time></trkpt><trkpt lat="45.806807409411505" lon="9.855064070160566"><ele>396.25</ele><time>2026-04-05T15:56:07.002Z</time></trkpt><trkpt lat="45.806732341369184" lon="9.854931882759981"><ele>396.5</ele><time>2026-04-05T15:56:08.002Z</time></trkpt><trkpt lat="45.80668200126603" lon="9.854776569163835"><ele>396.75</ele><time>2026-04-05T15:56:09.002Z</time></trkpt><trkpt lat="45.80664585053647" lon="9.854599461260959"><ele>397.0</ele><time>2026-04-05T15:56:10.002Z</time></trkpt><trkpt lat="45.80659214419482" lon="9.854464445264371"><ele>397.0</ele><time>2026-04-05T15:56:11.002Z</time></trkpt><trkpt lat="45.80650680804079" lon="9.854382760625631"><ele>397.0</ele><time>2026-04-05T15:56:12.002Z</time></trkpt><trkpt lat="45.80639248073704" lon="9.854329204070028"><ele>397.0</ele><time>2026-04-05T15:56:13.002Z</time></trkpt><trkpt lat="45.8062659774353" lon="9.854271440319692"><ele>397.0</ele><time>2026-04-05T15:56:14.002Z</time></trkpt><trkpt lat="45.80614518912071" lon="9.854158096128025"><ele>396.5</ele><time>2026-04-05T15:56:15.002Z</time></trkpt><trkpt lat="45.80602529529874" lon="9.854035257830075"><ele>396.0</ele><time>2026-04-05T15:56:16.002Z</time></trkpt><trkpt lat="45.80592439145407" lon="9.85389595950317"><ele>395.5</ele><time>2026-04-05T15:56:17Z</time></trkpt><trkpt lat="45.8058116196318" lon="9.853768922579132"><ele>395.0</ele><time>2026-04-05T15:56:18Z</time></trkpt><trkpt lat="45.805693705129244" lon="9.853633583076391"><ele>394.3333333333333</ele><time>2026-04-05T15:56:19Z</time></trkpt><trkpt lat="45.80556776606397" lon="9.853486474874185"><ele>393.66666666666663</ele><time>2026-04-05T15:56:20Z</time></trkpt><trkpt lat="45.80543681591942" lon="9.853333020163817"><ele>393.0</ele><time>2026-04-05T15:56:21Z</time></trkpt><trkpt lat="45.80530582804404" lon="9.853177828288755"><ele>392.66666666666663</ele><time>2026-04-05T15:56:22Z</time></trkpt><trkpt lat="45.80517550407969" lon="9.853046825432742"><ele>392.3333333333333</ele><time>2026-04-05T15:56:23Z</time></trkpt><trkpt lat="45.805057506034814" lon="9.852902372153773"><ele>392.0</ele><time>2026-04-05T15:56:24Z</time></trkpt><trkpt lat="45.80493495231981" lon="9.852758144402054"><ele>390.0</ele><time>2026-04-05T15:56:25Z</time></trkpt><trkpt lat="45.80481937902147" lon="9.852616404082372"><ele>388.0</ele><time>2026-04-05T15:56:26Z</time></trkpt><trkpt lat="45.80469978021819" lon="9.852472955059866"><ele>386.0</ele><time>2026-04-05T15:56:27Z</time></trkpt><trkpt lat="45.80457558873064" lon="9.85232355463711"><ele>386.0</ele><time>2026-04-05T15:56:28Z</time></trkpt><trkpt lat="45.804452336785694" lon="9.852166456721974"><ele>386.0</ele><time>2026-04-05T15:56:29Z</time></trkpt><trkpt lat="45.80433173928983" lon="9.852013574234588"><ele>386.0</ele><time>2026-04-05T15:56:30Z</time></trkpt><trkpt lat="45.80421113381265" lon="9.851868086457115"><ele>386.25</ele><time>2026-04-05T15:56:31Z</time></trkpt><trkpt lat="45.80409174442382" lon="9.851738470622369"><ele>386.5</ele><time>2026-04-05T15:56:32Z</time></trkpt><trkpt lat="45.80397834698481" lon="9.851607731643456"><ele>386.75</ele><time>2026-04-05T15:56:33Z</time></trkpt><trkpt lat="45.8038635726926" lon="9.851477653937591"><ele>387.0</ele><time>2026-04-05T15:56:34Z</time></trkpt><trkpt lat="45.80374681860895" lon="9.85135471946955"><ele>387.0</ele><time>2026-04-05T15:56:35Z</time></trkpt><trkpt lat="45.803629070749984" lon="9.851243157390858"><ele>387.0</ele><time>2026-04-05T15:56:36Z</time></trkpt><trkpt lat="45.803510304751065" lon="9.851144640142238"><ele>387.0</ele><time>2026-04-05T15:56:37Z</time></trkpt><trkpt lat="45.803395830487986" lon="9.851054448973196"><ele>387.0</ele><time>2026-04-05T15:56:38Z</time></trkpt><trkpt lat="45.80329186402119" lon="9.850961443414434"><ele>387.0</ele><time>2026-04-05T15:56:39Z</time></trkpt><trkpt lat="45.80319044651422" lon="9.85087687212958"><ele>387.0</ele><time>2026-04-05T15:56:40Z</time></trkpt><trkpt lat="45.80309611538159" lon="9.850801643789246"><ele>387.0</ele><time>2026-04-05T15:56:41Z</time></trkpt><trkpt lat="45.803022327500265" lon="9.850754542029208"><ele>387.0</ele><time>2026-04-05T15:56:42Z</time></trkpt><trkpt lat="45.8029535711763" lon="9.850709288836816"><ele>387.0</ele><time>2026-04-05T15:56:45Z</time></trkpt><trkpt lat="45.80288080656547" lon="9.850667781424665"><ele>387.0</ele><time>2026-04-05T15:56:57.001Z</time></trkpt><trkpt lat="45.802784192951336" lon="9.850609523943382"><ele>387.0</ele><time>2026-04-05T15:56:59.001Z</time></trkpt><trkpt lat="45.80271060124331" lon="9.850561024740616"><ele>387.0</ele><time>2026-04-05T15:57:00.001Z</time></trkpt><trkpt lat="45.80262262016573" lon="9.850504169024429"><ele>387.0</ele><time>2026-04-05T15:57:01.001Z</time></trkpt><trkpt lat="45.802512554362075" lon="9.850441329001363"><ele>387.0</ele><time>2026-04-05T15:57:02.001Z</time></trkpt><trkpt lat="45.802399798015486" lon="9.850373097141171"><ele>386.75</ele><time>2026-04-05T15:57:03.001Z</time></trkpt><trkpt lat="45.80226947010585" lon="9.850284250325057"><ele>386.5</ele><time>2026-04-05T15:57:04.001Z</time></trkpt><trkpt lat="45.8021388090324" lon="9.850194832160879"><ele>386.25</ele><time>2026-04-05T15:57:05.001Z</time></trkpt><trkpt lat="45.802026098108854" lon="9.850114701056995"><ele>386.0</ele><time>2026-04-05T15:57:06.001Z</time></trkpt><trkpt lat="45.80192592804664" lon="9.850043764505902"><ele>385.8</ele><time>2026-04-05T15:57:07.001Z</time></trkpt><trkpt lat="45.8018404132452" lon="9.849977052810182"><ele>385.6</ele><time>2026-04-05T15:57:08.001Z</time></trkpt><trkpt lat="45.8017580512268" lon="9.849902238277526"><ele>385.4</ele><time>2026-04-05T15:57:09.001Z</time></trkpt><trkpt lat="45.8016900896709" lon="9.8497902173167"><ele>385.2</ele><time>2026-04-05T15:57:10.001Z</time></trkpt><trkpt lat="45.801638506373116" lon="9.849665874513535"><ele>385.0</ele><time>2026-04-05T15:57:11.001Z</time></trkpt><trkpt lat="45.80161259124966" lon="9.849513482535144"><ele>385.0</ele><time>2026-04-05T15:57:12.001Z</time></trkpt><trkpt lat="45.80160822209341" lon="9.849354994618743"><ele>385.0</ele><time>2026-04-05T15:57:13.001Z</time></trkpt><trkpt lat="45.80162546294422" lon="9.849191184878817"><ele>385.0</ele><time>2026-04-05T15:57:14.001Z</time></trkpt><trkpt lat="45.801647441653834" lon="9.84902576954547"><ele>385.0</ele><time>2026-04-05T15:57:15.001Z</time></trkpt><trkpt lat="45.80165689196564" lon="9.848888832462531"><ele>385.0</ele><time>2026-04-05T15:57:16.001Z</time></trkpt><trkpt lat="45.80163010598841" lon="9.848748588238339"><ele>385.0</ele><time>2026-04-05T15:57:17.001Z</time></trkpt><trkpt lat="45.801581291368095" lon="9.848623922517987"><ele>385.0</ele><time>2026-04-05T15:57:18.001Z</time></trkpt><trkpt lat="45.80151227213865" lon="9.848505448647371"><ele>385.0</ele><time>2026-04-05T15:57:19.001Z</time></trkpt><trkpt lat="45.80142704313012" lon="9.848420394706304"><ele>385.0</ele><time>2026-04-05T15:57:20.001Z</time></trkpt><trkpt lat="45.80131560574124" lon="9.848371882830998"><ele>385.0</ele><time>2026-04-05T15:57:21.001Z</time></trkpt><trkpt lat="45.801201950811766" lon="9.848366337361215"><ele>385.0</ele><time>2026-04-05T15:57:22.001Z</time></trkpt><trkpt lat="45.80109344877849" lon="9.848399487024858"><ele>385.0</ele><time>2026-04-05T15:57:23.001Z</time></trkpt><trkpt lat="45.801003903608596" lon="9.848477755461875"><ele>385.0</ele><time>2026-04-05T15:57:24.001Z</time></trkpt><trkpt lat="45.800925813611755" lon="9.848592919729848"><ele>385.0</ele><time>2026-04-05T15:57:25.001Z</time></trkpt><trkpt lat="45.800858808211025" lon="9.848725490538294"><ele>385.0</ele><time>2026-04-05T15:57:26.001Z</time></trkpt><trkpt lat="45.800828692107785" lon="9.848876206841684"><ele>384.75</ele><time>2026-04-05T15:57:27.001Z</time></trkpt><trkpt lat="45.80080378743352" lon="9.849057016684132"><ele>384.5</ele><time>2026-04-05T15:57:28.001Z</time></trkpt><trkpt lat="45.800782286577046" lon="9.849229863194289"><ele>384.25</ele><time>2026-04-05T15:57:29.001Z</time></trkpt><trkpt lat="45.800761154839925" lon="9.849404925620854"><ele>384.0</ele><time>2026-04-05T15:57:30.001Z</time></trkpt><trkpt lat="45.80073875030352" lon="9.84958292553035"><ele>384.0</ele><time>2026-04-05T15:57:31.001Z</time></trkpt><trkpt lat="45.800720479895865" lon="9.849736609792386"><ele>384.0</ele><time>2026-04-05T15:57:32.001Z</time></trkpt><trkpt lat="45.80070775050992" lon="9.849843684927057"><ele>384.0</ele><time>2026-04-05T15:57:33.001Z</time></trkpt><trkpt lat="45.80068996319349" lon="9.849993305646278"><ele>384.0</ele><time>2026-04-05T15:57:35.001Z</time></trkpt><trkpt lat="45.80068801302711" lon="9.850136324645767"><ele>384.0</ele><time>2026-04-05T15:57:36.001Z</time></trkpt><trkpt lat="45.80065434126719" lon="9.850293208797119"><ele>384.4</ele><time>2026-04-05T15:57:37.001Z</time></trkpt><trkpt lat="45.80063752094933" lon="9.85043179434957"><ele>384.79999999999995</ele><time>2026-04-05T15:57:38.001Z</time></trkpt><trkpt lat="45.80061952371297" lon="9.85057745215228"><ele>385.20000000000005</ele><time>2026-04-05T15:57:39.001Z</time></trkpt><trkpt lat="45.80060066809884" lon="9.850728297078538"><ele>385.6</ele><time>2026-04-05T15:57:40.001Z</time></trkpt><trkpt lat="45.80058159941856" lon="9.85087842625016"><ele>386.0</ele><time>2026-04-05T15:57:41.001Z</time></trkpt><trkpt lat="45.8005811647474" lon="9.851010127585955"><ele>387.20000000000005</ele><time>2026-04-05T15:57:42.001Z</time></trkpt><trkpt lat="45.80056554830494" lon="9.851116700717133"><ele>388.40000000000003</ele><time>2026-04-05T15:57:43.001Z</time></trkpt><trkpt lat="45.80054803440627" lon="9.851213743507508"><ele>389.6</ele><time>2026-04-05T15:57:44.001Z</time></trkpt><trkpt lat="45.80047048007295" lon="9.851318483538185"><ele>390.8</ele><time>2026-04-05T15:57:46.001Z</time></trkpt><trkpt lat="45.80031660185422" lon="9.851279906799983"><ele>392.0</ele><time>2026-04-05T15:57:48.001Z</time></trkpt><trkpt lat="45.80022750909124" lon="9.851203739339201"><ele>395.5</ele><time>2026-04-05T15:57:49.001Z</time></trkpt><trkpt lat="45.80012021969387" lon="9.851138130755345"><ele>399.0</ele><time>2026-04-05T15:57:50.001Z</time></trkpt><trkpt lat="45.799987431854355" lon="9.851088124396076"><ele>402.5</ele><time>2026-04-05T15:57:51.001Z</time></trkpt><trkpt lat="45.79984505451704" lon="9.851038530145658"><ele>406.0</ele><time>2026-04-05T15:57:52.002Z</time></trkpt><trkpt lat="45.79971037009222" lon="9.850989365842212"><ele>405.75</ele><time>2026-04-05T15:57:53.002Z</time></trkpt><trkpt lat="45.79956416181727" lon="9.850933850696347"><ele>405.5</ele><time>2026-04-05T15:57:54.002Z</time></trkpt><trkpt lat="45.799417285532385" lon="9.8508741869416"><ele>405.25</ele><time>2026-04-05T15:57:55.002Z</time></trkpt><trkpt lat="45.799284859846324" lon="9.85080814080682"><ele>405.0</ele><time>2026-04-05T15:57:56.002Z</time></trkpt><trkpt lat="45.799165792903565" lon="9.850723034214273"><ele>405.0</ele><time>2026-04-05T15:57:57.002Z</time></trkpt><trkpt lat="45.799067336260414" lon="9.850604933090363"><ele>405.0</ele><time>2026-04-05T15:57:58.002Z</time></trkpt><trkpt lat="45.79898256295095" lon="9.850410243829607"><ele>405.0</ele><time>2026-04-05T15:57:59.002Z</time></trkpt><trkpt lat="45.7988888214778" lon="9.850207850517066"><ele>398.33333333333337</ele><time>2026-04-05T15:58:00.002Z</time></trkpt><trkpt lat="45.798775512042766" lon="9.850008279501134"><ele>391.6666666666667</ele><time>2026-04-05T15:58:01.002Z</time></trkpt><trkpt lat="45.7987061458832" lon="9.849826184955486"><ele>385.0</ele><time>2026-04-05T15:58:02.002Z</time></trkpt><trkpt lat="45.798626466276026" lon="9.849661655814826"><ele>385.0</ele><time>2026-04-05T15:58:03.002Z</time></trkpt><trkpt lat="45.79856108614277" lon="9.849523534762065"><ele>385.0</ele><time>2026-04-05T15:58:04.002Z</time></trkpt><trkpt lat="45.79851170677283" lon="9.849407699965742"><ele>385.0</ele><time>2026-04-05T15:58:05.002Z</time></trkpt><trkpt lat="45.798486058754804" lon="9.849296052910761"><ele>385.0</ele><time>2026-04-05T15:58:06.002Z</time></trkpt><trkpt lat="45.79849876356859" lon="9.84916605110606"><ele>385.0</ele><time>2026-04-05T15:58:07.002Z</time></trkpt><trkpt lat="45.79854187103853" lon="9.849011920045571"><ele>384.25</ele><time>2026-04-05T15:58:08.002Z</time></trkpt><trkpt lat="45.79859634043496" lon="9.848828319084282"><ele>383.5</ele><time>2026-04-05T15:58:09.002Z</time></trkpt><trkpt lat="45.798634553470826" lon="9.848630471074364"><ele>382.75</ele><time>2026-04-05T15:58:10.002Z</time></trkpt><trkpt lat="45.79869386418682" lon="9.848464743680049"><ele>382.0</ele><time>2026-04-05T15:58:11.002Z</time></trkpt><trkpt lat="45.79872966575541" lon="9.848277472651711"><ele>382.0</ele><time>2026-04-05T15:58:12.002Z</time></trkpt><trkpt lat="45.7987570777368" lon="9.84807085192531"><ele>382.0</ele><time>2026-04-05T15:58:13.002Z</time></trkpt><trkpt lat="45.79876516140332" lon="9.847850970328432"><ele>382.0</ele><time>2026-04-05T15:58:14.002Z</time></trkpt><trkpt lat="45.79879126420229" lon="9.847630973934397"><ele>381.66666666666663</ele><time>2026-04-05T15:58:15.002Z</time></trkpt><trkpt lat="45.79881485242996" lon="9.847401400994938"><ele>381.3333333333333</ele><time>2026-04-05T15:58:16.002Z</time></trkpt><trkpt lat="45.79883482575074" lon="9.847174242332597"><ele>381.0</ele><time>2026-04-05T15:58:17.002Z</time></trkpt><trkpt lat="45.79885564089855" lon="9.84695782070486"><ele>381.0</ele><time>2026-04-05T15:58:18.002Z</time></trkpt><trkpt lat="45.79887471362059" lon="9.846754595654614"><ele>381.0</ele><time>2026-04-05T15:58:19.002Z</time></trkpt><trkpt lat="45.79889514170078" lon="9.846564609631432"><ele>381.0</ele><time>2026-04-05T15:58:20.002Z</time></trkpt><trkpt lat="45.79891338633703" lon="9.84639319760236"><ele>381.0</ele><time>2026-04-05T15:58:21.002Z</time></trkpt><trkpt lat="45.79892567103558" lon="9.846231565085434"><ele>381.0</ele><time>2026-04-05T15:58:22.002Z</time></trkpt><trkpt lat="45.79893299840815" lon="9.846084728329103"><ele>381.0</ele><time>2026-04-05T15:58:23Z</time></trkpt><trkpt lat="45.79894488172876" lon="9.845957676012452"><ele>381.0</ele><time>2026-04-05T15:58:24Z</time></trkpt><trkpt lat="45.79895211820245" lon="9.84586051872356"><ele>381.0</ele><time>2026-04-05T15:58:25Z</time></trkpt><trkpt lat="45.7989608187097" lon="9.845762034820025"><ele>381.0</ele><time>2026-04-05T15:58:26Z</time></trkpt><trkpt lat="45.79897307745219" lon="9.845634163376117"><ele>381.0</ele><time>2026-04-05T15:58:27Z</time></trkpt><trkpt lat="45.798987355643995" lon="9.845507377097974"><ele>381.20000000000005</ele><time>2026-04-05T15:58:28Z</time></trkpt><trkpt lat="45.799002691335424" lon="9.845387134849574"><ele>381.40000000000003</ele><time>2026-04-05T15:58:29Z</time></trkpt><trkpt lat="45.79901137713341" lon="9.845258844007406"><ele>381.6</ele><time>2026-04-05T15:58:30Z</time></trkpt><trkpt lat="45.799022778319376" lon="9.845140516661312"><ele>381.8</ele><time>2026-04-05T15:58:31Z</time></trkpt><trkpt lat="45.799033498561286" lon="9.84499701306439"><ele>382.0</ele><time>2026-04-05T15:58:32Z</time></trkpt><trkpt lat="45.79905146884903" lon="9.844851085473506"><ele>382.5</ele><time>2026-04-05T15:58:33Z</time></trkpt><trkpt lat="45.79906159314849" lon="9.844711473416236"><ele>383.0</ele><time>2026-04-05T15:58:34Z</time></trkpt><trkpt lat="45.79907343988383" lon="9.844585908811238"><ele>383.5</ele><time>2026-04-05T15:58:35Z</time></trkpt><trkpt lat="45.79908294129724" lon="9.84445384522647"><ele>384.0</ele><time>2026-04-05T15:58:36Z</time></trkpt><trkpt lat="45.79909982728928" lon="9.84434594442594"><ele>384.50000000000006</ele><time>2026-04-05T15:58:37Z</time></trkpt><trkpt lat="45.799103119183464" lon="9.844242086192093"><ele>385.0</ele><time>2026-04-05T15:58:38Z</time></trkpt><trkpt lat="45.79912031548764" lon="9.844092047679265"><ele>385.2</ele><time>2026-04-05T15:58:40Z</time></trkpt><trkpt lat="45.79914095536279" lon="9.843955269168829"><ele>385.4</ele><time>2026-04-05T15:58:42Z</time></trkpt><trkpt lat="45.79921344632073" lon="9.84384551577577"><ele>385.6</ele><time>2026-04-05T15:58:44Z</time></trkpt><trkpt lat="45.79923545035393" lon="9.84371678833423"><ele>385.8</ele><time>2026-04-05T15:58:46Z</time></trkpt><trkpt lat="45.79917110963517" lon="9.843583564066842"><ele>386.0</ele><time>2026-04-05T15:58:48Z</time></trkpt><trkpt lat="45.79906560113334" lon="9.843679102313693"><ele>386.0</ele><time>2026-04-05T15:58:49Z</time></trkpt><trkpt lat="45.798972206663585" lon="9.843546810913509"><ele>386.0</ele><time>2026-04-05T15:58:50Z</time></trkpt><trkpt lat="45.798872703813785" lon="9.843498615133722"><ele>386.0</ele><time>2026-04-05T15:58:51Z</time></trkpt><trkpt lat="45.79877494397901" lon="9.843448711904694"><ele>386.0</ele><time>2026-04-05T15:58:52Z</time></trkpt><trkpt lat="45.79868517597788" lon="9.843389195873723"><ele>386.0</ele><time>2026-04-05T15:58:53Z</time></trkpt><trkpt lat="45.79859452038556" lon="9.843318457911693"><ele>386.16666666666663</ele><time>2026-04-05T15:58:54Z</time></trkpt><trkpt lat="45.79850810712892" lon="9.84324604278963"><ele>386.3333333333333</ele><time>2026-04-05T15:58:55Z</time></trkpt><trkpt lat="45.79842439714899" lon="9.843176268368541"><ele>386.5</ele><time>2026-04-05T15:58:56Z</time></trkpt><trkpt lat="45.798353255070985" lon="9.843107610701066"><ele>386.66666666666663</ele><time>2026-04-05T15:58:57Z</time></trkpt><trkpt lat="45.79828926557536" lon="9.843037494807815"><ele>386.8333333333333</ele><time>2026-04-05T15:58:58Z</time></trkpt><trkpt lat="45.79824036060721" lon="9.842977052345978"><ele>387.0</ele><time>2026-04-05T15:58:59Z</time></trkpt><trkpt lat="45.79816958812744" lon="9.84289661002468"><ele>386.6666666666667</ele><time>2026-04-05T15:59:01Z</time></trkpt><trkpt lat="45.7980740314547" lon="9.842784124619374"><ele>386.33333333333337</ele><time>2026-04-05T15:59:03Z</time></trkpt><trkpt lat="45.79802455062858" lon="9.842720052054105"><ele>386.0</ele><time>2026-04-05T15:59:04Z</time></trkpt><trkpt lat="45.79798684501143" lon="9.842644110645974"><ele>385.6666666666667</ele><time>2026-04-05T15:59:05Z</time></trkpt><trkpt lat="45.797932849432286" lon="9.84256595666075"><ele>385.33333333333337</ele><time>2026-04-05T15:59:06Z</time></trkpt><trkpt lat="45.79786013752664" lon="9.84248276178568"><ele>385.0</ele><time>2026-04-05T15:59:07Z</time></trkpt><trkpt lat="45.797794341477285" lon="9.842371405765101"><ele>385.0</ele><time>2026-04-05T15:59:08Z</time></trkpt><trkpt lat="45.79772590216761" lon="9.8422566953539"><ele>385.0</ele><time>2026-04-05T15:59:09Z</time></trkpt><trkpt lat="45.79765982693901" lon="9.842137330820952"><ele>385.0</ele><time>2026-04-05T15:59:10Z</time></trkpt><trkpt lat="45.79759563090855" lon="9.842035795822486"><ele>385.0</ele><time>2026-04-05T15:59:11Z</time></trkpt><trkpt lat="45.797536025793" lon="9.841955660035799"><ele>385.0</ele><time>2026-04-05T15:59:12Z</time></trkpt><trkpt lat="45.797477370126074" lon="9.841886362602265"><ele>384.4</ele><time>2026-04-05T15:59:13.001Z</time></trkpt><trkpt lat="45.79741499292994" lon="9.84182076907984"><ele>383.8</ele><time>2026-04-05T15:59:14.001Z</time></trkpt><trkpt lat="45.7973459019605" lon="9.841744403653513"><ele>383.20000000000005</ele><time>2026-04-05T15:59:15.001Z</time></trkpt><trkpt lat="45.79727460116397" lon="9.841655950289525"><ele>382.6</ele><time>2026-04-05T15:59:16.001Z</time></trkpt><trkpt lat="45.79720797688582" lon="9.84151678591475"><ele>382.0</ele><time>2026-04-05T15:59:17.001Z</time></trkpt><trkpt lat="45.79713887913491" lon="9.841378213410616"><ele>382.0</ele><time>2026-04-05T15:59:18.001Z</time></trkpt><trkpt lat="45.79705435454529" lon="9.841201331314277"><ele>382.0</ele><time>2026-04-05T15:59:19.001Z</time></trkpt><trkpt lat="45.79696981287093" lon="9.840991993042438"><ele>382.0</ele><time>2026-04-05T15:59:20.001Z</time></trkpt><trkpt lat="45.79688665241639" lon="9.840767532109693"><ele>381.5</ele><time>2026-04-05T15:59:21.001Z</time></trkpt><trkpt lat="45.796816943121286" lon="9.840569336782272"><ele>381.0</ele><time>2026-04-05T15:59:22.001Z</time></trkpt><trkpt lat="45.796752015735706" lon="9.840393611164078"><ele>380.5</ele><time>2026-04-05T15:59:23.001Z</time></trkpt><trkpt lat="45.79669656422411" lon="9.840238694908946"><ele>380.0</ele><time>2026-04-05T15:59:24.001Z</time></trkpt><trkpt lat="45.7966467091419" lon="9.840097062200392"><ele>379.8</ele><time>2026-04-05T15:59:25.001Z</time></trkpt><trkpt lat="45.796605688636866" lon="9.839964842944788"><ele>379.6</ele><time>2026-04-05T15:59:26.001Z</time></trkpt><trkpt lat="45.79658161760466" lon="9.839838628742246"><ele>379.4</ele><time>2026-04-05T15:59:27.001Z</time></trkpt><trkpt lat="45.79657784550508" lon="9.839714325369183"><ele>379.2</ele><time>2026-04-05T15:59:28.001Z</time></trkpt><trkpt lat="45.796600815075344" lon="9.839587881066619"><ele>379.0</ele><time>2026-04-05T15:59:29.001Z</time></trkpt><trkpt lat="45.7966437812866" lon="9.839476426871267"><ele>379.0</ele><time>2026-04-05T15:59:30.001Z</time></trkpt><trkpt lat="45.79668914216428" lon="9.839370006280838"><ele>379.0</ele><time>2026-04-05T15:59:31.001Z</time></trkpt><trkpt lat="45.79673459490129" lon="9.839266546831201"><ele>379.0</ele><time>2026-04-05T15:59:32.001Z</time></trkpt><trkpt lat="45.79678217379975" lon="9.839169900304581"><ele>379.0</ele><time>2026-04-05T15:59:33.001Z</time></trkpt><trkpt lat="45.79682639397253" lon="9.839100961970425"><ele>379.0</ele><time>2026-04-05T15:59:34.001Z</time></trkpt><trkpt lat="45.796916528739736" lon="9.839001686578511"><ele>379.0</ele><time>2026-04-05T15:59:36.001Z</time></trkpt><trkpt lat="45.797018217937755" lon="9.838921063037116"><ele>379.8333333333333</ele><time>2026-04-05T15:59:38.001Z</time></trkpt><trkpt lat="45.797085788450424" lon="9.838857259626154"><ele>380.66666666666663</ele><time>2026-04-05T15:59:40.001Z</time></trkpt><trkpt lat="45.79706610367204" lon="9.838771387034491"><ele>381.5</ele><time>2026-04-05T15:59:41.001Z</time></trkpt><trkpt lat="45.79704163621133" lon="9.83866071296641"><ele>382.3333333333333</ele><time>2026-04-05T15:59:43.001Z</time></trkpt><trkpt lat="45.79695381521932" lon="9.838582350267982"><ele>383.1666666666667</ele><time>2026-04-05T15:59:46.001Z</time></trkpt><trkpt lat="45.796890298807895" lon="9.838501078672465"><ele>384.0</ele><time>2026-04-05T15:59:48.001Z</time></trkpt><trkpt lat="45.79680365955955" lon="9.838345370566559"><ele>384.0</ele><time>2026-04-05T15:59:50.001Z</time></trkpt><trkpt lat="45.7967764744168" lon="9.838249836370604"><ele>384.0</ele><time>2026-04-05T15:59:51.001Z</time></trkpt><trkpt lat="45.796741385489256" lon="9.83811799503472"><ele>384.0</ele><time>2026-04-05T15:59:53.001Z</time></trkpt><trkpt lat="45.796711179018516" lon="9.838034857995881"><ele>384.0</ele><time>2026-04-05T15:59:55.001Z</time></trkpt><trkpt lat="45.7967174865006" lon="9.837889968438443"><ele>384.0</ele><time>2026-04-05T15:59:57.001Z</time></trkpt><trkpt lat="45.79665129840336" lon="9.837764822423502"><ele>384.0</ele><time>2026-04-05T15:59:59.001Z</time></trkpt><trkpt lat="45.79659244647364" lon="9.837691677891025"><ele>384.6</ele><time>2026-04-05T16:00:00.001Z</time></trkpt><trkpt lat="45.796558866781844" lon="9.837613938763115"><ele>385.2</ele><time>2026-04-05T16:00:01.001Z</time></trkpt><trkpt lat="45.79649676131087" lon="9.837448954026176"><ele>385.8</ele><time>2026-04-05T16:00:03.001Z</time></trkpt><trkpt lat="45.79645533303541" lon="9.837345975509061"><ele>386.40000000000003</ele><time>2026-04-05T16:00:04.001Z</time></trkpt><trkpt lat="45.79641436238045" lon="9.837228261507288"><ele>387.0</ele><time>2026-04-05T16:00:05.001Z</time></trkpt><trkpt lat="45.796375649938135" lon="9.837102343084945"><ele>387.0</ele><time>2026-04-05T16:00:06.001Z</time></trkpt><trkpt lat="45.796342566378804" lon="9.83699134292592"><ele>387.0</ele><time>2026-04-05T16:00:07.001Z</time></trkpt><trkpt lat="45.79631363735917" lon="9.836902861743294"><ele>387.0</ele><time>2026-04-05T16:00:08.001Z</time></trkpt><trkpt lat="45.79625639555895" lon="9.836749962036189"><ele>387.0</ele><time>2026-04-05T16:00:10.002Z</time></trkpt><trkpt lat="45.79619004730408" lon="9.836578737682482"><ele>387.0</ele><time>2026-04-05T16:00:12.002Z</time></trkpt><trkpt lat="45.796148445426276" lon="9.836462169763335"><ele>387.0</ele><time>2026-04-05T16:00:13.002Z</time></trkpt><trkpt lat="45.79610839122332" lon="9.836334247733799"><ele>387.0</ele><time>2026-04-05T16:00:14.002Z</time></trkpt><trkpt lat="45.79607054945362" lon="9.83621134769913"><ele>387.0</ele><time>2026-04-05T16:00:15.002Z</time></trkpt><trkpt lat="45.79603898593119" lon="9.836115501123793"><ele>387.0</ele><time>2026-04-05T16:00:16.002Z</time></trkpt><trkpt lat="45.795986502536074" lon="9.83598306742647"><ele>387.0</ele><time>2026-04-05T16:00:18.002Z</time></trkpt><trkpt lat="45.79595131551996" lon="9.83586584813164"><ele>386.5</ele><time>2026-04-05T16:00:20.002Z</time></trkpt><trkpt lat="45.79590110368614" lon="9.835713791633312"><ele>386.0</ele><time>2026-04-05T16:00:22.002Z</time></trkpt><trkpt lat="45.795867062581614" lon="9.83561556287232"><ele>385.5</ele><time>2026-04-05T16:00:23.002Z</time></trkpt><trkpt lat="45.795826351905376" lon="9.835509428254728"><ele>385.0</ele><time>2026-04-05T16:00:24.002Z</time></trkpt><trkpt lat="45.79579003922495" lon="9.835409868124446"><ele>384.5</ele><time>2026-04-05T16:00:25.002Z</time></trkpt><trkpt lat="45.795758629108356" lon="9.835330318670454"><ele>384.0</ele><time>2026-04-05T16:00:26.002Z</time></trkpt><trkpt lat="45.79570746347757" lon="9.835190209137393"><ele>384.4</ele><time>2026-04-05T16:00:28.002Z</time></trkpt><trkpt lat="45.79567719528699" lon="9.83508748739938"><ele>384.79999999999995</ele><time>2026-04-05T16:00:28.999Z</time></trkpt><trkpt lat="45.79564476979139" lon="9.834975736226886"><ele>385.20000000000005</ele><time>2026-04-05T16:00:29.999Z</time></trkpt><trkpt lat="45.79561689396642" lon="9.834888006906871"><ele>385.6</ele><time>2026-04-05T16:00:30.999Z</time></trkpt><trkpt lat="45.79556735141386" lon="9.83475637641132"><ele>386.0</ele><time>2026-04-05T16:00:32.999Z</time></trkpt><trkpt lat="45.79551900431567" lon="9.834605186866195"><ele>385.99999999999994</ele><time>2026-04-05T16:00:34.999Z</time></trkpt><trkpt lat="45.79548277766123" lon="9.834520528695782"><ele>386.0</ele><time>2026-04-05T16:00:35.999Z</time></trkpt><trkpt lat="45.79544891006071" lon="9.834427607258903"><ele>386.0</ele><time>2026-04-05T16:00:36.999Z</time></trkpt><trkpt lat="45.795415038851694" lon="9.834328907710457"><ele>386.0</ele><time>2026-04-05T16:00:38Z</time></trkpt><trkpt lat="45.79537910048899" lon="9.834228808786973"><ele>385.99999999999994</ele><time>2026-04-05T16:00:39Z</time></trkpt><trkpt lat="45.79534315346308" lon="9.834126414468232"><ele>386.0</ele><time>2026-04-05T16:00:40Z</time></trkpt><trkpt lat="45.7953083639886" lon="9.834022790441486"><ele>385.8333333333333</ele><time>2026-04-05T16:00:41Z</time></trkpt><trkpt lat="45.79527136180954" lon="9.833921840703574"><ele>385.66666666666663</ele><time>2026-04-05T16:00:42Z</time></trkpt><trkpt lat="45.79523481285041" lon="9.833818159116019"><ele>385.5</ele><time>2026-04-05T16:00:43Z</time></trkpt><trkpt lat="45.79519783483832" lon="9.833712089007928"><ele>385.33333333333337</ele><time>2026-04-05T16:00:44Z</time></trkpt><trkpt lat="45.7951656263913" lon="9.83360167582626"><ele>385.1666666666667</ele><time>2026-04-05T16:00:45Z</time></trkpt><trkpt lat="45.79512912274892" lon="9.833500078370735"><ele>385.0</ele><time>2026-04-05T16:00:46Z</time></trkpt><trkpt lat="45.79509308307939" lon="9.833388866218971"><ele>384.0</ele><time>2026-04-05T16:00:47Z</time></trkpt><trkpt lat="45.795048074063665" lon="9.833276825688019"><ele>383.0</ele><time>2026-04-05T16:00:48Z</time></trkpt><trkpt lat="45.79500555280685" lon="9.833160777736193"><ele>382.0</ele><time>2026-04-05T16:00:49Z</time></trkpt><trkpt lat="45.794959445360796" lon="9.833044341798413"><ele>381.0</ele><time>2026-04-05T16:00:50Z</time></trkpt><trkpt lat="45.7949162390542" lon="9.832923738159176"><ele>380.0</ele><time>2026-04-05T16:00:51Z</time></trkpt><trkpt lat="45.79487145549016" lon="9.832806248589314"><ele>380.0</ele><time>2026-04-05T16:00:52Z</time></trkpt><trkpt lat="45.79483881521677" lon="9.832686612176277"><ele>380.0</ele><time>2026-04-05T16:00:53Z</time></trkpt><trkpt lat="45.79478171464369" lon="9.83258130363145"><ele>380.0</ele><time>2026-04-05T16:00:54Z</time></trkpt><trkpt lat="45.794738512161636" lon="9.832459849121456"><ele>380.0</ele><time>2026-04-05T16:00:55Z</time></trkpt><trkpt lat="45.794694392352135" lon="9.832343515651027"><ele>380.0</ele><time>2026-04-05T16:00:56Z</time></trkpt><trkpt lat="45.79465137563197" lon="9.832225871777762"><ele>380.0</ele><time>2026-04-05T16:00:57Z</time></trkpt><trkpt lat="45.794599734112545" lon="9.832098436826083"><ele>380.0</ele><time>2026-04-05T16:00:58Z</time></trkpt><trkpt lat="45.79453677683945" lon="9.831971808411422"><ele>380.0</ele><time>2026-04-05T16:00:59Z</time></trkpt><trkpt lat="45.79447107589589" lon="9.831843334660029"><ele>380.0</ele><time>2026-04-05T16:01:00Z</time></trkpt><trkpt lat="45.79441350671385" lon="9.831728432990277"><ele>380.0</ele><time>2026-04-05T16:01:01Z</time></trkpt><trkpt lat="45.794373527074214" lon="9.831599482108626"><ele>378.6</ele><time>2026-04-05T16:01:02Z</time></trkpt><trkpt lat="45.794321497970216" lon="9.831485952956308"><ele>377.2</ele><time>2026-04-05T16:01:03Z</time></trkpt><trkpt lat="45.79427180676613" lon="9.831377525510987"><ele>375.79999999999995</ele><time>2026-04-05T16:01:04Z</time></trkpt><trkpt lat="45.79422250209199" lon="9.831269941472385"><ele>374.4</ele><time>2026-04-05T16:01:05Z</time></trkpt><trkpt lat="45.79417345788956" lon="9.83116292555696"><ele>373.0</ele><time>2026-04-05T16:01:06Z</time></trkpt><trkpt lat="45.794113506001935" lon="9.831071995824596"><ele>373.4</ele><time>2026-04-05T16:01:07Z</time></trkpt><trkpt lat="45.79406611408087" lon="9.830971990605349"><ele>373.79999999999995</ele><time>2026-04-05T16:01:08Z</time></trkpt><trkpt lat="45.794032784070446" lon="9.830857229680145"><ele>374.2</ele><time>2026-04-05T16:01:09Z</time></trkpt><trkpt lat="45.793980706882074" lon="9.830748233278872"><ele>374.6</ele><time>2026-04-05T16:01:10Z</time></trkpt><trkpt lat="45.793916794168915" lon="9.830610815128683"><ele>375.0</ele><time>2026-04-05T16:01:11Z</time></trkpt><trkpt lat="45.79384066896621" lon="9.830447033754897"><ele>375.0</ele><time>2026-04-05T16:01:12Z</time></trkpt><trkpt lat="45.79375236309629" lon="9.830256205352784"><ele>375.0</ele><time>2026-04-05T16:01:13Z</time></trkpt><trkpt lat="45.793654652412435" lon="9.830083906202148"><ele>375.0</ele><time>2026-04-05T16:01:14Z</time></trkpt><trkpt lat="45.79357588494275" lon="9.829906310192925"><ele>374.0</ele><time>2026-04-05T16:01:15Z</time></trkpt><trkpt lat="45.793486675831055" lon="9.829728058362718"><ele>373.0</ele><time>2026-04-05T16:01:16Z</time></trkpt><trkpt lat="45.79339115550256" lon="9.82954581531707"><ele>372.0</ele><time>2026-04-05T16:01:17Z</time></trkpt><trkpt lat="45.793295663430875" lon="9.829361069352364"><ele>372.0</ele><time>2026-04-05T16:01:18Z</time></trkpt><trkpt lat="45.793201064204474" lon="9.829196225716606"><ele>372.0</ele><time>2026-04-05T16:01:19Z</time></trkpt><trkpt lat="45.7931097405718" lon="9.829054131784774"><ele>372.0</ele><time>2026-04-05T16:01:20Z</time></trkpt><trkpt lat="45.79302466770126" lon="9.828923952311305"><ele>372.0</ele><time>2026-04-05T16:01:21Z</time></trkpt><trkpt lat="45.792944600025685" lon="9.828802592413233"><ele>372.0</ele><time>2026-04-05T16:01:22Z</time></trkpt><trkpt lat="45.79286959260283" lon="9.828688780029319"><ele>372.0</ele><time>2026-04-05T16:01:23.001Z</time></trkpt><trkpt lat="45.792796890953525" lon="9.8285902913737"><ele>372.0</ele><time>2026-04-05T16:01:24.001Z</time></trkpt><trkpt lat="45.79272218684724" lon="9.828496486300732"><ele>372.0</ele><time>2026-04-05T16:01:25.001Z</time></trkpt><trkpt lat="45.792636967513936" lon="9.828401925946755"><ele>372.0</ele><time>2026-04-05T16:01:26.001Z</time></trkpt><trkpt lat="45.79255839841846" lon="9.828315374800047"><ele>372.1666666666667</ele><time>2026-04-05T16:01:27.001Z</time></trkpt><trkpt lat="45.792497737503844" lon="9.828228269886575"><ele>372.3333333333333</ele><time>2026-04-05T16:01:28.001Z</time></trkpt><trkpt lat="45.79244145552822" lon="9.82816783644768"><ele>372.5</ele><time>2026-04-05T16:01:29.001Z</time></trkpt><trkpt lat="45.792389526548725" lon="9.828112077091339"><ele>372.66666666666663</ele><time>2026-04-05T16:01:30.001Z</time></trkpt><trkpt lat="45.79229948517148" lon="9.82803176014065"><ele>372.8333333333333</ele><time>2026-04-05T16:01:32.001Z</time></trkpt><trkpt lat="45.792235192199556" lon="9.827914560826063"><ele>373.0</ele><time>2026-04-05T16:01:34.001Z</time></trkpt><trkpt lat="45.7922500368363" lon="9.827818587978388"><ele>373.0</ele><time>2026-04-05T16:01:35.001Z</time></trkpt><trkpt lat="45.79219064860216" lon="9.827683670101827"><ele>373.0</ele><time>2026-04-05T16:01:37.001Z</time></trkpt><trkpt lat="45.79207976682907" lon="9.827658388748056"><ele>373.0</ele><time>2026-04-05T16:01:39.001Z</time></trkpt><trkpt lat="45.79187834648072" lon="9.82757131799413"><ele>373.0</ele><time>2026-04-05T16:01:47.001Z</time></trkpt><trkpt lat="45.79182665953068" lon="9.827507702819728"><ele>372.5</ele><time>2026-04-05T16:01:48.001Z</time></trkpt><trkpt lat="45.79176361298738" lon="9.82744619352503"><ele>372.0</ele><time>2026-04-05T16:01:49.001Z</time></trkpt><trkpt lat="45.7917081999147" lon="9.827391020677611"><ele>371.5</ele><time>2026-04-05T16:01:50.001Z</time></trkpt><trkpt lat="45.791650987840015" lon="9.82733261578654"><ele>371.0</ele><time>2026-04-05T16:01:51.001Z</time></trkpt><trkpt lat="45.79158240009562" lon="9.827262144833133"><ele>370.5</ele><time>2026-04-05T16:01:52.001Z</time></trkpt><trkpt lat="45.79149477035545" lon="9.827172108878278"><ele>370.0</ele><time>2026-04-05T16:01:53.001Z</time></trkpt><trkpt lat="45.79140812001451" lon="9.82708177390514"><ele>370.0</ele><time>2026-04-05T16:01:54.001Z</time></trkpt><trkpt lat="45.79131647627635" lon="9.826987071535328"><ele>370.0</ele><time>2026-04-05T16:01:55.001Z</time></trkpt><trkpt lat="45.79120703825537" lon="9.826873866039596"><ele>370.0</ele><time>2026-04-05T16:01:56.001Z</time></trkpt><trkpt lat="45.791095916699945" lon="9.826758918812592"><ele>370.0</ele><time>2026-04-05T16:01:57.001Z</time></trkpt><trkpt lat="45.790991670115865" lon="9.826679211863588"><ele>369.6</ele><time>2026-04-05T16:01:58.001Z</time></trkpt><trkpt lat="45.790905841408886" lon="9.826590107266101"><ele>369.2</ele><time>2026-04-05T16:01:59.001Z</time></trkpt><trkpt lat="45.79082511409746" lon="9.826501000949142"><ele>368.79999999999995</ele><time>2026-04-05T16:02:00.001Z</time></trkpt><trkpt lat="45.79074256119542" lon="9.826412023582249"><ele>368.4</ele><time>2026-04-05T16:02:01.001Z</time></trkpt><trkpt lat="45.790658083495806" lon="9.82632080843127"><ele>368.0</ele><time>2026-04-05T16:02:02.001Z</time></trkpt><trkpt lat="45.790572125478555" lon="9.826229934937524"><ele>368.0</ele><time>2026-04-05T16:02:03.001Z</time></trkpt><trkpt lat="45.79048288468993" lon="9.82613906861431"><ele>368.0</ele><time>2026-04-05T16:02:04.001Z</time></trkpt><trkpt lat="45.790393780763715" lon="9.82604132329007"><ele>368.0</ele><time>2026-04-05T16:02:05.001Z</time></trkpt><trkpt lat="45.79030253992566" lon="9.82594730622162"><ele>368.0</ele><time>2026-04-05T16:02:06.001Z</time></trkpt><trkpt lat="45.79020738852755" lon="9.825853509052331"><ele>368.0</ele><time>2026-04-05T16:02:07.001Z</time></trkpt><trkpt lat="45.79010724722958" lon="9.82575287427897"><ele>367.5</ele><time>2026-04-05T16:02:08.001Z</time></trkpt><trkpt lat="45.790004220245024" lon="9.825648403296128"><ele>367.0</ele><time>2026-04-05T16:02:09.001Z</time></trkpt><trkpt lat="45.78989723320927" lon="9.825540010502408"><ele>366.5</ele><time>2026-04-05T16:02:10.001Z</time></trkpt><trkpt lat="45.78979643233254" lon="9.825434769393981"><ele>366.0</ele><time>2026-04-05T16:02:11.001Z</time></trkpt><trkpt lat="45.789697834121085" lon="9.825331807551905"><ele>366.0</ele><time>2026-04-05T16:02:12.001Z</time></trkpt><trkpt lat="45.78960419717686" lon="9.82522135330213"><ele>366.0</ele><time>2026-04-05T16:02:13.001Z</time></trkpt><trkpt lat="45.7895093479213" lon="9.825118027843178"><ele>366.0</ele><time>2026-04-05T16:02:14.001Z</time></trkpt><trkpt lat="45.78941393074583" lon="9.825014182064503"><ele>366.0</ele><time>2026-04-05T16:02:15.002Z</time></trkpt><trkpt lat="45.78931782044947" lon="9.824914081050219"><ele>365.75</ele><time>2026-04-05T16:02:16.002Z</time></trkpt><trkpt lat="45.78921994011325" lon="9.824817158515838"><ele>365.5</ele><time>2026-04-05T16:02:17.002Z</time></trkpt><trkpt lat="45.78912179256976" lon="9.824716898028976"><ele>365.25</ele><time>2026-04-05T16:02:18.002Z</time></trkpt><trkpt lat="45.78902483423948" lon="9.82461621245987"><ele>365.0</ele><time>2026-04-05T16:02:19.002Z</time></trkpt><trkpt lat="45.78892764765359" lon="9.824516086098948"><ele>365.0</ele><time>2026-04-05T16:02:20.002Z</time></trkpt><trkpt lat="45.788829798549585" lon="9.824414839909705"><ele>365.0</ele><time>2026-04-05T16:02:21.002Z</time></trkpt><trkpt lat="45.788732446481816" lon="9.82431069170832"><ele>365.0</ele><time>2026-04-05T16:02:22.002Z</time></trkpt><trkpt lat="45.78863483802243" lon="9.824208361022862"><ele>365.0</ele><time>2026-04-05T16:02:23.002Z</time></trkpt><trkpt lat="45.78854029065445" lon="9.824115239883728"><ele>365.0</ele><time>2026-04-05T16:02:24.002Z</time></trkpt><trkpt lat="45.78845132928869" lon="9.824017936673654"><ele>365.0</ele><time>2026-04-05T16:02:25.002Z</time></trkpt><trkpt lat="45.7883625935251" lon="9.823922076959123"><ele>365.0</ele><time>2026-04-05T16:02:26.002Z</time></trkpt><trkpt lat="45.788274079377615" lon="9.82382955878909"><ele>365.0</ele><time>2026-04-05T16:02:27.002Z</time></trkpt><trkpt lat="45.78818391910429" lon="9.823737281351537"><ele>365.0</ele><time>2026-04-05T16:02:28.002Z</time></trkpt><trkpt lat="45.78810091181927" lon="9.82364418301899"><ele>365.0</ele><time>2026-04-05T16:02:29.002Z</time></trkpt><trkpt lat="45.7880140132375" lon="9.823557889602531"><ele>365.0</ele><time>2026-04-05T16:02:30.002Z</time></trkpt><trkpt lat="45.787929847867986" lon="9.823470210252069"><ele>365.0</ele><time>2026-04-05T16:02:31.002Z</time></trkpt><trkpt lat="45.78784306856805" lon="9.823387524717326"><ele>365.0</ele><time>2026-04-05T16:02:32.002Z</time></trkpt><trkpt lat="45.78776061919558" lon="9.823303146129208"><ele>365.0</ele><time>2026-04-05T16:02:33.002Z</time></trkpt><trkpt lat="45.78767055697892" lon="9.823212636597896"><ele>364.5</ele><time>2026-04-05T16:02:34.002Z</time></trkpt><trkpt lat="45.78757384256592" lon="9.823093635254736"><ele>364.0</ele><time>2026-04-05T16:02:35Z</time></trkpt><trkpt lat="45.787457497535364" lon="9.82297662515586"><ele>363.5</ele><time>2026-04-05T16:02:36Z</time></trkpt><trkpt lat="45.787353250408906" lon="9.822871781985656"><ele>363.0</ele><time>2026-04-05T16:02:37Z</time></trkpt><trkpt lat="45.78723908812204" lon="9.822826584059186"><ele>363.0</ele><time>2026-04-05T16:02:38Z</time></trkpt><trkpt lat="45.78717223329628" lon="9.822766883253781"><ele>363.0</ele><time>2026-04-05T16:02:39Z</time></trkpt><trkpt lat="45.78711170622068" lon="9.822709336730702"><ele>363.0</ele><time>2026-04-05T16:02:41Z</time></trkpt><trkpt lat="45.787038910774996" lon="9.822683923992304"><ele>363.0</ele><time>2026-04-05T16:02:44Z</time></trkpt><trkpt lat="45.786892545843294" lon="9.82256440023438"><ele>363.0</ele><time>2026-04-05T16:02:46Z</time></trkpt><trkpt lat="45.786794026362905" lon="9.822484922671935"><ele>364.0</ele><time>2026-04-05T16:02:47Z</time></trkpt><trkpt lat="45.786684596139835" lon="9.822412784348902"><ele>365.0</ele><time>2026-04-05T16:02:48Z</time></trkpt><trkpt lat="45.78656474652462" lon="9.822337677400023"><ele>366.0</ele><time>2026-04-05T16:02:49Z</time></trkpt><trkpt lat="45.78645818231288" lon="9.822278514066067"><ele>367.0</ele><time>2026-04-05T16:02:50Z</time></trkpt><trkpt lat="45.78635847749902" lon="9.822235433892534"><ele>367.0</ele><time>2026-04-05T16:02:51Z</time></trkpt><trkpt lat="45.78627043074141" lon="9.822184913831444"><ele>367.0</ele><time>2026-04-05T16:02:52Z</time></trkpt><trkpt lat="45.78618603501138" lon="9.822131506113802"><ele>367.0</ele><time>2026-04-05T16:02:53Z</time></trkpt><trkpt lat="45.78609416255576" lon="9.822081291754495"><ele>367.0</ele><time>2026-04-05T16:02:54Z</time></trkpt><trkpt lat="45.78600063746493" lon="9.822024794429403"><ele>367.0</ele><time>2026-04-05T16:02:55Z</time></trkpt><trkpt lat="45.78590665520486" lon="9.821977957556395"><ele>365.5</ele><time>2026-04-05T16:02:56Z</time></trkpt><trkpt lat="45.78580615050357" lon="9.821919409933113"><ele>364.0</ele><time>2026-04-05T16:02:57Z</time></trkpt><trkpt lat="45.78569289569952" lon="9.821848942870359"><ele>362.5</ele><time>2026-04-05T16:02:58Z</time></trkpt><trkpt lat="45.78558183646158" lon="9.82178914146999"><ele>361.0</ele><time>2026-04-05T16:02:59Z</time></trkpt><trkpt lat="45.785471985948945" lon="9.821743068812879"><ele>361.75</ele><time>2026-04-05T16:03:00Z</time></trkpt><trkpt lat="45.78535874862187" lon="9.821706478030903"><ele>362.5</ele><time>2026-04-05T16:03:01Z</time></trkpt><trkpt lat="45.78524882745734" lon="9.821664433974217"><ele>363.25</ele><time>2026-04-05T16:03:02Z</time></trkpt><trkpt lat="45.7851326738732" lon="9.821631162371492"><ele>364.0</ele><time>2026-04-05T16:03:03Z</time></trkpt><trkpt lat="45.78502166217335" lon="9.82159748481419"><ele>364.0</ele><time>2026-04-05T16:03:04Z</time></trkpt><trkpt lat="45.784923935099286" lon="9.821573242928682"><ele>364.0</ele><time>2026-04-05T16:03:05Z</time></trkpt><trkpt lat="45.784808131027276" lon="9.821541335385426"><ele>364.0</ele><time>2026-04-05T16:03:06Z</time></trkpt><trkpt lat="45.7846740153577" lon="9.821486561752838"><ele>364.0</ele><time>2026-04-05T16:03:07Z</time></trkpt><trkpt lat="45.7845383620651" lon="9.82143123663282"><ele>364.0</ele><time>2026-04-05T16:03:08Z</time></trkpt><trkpt lat="45.784420819414485" lon="9.821388850276875"><ele>364.0</ele><time>2026-04-05T16:03:09Z</time></trkpt><trkpt lat="45.78431078054457" lon="9.821356254285153"><ele>364.0</ele><time>2026-04-05T16:03:10Z</time></trkpt><trkpt lat="45.78420844739806" lon="9.821316907460739"><ele>364.0</ele><time>2026-04-05T16:03:11Z</time></trkpt><trkpt lat="45.784093095491606" lon="9.821274075974772"><ele>363.0</ele><time>2026-04-05T16:03:12Z</time></trkpt><trkpt lat="45.78396955010018" lon="9.821231009202375"><ele>362.0</ele><time>2026-04-05T16:03:13Z</time></trkpt><trkpt lat="45.783832029129634" lon="9.821183846293675"><ele>361.0</ele><time>2026-04-05T16:03:14Z</time></trkpt><trkpt lat="45.78368126294252" lon="9.82114592813583"><ele>360.0</ele><time>2026-04-05T16:03:15Z</time></trkpt><trkpt lat="45.78352266074277" lon="9.821108302656135"><ele>359.6666666666667</ele><time>2026-04-05T16:03:16Z</time></trkpt><trkpt lat="45.783353152122075" lon="9.821090845192423"><ele>359.33333333333337</ele><time>2026-04-05T16:03:17.001Z</time></trkpt><trkpt lat="45.78316099338508" lon="9.82106388903065"><ele>359.0</ele><time>2026-04-05T16:03:18.001Z</time></trkpt><trkpt lat="45.78294754635133" lon="9.821054883536661"><ele>359.0</ele><time>2026-04-05T16:03:19.001Z</time></trkpt><trkpt lat="45.782709457278266" lon="9.821065341451762"><ele>359.0</ele><time>2026-04-05T16:03:20.001Z</time></trkpt><trkpt lat="45.78248580166307" lon="9.821028165099332"><ele>359.0</ele><time>2026-04-05T16:03:21.001Z</time></trkpt><trkpt lat="45.782260009913294" lon="9.821017252723928"><ele>359.0</ele><time>2026-04-05T16:03:22.001Z</time></trkpt><trkpt lat="45.78203917663706" lon="9.8209905038532"><ele>359.0</ele><time>2026-04-05T16:03:23.001Z</time></trkpt><trkpt lat="45.7818262033922" lon="9.820960943713688"><ele>359.0</ele><time>2026-04-05T16:03:24.001Z</time></trkpt><trkpt lat="45.781619224815074" lon="9.820914320084196"><ele>359.0</ele><time>2026-04-05T16:03:25.001Z</time></trkpt><trkpt lat="45.78140880976039" lon="9.82085164780864"><ele>359.0</ele><time>2026-04-05T16:03:26.001Z</time></trkpt><trkpt lat="45.78120012065676" lon="9.820781983890045"><ele>358.0</ele><time>2026-04-05T16:03:27.001Z</time></trkpt><trkpt lat="45.78100185250847" lon="9.820686541410737"><ele>357.0</ele><time>2026-04-05T16:03:28.001Z</time></trkpt><trkpt lat="45.78080878073897" lon="9.820577322451921"><ele>356.0</ele><time>2026-04-05T16:03:29.001Z</time></trkpt><trkpt lat="45.78062447091579" lon="9.820457213749135"><ele>356.0</ele><time>2026-04-05T16:03:30.001Z</time></trkpt><trkpt lat="45.7804491042048" lon="9.82033883043644"><ele>356.0</ele><time>2026-04-05T16:03:31.001Z</time></trkpt><trkpt lat="45.780272819246136" lon="9.82021866788603"><ele>356.0</ele><time>2026-04-05T16:03:32.001Z</time></trkpt><trkpt lat="45.78010154577837" lon="9.8201002749965"><ele>356.6666666666667</ele><time>2026-04-05T16:03:33.001Z</time></trkpt><trkpt lat="45.77993040948191" lon="9.819982623119854"><ele>357.3333333333333</ele><time>2026-04-05T16:03:34.001Z</time></trkpt><trkpt lat="45.77976176697042" lon="9.819866367430617"><ele>358.0</ele><time>2026-04-05T16:03:35.001Z</time></trkpt><trkpt lat="45.7795948167836" lon="9.819751916151603"><ele>358.0</ele><time>2026-04-05T16:03:36.001Z</time></trkpt><trkpt lat="45.7794235569722" lon="9.819636415468304"><ele>358.0</ele><time>2026-04-05T16:03:37.001Z</time></trkpt><trkpt lat="45.77925293143726" lon="9.819519946662895"><ele>358.0</ele><time>2026-04-05T16:03:38.001Z</time></trkpt><trkpt lat="45.77908793689378" lon="9.819406412314919"><ele>356.66666666666663</ele><time>2026-04-05T16:03:39.001Z</time></trkpt><trkpt lat="45.77892319533162" lon="9.81929029209828"><ele>355.3333333333333</ele><time>2026-04-05T16:03:40.001Z</time></trkpt><trkpt lat="45.77876118954343" lon="9.819175828100814"><ele>354.0</ele><time>2026-04-05T16:03:41.001Z</time></trkpt><trkpt lat="45.77859880140799" lon="9.819064074198192"><ele>352.6666666666667</ele><time>2026-04-05T16:03:42.001Z</time></trkpt><trkpt lat="45.778445257916914" lon="9.818958928993515"><ele>351.33333333333337</ele><time>2026-04-05T16:03:43.001Z</time></trkpt><trkpt lat="45.77829686526514" lon="9.818856935470489"><ele>350.0</ele><time>2026-04-05T16:03:44.001Z</time></trkpt><trkpt lat="45.778154602109446" lon="9.818758839614855"><ele>350.0</ele><time>2026-04-05T16:03:45.001Z</time></trkpt><trkpt lat="45.77801092889946" lon="9.818654568686863"><ele>350.0</ele><time>2026-04-05T16:03:46.001Z</time></trkpt><trkpt lat="45.777863840132454" lon="9.81855267790667"><ele>350.0</ele><time>2026-04-05T16:03:47.001Z</time></trkpt><trkpt lat="45.77771435082719" lon="9.818449174960097"><ele>351.33333333333337</ele><time>2026-04-05T16:03:48.001Z</time></trkpt><trkpt lat="45.777571409433044" lon="9.81835014236025"><ele>352.6666666666667</ele><time>2026-04-05T16:03:49.001Z</time></trkpt><trkpt lat="45.7774318409765" lon="9.818251979443824"><ele>354.0</ele><time>2026-04-05T16:03:50.001Z</time></trkpt><trkpt lat="45.77728833377574" lon="9.818151094546307"><ele>354.0</ele><time>2026-04-05T16:03:51.001Z</time></trkpt><trkpt lat="45.777141697338166" lon="9.818050550586868"><ele>354.0</ele><time>2026-04-05T16:03:52.001Z</time></trkpt><trkpt lat="45.776992919139296" lon="9.817949789555469"><ele>354.0</ele><time>2026-04-05T16:03:53.001Z</time></trkpt><trkpt lat="45.77684112370971" lon="9.817843740366987"><ele>354.0</ele><time>2026-04-05T16:03:54.001Z</time></trkpt><trkpt lat="45.77668865862997" lon="9.817733582673794"><ele>354.0</ele><time>2026-04-05T16:03:55.001Z</time></trkpt><trkpt lat="45.77653976581298" lon="9.817624762888082"><ele>354.0</ele><time>2026-04-05T16:03:56.001Z</time></trkpt><trkpt lat="45.77639215426852" lon="9.817520401629935"><ele>354.0</ele><time>2026-04-05T16:03:57.001Z</time></trkpt><trkpt lat="45.776255175177035" lon="9.817424244063114"><ele>354.0</ele><time>2026-04-05T16:03:58.001Z</time></trkpt><trkpt lat="45.77612674252086" lon="9.817334509438972"><ele>354.0</ele><time>2026-04-05T16:03:59.001Z</time></trkpt><trkpt lat="45.77599634672865" lon="9.817244222007549"><ele>354.0</ele><time>2026-04-05T16:04:00.001Z</time></trkpt><trkpt lat="45.77586612572796" lon="9.817153989854896"><ele>353.25</ele><time>2026-04-05T16:04:01.001Z</time></trkpt><trkpt lat="45.775753434584324" lon="9.81707642685932"><ele>352.5</ele><time>2026-04-05T16:04:02.001Z</time></trkpt><trkpt lat="45.775648658674655" lon="9.817008045048047"><ele>351.75</ele><time>2026-04-05T16:04:03.001Z</time></trkpt><trkpt lat="45.77553684298553" lon="9.816936007978725"><ele>351.0</ele><time>2026-04-05T16:04:04.001Z</time></trkpt><trkpt lat="45.77542298372205" lon="9.81686096658996"><ele>351.25</ele><time>2026-04-05T16:04:05.001Z</time></trkpt><trkpt lat="45.77531330348953" lon="9.816785377396497"><ele>351.5</ele><time>2026-04-05T16:04:06.001Z</time></trkpt><trkpt lat="45.77521400131963" lon="9.816713119011572"><ele>351.75</ele><time>2026-04-05T16:04:07.001Z</time></trkpt><trkpt lat="45.77511713654016" lon="9.816640691103597"><ele>352.0</ele><time>2026-04-05T16:04:08.001Z</time></trkpt><trkpt lat="45.7750194207671" lon="9.816571010967353"><ele>351.25</ele><time>2026-04-05T16:04:09.002Z</time></trkpt><trkpt lat="45.774919299913336" lon="9.816500291612106"><ele>350.5</ele><time>2026-04-05T16:04:10.002Z</time></trkpt><trkpt lat="45.77481459378216" lon="9.81642619194098"><ele>349.75</ele><time>2026-04-05T16:04:11.002Z</time></trkpt><trkpt lat="45.77470862562077" lon="9.816353649606347"><ele>349.0</ele><time>2026-04-05T16:04:12.002Z</time></trkpt><trkpt lat="45.77460804752246" lon="9.816288465966014"><ele>349.0</ele><time>2026-04-05T16:04:13.002Z</time></trkpt><trkpt lat="45.774509679862895" lon="9.816211913034358"><ele>349.0</ele><time>2026-04-05T16:04:14.002Z</time></trkpt><trkpt lat="45.774408083893796" lon="9.816139305639325"><ele>349.0</ele><time>2026-04-05T16:04:15.002Z</time></trkpt><trkpt lat="45.774307864198484" lon="9.816072523176798"><ele>349.0</ele><time>2026-04-05T16:04:16.002Z</time></trkpt><trkpt lat="45.774207448508925" lon="9.816007783456309"><ele>349.0</ele><time>2026-04-05T16:04:17.002Z</time></trkpt><trkpt lat="45.77410554588527" lon="9.815948117262202"><ele>348.75</ele><time>2026-04-05T16:04:18.002Z</time></trkpt><trkpt lat="45.77399834695605" lon="9.815891834794272"><ele>348.5</ele><time>2026-04-05T16:04:19.002Z</time></trkpt><trkpt lat="45.77388437292065" lon="9.815830113594673"><ele>348.25</ele><time>2026-04-05T16:04:20.002Z</time></trkpt><trkpt lat="45.77376568479209" lon="9.815769022000117"><ele>348.0</ele><time>2026-04-05T16:04:21.002Z</time></trkpt><trkpt lat="45.77363565465271" lon="9.81570914565514"><ele>349.3333333333333</ele><time>2026-04-05T16:04:22.002Z</time></trkpt><trkpt lat="45.77348910712861" lon="9.815638654685108"><ele>350.66666666666663</ele><time>2026-04-05T16:04:23.002Z</time></trkpt><trkpt lat="45.77333100879399" lon="9.815563666166662"><ele>352.0</ele><time>2026-04-05T16:04:24.002Z</time></trkpt><trkpt lat="45.77317026762765" lon="9.815467532181247"><ele>352.0</ele><time>2026-04-05T16:04:25.002Z</time></trkpt><trkpt lat="45.77299168862927" lon="9.815372056330034"><ele>352.0</ele><time>2026-04-05T16:04:26.002Z</time></trkpt><trkpt lat="45.77281166929278" lon="9.815298804350801"><ele>352.0</ele><time>2026-04-05T16:04:27.002Z</time></trkpt><trkpt lat="45.77263901764192" lon="9.815217183932925"><ele>351.0</ele><time>2026-04-05T16:04:28.002Z</time></trkpt><trkpt lat="45.77246642837465" lon="9.815138054825516"><ele>350.0</ele><time>2026-04-05T16:04:29.002Z</time></trkpt><trkpt lat="45.772290300800826" lon="9.815059806026184"><ele>349.0</ele><time>2026-04-05T16:04:30.002Z</time></trkpt><trkpt lat="45.772121619602544" lon="9.814979756179289"><ele>349.0</ele><time>2026-04-05T16:04:31.002Z</time></trkpt><trkpt lat="45.771956600038486" lon="9.814909302585336"><ele>349.0</ele><time>2026-04-05T16:04:32.002Z</time></trkpt><trkpt lat="45.77179400430508" lon="9.814844863927238"><ele>349.0</ele><time>2026-04-05T16:04:33.002Z</time></trkpt><trkpt lat="45.771629715381515" lon="9.814789268741944"><ele>347.66666666666663</ele><time>2026-04-05T16:04:34.002Z</time></trkpt><trkpt lat="45.77146938184668" lon="9.814719311664108"><ele>346.3333333333333</ele><time>2026-04-05T16:04:35.002Z</time></trkpt><trkpt lat="45.77129989785653" lon="9.81463332379914"><ele>345.0</ele><time>2026-04-05T16:04:36.002Z</time></trkpt><trkpt lat="45.77112819685506" lon="9.81456077884778"><ele>345.3333333333333</ele><time>2026-04-05T16:04:37.002Z</time></trkpt><trkpt lat="45.770961869447135" lon="9.814503017614166"><ele>345.66666666666663</ele><time>2026-04-05T16:04:38.002Z</time></trkpt><trkpt lat="45.77078963153408" lon="9.814444495580206"><ele>346.0</ele><time>2026-04-05T16:04:39.002Z</time></trkpt><trkpt lat="45.77061337298261" lon="9.81438674115738"><ele>346.0</ele><time>2026-04-05T16:04:40.002Z</time></trkpt><trkpt lat="45.770433717163215" lon="9.814328458032426"><ele>346.0</ele><time>2026-04-05T16:04:41.001Z</time></trkpt><trkpt lat="45.77025175284866" lon="9.814268349961909"><ele>346.0</ele><time>2026-04-05T16:04:42.001Z</time></trkpt><trkpt lat="45.770065378020384" lon="9.814198376777654"><ele>344.66666666666663</ele><time>2026-04-05T16:04:43.001Z</time></trkpt><trkpt lat="45.76987262057416" lon="9.814123021420109"><ele>343.3333333333333</ele><time>2026-04-05T16:04:44.001Z</time></trkpt><trkpt lat="45.76968090607177" lon="9.81403161071045"><ele>342.0</ele><time>2026-04-05T16:04:45.001Z</time></trkpt><trkpt lat="45.76948789842535" lon="9.813926140708308"><ele>341.3333333333333</ele><time>2026-04-05T16:04:46.001Z</time></trkpt><trkpt lat="45.76929885928976" lon="9.813807094096962"><ele>340.66666666666663</ele><time>2026-04-05T16:04:47.001Z</time></trkpt><trkpt lat="45.769121738661745" lon="9.813680719244665"><ele>340.0</ele><time>2026-04-05T16:04:48.001Z</time></trkpt><trkpt lat="45.76893715048345" lon="9.813539440111095"><ele>340.0</ele><time>2026-04-05T16:04:49.001Z</time></trkpt><trkpt lat="45.76874518287034" lon="9.813381789128513"><ele>340.0</ele><time>2026-04-05T16:04:50.001Z</time></trkpt><trkpt lat="45.7685513605003" lon="9.813218261565783"><ele>340.0</ele><time>2026-04-05T16:04:51.001Z</time></trkpt><trkpt lat="45.768354572144254" lon="9.81305378413846"><ele>340.0</ele><time>2026-04-05T16:04:52.001Z</time></trkpt><trkpt lat="45.76816341023799" lon="9.812896987272902"><ele>340.0</ele><time>2026-04-05T16:04:53.001Z</time></trkpt><trkpt lat="45.76797980959712" lon="9.81274366520216"><ele>340.0</ele><time>2026-04-05T16:04:54Z</time></trkpt><trkpt lat="45.767788626385034" lon="9.81259031475544"><ele>339.3333333333333</ele><time>2026-04-05T16:04:55Z</time></trkpt><trkpt lat="45.76759215301832" lon="9.812447130965149"><ele>338.6666666666667</ele><time>2026-04-05T16:04:56.001Z</time></trkpt><trkpt lat="45.76739721670453" lon="9.81230659214155"><ele>338.0</ele><time>2026-04-05T16:04:57.001Z</time></trkpt><trkpt lat="45.767192550139754" lon="9.812175164935606"><ele>338.0</ele><time>2026-04-05T16:04:58.001Z</time></trkpt><trkpt lat="45.76699009916883" lon="9.812035429832859"><ele>338.0</ele><time>2026-04-05T16:04:59.001Z</time></trkpt><trkpt lat="45.76678068751939" lon="9.811902216049205"><ele>336.5</ele><time>2026-04-05T16:05:00.001Z</time></trkpt><trkpt lat="45.766574276589026" lon="9.81177488698699"><ele>335.0</ele><time>2026-04-05T16:05:01.001Z</time></trkpt><trkpt lat="45.76636621508161" lon="9.811650588327398"><ele>335.0</ele><time>2026-04-05T16:05:02.001Z</time></trkpt><trkpt lat="45.76615657923005" lon="9.81152123551257"><ele>335.0</ele><time>2026-04-05T16:05:03.001Z</time></trkpt><trkpt lat="45.76594822993424" lon="9.811391443857675"><ele>336.5</ele><time>2026-04-05T16:05:04.001Z</time></trkpt><trkpt lat="45.76573955772147" lon="9.811266709217744"><ele>338.0</ele><time>2026-04-05T16:05:05.001Z</time></trkpt><trkpt lat="45.7655297591711" lon="9.81115560655498"><ele>338.0</ele><time>2026-04-05T16:05:06.001Z</time></trkpt><trkpt lat="45.76532433424304" lon="9.811065311336591"><ele>338.0</ele><time>2026-04-05T16:05:07.001Z</time></trkpt><trkpt lat="45.76510005276712" lon="9.810993495461668"><ele>338.0</ele><time>2026-04-05T16:05:08.001Z</time></trkpt><trkpt lat="45.764880365402966" lon="9.810944250803892"><ele>336.6666666666667</ele><time>2026-04-05T16:05:09.001Z</time></trkpt><trkpt lat="45.764665116141515" lon="9.810917356609975"><ele>335.3333333333333</ele><time>2026-04-05T16:05:10.001Z</time></trkpt><trkpt lat="45.764462863207775" lon="9.81090516049178"><ele>334.0</ele><time>2026-04-05T16:05:11.001Z</time></trkpt><trkpt lat="45.76428179163534" lon="9.8109140572093"><ele>334.0</ele><time>2026-04-05T16:05:12.001Z</time></trkpt><trkpt lat="45.764124539355784" lon="9.810936141185865"><ele>334.0</ele><time>2026-04-05T16:05:13.001Z</time></trkpt><trkpt lat="45.763990073507884" lon="9.810972277954791"><ele>334.0</ele><time>2026-04-05T16:05:14.001Z</time></trkpt><trkpt lat="45.76387080108412" lon="9.811017520576806"><ele>334.0</ele><time>2026-04-05T16:05:15.001Z</time></trkpt><trkpt lat="45.763758471571734" lon="9.811057798932298"><ele>335.25</ele><time>2026-04-05T16:05:16.001Z</time></trkpt><trkpt lat="45.763652030964046" lon="9.811094468634296"><ele>336.5</ele><time>2026-04-05T16:05:17.001Z</time></trkpt><trkpt lat="45.76354197910183" lon="9.811138435025969"><ele>337.75</ele><time>2026-04-05T16:05:18.001Z</time></trkpt><trkpt lat="45.763422329781115" lon="9.811182102461792"><ele>339.0</ele><time>2026-04-05T16:05:19.001Z</time></trkpt><trkpt lat="45.763293854611554" lon="9.811254712418629"><ele>339.0</ele><time>2026-04-05T16:05:20.001Z</time></trkpt><trkpt lat="45.763139693338395" lon="9.811354680350705"><ele>339.0</ele><time>2026-04-05T16:05:21.001Z</time></trkpt><trkpt lat="45.763010251532236" lon="9.811439704144092"><ele>339.0</ele><time>2026-04-05T16:05:22.001Z</time></trkpt><trkpt lat="45.76289063944501" lon="9.811519584926184"><ele>339.0</ele><time>2026-04-05T16:05:23.001Z</time></trkpt><trkpt lat="45.76275582711159" lon="9.811609808552907"><ele>339.0</ele><time>2026-04-05T16:05:24.001Z</time></trkpt><trkpt lat="45.76261274113387" lon="9.8117054965418"><ele>339.0</ele><time>2026-04-05T16:05:25.001Z</time></trkpt><trkpt lat="45.76246309216049" lon="9.81182235604252"><ele>339.0</ele><time>2026-04-05T16:05:26.001Z</time></trkpt><trkpt lat="45.762321202837434" lon="9.811894356718803"><ele>339.0</ele><time>2026-04-05T16:05:27.001Z</time></trkpt><trkpt lat="45.76219420908637" lon="9.811968054497312"><ele>339.0</ele><time>2026-04-05T16:05:28.001Z</time></trkpt><trkpt lat="45.7620664240047" lon="9.812032586189497"><ele>339.0</ele><time>2026-04-05T16:05:29.001Z</time></trkpt><trkpt lat="45.7619294542341" lon="9.812079985471154"><ele>339.0</ele><time>2026-04-05T16:05:30.001Z</time></trkpt><trkpt lat="45.76178384584607" lon="9.812117159446432"><ele>343.5</ele><time>2026-04-05T16:05:31.001Z</time></trkpt><trkpt lat="45.76163679993901" lon="9.812154449663899"><ele>348.0</ele><time>2026-04-05T16:05:32.001Z</time></trkpt><trkpt lat="45.76150112433998" lon="9.81218107162647"><ele>352.5</ele><time>2026-04-05T16:05:33.001Z</time></trkpt><trkpt lat="45.761374399868565" lon="9.812198791836236"><ele>357.0</ele><time>2026-04-05T16:05:34.001Z</time></trkpt><trkpt lat="45.76124767602928" lon="9.812208093418365"><ele>357.0</ele><time>2026-04-05T16:05:35.001Z</time></trkpt><trkpt lat="45.76111722645211" lon="9.812210701856339"><ele>357.0</ele><time>2026-04-05T16:05:36.021Z</time></trkpt><trkpt lat="45.76098754448301" lon="9.81220795571017"><ele>357.0</ele><time>2026-04-05T16:05:37.023Z</time></trkpt><trkpt lat="45.76085975867086" lon="9.812201878491832"><ele>357.0</ele><time>2026-04-05T16:05:38.016Z</time></trkpt><trkpt lat="45.760727736893884" lon="9.812170733756176"><ele>359.3333333333333</ele><time>2026-04-05T16:05:39.013Z</time></trkpt><trkpt lat="45.76060497845774" lon="9.812140719439402"><ele>361.66666666666663</ele><time>2026-04-05T16:05:40.015Z</time></trkpt><trkpt lat="45.76048035601266" lon="9.8121018707201"><ele>364.0</ele><time>2026-04-05T16:05:41.019Z</time></trkpt><trkpt lat="45.759056308349365" lon="9.811158813545305"><ele>364.0</ele><time>2026-04-05T16:05:55.001Z</time></trkpt><trkpt lat="45.758974609261536" lon="9.811059374028497"><ele>364.0</ele><time>2026-04-05T16:05:56.001Z</time></trkpt><trkpt lat="45.75894035945934" lon="9.810898374896658"><ele>364.0</ele><time>2026-04-05T16:05:57.001Z</time></trkpt><trkpt lat="45.75886975333985" lon="9.810790758203941"><ele>364.0</ele><time>2026-04-05T16:05:58.001Z</time></trkpt><trkpt lat="45.7587758127201" lon="9.810640845993197"><ele>359.0</ele><time>2026-04-05T16:05:59.001Z</time></trkpt><trkpt lat="45.758659944163234" lon="9.810468485783566"><ele>354.0</ele><time>2026-04-05T16:06:00.001Z</time></trkpt><trkpt lat="45.7585647201772" lon="9.810271414418626"><ele>349.0</ele><time>2026-04-05T16:06:01.001Z</time></trkpt><trkpt lat="45.7584658070628" lon="9.810061477770606"><ele>349.0</ele><time>2026-04-05T16:06:02.001Z</time></trkpt><trkpt lat="45.75836960788194" lon="9.809831590331703"><ele>349.0</ele><time>2026-04-05T16:06:03.002Z</time></trkpt><trkpt lat="45.75827672765103" lon="9.809586029030722"><ele>349.0</ele><time>2026-04-05T16:06:04.002Z</time></trkpt><trkpt lat="45.75818756165196" lon="9.809340145661167"><ele>345.0</ele><time>2026-04-05T16:06:05.002Z</time></trkpt><trkpt lat="45.758103668500645" lon="9.809093010523206"><ele>341.0</ele><time>2026-04-05T16:06:06.002Z</time></trkpt><trkpt lat="45.7580212496814" lon="9.808869546979981"><ele>337.0</ele><time>2026-04-05T16:06:07.002Z</time></trkpt><trkpt lat="45.75793535757719" lon="9.808650241514313"><ele>336.0</ele><time>2026-04-05T16:06:08.002Z</time></trkpt><trkpt lat="45.75786845589546" lon="9.80843172003926"><ele>335.0</ele><time>2026-04-05T16:06:09.002Z</time></trkpt><trkpt lat="45.75775598795183" lon="9.808238301789329"><ele>334.0</ele><time>2026-04-05T16:06:10.002Z</time></trkpt><trkpt lat="45.75766423391597" lon="9.808047507387776"><ele>335.66666666666663</ele><time>2026-04-05T16:06:11.002Z</time></trkpt><trkpt lat="45.7575804406484" lon="9.807849283454164"><ele>337.3333333333333</ele><time>2026-04-05T16:06:12.002Z</time></trkpt><trkpt lat="45.757480617422885" lon="9.807667969851495"><ele>339.0</ele><time>2026-04-05T16:06:13.002Z</time></trkpt><trkpt lat="45.757374800229464" lon="9.807490831917603"><ele>339.0</ele><time>2026-04-05T16:06:14.002Z</time></trkpt><trkpt lat="45.75725557944711" lon="9.80733907250312"><ele>339.0</ele><time>2026-04-05T16:06:15.002Z</time></trkpt><trkpt lat="45.757153579144294" lon="9.807181474647397"><ele>339.0</ele><time>2026-04-05T16:06:16.002Z</time></trkpt><trkpt lat="45.75705596681449" lon="9.807035501939259"><ele>339.0</ele><time>2026-04-05T16:06:17.002Z</time></trkpt><trkpt lat="45.75695523604687" lon="9.806891782369627"><ele>339.0</ele><time>2026-04-05T16:06:18.002Z</time></trkpt><trkpt lat="45.75685422687091" lon="9.806747372776696"><ele>339.0</ele><time>2026-04-05T16:06:19.002Z</time></trkpt><trkpt lat="45.756748925225594" lon="9.80660279740732"><ele>339.0</ele><time>2026-04-05T16:06:20.002Z</time></trkpt><trkpt lat="45.75664229271993" lon="9.806458702156498"><ele>345.25</ele><time>2026-04-05T16:06:21.002Z</time></trkpt><trkpt lat="45.756549848880425" lon="9.80629836279327"><ele>351.5</ele><time>2026-04-05T16:06:22.002Z</time></trkpt><trkpt lat="45.75645157403382" lon="9.806159299942314"><ele>357.75</ele><time>2026-04-05T16:06:23.002Z</time></trkpt><trkpt lat="45.75636237233227" lon="9.806033361516622"><ele>364.0</ele><time>2026-04-05T16:06:24.016Z</time></trkpt><trkpt lat="45.75628364850357" lon="9.80592227315571"><ele>364.0</ele><time>2026-04-05T16:06:25.021Z</time></trkpt><trkpt lat="45.75620804191034" lon="9.805815583636441"><ele>364.0</ele><time>2026-04-05T16:06:26.022Z</time></trkpt><trkpt lat="45.75453181059403" lon="9.803100925369014"><ele>376.0</ele><time>2026-04-05T16:06:30.727Z</time></trkpt><trkpt lat="45.75425881738176" lon="9.80243581569194"><ele>376.0</ele><time>2026-04-05T16:06:31.727Z</time></trkpt><trkpt lat="45.754024070322345" lon="9.801740962480348"><ele>376.0</ele><time>2026-04-05T16:06:32.727Z</time></trkpt><trkpt lat="45.75382215041581" lon="9.801025742228964"><ele>372.0</ele><time>2026-04-05T16:06:33.728Z</time></trkpt><trkpt lat="45.753662296675174" lon="9.800290629529222"><ele>370.5</ele><time>2026-04-05T16:06:34.726Z</time></trkpt><trkpt lat="45.7535794" lon="9.7998047"><ele>369.0</ele><time>2026-04-05T16:06:35.727Z</time></trkpt><trkpt lat="45.753724705470496" lon="9.793145516896427"><ele>357.5</ele><time>2026-04-05T16:07:30.003Z</time></trkpt><trkpt lat="45.75371663809453" lon="9.793014532028707"><ele>346.0</ele><time>2026-04-05T16:07:31.003Z</time></trkpt><trkpt lat="45.75370251139486" lon="9.792856547699044"><ele>334.5</ele><time>2026-04-05T16:07:32.003Z</time></trkpt><trkpt lat="45.75374342956669" lon="9.792658699822535"><ele>323.0</ele><time>2026-04-05T16:07:33.003Z</time></trkpt><trkpt lat="45.753741616534235" lon="9.792428331728086"><ele>322.25</ele><time>2026-04-05T16:07:34.003Z</time></trkpt><trkpt lat="45.753735169686976" lon="9.79221511331242"><ele>321.5</ele><time>2026-04-05T16:07:35.003Z</time></trkpt><trkpt lat="45.75372501632494" lon="9.792004585653656"><ele>320.75</ele><time>2026-04-05T16:07:36.001Z</time></trkpt><trkpt lat="45.75371310840614" lon="9.791826523307185"><ele>320.0</ele><time>2026-04-05T16:07:37.001Z</time></trkpt><trkpt lat="45.75370195732594" lon="9.791682764686486"><ele>319.5</ele><time>2026-04-05T16:07:38.001Z</time></trkpt><trkpt lat="45.753688881609854" lon="9.791536089246025"><ele>319.0</ele><time>2026-04-05T16:07:39.001Z</time></trkpt><trkpt lat="45.753673240661335" lon="9.791384985972412"><ele>318.5</ele><time>2026-04-05T16:07:40.001Z</time></trkpt><trkpt lat="45.75365151181594" lon="9.791216432535595"><ele>318.0</ele><time>2026-04-05T16:07:41.001Z</time></trkpt><trkpt lat="45.75362349674687" lon="9.791020001522218"><ele>318.0</ele><time>2026-04-05T16:07:42.001Z</time></trkpt><trkpt lat="45.7535886690388" lon="9.790802195353237"><ele>318.0</ele><time>2026-04-05T16:07:43.001Z</time></trkpt><trkpt lat="45.753547139890365" lon="9.79056915999694"><ele>318.0</ele><time>2026-04-05T16:07:44.001Z</time></trkpt><trkpt lat="45.753480157742054" lon="9.790331858288756"><ele>317.3333333333333</ele><time>2026-04-05T16:07:45.001Z</time></trkpt><trkpt lat="45.7534415709447" lon="9.790091149481478"><ele>316.66666666666663</ele><time>2026-04-05T16:07:46.001Z</time></trkpt><trkpt lat="45.75338238077271" lon="9.789857478136286"><ele>316.0</ele><time>2026-04-05T16:07:47.001Z</time></trkpt><trkpt lat="45.7533139721558" lon="9.789614419212581"><ele>316.0</ele><time>2026-04-05T16:07:48.001Z</time></trkpt><trkpt lat="45.75322560945338" lon="9.789375583155369"><ele>316.0</ele><time>2026-04-05T16:07:49Z</time></trkpt><trkpt lat="45.75315177888835" lon="9.789122783004844"><ele>316.0</ele><time>2026-04-05T16:07:50Z</time></trkpt><trkpt lat="45.753081489495024" lon="9.788888206428558"><ele>316.66666666666663</ele><time>2026-04-05T16:07:51Z</time></trkpt><trkpt lat="45.753013565401" lon="9.7886841907468"><ele>317.3333333333333</ele><time>2026-04-05T16:07:52Z</time></trkpt><trkpt lat="45.75295288363589" lon="9.788460561017695"><ele>318.0</ele><time>2026-04-05T16:07:53Z</time></trkpt><trkpt lat="45.75287768709096" lon="9.78822272730588"><ele>318.0</ele><time>2026-04-05T16:07:54Z</time></trkpt><trkpt lat="45.752789006225704" lon="9.78798324989401"><ele>318.0</ele><time>2026-04-05T16:07:55.001Z</time></trkpt><trkpt lat="45.752708613976445" lon="9.787730893676496"><ele>318.0</ele><time>2026-04-05T16:07:56.001Z</time></trkpt><trkpt lat="45.75262973004462" lon="9.787485331515917"><ele>318.6666666666667</ele><time>2026-04-05T16:07:57.001Z</time></trkpt><trkpt lat="45.752556751804136" lon="9.787250641296637"><ele>319.33333333333337</ele><time>2026-04-05T16:07:58.001Z</time></trkpt><trkpt lat="45.75248277338481" lon="9.787010496418176"><ele>320.0</ele><time>2026-04-05T16:07:59.001Z</time></trkpt><trkpt lat="45.75240654627483" lon="9.786771381066336"><ele>320.0</ele><time>2026-04-05T16:08:00.001Z</time></trkpt><trkpt lat="45.75233102935523" lon="9.786537676961713"><ele>320.0</ele><time>2026-04-05T16:08:01.001Z</time></trkpt><trkpt lat="45.75225434060904" lon="9.786304181221247"><ele>320.0</ele><time>2026-04-05T16:08:02.001Z</time></trkpt><trkpt lat="45.752183292624615" lon="9.786086830315062"><ele>320.33333333333337</ele><time>2026-04-05T16:08:03.001Z</time></trkpt><trkpt lat="45.752127423643955" lon="9.785866190139648"><ele>320.6666666666667</ele><time>2026-04-05T16:08:04.001Z</time></trkpt><trkpt lat="45.75206497709939" lon="9.785670448484687"><ele>321.0</ele><time>2026-04-05T16:08:05.001Z</time></trkpt><trkpt lat="45.75200821873385" lon="9.7854925366745"><ele>321.0</ele><time>2026-04-05T16:08:06.001Z</time></trkpt><trkpt lat="45.75193686677684" lon="9.785334168465614"><ele>321.0</ele><time>2026-04-05T16:08:07.001Z</time></trkpt><trkpt lat="45.751888485836055" lon="9.785179424248197"><ele>321.0</ele><time>2026-04-05T16:08:08.001Z</time></trkpt><trkpt lat="45.751845420523054" lon="9.785043010648963"><ele>321.0</ele><time>2026-04-05T16:08:09.001Z</time></trkpt><trkpt lat="45.75180494908628" lon="9.784910923503647"><ele>320.25</ele><time>2026-04-05T16:08:10.001Z</time></trkpt><trkpt lat="45.75175844339952" lon="9.784767581005962"><ele>319.5</ele><time>2026-04-05T16:08:11.001Z</time></trkpt><trkpt lat="45.75170957734606" lon="9.784614684345051"><ele>318.75</ele><time>2026-04-05T16:08:12.001Z</time></trkpt><trkpt lat="45.751655425243804" lon="9.784456238045152"><ele>318.0</ele><time>2026-04-05T16:08:13.001Z</time></trkpt><trkpt lat="45.75160237302275" lon="9.784306349902447"><ele>316.75</ele><time>2026-04-05T16:08:14.001Z</time></trkpt><trkpt lat="45.751550264605086" lon="9.784159180678277"><ele>315.5</ele><time>2026-04-05T16:08:15.001Z</time></trkpt><trkpt lat="45.751498181972664" lon="9.784008670612693"><ele>314.25</ele><time>2026-04-05T16:08:16.001Z</time></trkpt><trkpt lat="45.751461212068946" lon="9.783844229133027"><ele>313.0</ele><time>2026-04-05T16:08:17.001Z</time></trkpt><trkpt lat="45.75140586258912" lon="9.783692364630115"><ele>313.0</ele><time>2026-04-05T16:08:18.001Z</time></trkpt><trkpt lat="45.751336366146795" lon="9.783550824633805"><ele>313.0</ele><time>2026-04-05T16:08:19.001Z</time></trkpt><trkpt lat="45.751277268547526" lon="9.783394317306724"><ele>313.0</ele><time>2026-04-05T16:08:20.001Z</time></trkpt><trkpt lat="45.751214647033045" lon="9.783225022515053"><ele>313.0</ele><time>2026-04-05T16:08:21.001Z</time></trkpt><trkpt lat="45.751152219601884" lon="9.783056839264962"><ele>313.25</ele><time>2026-04-05T16:08:22.001Z</time></trkpt><trkpt lat="45.75109500793694" lon="9.782898570037121"><ele>313.5</ele><time>2026-04-05T16:08:23.001Z</time></trkpt><trkpt lat="45.75103692188787" lon="9.782743725934218"><ele>313.75</ele><time>2026-04-05T16:08:24.001Z</time></trkpt><trkpt lat="45.75097588822265" lon="9.782586551054884"><ele>314.0</ele><time>2026-04-05T16:08:25.001Z</time></trkpt><trkpt lat="45.75091309634852" lon="9.782429538913933"><ele>314.0</ele><time>2026-04-05T16:08:26.001Z</time></trkpt><trkpt lat="45.750850971673856" lon="9.782289257824985"><ele>314.0</ele><time>2026-04-05T16:08:27.001Z</time></trkpt><trkpt lat="45.75079457472299" lon="9.782153995565487"><ele>314.0</ele><time>2026-04-05T16:08:28.001Z</time></trkpt><trkpt lat="45.7507401603596" lon="9.782025690095939"><ele>314.0</ele><time>2026-04-05T16:08:29.001Z</time></trkpt><trkpt lat="45.750686317001346" lon="9.781898942741456"><ele>314.0</ele><time>2026-04-05T16:08:30.001Z</time></trkpt><trkpt lat="45.75062742781259" lon="9.78175787442924"><ele>313.4</ele><time>2026-04-05T16:08:31.001Z</time></trkpt><trkpt lat="45.75057602584051" lon="9.781626519680922"><ele>312.79999999999995</ele><time>2026-04-05T16:08:32.001Z</time></trkpt><trkpt lat="45.75052465042017" lon="9.78150225489706"><ele>312.20000000000005</ele><time>2026-04-05T16:08:33.001Z</time></trkpt><trkpt lat="45.75046190988694" lon="9.781366075989245"><ele>311.6</ele><time>2026-04-05T16:08:34.001Z</time></trkpt><trkpt lat="45.75039590725589" lon="9.781211556190879"><ele>311.0</ele><time>2026-04-05T16:08:35.001Z</time></trkpt><trkpt lat="45.750327132378544" lon="9.78103534806486"><ele>310.75</ele><time>2026-04-05T16:08:36.001Z</time></trkpt><trkpt lat="45.75026518173757" lon="9.78087604164558"><ele>310.5</ele><time>2026-04-05T16:08:37.001Z</time></trkpt><trkpt lat="45.75020841985017" lon="9.780741221082064"><ele>310.25</ele><time>2026-04-05T16:08:38.001Z</time></trkpt><trkpt lat="45.75015504289539" lon="9.780612405192793"><ele>310.0</ele><time>2026-04-05T16:08:39.001Z</time></trkpt><trkpt lat="45.75009060309182" lon="9.780448216909411"><ele>310.66666666666663</ele><time>2026-04-05T16:08:40.001Z</time></trkpt><trkpt lat="45.750013293051374" lon="9.780259182620009"><ele>311.3333333333333</ele><time>2026-04-05T16:08:41.001Z</time></trkpt><trkpt lat="45.749929004875135" lon="9.780068203223028"><ele>312.0</ele><time>2026-04-05T16:08:42.001Z</time></trkpt><trkpt lat="45.74983893035127" lon="9.779867020013137"><ele>312.0</ele><time>2026-04-05T16:08:43.001Z</time></trkpt><trkpt lat="45.749759304107634" lon="9.77962927457465"><ele>312.0</ele><time>2026-04-05T16:08:44.001Z</time></trkpt><trkpt lat="45.74965832443289" lon="9.779384277872325"><ele>312.0</ele><time>2026-04-05T16:08:45.001Z</time></trkpt><trkpt lat="45.74954820397524" lon="9.779156949900178"><ele>312.0</ele><time>2026-04-05T16:08:46.001Z</time></trkpt><trkpt lat="45.74945915816557" lon="9.77894566200945"><ele>312.0</ele><time>2026-04-05T16:08:47.001Z</time></trkpt><trkpt lat="45.74937799475648" lon="9.778743703167759"><ele>312.0</ele><time>2026-04-05T16:08:48.001Z</time></trkpt><trkpt lat="45.74930226273265" lon="9.778556407699915"><ele>311.5</ele><time>2026-04-05T16:08:49.001Z</time></trkpt><trkpt lat="45.749227734624654" lon="9.778374649825773"><ele>311.0</ele><time>2026-04-05T16:08:50.001Z</time></trkpt><trkpt lat="45.749153236579424" lon="9.778190585235478"><ele>310.5</ele><time>2026-04-05T16:08:51.001Z</time></trkpt><trkpt lat="45.749085595523475" lon="9.778022683169224"><ele>310.0</ele><time>2026-04-05T16:08:52.001Z</time></trkpt><trkpt lat="45.74901417783394" lon="9.777849880878144"><ele>309.75</ele><time>2026-04-05T16:08:53.001Z</time></trkpt><trkpt lat="45.748943910969686" lon="9.77767668149589"><ele>309.5</ele><time>2026-04-05T16:08:54.001Z</time></trkpt><trkpt lat="45.748877846316134" lon="9.77751785389154"><ele>309.25</ele><time>2026-04-05T16:08:55.001Z</time></trkpt><trkpt lat="45.74881696244724" lon="9.77737114673326"><ele>309.0</ele><time>2026-04-05T16:08:56.001Z</time></trkpt><trkpt lat="45.748756645969266" lon="9.777228615376243"><ele>309.0</ele><time>2026-04-05T16:08:57.001Z</time></trkpt><trkpt lat="45.74869440823053" lon="9.777077860568392"><ele>309.0</ele><time>2026-04-05T16:08:58.001Z</time></trkpt><trkpt lat="45.74862386285972" lon="9.776913894872779"><ele>309.0</ele><time>2026-04-05T16:08:59.001Z</time></trkpt><trkpt lat="45.74856056578457" lon="9.776722029176547"><ele>309.0</ele><time>2026-04-05T16:09:00.001Z</time></trkpt><trkpt lat="45.74847846400325" lon="9.776525286058465"><ele>309.0</ele><time>2026-04-05T16:09:01.001Z</time></trkpt><trkpt lat="45.74838030892245" lon="9.77633193954113"><ele>309.0</ele><time>2026-04-05T16:09:02.001Z</time></trkpt><trkpt lat="45.74829375928286" lon="9.776121318054038"><ele>309.0</ele><time>2026-04-05T16:09:03.001Z</time></trkpt><trkpt lat="45.74822522891017" lon="9.775913761998309"><ele>309.6666666666667</ele><time>2026-04-05T16:09:04.001Z</time></trkpt><trkpt lat="45.74812492779546" lon="9.775718571611277"><ele>310.33333333333337</ele><time>2026-04-05T16:09:05.002Z</time></trkpt><trkpt lat="45.74805100150309" lon="9.775493392391041"><ele>311.0</ele><time>2026-04-05T16:09:06.002Z</time></trkpt><trkpt lat="45.74794905931944" lon="9.775288196884697"><ele>311.0</ele><time>2026-04-05T16:09:07.002Z</time></trkpt><trkpt lat="45.747865965762855" lon="9.77507757634754"><ele>311.0</ele><time>2026-04-05T16:09:08.002Z</time></trkpt><trkpt lat="45.74778885752951" lon="9.774886594998367"><ele>311.0</ele><time>2026-04-05T16:09:09.002Z</time></trkpt><trkpt lat="45.747711769984136" lon="9.77470502406506"><ele>310.75</ele><time>2026-04-05T16:09:10.002Z</time></trkpt><trkpt lat="45.747637951563384" lon="9.774522099268317"><ele>310.5</ele><time>2026-04-05T16:09:11.002Z</time></trkpt><trkpt lat="45.747563008451415" lon="9.774345364691559"><ele>310.25</ele><time>2026-04-05T16:09:12.002Z</time></trkpt><trkpt lat="45.74748244508243" lon="9.774174686375598"><ele>310.0</ele><time>2026-04-05T16:09:13.002Z</time></trkpt><trkpt lat="45.747394083395555" lon="9.774006324064738"><ele>310.0</ele><time>2026-04-05T16:09:14.002Z</time></trkpt><trkpt lat="45.747303110656645" lon="9.773836189322296"><ele>310.0</ele><time>2026-04-05T16:09:15.002Z</time></trkpt><trkpt lat="45.74721070720244" lon="9.773668730549245"><ele>310.0</ele><time>2026-04-05T16:09:16.002Z</time></trkpt><trkpt lat="45.74711595654559" lon="9.77350217601679"><ele>310.0</ele><time>2026-04-05T16:09:17.002Z</time></trkpt><trkpt lat="45.747014299317655" lon="9.773346190942142"><ele>309.75</ele><time>2026-04-05T16:09:18.002Z</time></trkpt><trkpt lat="45.746912950689364" lon="9.773192500707081"><ele>309.5</ele><time>2026-04-05T16:09:19.002Z</time></trkpt><trkpt lat="45.74681278742574" lon="9.773044784579556"><ele>309.25</ele><time>2026-04-05T16:09:20.002Z</time></trkpt><trkpt lat="45.74671053080616" lon="9.77290712533691"><ele>309.0</ele><time>2026-04-05T16:09:21.002Z</time></trkpt><trkpt lat="45.74660678415134" lon="9.772774831357186"><ele>308.25</ele><time>2026-04-05T16:09:22.002Z</time></trkpt><trkpt lat="45.746502781944606" lon="9.772642691072186"><ele>307.5</ele><time>2026-04-05T16:09:23.002Z</time></trkpt><trkpt lat="45.74639582272698" lon="9.77251613991926"><ele>306.75</ele><time>2026-04-05T16:09:24.002Z</time></trkpt><trkpt lat="45.746284934827" lon="9.772393514535349"><ele>306.0</ele><time>2026-04-05T16:09:25.002Z</time></trkpt><trkpt lat="45.746168799772995" lon="9.77227118200027"><ele>306.0</ele><time>2026-04-05T16:09:26.002Z</time></trkpt><trkpt lat="45.746043006937995" lon="9.77214775548148"><ele>306.0</ele><time>2026-04-05T16:09:27.002Z</time></trkpt><trkpt lat="45.74592205431585" lon="9.772032650690873"><ele>306.0</ele><time>2026-04-05T16:09:28.002Z</time></trkpt><trkpt lat="45.7458122496812" lon="9.771926471914611"><ele>306.0</ele><time>2026-04-05T16:09:29.002Z</time></trkpt><trkpt lat="45.74570146988582" lon="9.771821375131323"><ele>306.25</ele><time>2026-04-05T16:09:30.002Z</time></trkpt><trkpt lat="45.74559183779014" lon="9.771716118143637"><ele>306.5</ele><time>2026-04-05T16:09:31.002Z</time></trkpt><trkpt lat="45.745486350397165" lon="9.771615209514406"><ele>306.75</ele><time>2026-04-05T16:09:32.002Z</time></trkpt><trkpt lat="45.74537663754779" lon="9.771513186949132"><ele>307.0</ele><time>2026-04-05T16:09:33.002Z</time></trkpt><trkpt lat="45.74526425891465" lon="9.77141430840156"><ele>307.0</ele><time>2026-04-05T16:09:34.002Z</time></trkpt><trkpt lat="45.74515111501283" lon="9.77130900410383"><ele>307.0</ele><time>2026-04-05T16:09:35.002Z</time></trkpt><trkpt lat="45.74503769107756" lon="9.77120176832683"><ele>307.0</ele><time>2026-04-05T16:09:36.002Z</time></trkpt><trkpt lat="45.7449201218498" lon="9.77109518925498"><ele>307.0</ele><time>2026-04-05T16:09:37.002Z</time></trkpt><trkpt lat="45.74479716989015" lon="9.770986299676014"><ele>307.0</ele><time>2026-04-05T16:09:38.002Z</time></trkpt><trkpt lat="45.74467101282699" lon="9.770872714294715"><ele>307.0</ele><time>2026-04-05T16:09:39.002Z</time></trkpt><trkpt lat="45.7445453020999" lon="9.770761065103212"><ele>307.0</ele><time>2026-04-05T16:09:40.002Z</time></trkpt><trkpt lat="45.74442128773568" lon="9.770643932226983"><ele>307.0</ele><time>2026-04-05T16:09:41.002Z</time></trkpt><trkpt lat="45.744303690622296" lon="9.770538238575451"><ele>305.5</ele><time>2026-04-05T16:09:42.001Z</time></trkpt><trkpt lat="45.74419017078534" lon="9.770431393747511"><ele>304.0</ele><time>2026-04-05T16:09:43.001Z</time></trkpt><trkpt lat="45.74407475286434" lon="9.770334695571615"><ele>302.5</ele><time>2026-04-05T16:09:44.001Z</time></trkpt><trkpt lat="45.743959261014545" lon="9.770220618566444"><ele>301.0</ele><time>2026-04-05T16:09:45.001Z</time></trkpt><trkpt lat="45.74383032206805" lon="9.770108144848798"><ele>301.0</ele><time>2026-04-05T16:09:46.001Z</time></trkpt><trkpt lat="45.74369700410833" lon="9.769988432158991"><ele>301.0</ele><time>2026-04-05T16:09:47.001Z</time></trkpt><trkpt lat="45.7435633125255" lon="9.769861258041326"><ele>301.0</ele><time>2026-04-05T16:09:48.001Z</time></trkpt><trkpt lat="45.74342244479046" lon="9.769737261266945"><ele>301.0</ele><time>2026-04-05T16:09:49.001Z</time></trkpt><trkpt lat="45.74328393941177" lon="9.769600727999272"><ele>301.0</ele><time>2026-04-05T16:09:50.001Z</time></trkpt><trkpt lat="45.7431469523419" lon="9.769484070623621"><ele>301.0</ele><time>2026-04-05T16:09:51.001Z</time></trkpt><trkpt lat="45.74301174624632" lon="9.769365928019795"><ele>301.0</ele><time>2026-04-05T16:09:52.001Z</time></trkpt><trkpt lat="45.74287141682056" lon="9.769238177024127"><ele>301.0</ele><time>2026-04-05T16:09:53.001Z</time></trkpt><trkpt lat="45.742733080018915" lon="9.769112744249083"><ele>301.0</ele><time>2026-04-05T16:09:54.001Z</time></trkpt><trkpt lat="45.74259924442738" lon="9.768989629673786"><ele>301.0</ele><time>2026-04-05T16:09:55.001Z</time></trkpt><trkpt lat="45.7424603076015" lon="9.768864843852382"><ele>301.0</ele><time>2026-04-05T16:09:56.001Z</time></trkpt><trkpt lat="45.74232346234844" lon="9.768738027843261"><ele>301.0</ele><time>2026-04-05T16:09:57.001Z</time></trkpt><trkpt lat="45.742183707459404" lon="9.76860099999415"><ele>301.0</ele><time>2026-04-05T16:09:58.001Z</time></trkpt><trkpt lat="45.74204172943651" lon="9.768475905363328"><ele>301.0</ele><time>2026-04-05T16:09:59.001Z</time></trkpt><trkpt lat="45.74190244205514" lon="9.76834658128202"><ele>301.0</ele><time>2026-04-05T16:10:00.001Z</time></trkpt><trkpt lat="45.74176328378309" lon="9.768211773994388"><ele>300.66666666666663</ele><time>2026-04-05T16:10:01.001Z</time></trkpt><trkpt lat="45.74161819645081" lon="9.76808130962875"><ele>300.3333333333333</ele><time>2026-04-05T16:10:02.001Z</time></trkpt><trkpt lat="45.74147201530248" lon="9.767951679960795"><ele>300.0</ele><time>2026-04-05T16:10:03.001Z</time></trkpt><trkpt lat="45.7413256855536" lon="9.767814477456948"><ele>300.0</ele><time>2026-04-05T16:10:04.001Z</time></trkpt><trkpt lat="45.74118211695756" lon="9.7676651136553"><ele>300.0</ele><time>2026-04-05T16:10:05.001Z</time></trkpt><trkpt lat="45.74104547495119" lon="9.767522693219275"><ele>300.0</ele><time>2026-04-05T16:10:06.001Z</time></trkpt><trkpt lat="45.74091440636993" lon="9.767372858346597"><ele>300.0</ele><time>2026-04-05T16:10:07.001Z</time></trkpt><trkpt lat="45.740787044693334" lon="9.76721536359715"><ele>300.0</ele><time>2026-04-05T16:10:08.001Z</time></trkpt><trkpt lat="45.740663788921296" lon="9.767046539005461"><ele>300.0</ele><time>2026-04-05T16:10:09.001Z</time></trkpt><trkpt lat="45.74053819738553" lon="9.766870574672845"><ele>300.0</ele><time>2026-04-05T16:10:10.001Z</time></trkpt><trkpt lat="45.74040816738409" lon="9.766666493079036"><ele>300.0</ele><time>2026-04-05T16:10:11.001Z</time></trkpt><trkpt lat="45.740281505856586" lon="9.76643947616755"><ele>300.0</ele><time>2026-04-05T16:10:12.001Z</time></trkpt><trkpt lat="45.740158799203435" lon="9.766196258932057"><ele>299.3333333333333</ele><time>2026-04-05T16:10:13.001Z</time></trkpt><trkpt lat="45.74004463754628" lon="9.76592167489072"><ele>298.66666666666663</ele><time>2026-04-05T16:10:14.001Z</time></trkpt><trkpt lat="45.73993525013022" lon="9.765646700932168"><ele>298.0</ele><time>2026-04-05T16:10:15.001Z</time></trkpt><trkpt lat="45.73983612123937" lon="9.765369662599001"><ele>298.3333333333333</ele><time>2026-04-05T16:10:16.001Z</time></trkpt><trkpt lat="45.73974693394115" lon="9.765097663161528"><ele>298.6666666666667</ele><time>2026-04-05T16:10:17.001Z</time></trkpt><trkpt lat="45.739671403390865" lon="9.764843016963937"><ele>299.0</ele><time>2026-04-05T16:10:18.001Z</time></trkpt><trkpt lat="45.73960211625996" lon="9.76459750043428"><ele>299.33333333333337</ele><time>2026-04-05T16:10:19.001Z</time></trkpt><trkpt lat="45.739536105208124" lon="9.76435352864843"><ele>299.6666666666667</ele><time>2026-04-05T16:10:20.001Z</time></trkpt><trkpt lat="45.73947239534705" lon="9.764118817882323"><ele>300.0</ele><time>2026-04-05T16:10:21.001Z</time></trkpt><trkpt lat="45.739414482753" lon="9.763889669913683"><ele>299.0</ele><time>2026-04-05T16:10:22.001Z</time></trkpt><trkpt lat="45.73935824881959" lon="9.76367014953328"><ele>298.0</ele><time>2026-04-05T16:10:23.001Z</time></trkpt><trkpt lat="45.739299268300094" lon="9.763445555555741"><ele>297.0</ele><time>2026-04-05T16:10:24.001Z</time></trkpt><trkpt lat="45.739237983055816" lon="9.763209970285608"><ele>297.0</ele><time>2026-04-05T16:10:25.001Z</time></trkpt><trkpt lat="45.739170457861356" lon="9.762966099005435"><ele>297.0</ele><time>2026-04-05T16:10:26.001Z</time></trkpt><trkpt lat="45.739099056170396" lon="9.762699443834046"><ele>297.0</ele><time>2026-04-05T16:10:27.001Z</time></trkpt><trkpt lat="45.73902514970904" lon="9.76241671038542"><ele>296.6666666666667</ele><time>2026-04-05T16:10:28.001Z</time></trkpt><trkpt lat="45.73895555935375" lon="9.762127897470185"><ele>296.33333333333337</ele><time>2026-04-05T16:10:29.001Z</time></trkpt><trkpt lat="45.738888668533924" lon="9.761856281479083"><ele>296.0</ele><time>2026-04-05T16:10:30.001Z</time></trkpt><trkpt lat="45.738820409515" lon="9.761598843513152"><ele>296.0</ele><time>2026-04-05T16:10:31.001Z</time></trkpt><trkpt lat="45.73875243267718" lon="9.761336560366546"><ele>296.0</ele><time>2026-04-05T16:10:32.001Z</time></trkpt><trkpt lat="45.738684228770275" lon="9.761072670490643"><ele>296.0</ele><time>2026-04-05T16:10:33.001Z</time></trkpt><trkpt lat="45.738615158018256" lon="9.760798592895803"><ele>295.0</ele><time>2026-04-05T16:10:34.001Z</time></trkpt><trkpt lat="45.73854318470339" lon="9.760518271965886"><ele>294.0</ele><time>2026-04-05T16:10:35.001Z</time></trkpt><trkpt lat="45.73847190792715" lon="9.760236745039503"><ele>293.0</ele><time>2026-04-05T16:10:36.001Z</time></trkpt><trkpt lat="45.73840266061547" lon="9.759968526878927"><ele>293.0</ele><time>2026-04-05T16:10:37.001Z</time></trkpt><trkpt lat="45.738335662877624" lon="9.759702795526943"><ele>293.0</ele><time>2026-04-05T16:10:38.001Z</time></trkpt><trkpt lat="45.7382669352027" lon="9.759440524738366"><ele>293.0</ele><time>2026-04-05T16:10:39.001Z</time></trkpt><trkpt lat="45.738202300362765" lon="9.759180882954706"><ele>293.33333333333337</ele><time>2026-04-05T16:10:40.001Z</time></trkpt><trkpt lat="45.738138793866774" lon="9.758923529504015"><ele>293.6666666666667</ele><time>2026-04-05T16:10:41.001Z</time></trkpt><trkpt lat="45.73807292511444" lon="9.758677241977463"><ele>294.0</ele><time>2026-04-05T16:10:42.001Z</time></trkpt><trkpt lat="45.738012330446175" lon="9.758449050811583"><ele>294.3333333333333</ele><time>2026-04-05T16:10:43.001Z</time></trkpt><trkpt lat="45.737962182894016" lon="9.758231054155173"><ele>294.66666666666663</ele><time>2026-04-05T16:10:44.001Z</time></trkpt><trkpt lat="45.7379071410883" lon="9.75801882384717"><ele>295.0</ele><time>2026-04-05T16:10:45.001Z</time></trkpt><trkpt lat="45.73784723601651" lon="9.757796551414971"><ele>295.0</ele><time>2026-04-05T16:10:46.001Z</time></trkpt><trkpt lat="45.737791437078364" lon="9.757599224176357"><ele>295.0</ele><time>2026-04-05T16:10:47.001Z</time></trkpt><trkpt lat="45.73772733680818" lon="9.75741536117726"><ele>295.0</ele><time>2026-04-05T16:10:48.001Z</time></trkpt><trkpt lat="45.73765653839934" lon="9.757238191325385"><ele>295.0</ele><time>2026-04-05T16:10:49.001Z</time></trkpt><trkpt lat="45.73758255632817" lon="9.75706486575149"><ele>294.25</ele><time>2026-04-05T16:10:50.001Z</time></trkpt><trkpt lat="45.73750613320703" lon="9.7569047076264"><ele>293.5</ele><time>2026-04-05T16:10:51.001Z</time></trkpt><trkpt lat="45.73742426302457" lon="9.75674126786809"><ele>292.75</ele><time>2026-04-05T16:10:52.001Z</time></trkpt><trkpt lat="45.73732176479679" lon="9.756580572474201"><ele>292.0</ele><time>2026-04-05T16:10:53.001Z</time></trkpt><trkpt lat="45.73721739446876" lon="9.756425672580809"><ele>292.0</ele><time>2026-04-05T16:10:54.001Z</time></trkpt><trkpt lat="45.737107487048156" lon="9.756271837672848"><ele>292.0</ele><time>2026-04-05T16:10:55.001Z</time></trkpt><trkpt lat="45.736991091581736" lon="9.75612898846811"><ele>292.0</ele><time>2026-04-05T16:10:56.001Z</time></trkpt><trkpt lat="45.736870606226226" lon="9.755996929163276"><ele>291.0</ele><time>2026-04-05T16:10:57.001Z</time></trkpt><trkpt lat="45.7367482893987" lon="9.755881707623162"><ele>290.0</ele><time>2026-04-05T16:10:58.001Z</time></trkpt><trkpt lat="45.73662681411953" lon="9.755778671895033"><ele>289.0</ele><time>2026-04-05T16:10:59.001Z</time></trkpt><trkpt lat="45.73650017117167" lon="9.755683184665196"><ele>288.0</ele><time>2026-04-05T16:11:00.001Z</time></trkpt><trkpt lat="45.736367612278684" lon="9.755589429198409"><ele>288.0</ele><time>2026-04-05T16:11:01.001Z</time></trkpt><trkpt lat="45.736222784447584" lon="9.755518168585422"><ele>288.0</ele><time>2026-04-05T16:11:02.001Z</time></trkpt><trkpt lat="45.73607364790014" lon="9.75544842833111"><ele>288.0</ele><time>2026-04-05T16:11:03.001Z</time></trkpt><trkpt lat="45.735921577466" lon="9.75538947408166"><ele>289.0</ele><time>2026-04-05T16:11:04.001Z</time></trkpt><trkpt lat="45.7357717528575" lon="9.755348477586839"><ele>290.0</ele><time>2026-04-05T16:11:05.001Z</time></trkpt><trkpt lat="45.73562055877536" lon="9.75531620117842"><ele>291.0</ele><time>2026-04-05T16:11:06.001Z</time></trkpt><trkpt lat="45.73546667983853" lon="9.755291543242569"><ele>291.0</ele><time>2026-04-05T16:11:07.001Z</time></trkpt><trkpt lat="45.73531329756917" lon="9.75528109726025"><ele>291.0</ele><time>2026-04-05T16:11:08.001Z</time></trkpt><trkpt lat="45.73515717243097" lon="9.755283137061854"><ele>291.0</ele><time>2026-04-05T16:11:09.001Z</time></trkpt><trkpt lat="45.73500568325623" lon="9.75529359150639"><ele>292.0</ele><time>2026-04-05T16:11:10.001Z</time></trkpt><trkpt lat="45.734860624693376" lon="9.755312709530095"><ele>293.0</ele><time>2026-04-05T16:11:11.001Z</time></trkpt><trkpt lat="45.734717381042344" lon="9.755335007363216"><ele>294.0</ele><time>2026-04-05T16:11:12.001Z</time></trkpt><trkpt lat="45.73457638635521" lon="9.75536443827586"><ele>295.0</ele><time>2026-04-05T16:11:13.001Z</time></trkpt><trkpt lat="45.73443185908116" lon="9.75539067829067"><ele>299.66666666666663</ele><time>2026-04-05T16:11:14.001Z</time></trkpt><trkpt lat="45.73428204372737" lon="9.75541759114038"><ele>304.3333333333333</ele><time>2026-04-05T16:11:15.001Z</time></trkpt><trkpt lat="45.73413562404327" lon="9.755451791909016"><ele>309.0</ele><time>2026-04-05T16:11:16.002Z</time></trkpt><trkpt lat="45.733983192846146" lon="9.755480921558732"><ele>309.0</ele><time>2026-04-05T16:11:17.002Z</time></trkpt><trkpt lat="45.733825640415056" lon="9.755507200983676"><ele>309.0</ele><time>2026-04-05T16:11:18.002Z</time></trkpt><trkpt lat="45.733646034845805" lon="9.755530932757381"><ele>309.0</ele><time>2026-04-05T16:11:19.025Z</time></trkpt><trkpt lat="45.73345563508126" lon="9.755541397665771"><ele>319.3333333333333</ele><time>2026-04-05T16:11:20.024Z</time></trkpt><trkpt lat="45.733255699044854" lon="9.755539720823448"><ele>329.66666666666663</ele><time>2026-04-05T16:11:21.026Z</time></trkpt><trkpt lat="45.733058259277065" lon="9.755529862095225"><ele>340.0</ele><time>2026-04-05T16:11:22.022Z</time></trkpt><trkpt lat="45.70651359394724" lon="9.764615111062083"><ele>316.0</ele><time>2026-04-05T16:13:54.004Z</time></trkpt><trkpt lat="45.70636657641249" lon="9.764453415452643"><ele>292.0</ele><time>2026-04-05T16:13:55.004Z</time></trkpt><trkpt lat="45.70630908118297" lon="9.764195945408392"><ele>268.0</ele><time>2026-04-05T16:13:56.004Z</time></trkpt><trkpt lat="45.70608776740163" lon="9.764097530361493"><ele>267.0</ele><time>2026-04-05T16:13:57.004Z</time></trkpt><trkpt lat="45.7059477646403" lon="9.763915117598904"><ele>266.0</ele><time>2026-04-05T16:13:58.004Z</time></trkpt><trkpt lat="45.70580472321867" lon="9.763742527084197"><ele>265.0</ele><time>2026-04-05T16:13:59.004Z</time></trkpt><trkpt lat="45.70566748288086" lon="9.763578488717052"><ele>264.3333333333333</ele><time>2026-04-05T16:14:00.001Z</time></trkpt><trkpt lat="45.705526554948406" lon="9.7634107417235"><ele>263.6666666666667</ele><time>2026-04-05T16:14:01.001Z</time></trkpt><trkpt lat="45.70538710082861" lon="9.763236095433603"><ele>263.0</ele><time>2026-04-05T16:14:02.001Z</time></trkpt><trkpt lat="45.7052400866256" lon="9.763051713816926"><ele>263.0</ele><time>2026-04-05T16:14:03.001Z</time></trkpt><trkpt lat="45.70508189324056" lon="9.762862509390398"><ele>263.0</ele><time>2026-04-05T16:14:04.001Z</time></trkpt><trkpt lat="45.70494069296095" lon="9.762685690859964"><ele>263.0</ele><time>2026-04-05T16:14:05.001Z</time></trkpt><trkpt lat="45.704790454349215" lon="9.76250468676029"><ele>263.0</ele><time>2026-04-05T16:14:06.001Z</time></trkpt><trkpt lat="45.70463755526639" lon="9.762311594793772"><ele>263.0</ele><time>2026-04-05T16:14:07.001Z</time></trkpt><trkpt lat="45.70447844017423" lon="9.762111881290727"><ele>263.0</ele><time>2026-04-05T16:14:08.001Z</time></trkpt><trkpt lat="45.704319048769605" lon="9.761915395775585"><ele>264.0</ele><time>2026-04-05T16:14:09.001Z</time></trkpt><trkpt lat="45.70416817474419" lon="9.761727558146159"><ele>265.0</ele><time>2026-04-05T16:14:10.001Z</time></trkpt><trkpt lat="45.704020218004096" lon="9.761548142785472"><ele>266.0</ele><time>2026-04-05T16:14:11.001Z</time></trkpt><trkpt lat="45.70386915350024" lon="9.761353141202365"><ele>266.0</ele><time>2026-04-05T16:14:12.001Z</time></trkpt><trkpt lat="45.703713337185974" lon="9.76116165853574"><ele>266.0</ele><time>2026-04-05T16:14:13.001Z</time></trkpt><trkpt lat="45.70355484706225" lon="9.760972829158808"><ele>266.0</ele><time>2026-04-05T16:14:14.001Z</time></trkpt><trkpt lat="45.703401256812214" lon="9.760776573318532"><ele>264.33333333333337</ele><time>2026-04-05T16:14:15.001Z</time></trkpt><trkpt lat="45.70324285302071" lon="9.760589588270113"><ele>262.6666666666667</ele><time>2026-04-05T16:14:16.001Z</time></trkpt><trkpt lat="45.70308948223697" lon="9.760384416632428"><ele>261.0</ele><time>2026-04-05T16:14:17.001Z</time></trkpt><trkpt lat="45.702919136939926" lon="9.76020203421376"><ele>261.6666666666667</ele><time>2026-04-05T16:14:18.001Z</time></trkpt><trkpt lat="45.70276961933966" lon="9.759972462916329"><ele>262.33333333333337</ele><time>2026-04-05T16:14:19.001Z</time></trkpt><trkpt lat="45.702600587595214" lon="9.759763534091388"><ele>263.0</ele><time>2026-04-05T16:14:20.001Z</time></trkpt><trkpt lat="45.70244171916847" lon="9.759552217121756"><ele>262.33333333333337</ele><time>2026-04-05T16:14:21.001Z</time></trkpt><trkpt lat="45.702294930995244" lon="9.759324304871958"><ele>261.6666666666667</ele><time>2026-04-05T16:14:22.001Z</time></trkpt><trkpt lat="45.702127279052505" lon="9.759120982674604"><ele>261.0</ele><time>2026-04-05T16:14:23.001Z</time></trkpt><trkpt lat="45.70197164799846" lon="9.758899116044727"><ele>261.3333333333333</ele><time>2026-04-05T16:14:24.001Z</time></trkpt><trkpt lat="45.70181562943442" lon="9.758672860069487"><ele>261.66666666666663</ele><time>2026-04-05T16:14:25.001Z</time></trkpt><trkpt lat="45.70165673015354" lon="9.758449512316963"><ele>262.0</ele><time>2026-04-05T16:14:26.001Z</time></trkpt><trkpt lat="45.701512153734996" lon="9.75821050280819"><ele>261.3333333333333</ele><time>2026-04-05T16:14:27.001Z</time></trkpt><trkpt lat="45.701366866773604" lon="9.758003243253293"><ele>260.6666666666667</ele><time>2026-04-05T16:14:28.001Z</time></trkpt><trkpt lat="45.70122910305557" lon="9.757809511251386"><ele>260.0</ele><time>2026-04-05T16:14:29.001Z</time></trkpt><trkpt lat="45.70110115087673" lon="9.757628302318437"><ele>260.33333333333337</ele><time>2026-04-05T16:14:30.001Z</time></trkpt><trkpt lat="45.70098970307266" lon="9.757472127263663"><ele>260.6666666666667</ele><time>2026-04-05T16:14:31.001Z</time></trkpt><trkpt lat="45.7008694540996" lon="9.75731042660853"><ele>261.0</ele><time>2026-04-05T16:14:32.001Z</time></trkpt><trkpt lat="45.700734770421604" lon="9.757166673092216"><ele>261.0</ele><time>2026-04-05T16:14:33.001Z</time></trkpt><trkpt lat="45.70060574762157" lon="9.757021862389141"><ele>261.0</ele><time>2026-04-05T16:14:34.001Z</time></trkpt><trkpt lat="45.700476595201074" lon="9.756889943043976"><ele>261.0</ele><time>2026-04-05T16:14:35.001Z</time></trkpt><trkpt lat="45.700351656761725" lon="9.756744984737761"><ele>260.0</ele><time>2026-04-05T16:14:36.001Z</time></trkpt><trkpt lat="45.70021267889589" lon="9.756626132895132"><ele>259.0</ele><time>2026-04-05T16:14:37.001Z</time></trkpt><trkpt lat="45.70006276702215" lon="9.75650918734355"><ele>258.0</ele><time>2026-04-05T16:14:38.001Z</time></trkpt><trkpt lat="45.69990558673848" lon="9.756419590553124"><ele>258.0</ele><time>2026-04-05T16:14:39.001Z</time></trkpt><trkpt lat="45.69974507057242" lon="9.756324480426692"><ele>258.0</ele><time>2026-04-05T16:14:40.001Z</time></trkpt><trkpt lat="45.69957841587118" lon="9.756236568903887"><ele>258.0</ele><time>2026-04-05T16:14:41.001Z</time></trkpt><trkpt lat="45.69940235890831" lon="9.756160235353837"><ele>258.3333333333333</ele><time>2026-04-05T16:14:42.001Z</time></trkpt><trkpt lat="45.69922356879482" lon="9.756091860301481"><ele>258.66666666666663</ele><time>2026-04-05T16:14:43.001Z</time></trkpt><trkpt lat="45.69903202504618" lon="9.75603710878177"><ele>259.0</ele><time>2026-04-05T16:14:44.001Z</time></trkpt><trkpt lat="45.69884003283659" lon="9.755994160253262"><ele>258.0</ele><time>2026-04-05T16:14:45.001Z</time></trkpt><trkpt lat="45.698658989064995" lon="9.755968706392991"><ele>257.0</ele><time>2026-04-05T16:14:46.001Z</time></trkpt><trkpt lat="45.69848427748462" lon="9.755962638543728"><ele>256.0</ele><time>2026-04-05T16:14:47.001Z</time></trkpt><trkpt lat="45.69830801546108" lon="9.755921187559425"><ele>256.0</ele><time>2026-04-05T16:14:48.001Z</time></trkpt><trkpt lat="45.698121046855306" lon="9.755984417523038"><ele>256.0</ele><time>2026-04-05T16:14:49.001Z</time></trkpt><trkpt lat="45.69794491854104" lon="9.756009338776671"><ele>256.0</ele><time>2026-04-05T16:14:50.001Z</time></trkpt><trkpt lat="45.697769167183495" lon="9.756037478004307"><ele>256.0</ele><time>2026-04-05T16:14:51.001Z</time></trkpt><trkpt lat="45.697593210779516" lon="9.756077603579723"><ele>256.0</ele><time>2026-04-05T16:14:52.001Z</time></trkpt><trkpt lat="45.69741760469156" lon="9.756114874955067"><ele>256.0</ele><time>2026-04-05T16:14:53.001Z</time></trkpt><trkpt lat="45.69724400859548" lon="9.756147614281192"><ele>256.0</ele><time>2026-04-05T16:14:54.001Z</time></trkpt><trkpt lat="45.697085230698086" lon="9.75617645256304"><ele>256.0</ele><time>2026-04-05T16:14:55.001Z</time></trkpt><trkpt lat="45.69692609525226" lon="9.756205336416924"><ele>256.0</ele><time>2026-04-05T16:14:56.001Z</time></trkpt><trkpt lat="45.696768561500896" lon="9.756236404665648"><ele>255.66666666666666</ele><time>2026-04-05T16:14:57.001Z</time></trkpt><trkpt lat="45.69660374564348" lon="9.756267384412123"><ele>255.33333333333331</ele><time>2026-04-05T16:14:58.001Z</time></trkpt><trkpt lat="45.69643614702185" lon="9.756298873583757"><ele>255.0</ele><time>2026-04-05T16:14:59.001Z</time></trkpt><trkpt lat="45.696258784072825" lon="9.7563427734186"><ele>254.33333333333331</ele><time>2026-04-05T16:15:00.001Z</time></trkpt><trkpt lat="45.6960538882591" lon="9.756397358301337"><ele>253.66666666666666</ele><time>2026-04-05T16:15:01.001Z</time></trkpt><trkpt lat="45.695819078088775" lon="9.756439637125997"><ele>253.0</ele><time>2026-04-05T16:15:02.001Z</time></trkpt><trkpt lat="45.695566571936496" lon="9.756481472023724"><ele>253.0</ele><time>2026-04-05T16:15:03.001Z</time></trkpt><trkpt lat="45.695306428894476" lon="9.756523044839328"><ele>253.0</ele><time>2026-04-05T16:15:04.001Z</time></trkpt><trkpt lat="45.69505310467818" lon="9.75656523427479"><ele>253.5</ele><time>2026-04-05T16:15:05.001Z</time></trkpt><trkpt lat="45.69481154081032" lon="9.756604826689603"><ele>254.0</ele><time>2026-04-05T16:15:06.001Z</time></trkpt><trkpt lat="45.69457642005994" lon="9.756634120994226"><ele>253.0</ele><time>2026-04-05T16:15:07.001Z</time></trkpt><trkpt lat="45.69435718861368" lon="9.756655691987932"><ele>252.0</ele><time>2026-04-05T16:15:08.001Z</time></trkpt><trkpt lat="45.69414858324818" lon="9.756674330532942"><ele>251.0</ele><time>2026-04-05T16:15:09.001Z</time></trkpt><trkpt lat="45.69394201177951" lon="9.756682646041"><ele>251.0</ele><time>2026-04-05T16:15:10.001Z</time></trkpt><trkpt lat="45.69373281786324" lon="9.756678868688304"><ele>251.0</ele><time>2026-04-05T16:15:11.001Z</time></trkpt><trkpt lat="45.69352446623367" lon="9.756673417241894"><ele>251.0</ele><time>2026-04-05T16:15:12.001Z</time></trkpt><trkpt lat="45.693326038330426" lon="9.756665281495414"><ele>251.33333333333334</ele><time>2026-04-05T16:15:13.001Z</time></trkpt><trkpt lat="45.69312822745061" lon="9.756651711897447"><ele>251.66666666666669</ele><time>2026-04-05T16:15:14.001Z</time></trkpt><trkpt lat="45.69293365961422" lon="9.756629864171622"><ele>252.0</ele><time>2026-04-05T16:15:15.001Z</time></trkpt><trkpt lat="45.692731934835614" lon="9.756616177277653"><ele>252.33333333333331</ele><time>2026-04-05T16:15:16.001Z</time></trkpt><trkpt lat="45.69252656207858" lon="9.756597608042332"><ele>252.66666666666666</ele><time>2026-04-05T16:15:17.001Z</time></trkpt><trkpt lat="45.692317921976596" lon="9.756574742241162"><ele>253.0</ele><time>2026-04-05T16:15:18.001Z</time></trkpt><trkpt lat="45.69212391927877" lon="9.756547105517681"><ele>253.0</ele><time>2026-04-05T16:15:19.001Z</time></trkpt><trkpt lat="45.69194785164002" lon="9.75651970126467"><ele>253.0</ele><time>2026-04-05T16:15:20.001Z</time></trkpt><trkpt lat="45.69177195613621" lon="9.756477111213417"><ele>253.0</ele><time>2026-04-05T16:15:21.001Z</time></trkpt><trkpt lat="45.691591928347925" lon="9.756432937867144"><ele>253.0</ele><time>2026-04-05T16:15:22.001Z</time></trkpt><trkpt lat="45.69141017692979" lon="9.756385446781385"><ele>253.0</ele><time>2026-04-05T16:15:23.001Z</time></trkpt><trkpt lat="45.69123188589997" lon="9.756343234413809"><ele>253.0</ele><time>2026-04-05T16:15:24.001Z</time></trkpt><trkpt lat="45.69107313533941" lon="9.75629815093894"><ele>252.75</ele><time>2026-04-05T16:15:25.001Z</time></trkpt><trkpt lat="45.69091982456192" lon="9.756261663456517"><ele>252.5</ele><time>2026-04-05T16:15:26.001Z</time></trkpt><trkpt lat="45.690778447609844" lon="9.756221339135315"><ele>252.25</ele><time>2026-04-05T16:15:27.001Z</time></trkpt><trkpt lat="45.690640728734515" lon="9.756188618356038"><ele>252.0</ele><time>2026-04-05T16:15:28.001Z</time></trkpt><trkpt lat="45.69050765745605" lon="9.756160251270968"><ele>252.0</ele><time>2026-04-05T16:15:29.001Z</time></trkpt><trkpt lat="45.69037435518145" lon="9.756129076777095"><ele>252.0</ele><time>2026-04-05T16:15:30.001Z</time></trkpt><trkpt lat="45.69023335896605" lon="9.756092934081387"><ele>252.0</ele><time>2026-04-05T16:15:31.001Z</time></trkpt><trkpt lat="45.690073788996884" lon="9.756057931855608"><ele>252.0</ele><time>2026-04-05T16:15:32.001Z</time></trkpt><trkpt lat="45.689909651036864" lon="9.756026449745242"><ele>252.33333333333331</ele><time>2026-04-05T16:15:33.001Z</time></trkpt><trkpt lat="45.68975950284319" lon="9.756004394801469"><ele>252.66666666666666</ele><time>2026-04-05T16:15:34.001Z</time></trkpt><trkpt lat="45.68960961996649" lon="9.755977412563379"><ele>253.0</ele><time>2026-04-05T16:15:35.001Z</time></trkpt><trkpt lat="45.68945680236197" lon="9.755953161133109"><ele>252.75</ele><time>2026-04-05T16:15:36.001Z</time></trkpt><trkpt lat="45.689303381470275" lon="9.755950951703554"><ele>252.5</ele><time>2026-04-05T16:15:37.001Z</time></trkpt><trkpt lat="45.68916095406925" lon="9.75593027671545"><ele>252.25</ele><time>2026-04-05T16:15:38.001Z</time></trkpt><trkpt lat="45.68902164709968" lon="9.755916186083722"><ele>252.0</ele><time>2026-04-05T16:15:39.001Z</time></trkpt><trkpt lat="45.688880797908695" lon="9.755909954458065"><ele>252.0</ele><time>2026-04-05T16:15:40.001Z</time></trkpt><trkpt lat="45.68873318293127" lon="9.755896381998369"><ele>252.0</ele><time>2026-04-05T16:15:41.001Z</time></trkpt><trkpt lat="45.68857744524252" lon="9.75588967202283"><ele>252.0</ele><time>2026-04-05T16:15:42.001Z</time></trkpt><trkpt lat="45.688422012664915" lon="9.755887687686762"><ele>251.75</ele><time>2026-04-05T16:15:43.001Z</time></trkpt><trkpt lat="45.68827467075149" lon="9.755888994668393"><ele>251.5</ele><time>2026-04-05T16:15:44.001Z</time></trkpt><trkpt lat="45.68813045271188" lon="9.755889064683343"><ele>251.25</ele><time>2026-04-05T16:15:45.001Z</time></trkpt><trkpt lat="45.687989586750895" lon="9.755893792609697"><ele>251.0</ele><time>2026-04-05T16:15:46.001Z</time></trkpt><trkpt lat="45.68784020912719" lon="9.755906192758745"><ele>250.33333333333334</ele><time>2026-04-05T16:15:47.001Z</time></trkpt><trkpt lat="45.68768148673835" lon="9.755917295316738"><ele>249.66666666666669</ele><time>2026-04-05T16:15:48.001Z</time></trkpt><trkpt lat="45.687520355652914" lon="9.755934997312483"><ele>249.0</ele><time>2026-04-05T16:15:49.001Z</time></trkpt><trkpt lat="45.68736259165616" lon="9.755948134375116"><ele>249.0</ele><time>2026-04-05T16:15:50.001Z</time></trkpt><trkpt lat="45.687202708581445" lon="9.755967581193213"><ele>249.0</ele><time>2026-04-05T16:15:51.001Z</time></trkpt><trkpt lat="45.68704010316951" lon="9.755994229003113"><ele>249.0</ele><time>2026-04-05T16:15:52.001Z</time></trkpt><trkpt lat="45.68687843217602" lon="9.756020732043698"><ele>248.66666666666669</ele><time>2026-04-05T16:15:53.001Z</time></trkpt><trkpt lat="45.686714103518014" lon="9.756053265321626"><ele>248.33333333333334</ele><time>2026-04-05T16:15:54.001Z</time></trkpt><trkpt lat="45.68654865612881" lon="9.756092462272312"><ele>248.0</ele><time>2026-04-05T16:15:55.001Z</time></trkpt><trkpt lat="45.68638034239976" lon="9.75612623707692"><ele>248.0</ele><time>2026-04-05T16:15:56.001Z</time></trkpt><trkpt lat="45.68622609367201" lon="9.756164509104588"><ele>248.0</ele><time>2026-04-05T16:15:57.001Z</time></trkpt><trkpt lat="45.68607870206268" lon="9.756203858680683"><ele>248.0</ele><time>2026-04-05T16:15:58.001Z</time></trkpt><trkpt lat="45.6859412508337" lon="9.756243961236443"><ele>248.0</ele><time>2026-04-05T16:15:59.001Z</time></trkpt><trkpt lat="45.68581180702349" lon="9.756283837657927"><ele>247.75</ele><time>2026-04-05T16:16:00.001Z</time></trkpt><trkpt lat="45.685678271401805" lon="9.756324015277487"><ele>247.5</ele><time>2026-04-05T16:16:01.001Z</time></trkpt><trkpt lat="45.68554460660209" lon="9.756366432192491"><ele>247.25</ele><time>2026-04-05T16:16:02.001Z</time></trkpt><trkpt lat="45.685409804577354" lon="9.756411806596605"><ele>247.0</ele><time>2026-04-05T16:16:03.001Z</time></trkpt><trkpt lat="45.68527147779276" lon="9.756464994972937"><ele>246.66666666666666</ele><time>2026-04-05T16:16:04.002Z</time></trkpt><trkpt lat="45.68512355164264" lon="9.756517737715498"><ele>246.33333333333331</ele><time>2026-04-05T16:16:05.002Z</time></trkpt><trkpt lat="45.6849772316034" lon="9.756574056479336"><ele>246.0</ele><time>2026-04-05T16:16:06Z</time></trkpt><trkpt lat="45.68483017454811" lon="9.756629900962064"><ele>246.0</ele><time>2026-04-05T16:16:07Z</time></trkpt><trkpt lat="45.68468436264307" lon="9.756683046896843"><ele>246.0</ele><time>2026-04-05T16:16:08Z</time></trkpt><trkpt lat="45.68454134205213" lon="9.756738534384183"><ele>246.0</ele><time>2026-04-05T16:16:09Z</time></trkpt><trkpt lat="45.684403509139244" lon="9.75679046605909"><ele>246.0</ele><time>2026-04-05T16:16:10Z</time></trkpt><trkpt lat="45.6842593865686" lon="9.75684089408706"><ele>245.33333333333331</ele><time>2026-04-05T16:16:11Z</time></trkpt><trkpt lat="45.68410366115076" lon="9.756903262838934"><ele>244.66666666666666</ele><time>2026-04-05T16:16:12Z</time></trkpt><trkpt lat="45.683938424675496" lon="9.756964181530597"><ele>244.0</ele><time>2026-04-05T16:16:13Z</time></trkpt><trkpt lat="45.68378593808487" lon="9.75701722430584"><ele>244.0</ele><time>2026-04-05T16:16:14Z</time></trkpt><trkpt lat="45.68363246711439" lon="9.757065833400839"><ele>244.0</ele><time>2026-04-05T16:16:15Z</time></trkpt><trkpt lat="45.68346818438922" lon="9.757120618138414"><ele>244.0</ele><time>2026-04-05T16:16:16Z</time></trkpt><trkpt lat="45.68328869706543" lon="9.757180172087496"><ele>244.33333333333331</ele><time>2026-04-05T16:16:17Z</time></trkpt><trkpt lat="45.68312647358871" lon="9.757242069559535"><ele>244.66666666666669</ele><time>2026-04-05T16:16:18Z</time></trkpt><trkpt lat="45.68297312719905" lon="9.757299391995137"><ele>245.0</ele><time>2026-04-05T16:16:19Z</time></trkpt><trkpt lat="45.682826252729896" lon="9.757340936651758"><ele>246.25</ele><time>2026-04-05T16:16:20Z</time></trkpt><trkpt lat="45.68268160903498" lon="9.757370815999044"><ele>247.5</ele><time>2026-04-05T16:16:21Z</time></trkpt><trkpt lat="45.68253884537333" lon="9.757368001023458"><ele>248.75</ele><time>2026-04-05T16:16:22Z</time></trkpt><trkpt lat="45.68239093241989" lon="9.757338040823283"><ele>250.0</ele><time>2026-04-05T16:16:23Z</time></trkpt><trkpt lat="45.682244204225924" lon="9.757288500682973"><ele>250.0</ele><time>2026-04-05T16:16:24Z</time></trkpt><trkpt lat="45.68209846142427" lon="9.757206764049117"><ele>250.0</ele><time>2026-04-05T16:16:25Z</time></trkpt><trkpt lat="45.68196297963052" lon="9.75710071366659"><ele>250.0</ele><time>2026-04-05T16:16:26Z</time></trkpt><trkpt lat="45.681842456355454" lon="9.756969228277718"><ele>248.33333333333331</ele><time>2026-04-05T16:16:27Z</time></trkpt><trkpt lat="45.68174421424912" lon="9.756810119651051"><ele>246.66666666666669</ele><time>2026-04-05T16:16:28Z</time></trkpt><trkpt lat="45.681662044869526" lon="9.756631427216226"><ele>245.0</ele><time>2026-04-05T16:16:29Z</time></trkpt><trkpt lat="45.68160439868795" lon="9.756426439236721"><ele>245.0</ele><time>2026-04-05T16:16:30Z</time></trkpt><trkpt lat="45.68155450397901" lon="9.756219157629973"><ele>245.0</ele><time>2026-04-05T16:16:31Z</time></trkpt><trkpt lat="45.681505002536916" lon="9.75600250511085"><ele>245.0</ele><time>2026-04-05T16:16:32Z</time></trkpt><trkpt lat="45.681457412501686" lon="9.755779259326891"><ele>245.33333333333334</ele><time>2026-04-05T16:16:33Z</time></trkpt><trkpt lat="45.681407074702065" lon="9.755548003438125"><ele>245.66666666666669</ele><time>2026-04-05T16:16:34Z</time></trkpt><trkpt lat="45.6813550713061" lon="9.755307950011249"><ele>246.0</ele><time>2026-04-05T16:16:35Z</time></trkpt><trkpt lat="45.68130448227542" lon="9.755061388223325"><ele>245.33333333333331</ele><time>2026-04-05T16:16:36Z</time></trkpt><trkpt lat="45.681249446423436" lon="9.754831828350758"><ele>244.66666666666666</ele><time>2026-04-05T16:16:37Z</time></trkpt><trkpt lat="45.68119692211689" lon="9.754600802620772"><ele>244.0</ele><time>2026-04-05T16:16:38Z</time></trkpt><trkpt lat="45.68113613226073" lon="9.7543641924775"><ele>243.66666666666666</ele><time>2026-04-05T16:16:39Z</time></trkpt><trkpt lat="45.68107066906526" lon="9.754107338710071"><ele>243.33333333333331</ele><time>2026-04-05T16:16:40Z</time></trkpt><trkpt lat="45.681005880618805" lon="9.753835489576597"><ele>243.0</ele><time>2026-04-05T16:16:41Z</time></trkpt><trkpt lat="45.680945485804486" lon="9.753558164933997"><ele>243.33333333333331</ele><time>2026-04-05T16:16:42Z</time></trkpt><trkpt lat="45.680887558600915" lon="9.753279788414924"><ele>243.66666666666666</ele><time>2026-04-05T16:16:43Z</time></trkpt><trkpt lat="45.680832564656846" lon="9.753016005465769"><ele>244.0</ele><time>2026-04-05T16:16:44Z</time></trkpt><trkpt lat="45.680780671346405" lon="9.752774688732252"><ele>243.66666666666666</ele><time>2026-04-05T16:16:45Z</time></trkpt><trkpt lat="45.68073263057835" lon="9.752545242529926"><ele>243.33333333333331</ele><time>2026-04-05T16:16:46Z</time></trkpt><trkpt lat="45.680685532223315" lon="9.752334004380911"><ele>243.0</ele><time>2026-04-05T16:16:47Z</time></trkpt><trkpt lat="45.680643791126585" lon="9.7521362261826"><ele>243.0</ele><time>2026-04-05T16:16:48Z</time></trkpt><trkpt lat="45.68060408826712" lon="9.751949510686641"><ele>243.0</ele><time>2026-04-05T16:16:49Z</time></trkpt><trkpt lat="45.68056516693081" lon="9.751773488429135"><ele>243.0</ele><time>2026-04-05T16:16:50Z</time></trkpt><trkpt lat="45.680524811862036" lon="9.751582768299786"><ele>243.0</ele><time>2026-04-05T16:16:51Z</time></trkpt><trkpt lat="45.680479310798916" lon="9.751370939473755"><ele>243.66666666666669</ele><time>2026-04-05T16:16:52Z</time></trkpt><trkpt lat="45.68042772366993" lon="9.75114293409696"><ele>244.33333333333334</ele><time>2026-04-05T16:16:53Z</time></trkpt><trkpt lat="45.680370977605186" lon="9.750907623673287"><ele>245.0</ele><time>2026-04-05T16:16:54Z</time></trkpt><trkpt lat="45.68031001411894" lon="9.750673046145153"><ele>245.0</ele><time>2026-04-05T16:16:55Z</time></trkpt><trkpt lat="45.68024649088261" lon="9.750432688633856"><ele>245.0</ele><time>2026-04-05T16:16:56Z</time></trkpt><trkpt lat="45.680180225738354" lon="9.750183879362611"><ele>245.0</ele><time>2026-04-05T16:16:57Z</time></trkpt><trkpt lat="45.6801040943919" lon="9.749935257580615"><ele>245.0</ele><time>2026-04-05T16:16:58Z</time></trkpt><trkpt lat="45.680021017575235" lon="9.749693075208114"><ele>245.0</ele><time>2026-04-05T16:16:59Z</time></trkpt><trkpt lat="45.679923837593364" lon="9.749431317215247"><ele>245.0</ele><time>2026-04-05T16:17:00Z</time></trkpt><trkpt lat="45.67980660903627" lon="9.749151982931417"><ele>245.0</ele><time>2026-04-05T16:17:01Z</time></trkpt><trkpt lat="45.67966610066273" lon="9.748859377630916"><ele>245.0</ele><time>2026-04-05T16:17:02Z</time></trkpt><trkpt lat="45.67950389634507" lon="9.748557639623321"><ele>245.5</ele><time>2026-04-05T16:17:03Z</time></trkpt><trkpt lat="45.67932585388276" lon="9.74826375021641"><ele>246.0</ele><time>2026-04-05T16:17:04Z</time></trkpt><trkpt lat="45.679143637037264" lon="9.748004792210788"><ele>246.0</ele><time>2026-04-05T16:17:05Z</time></trkpt><trkpt lat="45.67895583325649" lon="9.74776661271378"><ele>246.0</ele><time>2026-04-05T16:17:06Z</time></trkpt><trkpt lat="45.67875593175137" lon="9.747531584254826"><ele>246.0</ele><time>2026-04-05T16:17:07Z</time></trkpt><trkpt lat="45.67855325917837" lon="9.747319185272517"><ele>246.0</ele><time>2026-04-05T16:17:08Z</time></trkpt><trkpt lat="45.678349163786635" lon="9.747130363993875"><ele>246.0</ele><time>2026-04-05T16:17:09Z</time></trkpt><trkpt lat="45.6781369797282" lon="9.746966472867758"><ele>246.0</ele><time>2026-04-05T16:17:10Z</time></trkpt><trkpt lat="45.677914256501765" lon="9.746807297963873"><ele>245.5</ele><time>2026-04-05T16:17:11Z</time></trkpt><trkpt lat="45.67769201897775" lon="9.746668824714174"><ele>245.0</ele><time>2026-04-05T16:17:12Z</time></trkpt><trkpt lat="45.67745875028071" lon="9.746543358228102"><ele>245.0</ele><time>2026-04-05T16:17:13Z</time></trkpt><trkpt lat="45.67721381320875" lon="9.746434112608853"><ele>245.0</ele><time>2026-04-05T16:17:14Z</time></trkpt><trkpt lat="45.676959470623416" lon="9.746335084550136"><ele>245.0</ele><time>2026-04-05T16:17:15Z</time></trkpt><trkpt lat="45.67668946092054" lon="9.746249602003441"><ele>245.0</ele><time>2026-04-05T16:17:16Z</time></trkpt><trkpt lat="45.67641568758535" lon="9.746165101474702"><ele>245.0</ele><time>2026-04-05T16:17:17Z</time></trkpt><trkpt lat="45.676135739080905" lon="9.74607555593752"><ele>245.0</ele><time>2026-04-05T16:17:18Z</time></trkpt><trkpt lat="45.67585941776097" lon="9.745985771586398"><ele>243.5</ele><time>2026-04-05T16:17:19Z</time></trkpt><trkpt lat="45.675605190535656" lon="9.745898453661459"><ele>242.0</ele><time>2026-04-05T16:17:20Z</time></trkpt><trkpt lat="45.67535378627395" lon="9.74579020040064"><ele>241.5</ele><time>2026-04-05T16:17:21Z</time></trkpt><trkpt lat="45.67510996734544" lon="9.745648575630325"><ele>241.0</ele><time>2026-04-05T16:17:22Z</time></trkpt><trkpt lat="45.67486642433575" lon="9.745489081303791"><ele>241.0</ele><time>2026-04-05T16:17:23Z</time></trkpt><trkpt lat="45.674632971268764" lon="9.745313512437715"><ele>241.0</ele><time>2026-04-05T16:17:24Z</time></trkpt><trkpt lat="45.67441525289371" lon="9.745134780138452"><ele>241.5</ele><time>2026-04-05T16:17:25Z</time></trkpt><trkpt lat="45.67420938634447" lon="9.744938180469381"><ele>242.0</ele><time>2026-04-05T16:17:26Z</time></trkpt><trkpt lat="45.67400641807974" lon="9.74472891387675"><ele>242.0</ele><time>2026-04-05T16:17:27Z</time></trkpt><trkpt lat="45.6738053440598" lon="9.744510121690494"><ele>242.0</ele><time>2026-04-05T16:17:28Z</time></trkpt><trkpt lat="45.67360498978908" lon="9.744279994071606"><ele>241.0</ele><time>2026-04-05T16:17:29Z</time></trkpt><trkpt lat="45.67340479445094" lon="9.744059273330912"><ele>240.0</ele><time>2026-04-05T16:17:30Z</time></trkpt><trkpt lat="45.67321028959306" lon="9.743852040309346"><ele>240.0</ele><time>2026-04-05T16:17:31Z</time></trkpt><trkpt lat="45.673016572863354" lon="9.743648971074967"><ele>240.0</ele><time>2026-04-05T16:17:32Z</time></trkpt><trkpt lat="45.67281677184979" lon="9.74345408591243"><ele>239.66666666666669</ele><time>2026-04-05T16:17:33Z</time></trkpt><trkpt lat="45.67262528115068" lon="9.743282988342807"><ele>239.33333333333334</ele><time>2026-04-05T16:17:34Z</time></trkpt><trkpt lat="45.67244069239443" lon="9.743135581467403"><ele>239.0</ele><time>2026-04-05T16:17:35Z</time></trkpt><trkpt lat="45.67225469683894" lon="9.742991947047999"><ele>239.0</ele><time>2026-04-05T16:17:36Z</time></trkpt><trkpt lat="45.672076882221745" lon="9.742856263432412"><ele>239.0</ele><time>2026-04-05T16:17:37Z</time></trkpt><trkpt lat="45.671902276747836" lon="9.742735319738378"><ele>239.0</ele><time>2026-04-05T16:17:38Z</time></trkpt><trkpt lat="45.671727658047956" lon="9.74261860419913"><ele>238.66666666666669</ele><time>2026-04-05T16:17:39Z</time></trkpt><trkpt lat="45.671544863526755" lon="9.742509185596232"><ele>238.33333333333331</ele><time>2026-04-05T16:17:40Z</time></trkpt><trkpt lat="45.671357628593164" lon="9.742397322623866"><ele>238.0</ele><time>2026-04-05T16:17:41Z</time></trkpt><trkpt lat="45.67116553108394" lon="9.742283277455986"><ele>238.33333333333331</ele><time>2026-04-05T16:17:42Z</time></trkpt><trkpt lat="45.67096829107018" lon="9.742168605220082"><ele>238.66666666666669</ele><time>2026-04-05T16:17:43Z</time></trkpt><trkpt lat="45.67076710746433" lon="9.742052351611182"><ele>239.0</ele><time>2026-04-05T16:17:44Z</time></trkpt><trkpt lat="45.67056363296075" lon="9.741934595988388"><ele>239.0</ele><time>2026-04-05T16:17:45Z</time></trkpt><trkpt lat="45.67036593348688" lon="9.741814589510755"><ele>239.0</ele><time>2026-04-05T16:17:46Z</time></trkpt><trkpt lat="45.67018323534477" lon="9.741703165026422"><ele>239.0</ele><time>2026-04-05T16:17:47Z</time></trkpt><trkpt lat="45.670002390179604" lon="9.741597364951994"><ele>239.0</ele><time>2026-04-05T16:17:48Z</time></trkpt><trkpt lat="45.669820989952804" lon="9.741494000124959"><ele>239.0</ele><time>2026-04-05T16:17:49Z</time></trkpt><trkpt lat="45.669649353126005" lon="9.741391840429797"><ele>239.0</ele><time>2026-04-05T16:17:50Z</time></trkpt><trkpt lat="45.66948602245163" lon="9.741295344043694"><ele>238.66666666666669</ele><time>2026-04-05T16:17:51Z</time></trkpt><trkpt lat="45.66932965583371" lon="9.741204581472077"><ele>238.33333333333331</ele><time>2026-04-05T16:17:52Z</time></trkpt><trkpt lat="45.66917186657608" lon="9.741100851286005"><ele>238.0</ele><time>2026-04-05T16:17:53Z</time></trkpt><trkpt lat="45.669023486958615" lon="9.740982066639196"><ele>237.33333333333331</ele><time>2026-04-05T16:17:54Z</time></trkpt><trkpt lat="45.66887758056052" lon="9.740853650178774"><ele>236.66666666666669</ele><time>2026-04-05T16:17:55Z</time></trkpt><trkpt lat="45.668733376749664" lon="9.740717213888386"><ele>236.0</ele><time>2026-04-05T16:17:56Z</time></trkpt><trkpt lat="45.66859075763237" lon="9.740577950173249"><ele>236.0</ele><time>2026-04-05T16:17:57Z</time></trkpt><trkpt lat="45.66844571200853" lon="9.740416106051798"><ele>236.0</ele><time>2026-04-05T16:17:58Z</time></trkpt><trkpt lat="45.66830948559968" lon="9.74022240859737"><ele>236.0</ele><time>2026-04-05T16:17:59Z</time></trkpt><trkpt lat="45.66817907529761" lon="9.740002010380763"><ele>233.5</ele><time>2026-04-05T16:18:00.001Z</time></trkpt><trkpt lat="45.66821117160122" lon="9.739551490931769"><ele>231.0</ele><time>2026-04-05T16:18:01.001Z</time></trkpt><trkpt lat="45.66793899021866" lon="9.73951838275852"><ele>231.0</ele><time>2026-04-05T16:18:02.001Z</time></trkpt><trkpt lat="45.6678141541931" lon="9.739307997970343"><ele>231.0</ele><time>2026-04-05T16:18:03.001Z</time></trkpt><trkpt lat="45.66767799130271" lon="9.739131214874716"><ele>231.0</ele><time>2026-04-05T16:18:04.001Z</time></trkpt><trkpt lat="45.66753336020599" lon="9.738975560841155"><ele>231.0</ele><time>2026-04-05T16:18:05.001Z</time></trkpt><trkpt lat="45.66738753406482" lon="9.738827312741853"><ele>231.0</ele><time>2026-04-05T16:18:06.001Z</time></trkpt><trkpt lat="45.66722865749955" lon="9.738703739637174"><ele>231.0</ele><time>2026-04-05T16:18:07.001Z</time></trkpt><trkpt lat="45.66705477788659" lon="9.738609964538162"><ele>228.66666666666669</ele><time>2026-04-05T16:18:08.001Z</time></trkpt><trkpt lat="45.666870788670586" lon="9.738538179892728"><ele>226.33333333333334</ele><time>2026-04-05T16:18:09.001Z</time></trkpt><trkpt lat="45.66667142247094" lon="9.7384611340711"><ele>224.0</ele><time>2026-04-05T16:18:10.001Z</time></trkpt><trkpt lat="45.66645684993737" lon="9.738366454858978"><ele>224.0</ele><time>2026-04-05T16:18:11.001Z</time></trkpt><trkpt lat="45.66622361591621" lon="9.738261341855663"><ele>224.0</ele><time>2026-04-05T16:18:11.999Z</time></trkpt><trkpt lat="45.66598075617003" lon="9.738138083490284"><ele>223.5</ele><time>2026-04-05T16:18:12.999Z</time></trkpt><trkpt lat="45.665741241869014" lon="9.738007318429894"><ele>223.0</ele><time>2026-04-05T16:18:13.999Z</time></trkpt><trkpt lat="45.6655039607185" lon="9.73788742934193"><ele>226.0</ele><time>2026-04-05T16:18:14.999Z</time></trkpt><trkpt lat="45.66526957770365" lon="9.737776278707187"><ele>229.0</ele><time>2026-04-05T16:18:15.999Z</time></trkpt><trkpt lat="45.665052113780185" lon="9.73767140508412"><ele>229.0</ele><time>2026-04-05T16:18:16.999Z</time></trkpt><trkpt lat="45.66485028994593" lon="9.737571072139936"><ele>229.0</ele><time>2026-04-05T16:18:17.999Z</time></trkpt><trkpt lat="45.66466126829057" lon="9.73747874986772"><ele>229.0</ele><time>2026-04-05T16:18:18.999Z</time></trkpt><trkpt lat="45.66448368774909" lon="9.737390021952978"><ele>228.66666666666666</ele><time>2026-04-05T16:18:19.999Z</time></trkpt><trkpt lat="45.664314063970615" lon="9.73730462560141"><ele>228.33333333333331</ele><time>2026-04-05T16:18:20.999Z</time></trkpt><trkpt lat="45.6641434441371" lon="9.737224560393493"><ele>228.0</ele><time>2026-04-05T16:18:21.999Z</time></trkpt><trkpt lat="45.663973216705095" lon="9.737144032169063"><ele>228.0</ele><time>2026-04-05T16:18:22.999Z</time></trkpt><trkpt lat="45.66380149760601" lon="9.737065734496335"><ele>228.0</ele><time>2026-04-05T16:18:23.999Z</time></trkpt><trkpt lat="45.6636226959261" lon="9.737008240325482"><ele>228.0</ele><time>2026-04-05T16:18:24.999Z</time></trkpt><trkpt lat="45.66344060918878" lon="9.736971165016204"><ele>226.0</ele><time>2026-04-05T16:18:25.999Z</time></trkpt><trkpt lat="45.663260186632364" lon="9.736944412572166"><ele>224.0</ele><time>2026-04-05T16:18:26.999Z</time></trkpt><trkpt lat="45.662898921973174" lon="9.736916463815419"><ele>223.33333333333334</ele><time>2026-04-05T16:18:28.999Z</time></trkpt><trkpt lat="45.66271554767642" lon="9.73691712223382"><ele>222.66666666666669</ele><time>2026-04-05T16:18:30Z</time></trkpt><trkpt lat="45.66252596148611" lon="9.736920341602316"><ele>222.0</ele><time>2026-04-05T16:18:31Z</time></trkpt><trkpt lat="45.66232426090833" lon="9.73691672284796"><ele>222.0</ele><time>2026-04-05T16:18:32Z</time></trkpt><trkpt lat="45.66211823760769" lon="9.736906919655695"><ele>222.0</ele><time>2026-04-05T16:18:33Z</time></trkpt><trkpt lat="45.66190394534264" lon="9.736892601072936"><ele>222.0</ele><time>2026-04-05T16:18:34Z</time></trkpt><trkpt lat="45.661690382312074" lon="9.736872610732407"><ele>222.0</ele><time>2026-04-05T16:18:35Z</time></trkpt><trkpt lat="45.66148610251382" lon="9.736851870576107"><ele>222.0</ele><time>2026-04-05T16:18:36Z</time></trkpt><trkpt lat="45.66129511176045" lon="9.73682569647341"><ele>222.0</ele><time>2026-04-05T16:18:37Z</time></trkpt><trkpt lat="45.66109882405954" lon="9.73679065487536"><ele>221.66666666666669</ele><time>2026-04-05T16:18:38Z</time></trkpt><trkpt lat="45.66090274308117" lon="9.736754238639632"><ele>221.33333333333334</ele><time>2026-04-05T16:18:39Z</time></trkpt><trkpt lat="45.66070758523334" lon="9.73671656327206"><ele>221.0</ele><time>2026-04-05T16:18:40Z</time></trkpt><trkpt lat="45.66051595325567" lon="9.736680046862034"><ele>221.0</ele><time>2026-04-05T16:18:41Z</time></trkpt><trkpt lat="45.66032356004725" lon="9.736636464527612"><ele>221.0</ele><time>2026-04-05T16:18:42Z</time></trkpt><trkpt lat="45.660129488273185" lon="9.736588512227629"><ele>221.0</ele><time>2026-04-05T16:18:43Z</time></trkpt><trkpt lat="45.65993822414652" lon="9.736535264181006"><ele>220.66666666666669</ele><time>2026-04-05T16:18:44Z</time></trkpt><trkpt lat="45.659754761571754" lon="9.736477170823836"><ele>220.33333333333331</ele><time>2026-04-05T16:18:45Z</time></trkpt><trkpt lat="45.65958283552136" lon="9.736418384204045"><ele>220.0</ele><time>2026-04-05T16:18:46Z</time></trkpt><trkpt lat="45.65940971208151" lon="9.736350502931419"><ele>219.33333333333331</ele><time>2026-04-05T16:18:47Z</time></trkpt><trkpt lat="45.65923268168265" lon="9.736284556605677"><ele>218.66666666666669</ele><time>2026-04-05T16:18:48Z</time></trkpt><trkpt lat="45.65906132476914" lon="9.736221448561011"><ele>218.0</ele><time>2026-04-05T16:18:49Z</time></trkpt><trkpt lat="45.658893642566234" lon="9.736155148658298"><ele>218.0</ele><time>2026-04-05T16:18:50Z</time></trkpt><trkpt lat="45.658723663321595" lon="9.73608555685669"><ele>218.0</ele><time>2026-04-05T16:18:51Z</time></trkpt><trkpt lat="45.65855418505622" lon="9.736017025115345"><ele>218.0</ele><time>2026-04-05T16:18:52Z</time></trkpt><trkpt lat="45.65838286645198" lon="9.735951896870871"><ele>219.0</ele><time>2026-04-05T16:18:53Z</time></trkpt><trkpt lat="45.658218940103524" lon="9.735887733844018"><ele>220.0</ele><time>2026-04-05T16:18:54Z</time></trkpt><trkpt lat="45.65806349947628" lon="9.73583627709688"><ele>221.0</ele><time>2026-04-05T16:18:55Z</time></trkpt><trkpt lat="45.657918044952744" lon="9.735779200966672"><ele>220.5</ele><time>2026-04-05T16:18:56Z</time></trkpt><trkpt lat="45.65777890147699" lon="9.735727645500852"><ele>220.0</ele><time>2026-04-05T16:18:57Z</time></trkpt><trkpt lat="45.65765239085666" lon="9.735682177493025"><ele>219.5</ele><time>2026-04-05T16:18:58Z</time></trkpt><trkpt lat="45.65754041786309" lon="9.735632567305004"><ele>219.0</ele><time>2026-04-05T16:18:59Z</time></trkpt><trkpt lat="45.65744017498751" lon="9.735565892254263"><ele>219.0</ele><time>2026-04-05T16:19:00Z</time></trkpt><trkpt lat="45.65734285731401" lon="9.735444555172597"><ele>219.0</ele><time>2026-04-05T16:19:01Z</time></trkpt><trkpt lat="45.657271932733316" lon="9.735319748447132"><ele>219.0</ele><time>2026-04-05T16:19:02Z</time></trkpt><trkpt lat="45.657216354096775" lon="9.735159786107994"><ele>219.0</ele><time>2026-04-05T16:19:03Z</time></trkpt><trkpt lat="45.65718587562992" lon="9.734979103030142"><ele>219.0</ele><time>2026-04-05T16:19:04Z</time></trkpt><trkpt lat="45.657177910955554" lon="9.734816511977797"><ele>218.99999999999997</ele><time>2026-04-05T16:19:05Z</time></trkpt><trkpt lat="45.65713539442123" lon="9.734682008819584"><ele>218.99999999999997</ele><time>2026-04-05T16:19:06Z</time></trkpt><trkpt lat="45.65710997217093" lon="9.73453895791944"><ele>219.0</ele><time>2026-04-05T16:19:07Z</time></trkpt><trkpt lat="45.65703909026439" lon="9.734426516357285"><ele>219.0</ele><time>2026-04-05T16:19:08Z</time></trkpt><trkpt lat="45.65694607719151" lon="9.734356943130447"><ele>219.0</ele><time>2026-04-05T16:19:09Z</time></trkpt><trkpt lat="45.656839214909965" lon="9.734318603425647"><ele>218.99999999999997</ele><time>2026-04-05T16:19:10Z</time></trkpt><trkpt lat="45.65672776504338" lon="9.734320834299975"><ele>218.99999999999997</ele><time>2026-04-05T16:19:11Z</time></trkpt><trkpt lat="45.656629974255736" lon="9.73436334650573"><ele>219.0</ele><time>2026-04-05T16:19:12Z</time></trkpt><trkpt lat="45.65655064196038" lon="9.734441969691488"><ele>219.0</ele><time>2026-04-05T16:19:13Z</time></trkpt><trkpt lat="45.656488829825484" lon="9.734546795965082"><ele>218.6</ele><time>2026-04-05T16:19:14Z</time></trkpt><trkpt lat="45.65644283287645" lon="9.734679022632903"><ele>218.2</ele><time>2026-04-05T16:19:15.001Z</time></trkpt><trkpt lat="45.65641131063516" lon="9.734827421469543"><ele>217.79999999999998</ele><time>2026-04-05T16:19:16.001Z</time></trkpt><trkpt lat="45.65636856290775" lon="9.73496806880797"><ele>217.39999999999998</ele><time>2026-04-05T16:19:17.001Z</time></trkpt><trkpt lat="45.65635638096324" lon="9.735124174684952"><ele>217.0</ele><time>2026-04-05T16:19:18.001Z</time></trkpt><trkpt lat="45.65632259319755" lon="9.735280996989001"><ele>217.0</ele><time>2026-04-05T16:19:19.001Z</time></trkpt><trkpt lat="45.6562912886729" lon="9.735451836502094"><ele>217.0</ele><time>2026-04-05T16:19:20.001Z</time></trkpt><trkpt lat="45.656256609296776" lon="9.735631699740301"><ele>217.0</ele><time>2026-04-05T16:19:21.001Z</time></trkpt><trkpt lat="45.65621525841864" lon="9.735814603368219"><ele>217.0</ele><time>2026-04-05T16:19:22.001Z</time></trkpt><trkpt lat="45.65616372646808" lon="9.735983017843639"><ele>217.75</ele><time>2026-04-05T16:19:23.001Z</time></trkpt><trkpt lat="45.65609637017182" lon="9.736138157606423"><ele>218.5</ele><time>2026-04-05T16:19:24.001Z</time></trkpt><trkpt lat="45.6559988278588" lon="9.736270559137326"><ele>219.25</ele><time>2026-04-05T16:19:25.001Z</time></trkpt><trkpt lat="45.65591002676043" lon="9.736424300444467"><ele>220.0</ele><time>2026-04-05T16:19:26.001Z</time></trkpt><trkpt lat="45.65579701777182" lon="9.73654966807803"><ele>220.0</ele><time>2026-04-05T16:19:27.001Z</time></trkpt><trkpt lat="45.65567517688382" lon="9.736669811724113"><ele>220.0</ele><time>2026-04-05T16:19:28.001Z</time></trkpt><trkpt lat="45.65555233501413" lon="9.736800981231342"><ele>220.0</ele><time>2026-04-05T16:19:29.001Z</time></trkpt><trkpt lat="45.655426944962585" lon="9.736932299768938"><ele>219.33333333333331</ele><time>2026-04-05T16:19:30.001Z</time></trkpt><trkpt lat="45.6552876300141" lon="9.737076138834434"><ele>218.66666666666669</ele><time>2026-04-05T16:19:31.001Z</time></trkpt><trkpt lat="45.65513870389263" lon="9.73723127676067"><ele>218.0</ele><time>2026-04-05T16:19:32.001Z</time></trkpt><trkpt lat="45.654988943052096" lon="9.737389934262826"><ele>217.66666666666669</ele><time>2026-04-05T16:19:33.001Z</time></trkpt><trkpt lat="45.654845973742916" lon="9.737538973716973"><ele>217.33333333333331</ele><time>2026-04-05T16:19:34.001Z</time></trkpt><trkpt lat="45.654697622876604" lon="9.737690512486896"><ele>217.0</ele><time>2026-04-05T16:19:35.001Z</time></trkpt><trkpt lat="45.65455786070747" lon="9.737844920143289"><ele>217.33333333333331</ele><time>2026-04-05T16:19:36.001Z</time></trkpt><trkpt lat="45.65441699296797" lon="9.737996043442815"><ele>217.66666666666669</ele><time>2026-04-05T16:19:37.001Z</time></trkpt><trkpt lat="45.65427896827818" lon="9.738147273191224"><ele>218.0</ele><time>2026-04-05T16:19:38.001Z</time></trkpt><trkpt lat="45.654143541464826" lon="9.738290061461433"><ele>218.0</ele><time>2026-04-05T16:19:39.001Z</time></trkpt><trkpt lat="45.654009583481894" lon="9.738428129881436"><ele>218.0</ele><time>2026-04-05T16:19:40.001Z</time></trkpt><trkpt lat="45.6538699535769" lon="9.738570567781696"><ele>218.0</ele><time>2026-04-05T16:19:41.001Z</time></trkpt><trkpt lat="45.653728803989175" lon="9.738716609830991"><ele>217.0</ele><time>2026-04-05T16:19:42.001Z</time></trkpt><trkpt lat="45.653591107382525" lon="9.738871211310393"><ele>216.0</ele><time>2026-04-05T16:19:43.001Z</time></trkpt><trkpt lat="45.65346547384676" lon="9.739012120107946"><ele>215.0</ele><time>2026-04-05T16:19:44.001Z</time></trkpt><trkpt lat="45.65334147651659" lon="9.73914832141913"><ele>215.0</ele><time>2026-04-05T16:19:45.001Z</time></trkpt><trkpt lat="45.65321784918646" lon="9.739282212499951"><ele>215.0</ele><time>2026-04-05T16:19:46.001Z</time></trkpt><trkpt lat="45.653096554439" lon="9.739414696621456"><ele>215.0</ele><time>2026-04-05T16:19:47.001Z</time></trkpt><trkpt lat="45.652981603165635" lon="9.739536122858713"><ele>215.5</ele><time>2026-04-05T16:19:48.001Z</time></trkpt><trkpt lat="45.65286225922888" lon="9.739652164752448"><ele>216.0</ele><time>2026-04-05T16:19:49.001Z</time></trkpt><trkpt lat="45.65274572505552" lon="9.739746984271848"><ele>216.5</ele><time>2026-04-05T16:19:50.001Z</time></trkpt><trkpt lat="45.65261449341807" lon="9.739826256846886"><ele>217.0</ele><time>2026-04-05T16:19:51.001Z</time></trkpt><trkpt lat="45.65247701401942" lon="9.739886873662535"><ele>217.0</ele><time>2026-04-05T16:19:52.001Z</time></trkpt><trkpt lat="45.65234196516771" lon="9.73990991317087"><ele>217.0</ele><time>2026-04-05T16:19:53.001Z</time></trkpt><trkpt lat="45.65221483647853" lon="9.739901279712553"><ele>217.0</ele><time>2026-04-05T16:19:54.001Z</time></trkpt><trkpt lat="45.65208946602136" lon="9.73986888934556"><ele>217.0</ele><time>2026-04-05T16:19:55.001Z</time></trkpt><trkpt lat="45.65197972573124" lon="9.739784351182333"><ele>216.5</ele><time>2026-04-05T16:19:56.001Z</time></trkpt><trkpt lat="45.65190401668687" lon="9.73966483326718"><ele>216.0</ele><time>2026-04-05T16:19:57.001Z</time></trkpt><trkpt lat="45.65184972767623" lon="9.7395162842618"><ele>215.5</ele><time>2026-04-05T16:19:58.001Z</time></trkpt><trkpt lat="45.65181883452513" lon="9.739361299426402"><ele>215.0</ele><time>2026-04-05T16:19:59.001Z</time></trkpt><trkpt lat="45.65181296350366" lon="9.739202825333933"><ele>214.75</ele><time>2026-04-05T16:20:00.001Z</time></trkpt><trkpt lat="45.65182982729859" lon="9.739045573270548"><ele>214.5</ele><time>2026-04-05T16:20:01.001Z</time></trkpt><trkpt lat="45.65186572180212" lon="9.738889951676214"><ele>214.25</ele><time>2026-04-05T16:20:02.001Z</time></trkpt><trkpt lat="45.651927580082344" lon="9.738749721558941"><ele>214.0</ele><time>2026-04-05T16:20:03.001Z</time></trkpt><trkpt lat="45.65202039342774" lon="9.73864499924156"><ele>214.25</ele><time>2026-04-05T16:20:04.001Z</time></trkpt><trkpt lat="45.652133289262174" lon="9.738570436246723"><ele>214.5</ele><time>2026-04-05T16:20:05.001Z</time></trkpt><trkpt lat="45.65225062179656" lon="9.73853230099069"><ele>214.75</ele><time>2026-04-05T16:20:06.001Z</time></trkpt><trkpt lat="45.652371159617985" lon="9.738534139756426"><ele>215.0</ele><time>2026-04-05T16:20:07.001Z</time></trkpt><trkpt lat="45.65248512465988" lon="9.738582944106543"><ele>215.25</ele><time>2026-04-05T16:20:08.001Z</time></trkpt><trkpt lat="45.65257138515177" lon="9.73868477332829"><ele>215.5</ele><time>2026-04-05T16:20:09.001Z</time></trkpt><trkpt lat="45.65266275415771" lon="9.738782022103848"><ele>215.75</ele><time>2026-04-05T16:20:10.001Z</time></trkpt><trkpt lat="45.65271103309338" lon="9.738934741950382"><ele>216.0</ele><time>2026-04-05T16:20:11.001Z</time></trkpt><trkpt lat="45.652772071117006" lon="9.739081319541583"><ele>215.75</ele><time>2026-04-05T16:20:12.001Z</time></trkpt><trkpt lat="45.652812702160595" lon="9.739250832696483"><ele>215.5</ele><time>2026-04-05T16:20:13.001Z</time></trkpt><trkpt lat="45.65282698269683" lon="9.739435698241508"><ele>215.25</ele><time>2026-04-05T16:20:14.001Z</time></trkpt><trkpt lat="45.652852773985565" lon="9.739630325491367"><ele>215.0</ele><time>2026-04-05T16:20:15.001Z</time></trkpt><trkpt lat="45.65289168347715" lon="9.739834801915348"><ele>215.25</ele><time>2026-04-05T16:20:16.001Z</time></trkpt><trkpt lat="45.65291513241173" lon="9.740040206691992"><ele>215.5</ele><time>2026-04-05T16:20:17.001Z</time></trkpt><trkpt lat="45.652940173862866" lon="9.740237537821914"><ele>215.75</ele><time>2026-04-05T16:20:17.999Z</time></trkpt><trkpt lat="45.652965904913856" lon="9.740433315685538"><ele>216.0</ele><time>2026-04-05T16:20:18.999Z</time></trkpt><trkpt lat="45.65299211296153" lon="9.740623555617418"><ele>216.0</ele><time>2026-04-05T16:20:19.999Z</time></trkpt><trkpt lat="45.65301422684425" lon="9.740817573693086"><ele>216.0</ele><time>2026-04-05T16:20:20.999Z</time></trkpt><trkpt lat="45.65303744395435" lon="9.741010725693283"><ele>216.0</ele><time>2026-04-05T16:20:21.999Z</time></trkpt><trkpt lat="45.653060953914704" lon="9.741208366271417"><ele>216.0</ele><time>2026-04-05T16:20:22.999Z</time></trkpt><trkpt lat="45.65308560320839" lon="9.741409639083493"><ele>215.66666666666669</ele><time>2026-04-05T16:20:23.999Z</time></trkpt><trkpt lat="45.65311074756236" lon="9.741618440340373"><ele>215.33333333333334</ele><time>2026-04-05T16:20:24.999Z</time></trkpt><trkpt lat="45.65313374048145" lon="9.741835533919044"><ele>215.0</ele><time>2026-04-05T16:20:25.999Z</time></trkpt><trkpt lat="45.65315374793423" lon="9.742054208897727"><ele>215.0</ele><time>2026-04-05T16:20:26.999Z</time></trkpt><trkpt lat="45.653163687202124" lon="9.742268504440874"><ele>215.0</ele><time>2026-04-05T16:20:27.999Z</time></trkpt><trkpt lat="45.653167804286134" lon="9.742468516119278"><ele>215.0</ele><time>2026-04-05T16:20:28.999Z</time></trkpt><trkpt lat="45.65321869405545" lon="9.742659364908079"><ele>215.0</ele><time>2026-04-05T16:20:29.999Z</time></trkpt><trkpt lat="45.65321627765612" lon="9.742839947509491"><ele>215.25</ele><time>2026-04-05T16:20:30.999Z</time></trkpt><trkpt lat="45.65316543536359" lon="9.74301138816184"><ele>215.5</ele><time>2026-04-05T16:20:31.999Z</time></trkpt><trkpt lat="45.653171699284854" lon="9.743177095583594"><ele>215.75</ele><time>2026-04-05T16:20:32.999Z</time></trkpt><trkpt lat="45.65318425471411" lon="9.743332626944076"><ele>216.0</ele><time>2026-04-05T16:20:33.999Z</time></trkpt><trkpt lat="45.65319481644662" lon="9.743477694042182"><ele>216.0</ele><time>2026-04-05T16:20:34.999Z</time></trkpt><trkpt lat="45.65326100745507" lon="9.74359603814171"><ele>216.00000000000003</ele><time>2026-04-05T16:20:35.999Z</time></trkpt><trkpt lat="45.6532767742532" lon="9.743711822526308"><ele>216.00000000000003</ele><time>2026-04-05T16:20:36.999Z</time></trkpt><trkpt lat="45.65329026712395" lon="9.743804133967528"><ele>216.0</ele><time>2026-04-05T16:20:37.999Z</time></trkpt><trkpt lat="45.65331179061441" lon="9.743962015646254"><ele>216.0</ele><time>2026-04-05T16:20:39.999Z</time></trkpt><trkpt lat="45.65333395863446" lon="9.744143364377365"><ele>216.0</ele><time>2026-04-05T16:20:42Z</time></trkpt><trkpt lat="45.653349070665946" lon="9.744268347547306"><ele>216.00000000000003</ele><time>2026-04-05T16:20:43Z</time></trkpt><trkpt lat="45.653364552981785" lon="9.74439991799484"><ele>216.00000000000003</ele><time>2026-04-05T16:20:44Z</time></trkpt><trkpt lat="45.65338223072611" lon="9.744553693898359"><ele>216.0</ele><time>2026-04-05T16:20:45Z</time></trkpt><trkpt lat="45.65340386672235" lon="9.744743455104327"><ele>216.0</ele><time>2026-04-05T16:20:46Z</time></trkpt><trkpt lat="45.65342559862725" lon="9.744947986836474"><ele>215.66666666666669</ele><time>2026-04-05T16:20:47Z</time></trkpt><trkpt lat="45.65347322030304" lon="9.7451699382587"><ele>215.33333333333334</ele><time>2026-04-05T16:20:48Z</time></trkpt><trkpt lat="45.65352877505552" lon="9.745388197830898"><ele>215.0</ele><time>2026-04-05T16:20:49Z</time></trkpt><trkpt lat="45.653584716372784" lon="9.745624961901216"><ele>216.0</ele><time>2026-04-05T16:20:50Z</time></trkpt><trkpt lat="45.65364616772469" lon="9.745900740904709"><ele>217.0</ele><time>2026-04-05T16:20:51Z</time></trkpt><trkpt lat="45.6537022222459" lon="9.746195462589545"><ele>218.0</ele><time>2026-04-05T16:20:52Z</time></trkpt><trkpt lat="45.65374220189988" lon="9.746503677898545"><ele>219.33333333333334</ele><time>2026-04-05T16:20:53Z</time></trkpt><trkpt lat="45.65378600149624" lon="9.74678828921649"><ele>220.66666666666669</ele><time>2026-04-05T16:20:54Z</time></trkpt><trkpt lat="45.65381463408473" lon="9.747066828424758"><ele>222.0</ele><time>2026-04-05T16:20:55Z</time></trkpt><trkpt lat="45.65385042231016" lon="9.747345767755686"><ele>222.0</ele><time>2026-04-05T16:20:56Z</time></trkpt><trkpt lat="45.65388324237949" lon="9.747585026377092"><ele>222.0</ele><time>2026-04-05T16:20:57Z</time></trkpt><trkpt lat="45.65392364504982" lon="9.74780499297331"><ele>222.0</ele><time>2026-04-05T16:20:58Z</time></trkpt><trkpt lat="45.6539730633723" lon="9.748016698011131"><ele>221.66666666666669</ele><time>2026-04-05T16:20:59Z</time></trkpt><trkpt lat="45.65407646868045" lon="9.748215571889565"><ele>221.33333333333334</ele><time>2026-04-05T16:21:00Z</time></trkpt><trkpt lat="45.65417497275496" lon="9.74839795797469"><ele>221.0</ele><time>2026-04-05T16:21:01Z</time></trkpt><trkpt lat="45.65429421916163" lon="9.748551819738179"><ele>221.0</ele><time>2026-04-05T16:21:02Z</time></trkpt><trkpt lat="45.65443103842012" lon="9.748679726741"><ele>221.0</ele><time>2026-04-05T16:21:03Z</time></trkpt><trkpt lat="45.65457012894328" lon="9.748788895483935"><ele>221.0</ele><time>2026-04-05T16:21:04Z</time></trkpt><trkpt lat="45.65472811798747" lon="9.748854109029994"><ele>222.0</ele><time>2026-04-05T16:21:05Z</time></trkpt><trkpt lat="45.65488882936682" lon="9.748913079500623"><ele>223.0</ele><time>2026-04-05T16:21:06Z</time></trkpt><trkpt lat="45.65503497424142" lon="9.748963695919937"><ele>224.0</ele><time>2026-04-05T16:21:07Z</time></trkpt><trkpt lat="45.655185551615666" lon="9.749017722607315"><ele>224.0</ele><time>2026-04-05T16:21:08Z</time></trkpt><trkpt lat="45.65534370481346" lon="9.749073131850867"><ele>224.0</ele><time>2026-04-05T16:21:09Z</time></trkpt><trkpt lat="45.65550793318753" lon="9.749132423307488"><ele>224.0</ele><time>2026-04-05T16:21:10Z</time></trkpt><trkpt lat="45.65567472643091" lon="9.749194494371437"><ele>224.0</ele><time>2026-04-05T16:21:11Z</time></trkpt><trkpt lat="45.655832129904034" lon="9.749253189915615"><ele>224.0</ele><time>2026-04-05T16:21:12Z</time></trkpt><trkpt lat="45.655977903557506" lon="9.749313054313527"><ele>224.0</ele><time>2026-04-05T16:21:13Z</time></trkpt><trkpt lat="45.656121201237326" lon="9.749387425651204"><ele>224.33333333333334</ele><time>2026-04-05T16:21:14Z</time></trkpt><trkpt lat="45.65626368839128" lon="9.749489403673692"><ele>224.66666666666669</ele><time>2026-04-05T16:21:15Z</time></trkpt><trkpt lat="45.656386080231044" lon="9.749629487779098"><ele>225.0</ele><time>2026-04-05T16:21:16Z</time></trkpt><trkpt lat="45.65648266560095" lon="9.749785985238136"><ele>225.0</ele><time>2026-04-05T16:21:17Z</time></trkpt><trkpt lat="45.65655757097193" lon="9.749965730102009"><ele>225.0</ele><time>2026-04-05T16:21:18Z</time></trkpt><trkpt lat="45.65661015804163" lon="9.750159777483734"><ele>225.0</ele><time>2026-04-05T16:21:19Z</time></trkpt><trkpt lat="45.65663212968632" lon="9.750366708203941"><ele>225.0</ele><time>2026-04-05T16:21:20Z</time></trkpt><trkpt lat="45.65661341147688" lon="9.750552312617076"><ele>225.0</ele><time>2026-04-05T16:21:21Z</time></trkpt><trkpt lat="45.65655968066303" lon="9.750739113392187"><ele>225.0</ele><time>2026-04-05T16:21:22Z</time></trkpt><trkpt lat="45.65648360070248" lon="9.750922288907603"><ele>225.0</ele><time>2026-04-05T16:21:23Z</time></trkpt><trkpt lat="45.656362419978265" lon="9.751047953304711"><ele>225.0</ele><time>2026-04-05T16:21:24Z</time></trkpt><trkpt lat="45.65622350895793" lon="9.751128155595316"><ele>224.5</ele><time>2026-04-05T16:21:25Z</time></trkpt><trkpt lat="45.65608348131098" lon="9.751152543230353"><ele>224.0</ele><time>2026-04-05T16:21:26Z</time></trkpt><trkpt lat="45.6559550043441" lon="9.751145143351101"><ele>223.5</ele><time>2026-04-05T16:21:27Z</time></trkpt><trkpt lat="45.65583506825162" lon="9.751093179993704"><ele>223.0</ele><time>2026-04-05T16:21:28Z</time></trkpt><trkpt lat="45.65572184477292" lon="9.750993672221956"><ele>223.0</ele><time>2026-04-05T16:21:29Z</time></trkpt><trkpt lat="45.65561976451835" lon="9.750861132276821"><ele>223.0</ele><time>2026-04-05T16:21:30Z</time></trkpt><trkpt lat="45.655532920658786" lon="9.750695483415242"><ele>223.0</ele><time>2026-04-05T16:21:31Z</time></trkpt><trkpt lat="45.65545891497851" lon="9.750508288147863"><ele>223.0</ele><time>2026-04-05T16:21:32Z</time></trkpt><trkpt lat="45.65540371739729" lon="9.750299092400045"><ele>223.66666666666666</ele><time>2026-04-05T16:21:33Z</time></trkpt><trkpt lat="45.65536607668382" lon="9.750081697237587"><ele>224.33333333333331</ele><time>2026-04-05T16:21:34.001Z</time></trkpt><trkpt lat="45.65535888189601" lon="9.749859159737548"><ele>225.0</ele><time>2026-04-05T16:21:35.001Z</time></trkpt><trkpt lat="45.65536875362858" lon="9.749631900573426"><ele>225.0</ele><time>2026-04-05T16:21:36.001Z</time></trkpt><trkpt lat="45.655362156250845" lon="9.74938904649397"><ele>225.0</ele><time>2026-04-05T16:21:37.001Z</time></trkpt><trkpt lat="45.65541479825015" lon="9.749125453907682"><ele>225.0</ele><time>2026-04-05T16:21:38.001Z</time></trkpt><trkpt lat="45.65547608270607" lon="9.748873749474448"><ele>224.66666666666669</ele><time>2026-04-05T16:21:39.001Z</time></trkpt><trkpt lat="45.65551376127979" lon="9.748624267960546"><ele>224.33333333333334</ele><time>2026-04-05T16:21:40.001Z</time></trkpt><trkpt lat="45.655551425466996" lon="9.74835843837885"><ele>224.0</ele><time>2026-04-05T16:21:41.001Z</time></trkpt><trkpt lat="45.655592344323814" lon="9.748084483165474"><ele>224.0</ele><time>2026-04-05T16:21:42.001Z</time></trkpt><trkpt lat="45.6556329939239" lon="9.74781480638337"><ele>224.0</ele><time>2026-04-05T16:21:43.001Z</time></trkpt><trkpt lat="45.65567573323914" lon="9.74754485108974"><ele>224.0</ele><time>2026-04-05T16:21:44.001Z</time></trkpt><trkpt lat="45.65572128972174" lon="9.747262664731158"><ele>224.5</ele><time>2026-04-05T16:21:45.001Z</time></trkpt><trkpt lat="45.65576965778872" lon="9.746954240181557"><ele>225.0</ele><time>2026-04-05T16:21:46.001Z</time></trkpt><trkpt lat="45.65582001858248" lon="9.746623615403562"><ele>225.0</ele><time>2026-04-05T16:21:47.001Z</time></trkpt><trkpt lat="45.6558661636498" lon="9.746270820338953"><ele>225.0</ele><time>2026-04-05T16:21:48.001Z</time></trkpt><trkpt lat="45.655911144428714" lon="9.745902866708233"><ele>225.0</ele><time>2026-04-05T16:21:49.001Z</time></trkpt><trkpt lat="45.655972902082304" lon="9.745535472353955"><ele>225.0</ele><time>2026-04-05T16:21:50.001Z</time></trkpt><trkpt lat="45.65604039588615" lon="9.745180153278962"><ele>225.0</ele><time>2026-04-05T16:21:51.001Z</time></trkpt><trkpt lat="45.65610985983762" lon="9.74480208535473"><ele>225.0</ele><time>2026-04-05T16:21:52.001Z</time></trkpt><trkpt lat="45.65618518945855" lon="9.744416622631626"><ele>225.0</ele><time>2026-04-05T16:21:53.001Z</time></trkpt><trkpt lat="45.65625312691847" lon="9.7440500840494"><ele>225.0</ele><time>2026-04-05T16:21:54.001Z</time></trkpt><trkpt lat="45.65632170247684" lon="9.743678192316438"><ele>223.5</ele><time>2026-04-05T16:21:55.001Z</time></trkpt><trkpt lat="45.65639311371518" lon="9.743303027435006"><ele>222.0</ele><time>2026-04-05T16:21:56.001Z</time></trkpt><trkpt lat="45.65647245298549" lon="9.742925220907273"><ele>220.5</ele><time>2026-04-05T16:21:57.001Z</time></trkpt><trkpt lat="45.65656217618445" lon="9.742522848174158"><ele>219.0</ele><time>2026-04-05T16:21:58.001Z</time></trkpt><trkpt lat="45.65664606542909" lon="9.742117394443426"><ele>218.5</ele><time>2026-04-05T16:21:59.001Z</time></trkpt><trkpt lat="45.65672490306333" lon="9.741711426361368"><ele>218.0</ele><time>2026-04-05T16:22:00.001Z</time></trkpt><trkpt lat="45.65680070656253" lon="9.741299603754161"><ele>218.0</ele><time>2026-04-05T16:22:01.001Z</time></trkpt><trkpt lat="45.65687733656683" lon="9.740886778788767"><ele>218.0</ele><time>2026-04-05T16:22:02.001Z</time></trkpt><trkpt lat="45.65695312683453" lon="9.74047300741605"><ele>218.5</ele><time>2026-04-05T16:22:03.001Z</time></trkpt><trkpt lat="45.657032316006806" lon="9.740059846976681"><ele>219.0</ele><time>2026-04-05T16:22:04.001Z</time></trkpt><trkpt lat="45.65711295442574" lon="9.739642266721498"><ele>219.0</ele><time>2026-04-05T16:22:05.001Z</time></trkpt><trkpt lat="45.657191898025545" lon="9.739225699965276"><ele>219.0</ele><time>2026-04-05T16:22:06.001Z</time></trkpt><trkpt lat="45.65726904586305" lon="9.738816808062731"><ele>219.5</ele><time>2026-04-05T16:22:07.001Z</time></trkpt><trkpt lat="45.65734316963114" lon="9.738427379644701"><ele>220.0</ele><time>2026-04-05T16:22:08.001Z</time></trkpt><trkpt lat="45.657416197615255" lon="9.738070367855071"><ele>220.0</ele><time>2026-04-05T16:22:09.001Z</time></trkpt><trkpt lat="45.657485603574365" lon="9.73772739878202"><ele>220.0</ele><time>2026-04-05T16:22:10.001Z</time></trkpt><trkpt lat="45.6575468508205" lon="9.737400203747368"><ele>220.0</ele><time>2026-04-05T16:22:11.001Z</time></trkpt><trkpt lat="45.657607739399886" lon="9.737103334281992"><ele>220.0</ele><time>2026-04-05T16:22:12.001Z</time></trkpt><trkpt lat="45.65765532633626" lon="9.73684987107743"><ele>220.0</ele><time>2026-04-05T16:22:13.001Z</time></trkpt><trkpt lat="45.65769549614377" lon="9.736615423727455"><ele>219.75</ele><time>2026-04-05T16:22:14.001Z</time></trkpt><trkpt lat="45.65773427335031" lon="9.736405931616972"><ele>219.5</ele><time>2026-04-05T16:22:15.001Z</time></trkpt><trkpt lat="45.65777187773312" lon="9.736200419205222"><ele>219.25</ele><time>2026-04-05T16:22:16.001Z</time></trkpt><trkpt lat="45.65780515802455" lon="9.736007229064345"><ele>219.0</ele><time>2026-04-05T16:22:17.001Z</time></trkpt><trkpt lat="45.65783631990609" lon="9.735832018626015"><ele>219.5</ele><time>2026-04-05T16:22:18.001Z</time></trkpt><trkpt lat="45.657868820967614" lon="9.73566799006847"><ele>220.0</ele><time>2026-04-05T16:22:19.001Z</time></trkpt><trkpt lat="45.65790197232044" lon="9.735500721820374"><ele>220.5</ele><time>2026-04-05T16:22:20.001Z</time></trkpt><trkpt lat="45.65793391426378" lon="9.735327538196831"><ele>221.0</ele><time>2026-04-05T16:22:21.001Z</time></trkpt><trkpt lat="45.657966445873456" lon="9.735151601125585"><ele>221.25</ele><time>2026-04-05T16:22:22.001Z</time></trkpt><trkpt lat="45.65799646284993" lon="9.734991066201893"><ele>221.5</ele><time>2026-04-05T16:22:23.001Z</time></trkpt><trkpt lat="45.658024311668306" lon="9.73483138107979"><ele>221.75</ele><time>2026-04-05T16:22:23.998Z</time></trkpt><trkpt lat="45.65805421934618" lon="9.734669814254719"><ele>222.0</ele><time>2026-04-05T16:22:24.998Z</time></trkpt><trkpt lat="45.658085404052606" lon="9.734507740941483"><ele>222.0</ele><time>2026-04-05T16:22:25.999Z</time></trkpt><trkpt lat="45.65811607893407" lon="9.734338146932926"><ele>222.0</ele><time>2026-04-05T16:22:26.999Z</time></trkpt><trkpt lat="45.65814683183259" lon="9.734158467634384"><ele>222.0</ele><time>2026-04-05T16:22:27.999Z</time></trkpt><trkpt lat="45.658182877982384" lon="9.733961468597457"><ele>222.0</ele><time>2026-04-05T16:22:28.999Z</time></trkpt><trkpt lat="45.658222085724866" lon="9.733749594420523"><ele>221.33333333333331</ele><time>2026-04-05T16:22:29.999Z</time></trkpt><trkpt lat="45.658263403379166" lon="9.733526487395975"><ele>220.66666666666666</ele><time>2026-04-05T16:22:30.999Z</time></trkpt><trkpt lat="45.658301855712594" lon="9.733295576176976"><ele>220.0</ele><time>2026-04-05T16:22:31.999Z</time></trkpt><trkpt lat="45.65834060003009" lon="9.733058841052644"><ele>220.0</ele><time>2026-04-05T16:22:32.999Z</time></trkpt><trkpt lat="45.658383791723956" lon="9.732818495782523"><ele>220.0</ele><time>2026-04-05T16:22:33.999Z</time></trkpt><trkpt lat="45.65843083445461" lon="9.732566831950399"><ele>220.0</ele><time>2026-04-05T16:22:34.999Z</time></trkpt><trkpt lat="45.658479219259945" lon="9.732305211672097"><ele>219.66666666666666</ele><time>2026-04-05T16:22:35.999Z</time></trkpt><trkpt lat="45.658529310637135" lon="9.732034218685243"><ele>219.33333333333331</ele><time>2026-04-05T16:22:36.999Z</time></trkpt><trkpt lat="45.65857746192338" lon="9.731758793392713"><ele>219.0</ele><time>2026-04-05T16:22:37.999Z</time></trkpt><trkpt lat="45.65862405264511" lon="9.73148491645695"><ele>219.0</ele><time>2026-04-05T16:22:38.999Z</time></trkpt><trkpt lat="45.65867196278368" lon="9.731212814757438"><ele>219.0</ele><time>2026-04-05T16:22:39.999Z</time></trkpt><trkpt lat="45.65872054425478" lon="9.730934162843361"><ele>219.0</ele><time>2026-04-05T16:22:40.999Z</time></trkpt><trkpt lat="45.65877096471103" lon="9.730664598714275"><ele>219.66666666666669</ele><time>2026-04-05T16:22:41.999Z</time></trkpt><trkpt lat="45.6588203343001" lon="9.730394773375497"><ele>220.33333333333334</ele><time>2026-04-05T16:22:42.999Z</time></trkpt><trkpt lat="45.65886612811304" lon="9.730115171205423"><ele>221.0</ele><time>2026-04-05T16:22:43.999Z</time></trkpt><trkpt lat="45.658913800036565" lon="9.729815756953979"><ele>221.5</ele><time>2026-04-05T16:22:44.999Z</time></trkpt><trkpt lat="45.658974196003314" lon="9.729489667507233"><ele>222.0</ele><time>2026-04-05T16:22:45.999Z</time></trkpt><trkpt lat="45.65904948395746" lon="9.729140490966655"><ele>222.0</ele><time>2026-04-05T16:22:46.999Z</time></trkpt><trkpt lat="45.65912087711154" lon="9.728778407051847"><ele>222.0</ele><time>2026-04-05T16:22:47.999Z</time></trkpt><trkpt lat="45.65918886856414" lon="9.728411648650088"><ele>222.0</ele><time>2026-04-05T16:22:48.999Z</time></trkpt><trkpt lat="45.659257725982584" lon="9.728037697663614"><ele>222.0</ele><time>2026-04-05T16:22:49.999Z</time></trkpt><trkpt lat="45.65932573149819" lon="9.727633769372238"><ele>222.0</ele><time>2026-04-05T16:22:51Z</time></trkpt><trkpt lat="45.65939606371242" lon="9.72720785852357"><ele>222.0</ele><time>2026-04-05T16:22:52Z</time></trkpt><trkpt lat="45.659474590142956" lon="9.726774978966809"><ele>222.0</ele><time>2026-04-05T16:22:53Z</time></trkpt><trkpt lat="45.65956093563926" lon="9.726332476248503"><ele>222.0</ele><time>2026-04-05T16:22:54Z</time></trkpt><trkpt lat="45.659645872695194" lon="9.725893912647166"><ele>222.0</ele><time>2026-04-05T16:22:55Z</time></trkpt><trkpt lat="45.65972879276715" lon="9.72546064615191"><ele>222.0</ele><time>2026-04-05T16:22:56Z</time></trkpt><trkpt lat="45.659806674213215" lon="9.725050542938552"><ele>223.5</ele><time>2026-04-05T16:22:57Z</time></trkpt><trkpt lat="45.65988786247507" lon="9.724666785950381"><ele>225.0</ele><time>2026-04-05T16:22:58Z</time></trkpt><trkpt lat="45.659969157941305" lon="9.724287730829587"><ele>225.5</ele><time>2026-04-05T16:22:59Z</time></trkpt><trkpt lat="45.6600528130267" lon="9.723899261006661"><ele>226.0</ele><time>2026-04-05T16:23:00Z</time></trkpt><trkpt lat="45.6601385552511" lon="9.723498072300826"><ele>226.5</ele><time>2026-04-05T16:23:01Z</time></trkpt><trkpt lat="45.66021676218655" lon="9.723086166671541"><ele>227.0</ele><time>2026-04-05T16:23:02Z</time></trkpt><trkpt lat="45.66029161004823" lon="9.722667986812935"><ele>227.0</ele><time>2026-04-05T16:23:03Z</time></trkpt><trkpt lat="45.66036783751973" lon="9.722248547449437"><ele>227.0</ele><time>2026-04-05T16:23:04Z</time></trkpt><trkpt lat="45.660444423319134" lon="9.721823163623554"><ele>227.0</ele><time>2026-04-05T16:23:05Z</time></trkpt><trkpt lat="45.660523930039616" lon="9.721395580325789"><ele>227.0</ele><time>2026-04-05T16:23:06Z</time></trkpt><trkpt lat="45.660604737054264" lon="9.720969385248196"><ele>227.0</ele><time>2026-04-05T16:23:07Z</time></trkpt><trkpt lat="45.660682620175216" lon="9.72053638837893"><ele>227.0</ele><time>2026-04-05T16:23:08Z</time></trkpt><trkpt lat="45.660765353882525" lon="9.720110681731818"><ele>226.5</ele><time>2026-04-05T16:23:09Z</time></trkpt><trkpt lat="45.66084363961641" lon="9.71968152740859"><ele>226.0</ele><time>2026-04-05T16:23:10Z</time></trkpt><trkpt lat="45.66092032551344" lon="9.71925613425238"><ele>226.0</ele><time>2026-04-05T16:23:11Z</time></trkpt><trkpt lat="45.660993579964135" lon="9.71882827358194"><ele>226.0</ele><time>2026-04-05T16:23:12Z</time></trkpt><trkpt lat="45.66106722232084" lon="9.7184043388492"><ele>228.0</ele><time>2026-04-05T16:23:13Z</time></trkpt><trkpt lat="45.66114338472839" lon="9.71798318505298"><ele>230.0</ele><time>2026-04-05T16:23:14Z</time></trkpt><trkpt lat="45.66122003477271" lon="9.717569861114452"><ele>230.0</ele><time>2026-04-05T16:23:15Z</time></trkpt><trkpt lat="45.66128962211333" lon="9.717167083293218"><ele>230.0</ele><time>2026-04-05T16:23:16Z</time></trkpt><trkpt lat="45.66135963706108" lon="9.716786359466857"><ele>229.0</ele><time>2026-04-05T16:23:17Z</time></trkpt><trkpt lat="45.66143022135289" lon="9.71642908425254"><ele>228.0</ele><time>2026-04-05T16:23:18Z</time></trkpt><trkpt lat="45.66149922120319" lon="9.71607778566054"><ele>228.0</ele><time>2026-04-05T16:23:19Z</time></trkpt><trkpt lat="45.66156561814971" lon="9.715729001400438"><ele>228.0</ele><time>2026-04-05T16:23:20Z</time></trkpt><trkpt lat="45.66162961941293" lon="9.715381638337742"><ele>228.0</ele><time>2026-04-05T16:23:21Z</time></trkpt><trkpt lat="45.66169345929807" lon="9.715041298362967"><ele>228.0</ele><time>2026-04-05T16:23:22Z</time></trkpt><trkpt lat="45.66175515908572" lon="9.714718452144478"><ele>228.0</ele><time>2026-04-05T16:23:23Z</time></trkpt><trkpt lat="45.66181540824319" lon="9.71439538606177"><ele>228.0</ele><time>2026-04-05T16:23:24Z</time></trkpt><trkpt lat="45.661871377363674" lon="9.714064443117186"><ele>228.0</ele><time>2026-04-05T16:23:25Z</time></trkpt><trkpt lat="45.66192606470124" lon="9.71372794041228"><ele>228.0</ele><time>2026-04-05T16:23:26Z</time></trkpt><trkpt lat="45.66198188188528" lon="9.713394049354932"><ele>228.0</ele><time>2026-04-05T16:23:27Z</time></trkpt><trkpt lat="45.662039844354844" lon="9.713064451725081"><ele>228.0</ele><time>2026-04-05T16:23:28Z</time></trkpt><trkpt lat="45.66209795879564" lon="9.712729515296031"><ele>228.5</ele><time>2026-04-05T16:23:29Z</time></trkpt><trkpt lat="45.662158638958026" lon="9.712389589288573"><ele>229.0</ele><time>2026-04-05T16:23:30Z</time></trkpt><trkpt lat="45.6622214405496" lon="9.712052567819692"><ele>230.0</ele><time>2026-04-05T16:23:31Z</time></trkpt><trkpt lat="45.66228405470202" lon="9.711716038562058"><ele>231.0</ele><time>2026-04-05T16:23:32.001Z</time></trkpt><trkpt lat="45.66234920666515" lon="9.711379839034855"><ele>231.0</ele><time>2026-04-05T16:23:33.001Z</time></trkpt><trkpt lat="45.6624136402036" lon="9.711036581303059"><ele>231.0</ele><time>2026-04-05T16:23:34.001Z</time></trkpt><trkpt lat="45.66247851675092" lon="9.710691689881052"><ele>231.0</ele><time>2026-04-05T16:23:35.001Z</time></trkpt><trkpt lat="45.6625414741482" lon="9.71034682440506"><ele>231.0</ele><time>2026-04-05T16:23:36.001Z</time></trkpt><trkpt lat="45.66260677053947" lon="9.710001220781685"><ele>232.0</ele><time>2026-04-05T16:23:37.001Z</time></trkpt><trkpt lat="45.662673283686544" lon="9.709656563054532"><ele>233.0</ele><time>2026-04-05T16:23:38.001Z</time></trkpt><trkpt lat="45.662739723616546" lon="9.709312287432892"><ele>233.0</ele><time>2026-04-05T16:23:39.001Z</time></trkpt><trkpt lat="45.662803288821046" lon="9.708962555364147"><ele>233.0</ele><time>2026-04-05T16:23:40.001Z</time></trkpt><trkpt lat="45.66286733416335" lon="9.708610440408957"><ele>233.5</ele><time>2026-04-05T16:23:41.001Z</time></trkpt><trkpt lat="45.66292980677661" lon="9.708255940914405"><ele>234.0</ele><time>2026-04-05T16:23:42.001Z</time></trkpt><trkpt lat="45.662994704674325" lon="9.707897435832702"><ele>233.5</ele><time>2026-04-05T16:23:43.001Z</time></trkpt><trkpt lat="45.663059159055166" lon="9.70753701990173"><ele>233.0</ele><time>2026-04-05T16:23:44.001Z</time></trkpt><trkpt lat="45.66312505751773" lon="9.707177239979526"><ele>233.5</ele><time>2026-04-05T16:23:45.001Z</time></trkpt><trkpt lat="45.66319119177766" lon="9.706817128271446"><ele>234.0</ele><time>2026-04-05T16:23:46.001Z</time></trkpt><trkpt lat="45.6632582121561" lon="9.70645623166399"><ele>234.0</ele><time>2026-04-05T16:23:47.001Z</time></trkpt><trkpt lat="45.66332691741477" lon="9.706091297441588"><ele>234.0</ele><time>2026-04-05T16:23:48.001Z</time></trkpt><trkpt lat="45.663395700683296" lon="9.705719753709797"><ele>234.0</ele><time>2026-04-05T16:23:49.001Z</time></trkpt><trkpt lat="45.66346589889719" lon="9.705340807559974"><ele>234.0</ele><time>2026-04-05T16:23:50.001Z</time></trkpt><trkpt lat="45.66353835431106" lon="9.704961993149746"><ele>234.0</ele><time>2026-04-05T16:23:51.001Z</time></trkpt><trkpt lat="45.663609749412316" lon="9.70458241661297"><ele>234.0</ele><time>2026-04-05T16:23:52.001Z</time></trkpt><trkpt lat="45.66368040926754" lon="9.704203923318007"><ele>234.0</ele><time>2026-04-05T16:23:53.001Z</time></trkpt><trkpt lat="45.66375420488714" lon="9.70382713215658"><ele>234.0</ele><time>2026-04-05T16:23:54.001Z</time></trkpt><trkpt lat="45.66382982804803" lon="9.703451866583302"><ele>234.0</ele><time>2026-04-05T16:23:55.001Z</time></trkpt><trkpt lat="45.66390266054195" lon="9.703077855828058"><ele>234.0</ele><time>2026-04-05T16:23:56.001Z</time></trkpt><trkpt lat="45.66397195311493" lon="9.702705613083374"><ele>234.0</ele><time>2026-04-05T16:23:57.001Z</time></trkpt><trkpt lat="45.664042755355865" lon="9.702333946215129"><ele>234.0</ele><time>2026-04-05T16:23:58.001Z</time></trkpt><trkpt lat="45.664113025524216" lon="9.701963340885671"><ele>233.5</ele><time>2026-04-05T16:23:59.001Z</time></trkpt><trkpt lat="45.66418122305569" lon="9.701590547532746"><ele>233.0</ele><time>2026-04-05T16:24:00.001Z</time></trkpt><trkpt lat="45.66424536247225" lon="9.70121638718382"><ele>233.0</ele><time>2026-04-05T16:24:01.001Z</time></trkpt><trkpt lat="45.66430756709781" lon="9.700846668079434"><ele>233.0</ele><time>2026-04-05T16:24:02.001Z</time></trkpt><trkpt lat="45.66437196994503" lon="9.700490561466138"><ele>233.0</ele><time>2026-04-05T16:24:03.001Z</time></trkpt><trkpt lat="45.66444173661121" lon="9.700132298751557"><ele>233.0</ele><time>2026-04-05T16:24:04.001Z</time></trkpt><trkpt lat="45.66451035511484" lon="9.699769803693892"><ele>234.0</ele><time>2026-04-05T16:24:05.001Z</time></trkpt><trkpt lat="45.66457852916531" lon="9.69940229449082"><ele>235.0</ele><time>2026-04-05T16:24:06.001Z</time></trkpt><trkpt lat="45.66464608704622" lon="9.699029891539036"><ele>235.0</ele><time>2026-04-05T16:24:07.001Z</time></trkpt><trkpt lat="45.664716285984085" lon="9.69865856931956"><ele>235.0</ele><time>2026-04-05T16:24:08.001Z</time></trkpt><trkpt lat="45.66478757504357" lon="9.698283717363804"><ele>234.0</ele><time>2026-04-05T16:24:09.001Z</time></trkpt><trkpt lat="45.66485859157257" lon="9.697906727407583"><ele>233.0</ele><time>2026-04-05T16:24:10.001Z</time></trkpt><trkpt lat="45.66492841373299" lon="9.697530285051055"><ele>232.5</ele><time>2026-04-05T16:24:11.001Z</time></trkpt><trkpt lat="45.66499593001685" lon="9.697155490284972"><ele>232.0</ele><time>2026-04-05T16:24:12.001Z</time></trkpt><trkpt lat="45.66506225824348" lon="9.696786197296866"><ele>232.0</ele><time>2026-04-05T16:24:13.001Z</time></trkpt><trkpt lat="45.66512917320167" lon="9.696434573027167"><ele>232.0</ele><time>2026-04-05T16:24:14.001Z</time></trkpt><trkpt lat="45.665193766664366" lon="9.696091141209967"><ele>233.0</ele><time>2026-04-05T16:24:15.001Z</time></trkpt><trkpt lat="45.665256810740146" lon="9.695747347750396"><ele>234.0</ele><time>2026-04-05T16:24:16.001Z</time></trkpt><trkpt lat="45.66531986893065" lon="9.695405528622693"><ele>233.5</ele><time>2026-04-05T16:24:17.001Z</time></trkpt><trkpt lat="45.66538366419391" lon="9.695063119933076"><ele>233.0</ele><time>2026-04-05T16:24:18.001Z</time></trkpt><trkpt lat="45.66544853462684" lon="9.694721040593006"><ele>232.5</ele><time>2026-04-05T16:24:19.001Z</time></trkpt><trkpt lat="45.66552175025271" lon="9.694359777175332"><ele>232.0</ele><time>2026-04-05T16:24:20.001Z</time></trkpt><trkpt lat="45.66560267104514" lon="9.693986214967223"><ele>232.0</ele><time>2026-04-05T16:24:21.001Z</time></trkpt><trkpt lat="45.665680696299056" lon="9.693594730476882"><ele>232.0</ele><time>2026-04-05T16:24:22.001Z</time></trkpt><trkpt lat="45.665754584017414" lon="9.69318906599047"><ele>232.0</ele><time>2026-04-05T16:24:23.002Z</time></trkpt><trkpt lat="45.66582741754887" lon="9.69277551230514"><ele>232.0</ele><time>2026-04-05T16:24:24.002Z</time></trkpt><trkpt lat="45.66590054605938" lon="9.692356037839547"><ele>232.5</ele><time>2026-04-05T16:24:25.002Z</time></trkpt><trkpt lat="45.66597095653783" lon="9.691933169148859"><ele>233.0</ele><time>2026-04-05T16:24:26.002Z</time></trkpt><trkpt lat="45.66604228046307" lon="9.691513781651492"><ele>232.5</ele><time>2026-04-05T16:24:27.002Z</time></trkpt><trkpt lat="45.666112352961456" lon="9.6911263732386"><ele>232.0</ele><time>2026-04-05T16:24:28.002Z</time></trkpt><trkpt lat="45.666180517533796" lon="9.690753313216918"><ele>232.0</ele><time>2026-04-05T16:24:29.002Z</time></trkpt><trkpt lat="45.666252369737784" lon="9.690380064476738"><ele>232.0</ele><time>2026-04-05T16:24:30Z</time></trkpt><trkpt lat="45.66631729868939" lon="9.690028099598502"><ele>232.0</ele><time>2026-04-05T16:24:31Z</time></trkpt><trkpt lat="45.66638590086901" lon="9.689667516571175"><ele>232.0</ele><time>2026-04-05T16:24:32Z</time></trkpt><trkpt lat="45.66645311635057" lon="9.689300903700389"><ele>232.0</ele><time>2026-04-05T16:24:33Z</time></trkpt><trkpt lat="45.66652203598986" lon="9.688938336346258"><ele>232.0</ele><time>2026-04-05T16:24:34Z</time></trkpt><trkpt lat="45.66659558349765" lon="9.688570479808018"><ele>232.0</ele><time>2026-04-05T16:24:35Z</time></trkpt><trkpt lat="45.66666410568329" lon="9.68819409888975"><ele>232.0</ele><time>2026-04-05T16:24:36Z</time></trkpt><trkpt lat="45.66673266752763" lon="9.68782544556309"><ele>231.5</ele><time>2026-04-05T16:24:37Z</time></trkpt><trkpt lat="45.66679850668004" lon="9.687456747008415"><ele>231.0</ele><time>2026-04-05T16:24:38Z</time></trkpt><trkpt lat="45.66686406797334" lon="9.687096467147915"><ele>231.5</ele><time>2026-04-05T16:24:39Z</time></trkpt><trkpt lat="45.66693842438563" lon="9.686736261245645"><ele>232.0</ele><time>2026-04-05T16:24:40Z</time></trkpt><trkpt lat="45.66701896253771" lon="9.686364932229223"><ele>233.0</ele><time>2026-04-05T16:24:41Z</time></trkpt><trkpt lat="45.66709630412185" lon="9.685983068832916"><ele>234.0</ele><time>2026-04-05T16:24:42Z</time></trkpt><trkpt lat="45.66716750855503" lon="9.685596656938754"><ele>234.5</ele><time>2026-04-05T16:24:43Z</time></trkpt><trkpt lat="45.66723633747227" lon="9.685213551651232"><ele>235.0</ele><time>2026-04-05T16:24:44Z</time></trkpt><trkpt lat="45.667306735747324" lon="9.684819805102903"><ele>234.0</ele><time>2026-04-05T16:24:45Z</time></trkpt><trkpt lat="45.66737445163641" lon="9.684414751510454"><ele>233.0</ele><time>2026-04-05T16:24:46Z</time></trkpt><trkpt lat="45.667440931801096" lon="9.684001188116103"><ele>233.5</ele><time>2026-04-05T16:24:47Z</time></trkpt><trkpt lat="45.66751689430442" lon="9.683583016982928"><ele>234.0</ele><time>2026-04-05T16:24:48Z</time></trkpt><trkpt lat="45.66759942701278" lon="9.683162845855064"><ele>233.0</ele><time>2026-04-05T16:24:49Z</time></trkpt><trkpt lat="45.66768590833408" lon="9.682738116289036"><ele>232.0</ele><time>2026-04-05T16:24:50Z</time></trkpt><trkpt lat="45.66777767367513" lon="9.682310532749145"><ele>234.5</ele><time>2026-04-05T16:24:51Z</time></trkpt><trkpt lat="45.66786181853854" lon="9.681882911766271"><ele>237.0</ele><time>2026-04-05T16:24:52Z</time></trkpt><trkpt lat="45.66794168529641" lon="9.681455216219087"><ele>235.5</ele><time>2026-04-05T16:24:53Z</time></trkpt><trkpt lat="45.66802047275699" lon="9.68103242955959"><ele>234.0</ele><time>2026-04-05T16:24:54Z</time></trkpt><trkpt lat="45.66809941383898" lon="9.680612413368946"><ele>233.0</ele><time>2026-04-05T16:24:55Z</time></trkpt><trkpt lat="45.66817552052525" lon="9.680200479820089"><ele>232.0</ele><time>2026-04-05T16:24:56Z</time></trkpt><trkpt lat="45.668248907491474" lon="9.679799680063864"><ele>232.5</ele><time>2026-04-05T16:24:57Z</time></trkpt><trkpt lat="45.668322769435925" lon="9.679402938588053"><ele>233.0</ele><time>2026-04-05T16:24:58Z</time></trkpt><trkpt lat="45.66839540573896" lon="9.679016099225725"><ele>233.0</ele><time>2026-04-05T16:24:59Z</time></trkpt><trkpt lat="45.66846894725664" lon="9.678635233199376"><ele>233.0</ele><time>2026-04-05T16:25:00Z</time></trkpt><trkpt lat="45.66854298803141" lon="9.678254692854408"><ele>233.5</ele><time>2026-04-05T16:25:01Z</time></trkpt><trkpt lat="45.668614423605824" lon="9.677872423716874"><ele>234.0</ele><time>2026-04-05T16:25:02Z</time></trkpt><trkpt lat="45.66868760051373" lon="9.677483017116131"><ele>234.0</ele><time>2026-04-05T16:25:03Z</time></trkpt><trkpt lat="45.668763516611" lon="9.677091337505193"><ele>234.0</ele><time>2026-04-05T16:25:04Z</time></trkpt><trkpt lat="45.66884423989333" lon="9.676698214640908"><ele>234.0</ele><time>2026-04-05T16:25:05Z</time></trkpt><trkpt lat="45.66892794796239" lon="9.67630294528483"><ele>234.0</ele><time>2026-04-05T16:25:06Z</time></trkpt><trkpt lat="45.66900820884291" lon="9.675903707432223"><ele>234.0</ele><time>2026-04-05T16:25:07Z</time></trkpt><trkpt lat="45.669081325872654" lon="9.67550447399065"><ele>234.0</ele><time>2026-04-05T16:25:08Z</time></trkpt><trkpt lat="45.66915179962082" lon="9.675104070139108"><ele>232.5</ele><time>2026-04-05T16:25:09Z</time></trkpt><trkpt lat="45.669224594476994" lon="9.674694543662433"><ele>231.0</ele><time>2026-04-05T16:25:10Z</time></trkpt><trkpt lat="45.669296641450785" lon="9.674293376938381"><ele>230.0</ele><time>2026-04-05T16:25:11Z</time></trkpt><trkpt lat="45.66937220767341" lon="9.673893723912782"><ele>229.0</ele><time>2026-04-05T16:25:12Z</time></trkpt><trkpt lat="45.66944703141115" lon="9.673486104005297"><ele>229.0</ele><time>2026-04-05T16:25:13.001Z</time></trkpt><trkpt lat="45.66952310488724" lon="9.673080914139897"><ele>229.0</ele><time>2026-04-05T16:25:14.001Z</time></trkpt><trkpt lat="45.6696008991503" lon="9.672675312823069"><ele>230.0</ele><time>2026-04-05T16:25:15.001Z</time></trkpt><trkpt lat="45.66967802737811" lon="9.67226837817631"><ele>231.0</ele><time>2026-04-05T16:25:16.001Z</time></trkpt><trkpt lat="45.66975315760461" lon="9.671863463502799"><ele>231.0</ele><time>2026-04-05T16:25:17.001Z</time></trkpt><trkpt lat="45.669827169506235" lon="9.671464963220988"><ele>231.0</ele><time>2026-04-05T16:25:18.001Z</time></trkpt><trkpt lat="45.66989498506427" lon="9.671089176908895"><ele>231.0</ele><time>2026-04-05T16:25:19.001Z</time></trkpt><trkpt lat="45.669953300543945" lon="9.670725195861623"><ele>231.0</ele><time>2026-04-05T16:25:20.001Z</time></trkpt><trkpt lat="45.66999532587547" lon="9.670364540887862"><ele>230.0</ele><time>2026-04-05T16:25:21.001Z</time></trkpt><trkpt lat="45.670021899879664" lon="9.66999654990777"><ele>229.0</ele><time>2026-04-05T16:25:22.001Z</time></trkpt><trkpt lat="45.670034463964264" lon="9.66961874261092"><ele>228.0</ele><time>2026-04-05T16:25:23.001Z</time></trkpt><trkpt lat="45.67003287926576" lon="9.66923703639677"><ele>227.0</ele><time>2026-04-05T16:25:24.001Z</time></trkpt><trkpt lat="45.670016092179296" lon="9.668854598746806"><ele>228.0</ele><time>2026-04-05T16:25:25.001Z</time></trkpt><trkpt lat="45.66998095532369" lon="9.668471305160796"><ele>229.0</ele><time>2026-04-05T16:25:26.001Z</time></trkpt><trkpt lat="45.66992947682154" lon="9.668089993195908"><ele>229.5</ele><time>2026-04-05T16:25:27.001Z</time></trkpt><trkpt lat="45.66986804469067" lon="9.667711263636376"><ele>230.0</ele><time>2026-04-05T16:25:28.001Z</time></trkpt><trkpt lat="45.66978835410057" lon="9.667335099946113"><ele>230.0</ele><time>2026-04-05T16:25:29.001Z</time></trkpt><trkpt lat="45.66968795405393" lon="9.666968721104878"><ele>230.0</ele><time>2026-04-05T16:25:30.001Z</time></trkpt><trkpt lat="45.66957351957032" lon="9.666609680649243"><ele>229.0</ele><time>2026-04-05T16:25:31.001Z</time></trkpt><trkpt lat="45.66944557763693" lon="9.666271586863292"><ele>228.0</ele><time>2026-04-05T16:25:32.001Z</time></trkpt><trkpt lat="45.66930420211552" lon="9.665953605705798"><ele>227.5</ele><time>2026-04-05T16:25:33.001Z</time></trkpt><trkpt lat="45.66914915103305" lon="9.665646958176037"><ele>227.0</ele><time>2026-04-05T16:25:34.001Z</time></trkpt><trkpt lat="45.66898767117996" lon="9.665349746184079"><ele>227.5</ele><time>2026-04-05T16:25:35.001Z</time></trkpt><trkpt lat="45.668823972891914" lon="9.66505200173162"><ele>228.0</ele><time>2026-04-05T16:25:36.001Z</time></trkpt><trkpt lat="45.66866129503939" lon="9.66475550746169"><ele>226.5</ele><time>2026-04-05T16:25:37.001Z</time></trkpt><trkpt lat="45.668493283747104" lon="9.664459032105675"><ele>225.0</ele><time>2026-04-05T16:25:38.001Z</time></trkpt><trkpt lat="45.668321317185075" lon="9.66415959174769"><ele>224.5</ele><time>2026-04-05T16:25:39.001Z</time></trkpt><trkpt lat="45.668143706620164" lon="9.663853496751834"><ele>224.0</ele><time>2026-04-05T16:25:40.001Z</time></trkpt><trkpt lat="45.66796709216125" lon="9.66353699764333"><ele>224.0</ele><time>2026-04-05T16:25:41.001Z</time></trkpt><trkpt lat="45.66778855291795" lon="9.663216653131537"><ele>224.0</ele><time>2026-04-05T16:25:42.001Z</time></trkpt><trkpt lat="45.66761192458566" lon="9.662891176650156"><ele>224.5</ele><time>2026-04-05T16:25:43.001Z</time></trkpt><trkpt lat="45.66743529414569" lon="9.662563465007667"><ele>225.0</ele><time>2026-04-05T16:25:44.001Z</time></trkpt><trkpt lat="45.667252995119334" lon="9.662234949819387"><ele>225.0</ele><time>2026-04-05T16:25:45.001Z</time></trkpt><trkpt lat="45.667070278663275" lon="9.661902780831129"><ele>225.0</ele><time>2026-04-05T16:25:46.001Z</time></trkpt><trkpt lat="45.66688571735457" lon="9.661570428836006"><ele>225.0</ele><time>2026-04-05T16:25:47.001Z</time></trkpt><trkpt lat="45.666701339577" lon="9.661238704543825"><ele>225.0</ele><time>2026-04-05T16:25:48.001Z</time></trkpt><trkpt lat="45.66651870556455" lon="9.660910793236178"><ele>223.5</ele><time>2026-04-05T16:25:49.001Z</time></trkpt><trkpt lat="45.66633526849286" lon="9.66058372070407"><ele>222.0</ele><time>2026-04-05T16:25:50.001Z</time></trkpt><trkpt lat="45.666153951483714" lon="9.6602573178795"><ele>221.5</ele><time>2026-04-05T16:25:51.001Z</time></trkpt><trkpt lat="45.66596171928626" lon="9.659920029236677"><ele>221.0</ele><time>2026-04-05T16:25:52.001Z</time></trkpt><trkpt lat="45.66575728297226" lon="9.659573091022143"><ele>221.5</ele><time>2026-04-05T16:25:53.001Z</time></trkpt><trkpt lat="45.6655508764708" lon="9.65922039029436"><ele>222.0</ele><time>2026-04-05T16:25:54.001Z</time></trkpt><trkpt lat="45.665347324866126" lon="9.658859190255425"><ele>222.0</ele><time>2026-04-05T16:25:55.001Z</time></trkpt><trkpt lat="45.66514113139278" lon="9.658490189092948"><ele>222.0</ele><time>2026-04-05T16:25:56.001Z</time></trkpt><trkpt lat="45.66493387812579" lon="9.658114096601336"><ele>220.5</ele><time>2026-04-05T16:25:57.001Z</time></trkpt><trkpt lat="45.66472414594869" lon="9.657730139339856"><ele>219.0</ele><time>2026-04-05T16:25:58.001Z</time></trkpt><trkpt lat="45.664513848870754" lon="9.657344908540686"><ele>218.5</ele><time>2026-04-05T16:25:59.001Z</time></trkpt><trkpt lat="45.66430838436359" lon="9.656968162197153"><ele>218.0</ele><time>2026-04-05T16:26:00.001Z</time></trkpt><trkpt lat="45.66410909355427" lon="9.656600120453524"><ele>218.0</ele><time>2026-04-05T16:26:01.001Z</time></trkpt><trkpt lat="45.663910395360716" lon="9.656236116932485"><ele>218.0</ele><time>2026-04-05T16:26:02.001Z</time></trkpt><trkpt lat="45.66371871097086" lon="9.655879774978123"><ele>216.5</ele><time>2026-04-05T16:26:03.001Z</time></trkpt><trkpt lat="45.66353437426287" lon="9.655531238479425"><ele>215.0</ele><time>2026-04-05T16:26:04.002Z</time></trkpt><trkpt lat="45.66335126956291" lon="9.65518875389247"><ele>215.0</ele><time>2026-04-05T16:26:05.002Z</time></trkpt><trkpt lat="45.66316674180968" lon="9.654852464025737"><ele>215.0</ele><time>2026-04-05T16:26:06.002Z</time></trkpt><trkpt lat="45.66297947624246" lon="9.654514642700475"><ele>215.5</ele><time>2026-04-05T16:26:07.002Z</time></trkpt><trkpt lat="45.662790841112404" lon="9.654177484725453"><ele>216.0</ele><time>2026-04-05T16:26:08.002Z</time></trkpt><trkpt lat="45.66260765337499" lon="9.65384148634312"><ele>215.5</ele><time>2026-04-05T16:26:09.002Z</time></trkpt><trkpt lat="45.6624229636882" lon="9.653507472319403"><ele>215.0</ele><time>2026-04-05T16:26:10.002Z</time></trkpt><trkpt lat="45.662241447389306" lon="9.653176623814092"><ele>215.0</ele><time>2026-04-05T16:26:11.002Z</time></trkpt><trkpt lat="45.66206206874648" lon="9.652853885195436"><ele>215.0</ele><time>2026-04-05T16:26:12.002Z</time></trkpt><trkpt lat="45.66188671873514" lon="9.65253460197091"><ele>215.0</ele><time>2026-04-05T16:26:13.002Z</time></trkpt><trkpt lat="45.66171567929547" lon="9.652222113747735"><ele>215.0</ele><time>2026-04-05T16:26:14.002Z</time></trkpt><trkpt lat="45.66154866996003" lon="9.651911943170903"><ele>215.0</ele><time>2026-04-05T16:26:15.002Z</time></trkpt><trkpt lat="45.661382436740965" lon="9.651600609470988"><ele>215.0</ele><time>2026-04-05T16:26:16.002Z</time></trkpt><trkpt lat="45.661215314064" lon="9.651278243731445"><ele>215.5</ele><time>2026-04-05T16:26:17.002Z</time></trkpt><trkpt lat="45.66104146557845" lon="9.650949744631555"><ele>216.0</ele><time>2026-04-05T16:26:18.002Z</time></trkpt><trkpt lat="45.66086402536443" lon="9.650626446187847"><ele>216.0</ele><time>2026-04-05T16:26:19.002Z</time></trkpt><trkpt lat="45.66069140220893" lon="9.650306430311439"><ele>216.0</ele><time>2026-04-05T16:26:20.002Z</time></trkpt><trkpt lat="45.66052440632999" lon="9.649996562970504"><ele>215.5</ele><time>2026-04-05T16:26:21.002Z</time></trkpt><trkpt lat="45.660356662075316" lon="9.649695001740952"><ele>215.0</ele><time>2026-04-05T16:26:22.002Z</time></trkpt><trkpt lat="45.66018855351077" lon="9.64939618032112"><ele>211.5</ele><time>2026-04-05T16:26:23.002Z</time></trkpt><trkpt lat="45.660021903846015" lon="9.649102754267588"><ele>208.0</ele><time>2026-04-05T16:26:24.002Z</time></trkpt><trkpt lat="45.659851086399605" lon="9.648813660698568"><ele>207.5</ele><time>2026-04-05T16:26:25.002Z</time></trkpt><trkpt lat="45.65968059744048" lon="9.648520868572211"><ele>207.0</ele><time>2026-04-05T16:26:26.002Z</time></trkpt><trkpt lat="45.659514375038846" lon="9.648225558890788"><ele>207.5</ele><time>2026-04-05T16:26:27.002Z</time></trkpt><trkpt lat="45.65934481822192" lon="9.647925444110918"><ele>208.0</ele><time>2026-04-05T16:26:28.002Z</time></trkpt><trkpt lat="45.65917728810954" lon="9.647624728485935"><ele>208.0</ele><time>2026-04-05T16:26:29.002Z</time></trkpt><trkpt lat="45.65900952719212" lon="9.647322669153523"><ele>208.0</ele><time>2026-04-05T16:26:30.002Z</time></trkpt><trkpt lat="45.658837973944856" lon="9.647018923941777"><ele>207.5</ele><time>2026-04-05T16:26:31.002Z</time></trkpt><trkpt lat="45.65866083513543" lon="9.646701934445215"><ele>207.0</ele><time>2026-04-05T16:26:32.002Z</time></trkpt><trkpt lat="45.65847862945259" lon="9.646380810705669"><ele>207.5</ele><time>2026-04-05T16:26:33.002Z</time></trkpt><trkpt lat="45.65828704378615" lon="9.646048777813979"><ele>208.0</ele><time>2026-04-05T16:26:34.002Z</time></trkpt><trkpt lat="45.65808757863919" lon="9.645706874156403"><ele>208.0</ele><time>2026-04-05T16:26:35.002Z</time></trkpt><trkpt lat="45.65788818771107" lon="9.64535452319407"><ele>208.0</ele><time>2026-04-05T16:26:36.001Z</time></trkpt><trkpt lat="45.65768601276687" lon="9.644992737885259"><ele>208.0</ele><time>2026-04-05T16:26:37.001Z</time></trkpt><trkpt lat="45.65748114712881" lon="9.644620409379428"><ele>208.0</ele><time>2026-04-05T16:26:38.001Z</time></trkpt><trkpt lat="45.65727532460311" lon="9.644247006445305"><ele>208.0</ele><time>2026-04-05T16:26:39.001Z</time></trkpt><trkpt lat="45.65707092425492" lon="9.643874545964747"><ele>208.0</ele><time>2026-04-05T16:26:40.001Z</time></trkpt><trkpt lat="45.656866080988756" lon="9.643506384194739"><ele>208.5</ele><time>2026-04-05T16:26:41.001Z</time></trkpt><trkpt lat="45.65666588846466" lon="9.643163455717083"><ele>209.0</ele><time>2026-04-05T16:26:42.001Z</time></trkpt><trkpt lat="45.65648604919426" lon="9.642835506742127"><ele>208.5</ele><time>2026-04-05T16:26:43.001Z</time></trkpt><trkpt lat="45.65630494072907" lon="9.64250679104717"><ele>208.0</ele><time>2026-04-05T16:26:44.001Z</time></trkpt><trkpt lat="45.65612202357614" lon="9.642176744087077"><ele>208.0</ele><time>2026-04-05T16:26:45.001Z</time></trkpt><trkpt lat="45.65593675719793" lon="9.6418453193331"><ele>208.0</ele><time>2026-04-05T16:26:46.001Z</time></trkpt><trkpt lat="45.655753694465226" lon="9.641520308955466"><ele>208.0</ele><time>2026-04-05T16:26:47.001Z</time></trkpt><trkpt lat="45.65557256999563" lon="9.641181361120767"><ele>208.0</ele><time>2026-04-05T16:26:48.001Z</time></trkpt><trkpt lat="45.65538771319373" lon="9.640822713050026"><ele>206.5</ele><time>2026-04-05T16:26:49.001Z</time></trkpt><trkpt lat="45.65519203864922" lon="9.640461582533414"><ele>205.0</ele><time>2026-04-05T16:26:50.001Z</time></trkpt><trkpt lat="45.65499247693856" lon="9.640102824920879"><ele>205.0</ele><time>2026-04-05T16:26:51.001Z</time></trkpt><trkpt lat="45.65479642930556" lon="9.639752062256452"><ele>205.0</ele><time>2026-04-05T16:26:52.001Z</time></trkpt><trkpt lat="45.654605808333855" lon="9.639403336102333"><ele>205.0</ele><time>2026-04-05T16:26:53.001Z</time></trkpt><trkpt lat="45.65442059978022" lon="9.639056716108003"><ele>205.0</ele><time>2026-04-05T16:26:54.001Z</time></trkpt><trkpt lat="45.65423611142618" lon="9.638717700947355"><ele>204.0</ele><time>2026-04-05T16:26:55.001Z</time></trkpt><trkpt lat="45.65404962297281" lon="9.63838611663442"><ele>203.0</ele><time>2026-04-05T16:26:56.001Z</time></trkpt><trkpt lat="45.653859439191194" lon="9.63805211888889"><ele>202.5</ele><time>2026-04-05T16:26:57.001Z</time></trkpt><trkpt lat="45.65367292565402" lon="9.637712584082522"><ele>202.0</ele><time>2026-04-05T16:26:58.001Z</time></trkpt><trkpt lat="45.65348946551311" lon="9.6373679027036"><ele>202.0</ele><time>2026-04-05T16:26:59.001Z</time></trkpt><trkpt lat="45.653306992324985" lon="9.637023565708382"><ele>202.0</ele><time>2026-04-05T16:27:00.001Z</time></trkpt><trkpt lat="45.65312031909896" lon="9.636658763788464"><ele>202.5</ele><time>2026-04-05T16:27:01.001Z</time></trkpt><trkpt lat="45.652927163258354" lon="9.636275040209458"><ele>203.0</ele><time>2026-04-05T16:27:02.001Z</time></trkpt><trkpt lat="45.652722389409135" lon="9.63589148023092"><ele>203.0</ele><time>2026-04-05T16:27:03.001Z</time></trkpt><trkpt lat="45.65250230258766" lon="9.635505488060591"><ele>203.0</ele><time>2026-04-05T16:27:04.001Z</time></trkpt><trkpt lat="45.652276619200826" lon="9.63511246509151"><ele>203.5</ele><time>2026-04-05T16:27:05.001Z</time></trkpt><trkpt lat="45.65204816285573" lon="9.634711422818354"><ele>204.0</ele><time>2026-04-05T16:27:06.001Z</time></trkpt><trkpt lat="45.65182840081548" lon="9.634318618445574"><ele>203.5</ele><time>2026-04-05T16:27:07.001Z</time></trkpt><trkpt lat="45.65161785989868" lon="9.633937719470389"><ele>203.0</ele><time>2026-04-05T16:27:08.001Z</time></trkpt><trkpt lat="45.65141587172761" lon="9.633571818415316"><ele>203.0</ele><time>2026-04-05T16:27:09.001Z</time></trkpt><trkpt lat="45.6512257775269" lon="9.633223745170158"><ele>203.0</ele><time>2026-04-05T16:27:10.001Z</time></trkpt><trkpt lat="45.65103760441812" lon="9.632885383521131"><ele>201.5</ele><time>2026-04-05T16:27:11.001Z</time></trkpt><trkpt lat="45.65085247085852" lon="9.63255516309379"><ele>200.0</ele><time>2026-04-05T16:27:12.001Z</time></trkpt><trkpt lat="45.6506797490342" lon="9.63224101783295"><ele>201.0</ele><time>2026-04-05T16:27:13.001Z</time></trkpt><trkpt lat="45.65051294666525" lon="9.63193774395228"><ele>202.0</ele><time>2026-04-05T16:27:14.001Z</time></trkpt><trkpt lat="45.65034498829875" lon="9.631633448394728"><ele>201.0</ele><time>2026-04-05T16:27:15.001Z</time></trkpt><trkpt lat="45.6501730656872" lon="9.6313297399802"><ele>200.0</ele><time>2026-04-05T16:27:16.001Z</time></trkpt><trkpt lat="45.65000018836846" lon="9.631019740140156"><ele>199.5</ele><time>2026-04-05T16:27:17.001Z</time></trkpt><trkpt lat="45.64982620904381" lon="9.630707363745728"><ele>199.0</ele><time>2026-04-05T16:27:18.001Z</time></trkpt><trkpt lat="45.64964843650682" lon="9.63039541114766"><ele>199.5</ele><time>2026-04-05T16:27:19.001Z</time></trkpt><trkpt lat="45.64946773379014" lon="9.630078124331543"><ele>200.0</ele><time>2026-04-05T16:27:20.001Z</time></trkpt><trkpt lat="45.649288573603584" lon="9.629754114825046"><ele>200.5</ele><time>2026-04-05T16:27:21.001Z</time></trkpt><trkpt lat="45.64910898418966" lon="9.629429224113307"><ele>201.0</ele><time>2026-04-05T16:27:22.001Z</time></trkpt><trkpt lat="45.64892788525149" lon="9.629100330565437"><ele>201.0</ele><time>2026-04-05T16:27:23.001Z</time></trkpt><trkpt lat="45.648747020522016" lon="9.628772110862533"><ele>201.0</ele><time>2026-04-05T16:27:24.001Z</time></trkpt><trkpt lat="45.64856247500123" lon="9.628437642978225"><ele>200.5</ele><time>2026-04-05T16:27:25.001Z</time></trkpt><trkpt lat="45.648376217859415" lon="9.628103008015696"><ele>200.0</ele><time>2026-04-05T16:27:26.001Z</time></trkpt><trkpt lat="45.648188804680196" lon="9.627766256372453"><ele>200.0</ele><time>2026-04-05T16:27:27.001Z</time></trkpt><trkpt lat="45.648000232310366" lon="9.627429864769598"><ele>200.0</ele><time>2026-04-05T16:27:28.001Z</time></trkpt><trkpt lat="45.64781266103247" lon="9.627093320008624"><ele>199.0</ele><time>2026-04-05T16:27:29.001Z</time></trkpt><trkpt lat="45.647625130198364" lon="9.62675524006926"><ele>198.0</ele><time>2026-04-05T16:27:30.001Z</time></trkpt><trkpt lat="45.647437393583324" lon="9.626413610686138"><ele>198.0</ele><time>2026-04-05T16:27:31.001Z</time></trkpt><trkpt lat="45.64725204614209" lon="9.626071384949018"><ele>198.0</ele><time>2026-04-05T16:27:32.001Z</time></trkpt><trkpt lat="45.64706582974141" lon="9.625731816977584"><ele>198.0</ele><time>2026-04-05T16:27:33.001Z</time></trkpt><trkpt lat="45.64687303486465" lon="9.625398217615016"><ele>198.0</ele><time>2026-04-05T16:27:34.001Z</time></trkpt><trkpt lat="45.646684145727946" lon="9.625065381468879"><ele>198.0</ele><time>2026-04-05T16:27:35.001Z</time></trkpt><trkpt lat="45.646497942809354" lon="9.624725042435811"><ele>198.0</ele><time>2026-04-05T16:27:36.001Z</time></trkpt><trkpt lat="45.646311467018066" lon="9.62438114781268"><ele>198.0</ele><time>2026-04-05T16:27:37.001Z</time></trkpt><trkpt lat="45.6461229330612" lon="9.62403785470657"><ele>198.0</ele><time>2026-04-05T16:27:38.001Z</time></trkpt><trkpt lat="45.64593338666468" lon="9.623695496676183"><ele>199.0</ele><time>2026-04-05T16:27:39.001Z</time></trkpt><trkpt lat="45.645747186941406" lon="9.623353257860924"><ele>200.0</ele><time>2026-04-05T16:27:40.001Z</time></trkpt><trkpt lat="45.645562628437574" lon="9.623012455713523"><ele>200.0</ele><time>2026-04-05T16:27:41.001Z</time></trkpt><trkpt lat="45.64537313753953" lon="9.622673031411486"><ele>200.0</ele><time>2026-04-05T16:27:42.001Z</time></trkpt><trkpt lat="45.64518483916635" lon="9.62233561078906"><ele>199.5</ele><time>2026-04-05T16:27:43.001Z</time></trkpt><trkpt lat="45.645001708611694" lon="9.621998278558781"><ele>199.0</ele><time>2026-04-05T16:27:44.001Z</time></trkpt><trkpt lat="45.644815441314186" lon="9.621663234237413"><ele>198.5</ele><time>2026-04-05T16:27:45.001Z</time></trkpt><trkpt lat="45.64463523431184" lon="9.62133545113564"><ele>198.0</ele><time>2026-04-05T16:27:46.001Z</time></trkpt><trkpt lat="45.6444551954806" lon="9.62101047753008"><ele>197.5</ele><time>2026-04-05T16:27:47.001Z</time></trkpt><trkpt lat="45.644271250815216" lon="9.620685774725088"><ele>197.0</ele><time>2026-04-05T16:27:48.001Z</time></trkpt><trkpt lat="45.644089315509184" lon="9.620352654560053"><ele>198.0</ele><time>2026-04-05T16:27:49.001Z</time></trkpt><trkpt lat="45.64390612370045" lon="9.620014096094366"><ele>199.0</ele><time>2026-04-05T16:27:50.001Z</time></trkpt><trkpt lat="45.643716498141664" lon="9.619663574325939"><ele>198.0</ele><time>2026-04-05T16:27:51.001Z</time></trkpt><trkpt lat="45.643529697267944" lon="9.619310592622359"><ele>197.0</ele><time>2026-04-05T16:27:52.001Z</time></trkpt><trkpt lat="45.64333470945234" lon="9.618958193359706"><ele>197.5</ele><time>2026-04-05T16:27:53.001Z</time></trkpt><trkpt lat="45.64313873326179" lon="9.61860457852819"><ele>198.0</ele><time>2026-04-05T16:27:54.001Z</time></trkpt><trkpt lat="45.6429463154574" lon="9.618253911774277"><ele>197.5</ele><time>2026-04-05T16:27:55.001Z</time></trkpt><trkpt lat="45.64275102681346" lon="9.617905981376554"><ele>197.0</ele><time>2026-04-05T16:27:56.002Z</time></trkpt><trkpt lat="45.642554664689726" lon="9.617557585475954"><ele>198.0</ele><time>2026-04-05T16:27:57.002Z</time></trkpt><trkpt lat="45.64236096726434" lon="9.617202957597973"><ele>199.0</ele><time>2026-04-05T16:27:58.002Z</time></trkpt><trkpt lat="45.642164394889846" lon="9.616850461162118"><ele>199.0</ele><time>2026-04-05T16:27:59.002Z</time></trkpt><trkpt lat="45.64197111150652" lon="9.616500634654333"><ele>199.0</ele><time>2026-04-05T16:28:00.002Z</time></trkpt><trkpt lat="45.641777569662516" lon="9.616147477284427"><ele>199.5</ele><time>2026-04-05T16:28:01.002Z</time></trkpt><trkpt lat="45.64158421772063" lon="9.61579697651918"><ele>200.0</ele><time>2026-04-05T16:28:02.002Z</time></trkpt><trkpt lat="45.64138890269865" lon="9.615449436615652"><ele>199.0</ele><time>2026-04-05T16:28:03.002Z</time></trkpt><trkpt lat="45.64119358878464" lon="9.615101981041127"><ele>198.0</ele><time>2026-04-05T16:28:04.002Z</time></trkpt><trkpt lat="45.64100096400981" lon="9.614756115802187"><ele>197.5</ele><time>2026-04-05T16:28:05.002Z</time></trkpt><trkpt lat="45.64080806261497" lon="9.614410596020724"><ele>197.0</ele><time>2026-04-05T16:28:06.002Z</time></trkpt><trkpt lat="45.64061460879194" lon="9.614065791241018"><ele>197.0</ele><time>2026-04-05T16:28:07.002Z</time></trkpt><trkpt lat="45.64042373567164" lon="9.613722405316283"><ele>197.0</ele><time>2026-04-05T16:28:08.002Z</time></trkpt><trkpt lat="45.64023064427862" lon="9.613378534268325"><ele>197.5</ele><time>2026-04-05T16:28:09.002Z</time></trkpt><trkpt lat="45.640039015444906" lon="9.613037913903932"><ele>198.0</ele><time>2026-04-05T16:28:10.002Z</time></trkpt><trkpt lat="45.639848414552525" lon="9.612694318974896"><ele>198.5</ele><time>2026-04-05T16:28:11.002Z</time></trkpt><trkpt lat="45.639653746282434" lon="9.612347058980907"><ele>199.0</ele><time>2026-04-05T16:28:12.002Z</time></trkpt><trkpt lat="45.63945887396269" lon="9.61199760268968"><ele>198.5</ele><time>2026-04-05T16:28:13.002Z</time></trkpt><trkpt lat="45.639264531324166" lon="9.611644672094247"><ele>198.0</ele><time>2026-04-05T16:28:14.002Z</time></trkpt><trkpt lat="45.63906986943854" lon="9.611290074140534"><ele>197.5</ele><time>2026-04-05T16:28:15.002Z</time></trkpt><trkpt lat="45.63887159296497" lon="9.610934485895246"><ele>197.0</ele><time>2026-04-05T16:28:16.002Z</time></trkpt><trkpt lat="45.63867397215758" lon="9.610576744359374"><ele>197.5</ele><time>2026-04-05T16:28:17.002Z</time></trkpt><trkpt lat="45.63847381771807" lon="9.610222258673835"><ele>198.0</ele><time>2026-04-05T16:28:18.002Z</time></trkpt><trkpt lat="45.638271259098715" lon="9.609869473410152"><ele>198.0</ele><time>2026-04-05T16:28:19.002Z</time></trkpt><trkpt lat="45.63806688400749" lon="9.609517148033667"><ele>198.0</ele><time>2026-04-05T16:28:20.002Z</time></trkpt><trkpt lat="45.63786419506027" lon="9.609162830341031"><ele>196.5</ele><time>2026-04-05T16:28:21.002Z</time></trkpt><trkpt lat="45.637661529312766" lon="9.608805571470349"><ele>195.0</ele><time>2026-04-05T16:28:22.002Z</time></trkpt><trkpt lat="45.63746294978325" lon="9.608447394749254"><ele>195.0</ele><time>2026-04-05T16:28:23.002Z</time></trkpt><trkpt lat="45.63726266687124" lon="9.608086212799693"><ele>195.0</ele><time>2026-04-05T16:28:24.002Z</time></trkpt><trkpt lat="45.63706044047769" lon="9.607724266844254"><ele>197.0</ele><time>2026-04-05T16:28:25.002Z</time></trkpt><trkpt lat="45.636853918362824" lon="9.607362140619161"><ele>199.0</ele><time>2026-04-05T16:28:26.002Z</time></trkpt><trkpt lat="45.63665176453961" lon="9.60699543151696"><ele>201.0</ele><time>2026-04-05T16:28:27.002Z</time></trkpt><trkpt lat="45.6364450377326" lon="9.60662937541112"><ele>203.0</ele><time>2026-04-05T16:28:28.002Z</time></trkpt><trkpt lat="45.63624159364329" lon="9.606262703006504"><ele>198.5</ele><time>2026-04-05T16:28:29.002Z</time></trkpt><trkpt lat="45.63603910615545" lon="9.60589718533382"><ele>194.0</ele><time>2026-04-05T16:28:30.002Z</time></trkpt><trkpt lat="45.6358349512297" lon="9.60553107347957"><ele>195.5</ele><time>2026-04-05T16:28:31.002Z</time></trkpt><trkpt lat="45.63562887110057" lon="9.605165786727246"><ele>197.0</ele><time>2026-04-05T16:28:32.002Z</time></trkpt><trkpt lat="45.635424307305925" lon="9.60479760682871"><ele>197.5</ele><time>2026-04-05T16:28:33.002Z</time></trkpt><trkpt lat="45.635221077111744" lon="9.604432730278747"><ele>198.0</ele><time>2026-04-05T16:28:34.002Z</time></trkpt><trkpt lat="45.63501971002567" lon="9.604064884024492"><ele>198.0</ele><time>2026-04-05T16:28:35.002Z</time></trkpt><trkpt lat="45.63481889979774" lon="9.60370026530223"><ele>198.0</ele><time>2026-04-05T16:28:36.002Z</time></trkpt><trkpt lat="45.63461836960312" lon="9.603338583113109"><ele>195.0</ele><time>2026-04-05T16:28:37.002Z</time></trkpt><trkpt lat="45.63442244086476" lon="9.602987465447452"><ele>192.0</ele><time>2026-04-05T16:28:38.002Z</time></trkpt><trkpt lat="45.63422812573465" lon="9.602637283727509"><ele>192.0</ele><time>2026-04-05T16:28:39.002Z</time></trkpt><trkpt lat="45.6340343100119" lon="9.602283771352326"><ele>192.0</ele><time>2026-04-05T16:28:40.002Z</time></trkpt><trkpt lat="45.63383756891464" lon="9.601927611319084"><ele>192.0</ele><time>2026-04-05T16:28:41.001Z</time></trkpt><trkpt lat="45.63363968093247" lon="9.601570999771543"><ele>192.0</ele><time>2026-04-05T16:28:42.001Z</time></trkpt><trkpt lat="45.63344254275731" lon="9.601219542635764"><ele>190.0</ele><time>2026-04-05T16:28:43.001Z</time></trkpt><trkpt lat="45.63325129385905" lon="9.600876130358616"><ele>188.0</ele><time>2026-04-05T16:28:44.001Z</time></trkpt><trkpt lat="45.63306596845704" lon="9.600544296654029"><ele>188.5</ele><time>2026-04-05T16:28:45.001Z</time></trkpt><trkpt lat="45.63289040782674" lon="9.600229695660516"><ele>189.0</ele><time>2026-04-05T16:28:46.001Z</time></trkpt><trkpt lat="45.63272732728859" lon="9.59993051303039"><ele>189.0</ele><time>2026-04-05T16:28:47.001Z</time></trkpt><trkpt lat="45.63257844580091" lon="9.599645132710043"><ele>189.0</ele><time>2026-04-05T16:28:48.001Z</time></trkpt><trkpt lat="45.63242872870407" lon="9.599371330278236"><ele>188.5</ele><time>2026-04-05T16:28:49.001Z</time></trkpt><trkpt lat="45.632286865690276" lon="9.599105699662383"><ele>188.0</ele><time>2026-04-05T16:28:50.001Z</time></trkpt><trkpt lat="45.632151405659584" lon="9.59885371483442"><ele>188.33333333333331</ele><time>2026-04-05T16:28:51.001Z</time></trkpt><trkpt lat="45.63201479164965" lon="9.598605551446058"><ele>188.66666666666666</ele><time>2026-04-05T16:28:52.001Z</time></trkpt><trkpt lat="45.63187639827192" lon="9.59835283362723"><ele>189.0</ele><time>2026-04-05T16:28:53.001Z</time></trkpt><trkpt lat="45.631743779042594" lon="9.598096806884845"><ele>189.33333333333334</ele><time>2026-04-05T16:28:54.001Z</time></trkpt><trkpt lat="45.63161151350828" lon="9.597842995142162"><ele>189.66666666666669</ele><time>2026-04-05T16:28:55.001Z</time></trkpt><trkpt lat="45.631477508238355" lon="9.597600026523109"><ele>190.0</ele><time>2026-04-05T16:28:56.001Z</time></trkpt><trkpt lat="45.63134579096692" lon="9.597365105546116"><ele>190.33333333333334</ele><time>2026-04-05T16:28:57.001Z</time></trkpt><trkpt lat="45.63121228168875" lon="9.597129203352942"><ele>190.66666666666666</ele><time>2026-04-05T16:28:58.001Z</time></trkpt><trkpt lat="45.63107972665634" lon="9.596896468489676"><ele>191.0</ele><time>2026-04-05T16:28:59.001Z</time></trkpt><trkpt lat="45.63094882235475" lon="9.596670639471345"><ele>191.0</ele><time>2026-04-05T16:29:00.001Z</time></trkpt><trkpt lat="45.63082179646464" lon="9.596455091824529"><ele>191.0</ele><time>2026-04-05T16:29:01.001Z</time></trkpt><trkpt lat="45.63069396649188" lon="9.59624016468116"><ele>191.0</ele><time>2026-04-05T16:29:02.001Z</time></trkpt><trkpt lat="45.63056812003265" lon="9.596025348448352"><ele>191.0</ele><time>2026-04-05T16:29:03.001Z</time></trkpt><trkpt lat="45.63044123857683" lon="9.595807512534254"><ele>191.0</ele><time>2026-04-05T16:29:04.001Z</time></trkpt><trkpt lat="45.63031047495758" lon="9.595589618952657"><ele>191.0</ele><time>2026-04-05T16:29:05.001Z</time></trkpt><trkpt lat="45.63017730751444" lon="9.595363001281658"><ele>191.33333333333331</ele><time>2026-04-05T16:29:06.001Z</time></trkpt><trkpt lat="45.63003698576916" lon="9.59513533668042"><ele>191.66666666666666</ele><time>2026-04-05T16:29:07.001Z</time></trkpt><trkpt lat="45.62988947631191" lon="9.594903064238828"><ele>192.0</ele><time>2026-04-05T16:29:08.001Z</time></trkpt><trkpt lat="45.629742967543244" lon="9.594674912998642"><ele>192.0</ele><time>2026-04-05T16:29:09.001Z</time></trkpt><trkpt lat="45.62959708792915" lon="9.594453843010855"><ele>192.0</ele><time>2026-04-05T16:29:10.001Z</time></trkpt><trkpt lat="45.62946870539155" lon="9.59422570100077"><ele>192.0</ele><time>2026-04-05T16:29:11.001Z</time></trkpt><trkpt lat="45.62935311336081" lon="9.593991324189084"><ele>191.66666666666666</ele><time>2026-04-05T16:29:12.001Z</time></trkpt><trkpt lat="45.62922316907306" lon="9.593749971302547"><ele>191.33333333333331</ele><time>2026-04-05T16:29:13.001Z</time></trkpt><trkpt lat="45.62908694815819" lon="9.593512880061306"><ele>191.0</ele><time>2026-04-05T16:29:14.001Z</time></trkpt><trkpt lat="45.62894117072473" lon="9.593281267399226"><ele>191.0</ele><time>2026-04-05T16:29:15.001Z</time></trkpt><trkpt lat="45.62879954272596" lon="9.593041929047947"><ele>191.0</ele><time>2026-04-05T16:29:16.001Z</time></trkpt><trkpt lat="45.62865477283601" lon="9.59280148617846"><ele>191.0</ele><time>2026-04-05T16:29:17.001Z</time></trkpt><trkpt lat="45.62850317598479" lon="9.592561533227993"><ele>190.0</ele><time>2026-04-05T16:29:18.001Z</time></trkpt><trkpt lat="45.628356031751466" lon="9.59231026809834"><ele>189.0</ele><time>2026-04-05T16:29:19.001Z</time></trkpt><trkpt lat="45.62821368837371" lon="9.592049484639173"><ele>188.5</ele><time>2026-04-05T16:29:20.001Z</time></trkpt><trkpt lat="45.6280733811814" lon="9.591786441814927"><ele>188.0</ele><time>2026-04-05T16:29:21.001Z</time></trkpt><trkpt lat="45.62792827257598" lon="9.591525372582149"><ele>188.0</ele><time>2026-04-05T16:29:22.001Z</time></trkpt><trkpt lat="45.62778161791686" lon="9.591260929895238"><ele>188.0</ele><time>2026-04-05T16:29:23.001Z</time></trkpt><trkpt lat="45.62763838662239" lon="9.59099521378621"><ele>188.0</ele><time>2026-04-05T16:29:24.001Z</time></trkpt><trkpt lat="45.6274971185638" lon="9.590733356952919"><ele>188.0</ele><time>2026-04-05T16:29:25.001Z</time></trkpt><trkpt lat="45.627351641294176" lon="9.590471576336737"><ele>188.5</ele><time>2026-04-05T16:29:26.001Z</time></trkpt><trkpt lat="45.62720347661448" lon="9.590207996516334"><ele>189.0</ele><time>2026-04-05T16:29:27.001Z</time></trkpt><trkpt lat="45.62705469011113" lon="9.589938325932009"><ele>187.5</ele><time>2026-04-05T16:29:28.001Z</time></trkpt><trkpt lat="45.62690697306165" lon="9.589664381619668"><ele>186.0</ele><time>2026-04-05T16:29:29.001Z</time></trkpt><trkpt lat="45.62675772505518" lon="9.589385918649175"><ele>186.0</ele><time>2026-04-05T16:29:30.001Z</time></trkpt><trkpt lat="45.626606458838914" lon="9.589104061113119"><ele>186.0</ele><time>2026-04-05T16:29:31.001Z</time></trkpt><trkpt lat="45.62645360491855" lon="9.58881667961799"><ele>186.5</ele><time>2026-04-05T16:29:32.001Z</time></trkpt><trkpt lat="45.62629824771066" lon="9.588528591398918"><ele>187.0</ele><time>2026-04-05T16:29:33.001Z</time></trkpt><trkpt lat="45.62614700703949" lon="9.588253102648947"><ele>187.0</ele><time>2026-04-05T16:29:34.001Z</time></trkpt><trkpt lat="45.62599937062179" lon="9.587985133368178"><ele>187.0</ele><time>2026-04-05T16:29:35.001Z</time></trkpt><trkpt lat="45.625852784676184" lon="9.587716785881662"><ele>187.0</ele><time>2026-04-05T16:29:36.001Z</time></trkpt><trkpt lat="45.62570714488805" lon="9.587452570131617"><ele>187.0</ele><time>2026-04-05T16:29:37.001Z</time></trkpt><trkpt lat="45.62555986475051" lon="9.587188348331408"><ele>186.5</ele><time>2026-04-05T16:29:38.001Z</time></trkpt><trkpt lat="45.62541188231083" lon="9.586923604052563"><ele>186.0</ele><time>2026-04-05T16:29:39.001Z</time></trkpt><trkpt lat="45.625260090374425" lon="9.586659212570261"><ele>186.0</ele><time>2026-04-05T16:29:40.001Z</time></trkpt><trkpt lat="45.62510417317739" lon="9.5863895580278"><ele>186.0</ele><time>2026-04-05T16:29:41.001Z</time></trkpt><trkpt lat="45.62495263569212" lon="9.586118856196139"><ele>187.0</ele><time>2026-04-05T16:29:42.001Z</time></trkpt><trkpt lat="45.62480178639682" lon="9.585844168394535"><ele>188.0</ele><time>2026-04-05T16:29:43.001Z</time></trkpt><trkpt lat="45.62464862884295" lon="9.585554654469739"><ele>187.5</ele><time>2026-04-05T16:29:44.001Z</time></trkpt><trkpt lat="45.624494280779004" lon="9.585259149821093"><ele>187.0</ele><time>2026-04-05T16:29:45.001Z</time></trkpt><trkpt lat="45.62433926609476" lon="9.584955877120976"><ele>187.0</ele><time>2026-04-05T16:29:46.001Z</time></trkpt><trkpt lat="45.624189885078344" lon="9.58464548260478"><ele>187.0</ele><time>2026-04-05T16:29:47.001Z</time></trkpt><trkpt lat="45.62403530927476" lon="9.584318916139253"><ele>187.0</ele><time>2026-04-05T16:29:48.001Z</time></trkpt><trkpt lat="45.62387976472264" lon="9.583963239730798"><ele>187.0</ele><time>2026-04-05T16:29:49.001Z</time></trkpt><trkpt lat="45.62372228043018" lon="9.58358715102849"><ele>186.0</ele><time>2026-04-05T16:29:50.001Z</time></trkpt><trkpt lat="45.623557272215685" lon="9.583205836353182"><ele>185.0</ele><time>2026-04-05T16:29:51.001Z</time></trkpt><trkpt lat="45.623391992550765" lon="9.582812970319619"><ele>184.5</ele><time>2026-04-05T16:29:52.001Z</time></trkpt><trkpt lat="45.62322760181575" lon="9.582413258527739"><ele>184.0</ele><time>2026-04-05T16:29:53.001Z</time></trkpt><trkpt lat="45.62306888611284" lon="9.582017000893224"><ele>184.0</ele><time>2026-04-05T16:29:54.001Z</time></trkpt><trkpt lat="45.622933629132625" lon="9.581650523500928"><ele>184.0</ele><time>2026-04-05T16:29:55.001Z</time></trkpt><trkpt lat="45.62281060791654" lon="9.581293069426696"><ele>184.5</ele><time>2026-04-05T16:29:56.001Z</time></trkpt><trkpt lat="45.622696233322806" lon="9.580945848325959"><ele>185.0</ele><time>2026-04-05T16:29:57.001Z</time></trkpt><trkpt lat="45.62259348616536" lon="9.580623406447096"><ele>185.0</ele><time>2026-04-05T16:29:58.001Z</time></trkpt><trkpt lat="45.6224945555771" lon="9.580318532029708"><ele>185.0</ele><time>2026-04-05T16:29:59.001Z</time></trkpt><trkpt lat="45.62239114248024" lon="9.580012863814845"><ele>185.0</ele><time>2026-04-05T16:30:00.001Z</time></trkpt><trkpt lat="45.62228659307367" lon="9.579709872357656"><ele>185.0</ele><time>2026-04-05T16:30:01.001Z</time></trkpt><trkpt lat="45.62218793215769" lon="9.579426070267692"><ele>184.33333333333331</ele><time>2026-04-05T16:30:02.001Z</time></trkpt><trkpt lat="45.62209767171803" lon="9.579156706457994"><ele>183.66666666666666</ele><time>2026-04-05T16:30:03.001Z</time></trkpt><trkpt lat="45.62200954589808" lon="9.578893254663347"><ele>183.0</ele><time>2026-04-05T16:30:04.002Z</time></trkpt><trkpt lat="45.62191750808921" lon="9.578627181885881"><ele>183.0</ele><time>2026-04-05T16:30:05.002Z</time></trkpt><trkpt lat="45.62182217704214" lon="9.578356868775693"><ele>183.0</ele><time>2026-04-05T16:30:06.002Z</time></trkpt><trkpt lat="45.62173536722703" lon="9.578082940320513"><ele>183.0</ele><time>2026-04-05T16:30:07.002Z</time></trkpt><trkpt lat="45.62165287052126" lon="9.577808329789958"><ele>183.0</ele><time>2026-04-05T16:30:08.002Z</time></trkpt><trkpt lat="45.62156686165093" lon="9.577536742310755"><ele>183.0</ele><time>2026-04-05T16:30:09.002Z</time></trkpt><trkpt lat="45.62147370274734" lon="9.577270726629928"><ele>183.0</ele><time>2026-04-05T16:30:10.002Z</time></trkpt><trkpt lat="45.62137715677306" lon="9.577007056419568"><ele>183.0</ele><time>2026-04-05T16:30:11.002Z</time></trkpt><trkpt lat="45.62128337243852" lon="9.576745020289772"><ele>183.0</ele><time>2026-04-05T16:30:12.002Z</time></trkpt><trkpt lat="45.62119904988196" lon="9.576489522555267"><ele>183.0</ele><time>2026-04-05T16:30:13.002Z</time></trkpt><trkpt lat="45.62112111991514" lon="9.576240476608573"><ele>183.0</ele><time>2026-04-05T16:30:14.002Z</time></trkpt><trkpt lat="45.62103757471608" lon="9.575984851492036"><ele>183.0</ele><time>2026-04-05T16:30:15.002Z</time></trkpt><trkpt lat="45.62094710677639" lon="9.575722125560947"><ele>183.0</ele><time>2026-04-05T16:30:16.002Z</time></trkpt><trkpt lat="45.620848790464734" lon="9.575452798936842"><ele>183.5</ele><time>2026-04-05T16:30:17.002Z</time></trkpt><trkpt lat="45.62074420060097" lon="9.575171261256276"><ele>184.0</ele><time>2026-04-05T16:30:18.002Z</time></trkpt><trkpt lat="45.62063842543389" lon="9.574880912220866"><ele>184.0</ele><time>2026-04-05T16:30:19.002Z</time></trkpt><trkpt lat="45.6205336102396" lon="9.574578828555655"><ele>184.0</ele><time>2026-04-05T16:30:20.002Z</time></trkpt><trkpt lat="45.620429772824075" lon="9.574270711174208"><ele>184.0</ele><time>2026-04-05T16:30:21.002Z</time></trkpt><trkpt lat="45.62032397272655" lon="9.573963738868276"><ele>184.0</ele><time>2026-04-05T16:30:22.002Z</time></trkpt><trkpt lat="45.62021798576901" lon="9.573655148813973"><ele>183.5</ele><time>2026-04-05T16:30:23.002Z</time></trkpt><trkpt lat="45.620109806688326" lon="9.573346452034814"><ele>183.0</ele><time>2026-04-05T16:30:24.002Z</time></trkpt><trkpt lat="45.62000276901672" lon="9.573038660759861"><ele>182.5</ele><time>2026-04-05T16:30:25.002Z</time></trkpt><trkpt lat="45.61989370237291" lon="9.572727685794055"><ele>182.0</ele><time>2026-04-05T16:30:26.002Z</time></trkpt><trkpt lat="45.619779704489815" lon="9.572413459123052"><ele>182.0</ele><time>2026-04-05T16:30:27.002Z</time></trkpt><trkpt lat="45.619663539392214" lon="9.572092413589768"><ele>182.0</ele><time>2026-04-05T16:30:28.002Z</time></trkpt><trkpt lat="45.61954586562106" lon="9.571767222545926"><ele>181.0</ele><time>2026-04-05T16:30:29.002Z</time></trkpt><trkpt lat="45.61942770937398" lon="9.571435291047965"><ele>180.0</ele><time>2026-04-05T16:30:30.002Z</time></trkpt><trkpt lat="45.619309691799266" lon="9.571098208383516"><ele>180.0</ele><time>2026-04-05T16:30:31.002Z</time></trkpt><trkpt lat="45.619191352008855" lon="9.570758889449321"><ele>180.0</ele><time>2026-04-05T16:30:32.002Z</time></trkpt><trkpt lat="45.61907238942722" lon="9.570413271574052"><ele>180.5</ele><time>2026-04-05T16:30:33.002Z</time></trkpt><trkpt lat="45.618951501678296" lon="9.570065131393955"><ele>181.0</ele><time>2026-04-05T16:30:34.002Z</time></trkpt><trkpt lat="45.61883023917312" lon="9.569711364515461"><ele>180.5</ele><time>2026-04-05T16:30:35.002Z</time></trkpt><trkpt lat="45.618705774907326" lon="9.569354219518983"><ele>180.0</ele><time>2026-04-05T16:30:36.002Z</time></trkpt><trkpt lat="45.61857751239067" lon="9.568989516531811"><ele>180.0</ele><time>2026-04-05T16:30:37.002Z</time></trkpt><trkpt lat="45.618447246602976" lon="9.568623268241014"><ele>180.0</ele><time>2026-04-05T16:30:38.002Z</time></trkpt><trkpt lat="45.618325159753674" lon="9.568261983989427"><ele>180.0</ele><time>2026-04-05T16:30:39.002Z</time></trkpt><trkpt lat="45.61820901284758" lon="9.567910222401192"><ele>180.0</ele><time>2026-04-05T16:30:40.002Z</time></trkpt><trkpt lat="45.61809670751686" lon="9.567572632127808"><ele>179.5</ele><time>2026-04-05T16:30:41.002Z</time></trkpt><trkpt lat="45.61797846625997" lon="9.56722481666714"><ele>179.0</ele><time>2026-04-05T16:30:42.002Z</time></trkpt><trkpt lat="45.61786850669107" lon="9.566887093262562"><ele>177.5</ele><time>2026-04-05T16:30:43.002Z</time></trkpt><trkpt lat="45.61775945027871" lon="9.566543880045545"><ele>176.0</ele><time>2026-04-05T16:30:44.002Z</time></trkpt><trkpt lat="45.61764598712482" lon="9.566202960476529"><ele>177.0</ele><time>2026-04-05T16:30:45.002Z</time></trkpt><trkpt lat="45.61752731369568" lon="9.565863555403766"><ele>178.0</ele><time>2026-04-05T16:30:46.002Z</time></trkpt><trkpt lat="45.61741069886303" lon="9.565534525280405"><ele>178.0</ele><time>2026-04-05T16:30:47.001Z</time></trkpt><trkpt lat="45.61731176170986" lon="9.565230238659229"><ele>178.0</ele><time>2026-04-05T16:30:48.001Z</time></trkpt><trkpt lat="45.61722365316711" lon="9.564953056539794"><ele>178.0</ele><time>2026-04-05T16:30:49.001Z</time></trkpt><trkpt lat="45.61712939931303" lon="9.564672102445792"><ele>178.0</ele><time>2026-04-05T16:30:50.001Z</time></trkpt><trkpt lat="45.61702892692185" lon="9.564372261511979"><ele>178.0</ele><time>2026-04-05T16:30:51.001Z</time></trkpt><trkpt lat="45.6169229197428" lon="9.564061085500352"><ele>177.0</ele><time>2026-04-05T16:30:52.001Z</time></trkpt><trkpt lat="45.616808032627425" lon="9.563740782479439"><ele>176.0</ele><time>2026-04-05T16:30:53.001Z</time></trkpt><trkpt lat="45.616697689606106" lon="9.563429952951852"><ele>176.0</ele><time>2026-04-05T16:30:54.001Z</time></trkpt><trkpt lat="45.6165964751766" lon="9.563127386885"><ele>176.0</ele><time>2026-04-05T16:30:55.001Z</time></trkpt><trkpt lat="45.61650709180584" lon="9.562841380116087"><ele>176.0</ele><time>2026-04-05T16:30:56.001Z</time></trkpt><trkpt lat="45.616416106166724" lon="9.562567639761426"><ele>176.0</ele><time>2026-04-05T16:30:57.001Z</time></trkpt><trkpt lat="45.61632105149837" lon="9.562293786304458"><ele>176.0</ele><time>2026-04-05T16:30:58.001Z</time></trkpt><trkpt lat="45.616223430003444" lon="9.5620210875963"><ele>175.0</ele><time>2026-04-05T16:30:59.001Z</time></trkpt><trkpt lat="45.61612866878189" lon="9.56175298715759"><ele>174.0</ele><time>2026-04-05T16:31:00.001Z</time></trkpt><trkpt lat="45.61603988166956" lon="9.561505350007405"><ele>173.0</ele><time>2026-04-05T16:31:01.001Z</time></trkpt><trkpt lat="45.615955099239336" lon="9.561267944265397"><ele>173.0</ele><time>2026-04-05T16:31:02.001Z</time></trkpt><trkpt lat="45.61586768097322" lon="9.561036187501802"><ele>173.0</ele><time>2026-04-05T16:31:03.001Z</time></trkpt><trkpt lat="45.61578728400985" lon="9.560813680867273"><ele>173.0</ele><time>2026-04-05T16:31:04.001Z</time></trkpt><trkpt lat="45.61571767699007" lon="9.560603536330822"><ele>173.0</ele><time>2026-04-05T16:31:05.001Z</time></trkpt><trkpt lat="45.61565455456043" lon="9.560423976996224"><ele>173.0</ele><time>2026-04-05T16:31:06.001Z</time></trkpt><trkpt lat="45.61559638261245" lon="9.560273830107562"><ele>173.0</ele><time>2026-04-05T16:31:07.001Z</time></trkpt><trkpt lat="45.61554691744618" lon="9.560130607548464"><ele>173.0</ele><time>2026-04-05T16:31:08.001Z</time></trkpt><trkpt lat="45.615506097825936" lon="9.560007231214819"><ele>172.60000000000002</ele><time>2026-04-05T16:31:09.001Z</time></trkpt><trkpt lat="45.61547680157194" lon="9.55991387714456"><ele>172.20000000000002</ele><time>2026-04-05T16:31:10.001Z</time></trkpt><trkpt lat="45.61542763926892" lon="9.559747378123625"><ele>171.8</ele><time>2026-04-05T16:31:12.001Z</time></trkpt><trkpt lat="45.61536385413498" lon="9.559576023870473"><ele>171.4</ele><time>2026-04-05T16:31:14.001Z</time></trkpt><trkpt lat="45.615319521752376" lon="9.559458380132247"><ele>171.0</ele><time>2026-04-05T16:31:15.001Z</time></trkpt><trkpt lat="45.615265343410634" lon="9.55930555498453"><ele>172.33333333333334</ele><time>2026-04-05T16:31:16.001Z</time></trkpt><trkpt lat="45.61520380941913" lon="9.559122468041739"><ele>173.66666666666669</ele><time>2026-04-05T16:31:17.001Z</time></trkpt><trkpt lat="45.61513498164346" lon="9.558914234405146"><ele>175.0</ele><time>2026-04-05T16:31:18.001Z</time></trkpt><trkpt lat="45.6150580212426" lon="9.558686234869251"><ele>175.0</ele><time>2026-04-05T16:31:19.001Z</time></trkpt><trkpt lat="45.614981332348364" lon="9.558458087757563"><ele>175.0</ele><time>2026-04-05T16:31:20.001Z</time></trkpt><trkpt lat="45.61491569704673" lon="9.558258003023413"><ele>175.0</ele><time>2026-04-05T16:31:21.001Z</time></trkpt><trkpt lat="45.61485231813394" lon="9.558072357526463"><ele>175.0</ele><time>2026-04-05T16:31:22.001Z</time></trkpt><trkpt lat="45.6147955170541" lon="9.557896768550364"><ele>175.0</ele><time>2026-04-05T16:31:23.001Z</time></trkpt><trkpt lat="45.614741364940784" lon="9.55772710179015"><ele>175.0</ele><time>2026-04-05T16:31:24.001Z</time></trkpt><trkpt lat="45.61468758589467" lon="9.557555983341373"><ele>175.0</ele><time>2026-04-05T16:31:25.001Z</time></trkpt><trkpt lat="45.61463084679386" lon="9.55737540590025"><ele>175.5</ele><time>2026-04-05T16:31:26.001Z</time></trkpt><trkpt lat="45.61457237296977" lon="9.557188897380472"><ele>176.0</ele><time>2026-04-05T16:31:27.001Z</time></trkpt><trkpt lat="45.61451834545955" lon="9.557030022148732"><ele>176.5</ele><time>2026-04-05T16:31:28.001Z</time></trkpt><trkpt lat="45.61447130071137" lon="9.556876022222935"><ele>177.0</ele><time>2026-04-05T16:31:29.001Z</time></trkpt><trkpt lat="45.61442998066665" lon="9.556740861402307"><ele>177.0</ele><time>2026-04-05T16:31:30.001Z</time></trkpt><trkpt lat="45.61438889771" lon="9.556610347478756"><ele>177.0</ele><time>2026-04-05T16:31:31.001Z</time></trkpt><trkpt lat="45.61434889283139" lon="9.556483337850866"><ele>177.0</ele><time>2026-04-05T16:31:32.001Z</time></trkpt><trkpt lat="45.61430760662872" lon="9.55635145635966"><ele>177.0</ele><time>2026-04-05T16:31:33.001Z</time></trkpt><trkpt lat="45.614263767146035" lon="9.556213100177644"><ele>177.0</ele><time>2026-04-05T16:31:34.001Z</time></trkpt><trkpt lat="45.61421658841133" lon="9.556065385010964"><ele>177.0</ele><time>2026-04-05T16:31:35.001Z</time></trkpt><trkpt lat="45.61416450693103" lon="9.55590926836952"><ele>177.0</ele><time>2026-04-05T16:31:36.001Z</time></trkpt><trkpt lat="45.6141140965655" lon="9.555750925362634"><ele>177.0</ele><time>2026-04-05T16:31:37.001Z</time></trkpt><trkpt lat="45.61406874010596" lon="9.555607689619757"><ele>177.0</ele><time>2026-04-05T16:31:38.001Z</time></trkpt><trkpt lat="45.6140184565328" lon="9.555438047270334"><ele>178.66666666666666</ele><time>2026-04-05T16:31:39.001Z</time></trkpt><trkpt lat="45.61396258226422" lon="9.555248584153219"><ele>180.33333333333331</ele><time>2026-04-05T16:31:40.001Z</time></trkpt><trkpt lat="45.61389614366985" lon="9.555045189366064"><ele>182.0</ele><time>2026-04-05T16:31:41.001Z</time></trkpt><trkpt lat="45.61382447138669" lon="9.554839178174337"><ele>182.0</ele><time>2026-04-05T16:31:42.001Z</time></trkpt><trkpt lat="45.61374611444926" lon="9.554594599540255"><ele>182.0</ele><time>2026-04-05T16:31:43.001Z</time></trkpt><trkpt lat="45.61366804861733" lon="9.554347568361509"><ele>182.0</ele><time>2026-04-05T16:31:44.001Z</time></trkpt><trkpt lat="45.61359213263678" lon="9.554111380599181"><ele>181.0</ele><time>2026-04-05T16:31:45.001Z</time></trkpt><trkpt lat="45.61351603358218" lon="9.553880078394968"><ele>180.0</ele><time>2026-04-05T16:31:46.001Z</time></trkpt><trkpt lat="45.61343822754215" lon="9.553641961585713"><ele>179.0</ele><time>2026-04-05T16:31:47.001Z</time></trkpt><trkpt lat="45.613363431953296" lon="9.55340609718645"><ele>179.0</ele><time>2026-04-05T16:31:48.001Z</time></trkpt><trkpt lat="45.613288012288436" lon="9.553169924677134"><ele>179.0</ele><time>2026-04-05T16:31:49.001Z</time></trkpt><trkpt lat="45.61320231661491" lon="9.552921698554737"><ele>179.0</ele><time>2026-04-05T16:31:50.001Z</time></trkpt><trkpt lat="45.61311204309622" lon="9.552657986993704"><ele>179.33333333333331</ele><time>2026-04-05T16:31:51.001Z</time></trkpt><trkpt lat="45.613021078613386" lon="9.552376863586362"><ele>179.66666666666666</ele><time>2026-04-05T16:31:52.001Z</time></trkpt><trkpt lat="45.612923771318926" lon="9.55208504077882"><ele>180.0</ele><time>2026-04-05T16:31:53.001Z</time></trkpt><trkpt lat="45.612819072238096" lon="9.55178481066494"><ele>180.0</ele><time>2026-04-05T16:31:54.001Z</time></trkpt><trkpt lat="45.612712958341184" lon="9.551476372082245"><ele>180.0</ele><time>2026-04-05T16:31:55.001Z</time></trkpt><trkpt lat="45.61261214468464" lon="9.551176577262543"><ele>180.0</ele><time>2026-04-05T16:31:56.001Z</time></trkpt><trkpt lat="45.6125068562284" lon="9.550865721713857"><ele>180.0</ele><time>2026-04-05T16:31:57.001Z</time></trkpt><trkpt lat="45.61240080453992" lon="9.550547321393251"><ele>178.5</ele><time>2026-04-05T16:31:58.001Z</time></trkpt><trkpt lat="45.61229443048792" lon="9.550226114982523"><ele>177.0</ele><time>2026-04-05T16:31:59.001Z</time></trkpt><trkpt lat="45.612188077449446" lon="9.549910493146164"><ele>177.0</ele><time>2026-04-05T16:32:00.001Z</time></trkpt><trkpt lat="45.61208883079146" lon="9.549613639011923"><ele>177.0</ele><time>2026-04-05T16:32:01.001Z</time></trkpt><trkpt lat="45.61199471315362" lon="9.54932980578012"><ele>178.0</ele><time>2026-04-05T16:32:02.001Z</time></trkpt><trkpt lat="45.611902174085195" lon="9.54905686517301"><ele>179.0</ele><time>2026-04-05T16:32:03.001Z</time></trkpt><trkpt lat="45.611814151305985" lon="9.548791983413794"><ele>180.0</ele><time>2026-04-05T16:32:04.001Z</time></trkpt><trkpt lat="45.61172653864708" lon="9.548535272820843"><ele>180.0</ele><time>2026-04-05T16:32:05.001Z</time></trkpt><trkpt lat="45.61163936502823" lon="9.548276763626703"><ele>180.0</ele><time>2026-04-05T16:32:06.001Z</time></trkpt><trkpt lat="45.611554544441816" lon="9.548022349996328"><ele>180.0</ele><time>2026-04-05T16:32:07.001Z</time></trkpt><trkpt lat="45.61146808476471" lon="9.547770552448645"><ele>180.0</ele><time>2026-04-05T16:32:08.001Z</time></trkpt><trkpt lat="45.61138069959066" lon="9.54751905598017"><ele>180.0</ele><time>2026-04-05T16:32:09.001Z</time></trkpt><trkpt lat="45.611295350187184" lon="9.547265598337923"><ele>180.0</ele><time>2026-04-05T16:32:10.001Z</time></trkpt><trkpt lat="45.61120924403906" lon="9.547012388879097"><ele>179.66666666666666</ele><time>2026-04-05T16:32:11.001Z</time></trkpt><trkpt lat="45.61112216560783" lon="9.54675906006081"><ele>179.33333333333331</ele><time>2026-04-05T16:32:12.001Z</time></trkpt><trkpt lat="45.61103635689572" lon="9.546507646044015"><ele>179.0</ele><time>2026-04-05T16:32:13.001Z</time></trkpt><trkpt lat="45.61095066241511" lon="9.546249246895234"><ele>178.66666666666666</ele><time>2026-04-05T16:32:14.001Z</time></trkpt><trkpt lat="45.610859191527084" lon="9.545967422338398"><ele>178.33333333333334</ele><time>2026-04-05T16:32:15.001Z</time></trkpt><trkpt lat="45.61076386098839" lon="9.54566527004518"><ele>178.0</ele><time>2026-04-05T16:32:16.001Z</time></trkpt><trkpt lat="45.6106632744695" lon="9.545352744838729"><ele>178.0</ele><time>2026-04-05T16:32:17.001Z</time></trkpt><trkpt lat="45.610554216672405" lon="9.545029580708958"><ele>178.0</ele><time>2026-04-05T16:32:18.001Z</time></trkpt><trkpt lat="45.61043566412403" lon="9.544703519490975"><ele>179.0</ele><time>2026-04-05T16:32:19.001Z</time></trkpt><trkpt lat="45.610316455978186" lon="9.544369306274575"><ele>180.0</ele><time>2026-04-05T16:32:20.001Z</time></trkpt><trkpt lat="45.610203130762216" lon="9.544034187334088"><ele>180.0</ele><time>2026-04-05T16:32:21.001Z</time></trkpt><trkpt lat="45.61010044575333" lon="9.543718882789685"><ele>180.0</ele><time>2026-04-05T16:32:22.001Z</time></trkpt><trkpt lat="45.610000767903706" lon="9.543416692432976"><ele>180.5</ele><time>2026-04-05T16:32:23.001Z</time></trkpt><trkpt lat="45.60989868897459" lon="9.543112438861176"><ele>181.0</ele><time>2026-04-05T16:32:24.001Z</time></trkpt><trkpt lat="45.60979773376017" lon="9.542808720159073"><ele>181.33333333333334</ele><time>2026-04-05T16:32:25.002Z</time></trkpt><trkpt lat="45.60969926213218" lon="9.542509906146469"><ele>181.66666666666666</ele><time>2026-04-05T16:32:26.002Z</time></trkpt><trkpt lat="45.609606080465255" lon="9.542228596558015"><ele>182.0</ele><time>2026-04-05T16:32:27.002Z</time></trkpt><trkpt lat="45.60951746046573" lon="9.541962720719404"><ele>182.0</ele><time>2026-04-05T16:32:28.002Z</time></trkpt><trkpt lat="45.609430990304844" lon="9.541702758949796"><ele>182.0</ele><time>2026-04-05T16:32:29.002Z</time></trkpt><trkpt lat="45.60933715941637" lon="9.54142730115474"><ele>182.0</ele><time>2026-04-05T16:32:30.002Z</time></trkpt><trkpt lat="45.60923957417297" lon="9.541118013923846"><ele>182.0</ele><time>2026-04-05T16:32:31.002Z</time></trkpt><trkpt lat="45.60913010938131" lon="9.540786871333601"><ele>182.0</ele><time>2026-04-05T16:32:32.002Z</time></trkpt><trkpt lat="45.60901188854699" lon="9.540438068601786"><ele>182.0</ele><time>2026-04-05T16:32:33.002Z</time></trkpt><trkpt lat="45.60889241376779" lon="9.540071140984141"><ele>182.0</ele><time>2026-04-05T16:32:34.002Z</time></trkpt><trkpt lat="45.608768181025994" lon="9.53969375694854"><ele>182.0</ele><time>2026-04-05T16:32:35.002Z</time></trkpt><trkpt lat="45.6086463402116" lon="9.539325161757686"><ele>182.0</ele><time>2026-04-05T16:32:36.002Z</time></trkpt><trkpt lat="45.60851999154695" lon="9.538953246211182"><ele>183.0</ele><time>2026-04-05T16:32:37.002Z</time></trkpt><trkpt lat="45.60839220809487" lon="9.538572990784969"><ele>184.0</ele><time>2026-04-05T16:32:38.002Z</time></trkpt><trkpt lat="45.60826618693419" lon="9.538192983224475"><ele>184.5</ele><time>2026-04-05T16:32:39.002Z</time></trkpt><trkpt lat="45.60813877482365" lon="9.537807717226642"><ele>185.0</ele><time>2026-04-05T16:32:40.002Z</time></trkpt><trkpt lat="45.60801113378479" lon="9.537430576243105"><ele>185.0</ele><time>2026-04-05T16:32:41.002Z</time></trkpt><trkpt lat="45.607884643231685" lon="9.537060717115635"><ele>185.0</ele><time>2026-04-05T16:32:42.002Z</time></trkpt><trkpt lat="45.60776311475296" lon="9.536698158441448"><ele>184.5</ele><time>2026-04-05T16:32:43.002Z</time></trkpt><trkpt lat="45.60764039087697" lon="9.53633929380512"><ele>184.0</ele><time>2026-04-05T16:32:44.002Z</time></trkpt><trkpt lat="45.60752007955386" lon="9.535980705803325"><ele>184.0</ele><time>2026-04-05T16:32:45.002Z</time></trkpt><trkpt lat="45.60739775858436" lon="9.53561533135777"><ele>184.0</ele><time>2026-04-05T16:32:46.002Z</time></trkpt><trkpt lat="45.607279919195136" lon="9.535261789669676"><ele>184.0</ele><time>2026-04-05T16:32:47.002Z</time></trkpt><trkpt lat="45.607160551770065" lon="9.534939855636507"><ele>184.0</ele><time>2026-04-05T16:32:48.002Z</time></trkpt><trkpt lat="45.60704831209643" lon="9.534624882238901"><ele>183.0</ele><time>2026-04-05T16:32:49.002Z</time></trkpt><trkpt lat="45.60693537734009" lon="9.534315014480734"><ele>182.0</ele><time>2026-04-05T16:32:50.002Z</time></trkpt><trkpt lat="45.60682397695737" lon="9.533990146606811"><ele>183.5</ele><time>2026-04-05T16:32:51.002Z</time></trkpt><trkpt lat="45.60670253982981" lon="9.533632102906564"><ele>185.0</ele><time>2026-04-05T16:32:52.002Z</time></trkpt><trkpt lat="45.606571087065554" lon="9.533250708853007"><ele>184.5</ele><time>2026-04-05T16:32:53Z</time></trkpt><trkpt lat="45.60643255342903" lon="9.532860309944484"><ele>184.0</ele><time>2026-04-05T16:32:54Z</time></trkpt><trkpt lat="45.606296056915916" lon="9.532494217476769"><ele>184.0</ele><time>2026-04-05T16:32:55Z</time></trkpt><trkpt lat="45.606170654755275" lon="9.532147404895056"><ele>184.0</ele><time>2026-04-05T16:32:56Z</time></trkpt><trkpt lat="45.60604607203556" lon="9.531798248606258"><ele>183.0</ele><time>2026-04-05T16:32:57Z</time></trkpt><trkpt lat="45.605927109128444" lon="9.531467347161797"><ele>182.0</ele><time>2026-04-05T16:32:58Z</time></trkpt><trkpt lat="45.6058178232161" lon="9.531149281951773"><ele>181.5</ele><time>2026-04-05T16:32:59Z</time></trkpt><trkpt lat="45.60570714349093" lon="9.53082270033518"><ele>181.0</ele><time>2026-04-05T16:33:00Z</time></trkpt><trkpt lat="45.605590181252936" lon="9.530492281898225"><ele>182.0</ele><time>2026-04-05T16:33:01Z</time></trkpt><trkpt lat="45.605473176173085" lon="9.530155950404462"><ele>183.0</ele><time>2026-04-05T16:33:02Z</time></trkpt><trkpt lat="45.60535751206472" lon="9.529812966100446"><ele>171.0</ele><time>2026-04-05T16:33:03Z</time></trkpt><trkpt lat="45.605240728093555" lon="9.529467195231003"><ele>159.0</ele><time>2026-04-05T16:33:04Z</time></trkpt><trkpt lat="45.60511994120235" lon="9.52910432354559"><ele>159.0</ele><time>2026-04-05T16:33:05Z</time></trkpt><trkpt lat="45.604995343993544" lon="9.52873347063004"><ele>159.0</ele><time>2026-04-05T16:33:06Z</time></trkpt><trkpt lat="45.6048704954536" lon="9.528362740072255"><ele>161.0</ele><time>2026-04-05T16:33:07Z</time></trkpt><trkpt lat="45.60475007760271" lon="9.52797759371252"><ele>163.0</ele><time>2026-04-05T16:33:08Z</time></trkpt><trkpt lat="45.60462602534225" lon="9.527580452759182"><ele>163.0</ele><time>2026-04-05T16:33:09Z</time></trkpt><trkpt lat="45.60449888956147" lon="9.527195395281339"><ele>163.0</ele><time>2026-04-05T16:33:10Z</time></trkpt><trkpt lat="45.604374204164564" lon="9.526822337232678"><ele>171.0</ele><time>2026-04-05T16:33:11Z</time></trkpt><trkpt lat="45.60424954706614" lon="9.52645805612245"><ele>179.0</ele><time>2026-04-05T16:33:12Z</time></trkpt><trkpt lat="45.60412131179474" lon="9.52609304004153"><ele>179.0</ele><time>2026-04-05T16:33:13Z</time></trkpt><trkpt lat="45.60398881788416" lon="9.525731147292783"><ele>179.0</ele><time>2026-04-05T16:33:14Z</time></trkpt><trkpt lat="45.60385790900813" lon="9.525351045648382"><ele>179.0</ele><time>2026-04-05T16:33:15Z</time></trkpt><trkpt lat="45.60372932650881" lon="9.52495802702417"><ele>179.0</ele><time>2026-04-05T16:33:16Z</time></trkpt><trkpt lat="45.60360152979204" lon="9.52455287582566"><ele>179.0</ele><time>2026-04-05T16:33:17Z</time></trkpt><trkpt lat="45.603470286866575" lon="9.524144204809998"><ele>179.0</ele><time>2026-04-05T16:33:18Z</time></trkpt><trkpt lat="45.603337897959385" lon="9.523735645879357"><ele>179.0</ele><time>2026-04-05T16:33:19Z</time></trkpt><trkpt lat="45.603201819936594" lon="9.523328103735228"><ele>179.0</ele><time>2026-04-05T16:33:20Z</time></trkpt><trkpt lat="45.60306649167213" lon="9.522921291878857"><ele>179.5</ele><time>2026-04-05T16:33:21Z</time></trkpt><trkpt lat="45.6029307821246" lon="9.522528115476227"><ele>180.0</ele><time>2026-04-05T16:33:22Z</time></trkpt><trkpt lat="45.602804964126996" lon="9.52214735553932"><ele>180.5</ele><time>2026-04-05T16:33:23Z</time></trkpt><trkpt lat="45.60267729701408" lon="9.521768041698481"><ele>181.0</ele><time>2026-04-05T16:33:24Z</time></trkpt><trkpt lat="45.6025504123778" lon="9.521391641836908"><ele>179.0</ele><time>2026-04-05T16:33:25Z</time></trkpt><trkpt lat="45.60242395055286" lon="9.521018922381575"><ele>177.0</ele><time>2026-04-05T16:33:26Z</time></trkpt><trkpt lat="45.60229714443502" lon="9.5206429442281"><ele>178.5</ele><time>2026-04-05T16:33:27Z</time></trkpt><trkpt lat="45.60216921469415" lon="9.520264672626169"><ele>180.0</ele><time>2026-04-05T16:33:28Z</time></trkpt><trkpt lat="45.60204363676372" lon="9.519884710923781"><ele>179.5</ele><time>2026-04-05T16:33:29Z</time></trkpt><trkpt lat="45.601920150610816" lon="9.519501409809578"><ele>179.0</ele><time>2026-04-05T16:33:30Z</time></trkpt><trkpt lat="45.601796898429136" lon="9.519123602794151"><ele>179.0</ele><time>2026-04-05T16:33:31Z</time></trkpt><trkpt lat="45.60167909406904" lon="9.518750929868482"><ele>179.0</ele><time>2026-04-05T16:33:32Z</time></trkpt><trkpt lat="45.60155398710082" lon="9.51837560675529"><ele>179.0</ele><time>2026-04-05T16:33:33Z</time></trkpt><trkpt lat="45.601426796244596" lon="9.517997087511844"><ele>179.0</ele><time>2026-04-05T16:33:34Z</time></trkpt><trkpt lat="45.60130683707685" lon="9.51762221690663"><ele>179.0</ele><time>2026-04-05T16:33:35Z</time></trkpt><trkpt lat="45.60118636966068" lon="9.517245950882431"><ele>179.0</ele><time>2026-04-05T16:33:36Z</time></trkpt><trkpt lat="45.60106626376999" lon="9.516866072062902"><ele>179.5</ele><time>2026-04-05T16:33:37Z</time></trkpt><trkpt lat="45.600944693740225" lon="9.516484910834158"><ele>180.0</ele><time>2026-04-05T16:33:38Z</time></trkpt><trkpt lat="45.60082855327758" lon="9.516103684707275"><ele>180.0</ele><time>2026-04-05T16:33:39Z</time></trkpt><trkpt lat="45.60071131065641" lon="9.515734577016397"><ele>180.0</ele><time>2026-04-05T16:33:40Z</time></trkpt><trkpt lat="45.600597312032214" lon="9.51539625794092"><ele>180.0</ele><time>2026-04-05T16:33:41Z</time></trkpt><trkpt lat="45.60048832877142" lon="9.515063184444879"><ele>180.0</ele><time>2026-04-05T16:33:42Z</time></trkpt><trkpt lat="45.60037826540249" lon="9.514726983367455"><ele>178.0</ele><time>2026-04-05T16:33:43.001Z</time></trkpt><trkpt lat="45.60026414442621" lon="9.514386468208361"><ele>176.0</ele><time>2026-04-05T16:33:44.001Z</time></trkpt><trkpt lat="45.60014853902685" lon="9.514048745679359"><ele>177.0</ele><time>2026-04-05T16:33:45.001Z</time></trkpt><trkpt lat="45.60003690957834" lon="9.513711580755205"><ele>178.0</ele><time>2026-04-05T16:33:46.001Z</time></trkpt><trkpt lat="45.599920785870296" lon="9.51337178684274"><ele>178.0</ele><time>2026-04-05T16:33:47.001Z</time></trkpt><trkpt lat="45.59980594291642" lon="9.513029628459815"><ele>178.0</ele><time>2026-04-05T16:33:48.001Z</time></trkpt><trkpt lat="45.59968692190248" lon="9.51268649603919"><ele>178.0</ele><time>2026-04-05T16:33:49.001Z</time></trkpt><trkpt lat="45.59957084186518" lon="9.512338561998499"><ele>178.0</ele><time>2026-04-05T16:33:50.001Z</time></trkpt><trkpt lat="45.59945403608976" lon="9.511989632000281"><ele>178.0</ele><time>2026-04-05T16:33:51.001Z</time></trkpt><trkpt lat="45.599337644850976" lon="9.511641272274522"><ele>178.0</ele><time>2026-04-05T16:33:52.001Z</time></trkpt><trkpt lat="45.599220505028" lon="9.511293253865219"><ele>179.0</ele><time>2026-04-05T16:33:53.001Z</time></trkpt><trkpt lat="45.59910195565493" lon="9.51094706877387"><ele>180.0</ele><time>2026-04-05T16:33:54.001Z</time></trkpt><trkpt lat="45.59898438146236" lon="9.51059852945555"><ele>179.5</ele><time>2026-04-05T16:33:55.001Z</time></trkpt><trkpt lat="45.598868299570995" lon="9.5102563794558"><ele>179.0</ele><time>2026-04-05T16:33:56.001Z</time></trkpt><trkpt lat="45.59875763808933" lon="9.50992815300047"><ele>178.0</ele><time>2026-04-05T16:33:57.001Z</time></trkpt><trkpt lat="45.598651516063256" lon="9.509613742576214"><ele>177.0</ele><time>2026-04-05T16:33:58.001Z</time></trkpt><trkpt lat="45.59854643869849" lon="9.509301597123196"><ele>177.0</ele><time>2026-04-05T16:33:59.001Z</time></trkpt><trkpt lat="45.59844514827968" lon="9.508990366222474"><ele>177.0</ele><time>2026-04-05T16:34:00.001Z</time></trkpt><trkpt lat="45.598349829009194" lon="9.508681811276686"><ele>178.5</ele><time>2026-04-05T16:34:01.001Z</time></trkpt><trkpt lat="45.598253892319065" lon="9.508363743836656"><ele>180.0</ele><time>2026-04-05T16:34:02.001Z</time></trkpt><trkpt lat="45.598150467442224" lon="9.508034155553293"><ele>182.0</ele><time>2026-04-05T16:34:03.001Z</time></trkpt><trkpt lat="45.598035535461285" lon="9.507704884822548"><ele>184.0</ele><time>2026-04-05T16:34:04.001Z</time></trkpt><trkpt lat="45.59791930098102" lon="9.507380613264685"><ele>182.0</ele><time>2026-04-05T16:34:05.001Z</time></trkpt><trkpt lat="45.597807407738145" lon="9.507077802801899"><ele>180.0</ele><time>2026-04-05T16:34:06.001Z</time></trkpt><trkpt lat="45.59770513397082" lon="9.50678931754908"><ele>180.0</ele><time>2026-04-05T16:34:07.001Z</time></trkpt><trkpt lat="45.59761339723138" lon="9.506494951912323"><ele>180.0</ele><time>2026-04-05T16:34:08.001Z</time></trkpt><trkpt lat="45.59751903067033" lon="9.506201573614875"><ele>179.5</ele><time>2026-04-05T16:34:09.001Z</time></trkpt><trkpt lat="45.59742557518981" lon="9.50590296322649"><ele>179.0</ele><time>2026-04-05T16:34:10.001Z</time></trkpt><trkpt lat="45.59731695916632" lon="9.505589426826656"><ele>179.5</ele><time>2026-04-05T16:34:11.001Z</time></trkpt><trkpt lat="45.59720471744432" lon="9.505269020597"><ele>180.0</ele><time>2026-04-05T16:34:12.001Z</time></trkpt><trkpt lat="45.597086755268506" lon="9.504937152014381"><ele>179.0</ele><time>2026-04-05T16:34:13.001Z</time></trkpt><trkpt lat="45.59697265090658" lon="9.504602530742831"><ele>178.0</ele><time>2026-04-05T16:34:14.001Z</time></trkpt><trkpt lat="45.59686438320689" lon="9.50426363804432"><ele>178.0</ele><time>2026-04-05T16:34:15.001Z</time></trkpt><trkpt lat="45.596756086750524" lon="9.503928289350682"><ele>178.0</ele><time>2026-04-05T16:34:16.001Z</time></trkpt><trkpt lat="45.59665161707367" lon="9.503590793116805"><ele>178.0</ele><time>2026-04-05T16:34:17.001Z</time></trkpt><trkpt lat="45.596535280574756" lon="9.503253442346246"><ele>178.0</ele><time>2026-04-05T16:34:18.001Z</time></trkpt><trkpt lat="45.59641281311543" lon="9.502919666194831"><ele>178.0</ele><time>2026-04-05T16:34:19.001Z</time></trkpt><trkpt lat="45.59628958297949" lon="9.502580096480157"><ele>178.0</ele><time>2026-04-05T16:34:20.001Z</time></trkpt><trkpt lat="45.596165813907504" lon="9.50223572158967"><ele>178.0</ele><time>2026-04-05T16:34:21.001Z</time></trkpt><trkpt lat="45.59604676742446" lon="9.501880393069948"><ele>178.0</ele><time>2026-04-05T16:34:22.001Z</time></trkpt><trkpt lat="45.59593148274093" lon="9.501524224749252"><ele>178.0</ele><time>2026-04-05T16:34:23.001Z</time></trkpt><trkpt lat="45.59582293706201" lon="9.50117015778852"><ele>178.0</ele><time>2026-04-05T16:34:24.001Z</time></trkpt><trkpt lat="45.59571724086745" lon="9.50081098447673"><ele>178.0</ele><time>2026-04-05T16:34:25.001Z</time></trkpt><trkpt lat="45.595610191645015" lon="9.500452441445933"><ele>178.0</ele><time>2026-04-05T16:34:26.001Z</time></trkpt><trkpt lat="45.59550398433058" lon="9.500094301179093"><ele>179.0</ele><time>2026-04-05T16:34:27.001Z</time></trkpt><trkpt lat="45.59540363309136" lon="9.499752029230793"><ele>180.0</ele><time>2026-04-05T16:34:28.001Z</time></trkpt><trkpt lat="45.59530689370798" lon="9.49941430116877"><ele>180.5</ele><time>2026-04-05T16:34:29.001Z</time></trkpt><trkpt lat="45.595217833629164" lon="9.499081941837103"><ele>181.0</ele><time>2026-04-05T16:34:30.001Z</time></trkpt><trkpt lat="45.59513035328214" lon="9.498756926933964"><ele>180.5</ele><time>2026-04-05T16:34:31.001Z</time></trkpt><trkpt lat="45.5950469017302" lon="9.498432226782068"><ele>180.0</ele><time>2026-04-05T16:34:32.001Z</time></trkpt><trkpt lat="45.594965511907375" lon="9.498103613450466"><ele>179.5</ele><time>2026-04-05T16:34:33.001Z</time></trkpt><trkpt lat="45.59488586795351" lon="9.497774030758725"><ele>179.0</ele><time>2026-04-05T16:34:34.001Z</time></trkpt><trkpt lat="45.59481054736036" lon="9.497442766035556"><ele>179.0</ele><time>2026-04-05T16:34:35.001Z</time></trkpt><trkpt lat="45.594740028047795" lon="9.497107523713417"><ele>179.0</ele><time>2026-04-05T16:34:36.001Z</time></trkpt><trkpt lat="45.594670605515724" lon="9.4967692927511"><ele>180.0</ele><time>2026-04-05T16:34:37.001Z</time></trkpt><trkpt lat="45.59460041727823" lon="9.496421669441037"><ele>181.0</ele><time>2026-04-05T16:34:38.001Z</time></trkpt><trkpt lat="45.59453200324466" lon="9.496070869926784"><ele>181.0</ele><time>2026-04-05T16:34:39.001Z</time></trkpt><trkpt lat="45.594463025591324" lon="9.495716201102187"><ele>181.0</ele><time>2026-04-05T16:34:40.001Z</time></trkpt><trkpt lat="45.59439334980311" lon="9.4953618551946"><ele>181.0</ele><time>2026-04-05T16:34:41.001Z</time></trkpt><trkpt lat="45.59432171413368" lon="9.49500282909003"><ele>181.0</ele><time>2026-04-05T16:34:42.001Z</time></trkpt><trkpt lat="45.59425108779794" lon="9.494642564256251"><ele>181.5</ele><time>2026-04-05T16:34:43.001Z</time></trkpt><trkpt lat="45.59418256420086" lon="9.494282156828659"><ele>182.0</ele><time>2026-04-05T16:34:44.001Z</time></trkpt><trkpt lat="45.59411355776117" lon="9.49392214359636"><ele>180.5</ele><time>2026-04-05T16:34:45.001Z</time></trkpt><trkpt lat="45.59404382450811" lon="9.493562861147488"><ele>179.0</ele><time>2026-04-05T16:34:46.001Z</time></trkpt><trkpt lat="45.59397395121983" lon="9.493203287498261"><ele>179.5</ele><time>2026-04-05T16:34:47.001Z</time></trkpt><trkpt lat="45.593904577341625" lon="9.49284204577838"><ele>180.0</ele><time>2026-04-05T16:34:48.001Z</time></trkpt><trkpt lat="45.593837836213844" lon="9.492496152694699"><ele>180.0</ele><time>2026-04-05T16:34:49.001Z</time></trkpt><trkpt lat="45.59377472381293" lon="9.492157218149504"><ele>180.0</ele><time>2026-04-05T16:34:50.001Z</time></trkpt><trkpt lat="45.59371015820585" lon="9.491828391060041"><ele>180.5</ele><time>2026-04-05T16:34:51.001Z</time></trkpt><trkpt lat="45.593647498767375" lon="9.491511278265998"><ele>181.0</ele><time>2026-04-05T16:34:52.001Z</time></trkpt><trkpt lat="45.593587101467776" lon="9.491201783940749"><ele>181.0</ele><time>2026-04-05T16:34:53.001Z</time></trkpt><trkpt lat="45.59353253834921" lon="9.49090156011463"><ele>181.0</ele><time>2026-04-05T16:34:54.001Z</time></trkpt><trkpt lat="45.59348319513012" lon="9.490610139429549"><ele>181.0</ele><time>2026-04-05T16:34:55.001Z</time></trkpt><trkpt lat="45.59343941966973" lon="9.490322703039272"><ele>180.66666666666669</ele><time>2026-04-05T16:34:56.001Z</time></trkpt><trkpt lat="45.593393162862945" lon="9.490032424268442"><ele>180.33333333333334</ele><time>2026-04-05T16:34:57.002Z</time></trkpt><trkpt lat="45.59334055646195" lon="9.489735649901085"><ele>180.0</ele><time>2026-04-05T16:34:58.002Z</time></trkpt><trkpt lat="45.593277973079296" lon="9.489427998539147"><ele>180.0</ele><time>2026-04-05T16:34:59Z</time></trkpt><trkpt lat="45.593226775930326" lon="9.48914331072236"><ele>180.0</ele><time>2026-04-05T16:35:00Z</time></trkpt><trkpt lat="45.59317345505629" lon="9.488863779057255"><ele>180.0</ele><time>2026-04-05T16:35:01Z</time></trkpt><trkpt lat="45.5931205728593" lon="9.488592581253402"><ele>180.0</ele><time>2026-04-05T16:35:02Z</time></trkpt><trkpt lat="45.59306706482979" lon="9.488314620600825"><ele>180.0</ele><time>2026-04-05T16:35:03Z</time></trkpt><trkpt lat="45.59301286208668" lon="9.488011354052457"><ele>180.0</ele><time>2026-04-05T16:35:04Z</time></trkpt><trkpt lat="45.592955126974815" lon="9.487691982183142"><ele>180.5</ele><time>2026-04-05T16:35:05Z</time></trkpt><trkpt lat="45.592893741746586" lon="9.487362516700523"><ele>181.0</ele><time>2026-04-05T16:35:06Z</time></trkpt><trkpt lat="45.59282819491049" lon="9.487021706736485"><ele>180.0</ele><time>2026-04-05T16:35:07Z</time></trkpt><trkpt lat="45.59276013163921" lon="9.486669768574936"><ele>179.0</ele><time>2026-04-05T16:35:08Z</time></trkpt><trkpt lat="45.5926913818496" lon="9.48631151709928"><ele>179.0</ele><time>2026-04-05T16:35:09Z</time></trkpt><trkpt lat="45.59261450185821" lon="9.485947330225835"><ele>179.0</ele><time>2026-04-05T16:35:10Z</time></trkpt><trkpt lat="45.592536293417794" lon="9.485578323057084"><ele>179.0</ele><time>2026-04-05T16:35:11Z</time></trkpt><trkpt lat="45.592460435478415" lon="9.485212018420476"><ele>179.0</ele><time>2026-04-05T16:35:12Z</time></trkpt><trkpt lat="45.59238898829672" lon="9.484855370270294"><ele>180.0</ele><time>2026-04-05T16:35:13Z</time></trkpt><trkpt lat="45.592318749518675" lon="9.484508106270598"><ele>181.0</ele><time>2026-04-05T16:35:14Z</time></trkpt><trkpt lat="45.59225171907509" lon="9.48416152915658"><ele>181.0</ele><time>2026-04-05T16:35:15Z</time></trkpt><trkpt lat="45.592184050295856" lon="9.483813837637861"><ele>181.0</ele><time>2026-04-05T16:35:16Z</time></trkpt><trkpt lat="45.59210651778035" lon="9.483462386324415"><ele>182.0</ele><time>2026-04-05T16:35:17Z</time></trkpt><trkpt lat="45.59202876111506" lon="9.483106469479674"><ele>183.0</ele><time>2026-04-05T16:35:18Z</time></trkpt><trkpt lat="45.591954851054396" lon="9.482744968360905"><ele>183.0</ele><time>2026-04-05T16:35:19Z</time></trkpt><trkpt lat="45.59188456288894" lon="9.482383742461304"><ele>183.0</ele><time>2026-04-05T16:35:20Z</time></trkpt><trkpt lat="45.59181473095615" lon="9.482020684719844"><ele>182.5</ele><time>2026-04-05T16:35:21Z</time></trkpt><trkpt lat="45.591745024373274" lon="9.481659877023684"><ele>182.0</ele><time>2026-04-05T16:35:22Z</time></trkpt><trkpt lat="45.5916757030238" lon="9.481299996258466"><ele>182.0</ele><time>2026-04-05T16:35:23Z</time></trkpt><trkpt lat="45.591605119761724" lon="9.480937183690935"><ele>182.0</ele><time>2026-04-05T16:35:24Z</time></trkpt><trkpt lat="45.591533791871576" lon="9.480572434808145"><ele>182.5</ele><time>2026-04-05T16:35:25Z</time></trkpt><trkpt lat="45.591463999179894" lon="9.480204796341202"><ele>183.0</ele><time>2026-04-05T16:35:26Z</time></trkpt><trkpt lat="45.59139461642074" lon="9.479843284531997"><ele>180.5</ele><time>2026-04-05T16:35:27Z</time></trkpt><trkpt lat="45.591326313009574" lon="9.479477765039874"><ele>178.0</ele><time>2026-04-05T16:35:28Z</time></trkpt><trkpt lat="45.59125065045335" lon="9.479098394890919"><ele>178.0</ele><time>2026-04-05T16:35:29Z</time></trkpt><trkpt lat="45.59117115346305" lon="9.478721917150162"><ele>178.0</ele><time>2026-04-05T16:35:30Z</time></trkpt><trkpt lat="45.591089340457756" lon="9.478339818924399"><ele>178.0</ele><time>2026-04-05T16:35:31Z</time></trkpt><trkpt lat="45.591016166902726" lon="9.477953469514018"><ele>178.0</ele><time>2026-04-05T16:35:32Z</time></trkpt><trkpt lat="45.59094650185366" lon="9.477556931415547"><ele>178.0</ele><time>2026-04-05T16:35:33Z</time></trkpt><trkpt lat="45.590877652616065" lon="9.477159125935026"><ele>178.0</ele><time>2026-04-05T16:35:34Z</time></trkpt><trkpt lat="45.59080627889734" lon="9.476764745381821"><ele>179.0</ele><time>2026-04-05T16:35:35Z</time></trkpt><trkpt lat="45.5907312991232" lon="9.476372632491712"><ele>180.0</ele><time>2026-04-05T16:35:36Z</time></trkpt><trkpt lat="45.59065415100603" lon="9.475986012056113"><ele>180.5</ele><time>2026-04-05T16:35:37Z</time></trkpt><trkpt lat="45.59057649733608" lon="9.475604248971372"><ele>181.0</ele><time>2026-04-05T16:35:38Z</time></trkpt><trkpt lat="45.59050143688424" lon="9.475226079888971"><ele>181.0</ele><time>2026-04-05T16:35:39Z</time></trkpt><trkpt lat="45.59042335897808" lon="9.474844045670682"><ele>181.0</ele><time>2026-04-05T16:35:40Z</time></trkpt><trkpt lat="45.59034484656635" lon="9.4744596393892"><ele>181.0</ele><time>2026-04-05T16:35:41Z</time></trkpt><trkpt lat="45.59026726391281" lon="9.474074094093643"><ele>181.0</ele><time>2026-04-05T16:35:42Z</time></trkpt><trkpt lat="45.59019196295175" lon="9.473682580152248"><ele>181.0</ele><time>2026-04-05T16:35:43Z</time></trkpt><trkpt lat="45.59011542403656" lon="9.473288687878448"><ele>181.0</ele><time>2026-04-05T16:35:44Z</time></trkpt><trkpt lat="45.590040663279126" lon="9.472893424069015"><ele>180.0</ele><time>2026-04-05T16:35:45Z</time></trkpt><trkpt lat="45.589963148368014" lon="9.472496116442978"><ele>179.0</ele><time>2026-04-05T16:35:46Z</time></trkpt><trkpt lat="45.58988421011488" lon="9.472098307792649"><ele>179.0</ele><time>2026-04-05T16:35:47Z</time></trkpt><trkpt lat="45.58980462217414" lon="9.471698809512414"><ele>179.0</ele><time>2026-04-05T16:35:48Z</time></trkpt><trkpt lat="45.58972687085231" lon="9.471295643112352"><ele>179.0</ele><time>2026-04-05T16:35:49Z</time></trkpt><trkpt lat="45.589650265403726" lon="9.470887544641249"><ele>179.0</ele><time>2026-04-05T16:35:50Z</time></trkpt><trkpt lat="45.58957413309854" lon="9.470481840574264"><ele>179.5</ele><time>2026-04-05T16:35:51Z</time></trkpt><trkpt lat="45.58949674940728" lon="9.470073712680188"><ele>180.0</ele><time>2026-04-05T16:35:52Z</time></trkpt><trkpt lat="45.58941678285433" lon="9.469667924530375"><ele>180.0</ele><time>2026-04-05T16:35:53Z</time></trkpt><trkpt lat="45.58933298125783" lon="9.469262554772358"><ele>180.0</ele><time>2026-04-05T16:35:54Z</time></trkpt><trkpt lat="45.58925616143567" lon="9.468856587486709"><ele>181.0</ele><time>2026-04-05T16:35:55Z</time></trkpt><trkpt lat="45.58918137031583" lon="9.468451600265439"><ele>182.0</ele><time>2026-04-05T16:35:56Z</time></trkpt><trkpt lat="45.58911293805701" lon="9.468049031293994"><ele>182.5</ele><time>2026-04-05T16:35:57.001Z</time></trkpt><trkpt lat="45.58904921193713" lon="9.467651126452472"><ele>183.0</ele><time>2026-04-05T16:35:58.001Z</time></trkpt><trkpt lat="45.588979470184164" lon="9.467251109882866"><ele>182.5</ele><time>2026-04-05T16:35:59.001Z</time></trkpt><trkpt lat="45.5889057986799" lon="9.466857015448708"><ele>182.0</ele><time>2026-04-05T16:36:00.001Z</time></trkpt><trkpt lat="45.588830176894" lon="9.46647365932337"><ele>180.5</ele><time>2026-04-05T16:36:01.001Z</time></trkpt><trkpt lat="45.58875061365874" lon="9.466091653839603"><ele>179.0</ele><time>2026-04-05T16:36:02.001Z</time></trkpt><trkpt lat="45.588672652354575" lon="9.465713799320099"><ele>178.0</ele><time>2026-04-05T16:36:03.001Z</time></trkpt><trkpt lat="45.58859887751545" lon="9.465340695589273"><ele>177.0</ele><time>2026-04-05T16:36:04.001Z</time></trkpt><trkpt lat="45.588525964819056" lon="9.464971825973043"><ele>177.5</ele><time>2026-04-05T16:36:05.001Z</time></trkpt><trkpt lat="45.58845508765222" lon="9.46459653848774"><ele>178.0</ele><time>2026-04-05T16:36:06.001Z</time></trkpt><trkpt lat="45.58839060320409" lon="9.464231457753975"><ele>178.0</ele><time>2026-04-05T16:36:07.001Z</time></trkpt><trkpt lat="45.58832777052749" lon="9.463864846686015"><ele>178.0</ele><time>2026-04-05T16:36:08.001Z</time></trkpt><trkpt lat="45.588263979719926" lon="9.463514308873192"><ele>178.5</ele><time>2026-04-05T16:36:09.001Z</time></trkpt><trkpt lat="45.588197122455064" lon="9.463167830283371"><ele>179.0</ele><time>2026-04-05T16:36:10.001Z</time></trkpt><trkpt lat="45.58812929214208" lon="9.46282815197828"><ele>179.5</ele><time>2026-04-05T16:36:11.001Z</time></trkpt><trkpt lat="45.588057302826705" lon="9.462483918791063"><ele>180.0</ele><time>2026-04-05T16:36:12.001Z</time></trkpt><trkpt lat="45.58798824759175" lon="9.462136747804161"><ele>180.5</ele><time>2026-04-05T16:36:13.001Z</time></trkpt><trkpt lat="45.587922153172336" lon="9.46178623194864"><ele>181.0</ele><time>2026-04-05T16:36:14.001Z</time></trkpt><trkpt lat="45.58785987691851" lon="9.461448471160955"><ele>179.5</ele><time>2026-04-05T16:36:15.001Z</time></trkpt><trkpt lat="45.58779660551024" lon="9.46110987638181"><ele>178.0</ele><time>2026-04-05T16:36:16.001Z</time></trkpt><trkpt lat="45.5877309588121" lon="9.460769363315876"><ele>178.5</ele><time>2026-04-05T16:36:17.001Z</time></trkpt><trkpt lat="45.58766423265386" lon="9.46042143476789"><ele>179.0</ele><time>2026-04-05T16:36:18.001Z</time></trkpt><trkpt lat="45.58759089731626" lon="9.460066659111554"><ele>179.0</ele><time>2026-04-05T16:36:19.001Z</time></trkpt><trkpt lat="45.587515932257446" lon="9.459712668867315"><ele>179.0</ele><time>2026-04-05T16:36:20.001Z</time></trkpt><trkpt lat="45.587452255003846" lon="9.459385210287717"><ele>177.5</ele><time>2026-04-05T16:36:21.001Z</time></trkpt><trkpt lat="45.58739613878751" lon="9.45905890222522"><ele>176.0</ele><time>2026-04-05T16:36:22.001Z</time></trkpt><trkpt lat="45.58734026167467" lon="9.458745591877484"><ele>176.0</ele><time>2026-04-05T16:36:23.001Z</time></trkpt><trkpt lat="45.58728208620596" lon="9.458471684654294"><ele>176.0</ele><time>2026-04-05T16:36:24.001Z</time></trkpt><trkpt lat="45.58722764586097" lon="9.45821621278038"><ele>176.0</ele><time>2026-04-05T16:36:25.001Z</time></trkpt><trkpt lat="45.587176506759484" lon="9.457973604148203"><ele>176.33333333333331</ele><time>2026-04-05T16:36:26.001Z</time></trkpt><trkpt lat="45.58713419511254" lon="9.457739935783342"><ele>176.66666666666666</ele><time>2026-04-05T16:36:27.001Z</time></trkpt><trkpt lat="45.58709453116422" lon="9.457514190570057"><ele>177.0</ele><time>2026-04-05T16:36:28.001Z</time></trkpt><trkpt lat="45.58705515120121" lon="9.457288929790286"><ele>177.33333333333334</ele><time>2026-04-05T16:36:29.001Z</time></trkpt><trkpt lat="45.58701444266865" lon="9.457073926967238"><ele>177.66666666666669</ele><time>2026-04-05T16:36:30.001Z</time></trkpt><trkpt lat="45.58697653469555" lon="9.45686354853556"><ele>178.0</ele><time>2026-04-05T16:36:31.001Z</time></trkpt><trkpt lat="45.58693443576522" lon="9.45663416332821"><ele>178.0</ele><time>2026-04-05T16:36:32.001Z</time></trkpt><trkpt lat="45.58689089976893" lon="9.45639609979144"><ele>178.0</ele><time>2026-04-05T16:36:33.001Z</time></trkpt><trkpt lat="45.58684552333941" lon="9.45615113745098"><ele>178.0</ele><time>2026-04-05T16:36:34.001Z</time></trkpt><trkpt lat="45.58679746065687" lon="9.455898499862464"><ele>177.66666666666669</ele><time>2026-04-05T16:36:35.001Z</time></trkpt><trkpt lat="45.586749415996564" lon="9.455642457103249"><ele>177.33333333333334</ele><time>2026-04-05T16:36:36.001Z</time></trkpt><trkpt lat="45.586697288066944" lon="9.455381710509618"><ele>177.0</ele><time>2026-04-05T16:36:37.001Z</time></trkpt><trkpt lat="45.58664623097411" lon="9.455117205581697"><ele>176.66666666666666</ele><time>2026-04-05T16:36:38.001Z</time></trkpt><trkpt lat="45.58659373154193" lon="9.454844999855817"><ele>176.33333333333331</ele><time>2026-04-05T16:36:39.001Z</time></trkpt><trkpt lat="45.586539061548365" lon="9.454569865110019"><ele>176.0</ele><time>2026-04-05T16:36:40.001Z</time></trkpt><trkpt lat="45.586477911993505" lon="9.454293308745942"><ele>175.66666666666666</ele><time>2026-04-05T16:36:41.001Z</time></trkpt><trkpt lat="45.58641431773822" lon="9.454011532219303"><ele>175.33333333333334</ele><time>2026-04-05T16:36:42.001Z</time></trkpt><trkpt lat="45.58635544492692" lon="9.453715617120395"><ele>175.0</ele><time>2026-04-05T16:36:43.001Z</time></trkpt><trkpt lat="45.58630127703515" lon="9.453408753262798"><ele>176.0</ele><time>2026-04-05T16:36:44.001Z</time></trkpt><trkpt lat="45.58624241047319" lon="9.453091465965388"><ele>177.0</ele><time>2026-04-05T16:36:45.001Z</time></trkpt><trkpt lat="45.5861810200954" lon="9.452770023111444"><ele>175.5</ele><time>2026-04-05T16:36:46.001Z</time></trkpt><trkpt lat="45.586118315288445" lon="9.452449436333236"><ele>174.0</ele><time>2026-04-05T16:36:47.001Z</time></trkpt><trkpt lat="45.58605647337455" lon="9.452132792201112"><ele>174.0</ele><time>2026-04-05T16:36:48.001Z</time></trkpt><trkpt lat="45.58599466286019" lon="9.451827054288403"><ele>174.0</ele><time>2026-04-05T16:36:49.001Z</time></trkpt><trkpt lat="45.585928893982356" lon="9.451497144941097"><ele>174.0</ele><time>2026-04-05T16:36:50.001Z</time></trkpt><trkpt lat="45.58586427851413" lon="9.45115232103149"><ele>174.0</ele><time>2026-04-05T16:36:51.001Z</time></trkpt><trkpt lat="45.585801546490565" lon="9.450797666111624"><ele>174.0</ele><time>2026-04-05T16:36:52.001Z</time></trkpt><trkpt lat="45.58573613192076" lon="9.450442469227905"><ele>174.0</ele><time>2026-04-05T16:36:53.001Z</time></trkpt><trkpt lat="45.58566986143716" lon="9.450092702485202"><ele>174.0</ele><time>2026-04-05T16:36:54.001Z</time></trkpt><trkpt lat="45.58560612680919" lon="9.44975140600325"><ele>174.0</ele><time>2026-04-05T16:36:55.001Z</time></trkpt><trkpt lat="45.585542975101504" lon="9.449416261206128"><ele>174.0</ele><time>2026-04-05T16:36:56.001Z</time></trkpt><trkpt lat="45.58547610856969" lon="9.449083794200138"><ele>174.0</ele><time>2026-04-05T16:36:57.001Z</time></trkpt><trkpt lat="45.58540739612915" lon="9.44874563340955"><ele>173.5</ele><time>2026-04-05T16:36:58.001Z</time></trkpt><trkpt lat="45.58533981572734" lon="9.448400886435204"><ele>173.0</ele><time>2026-04-05T16:36:59.001Z</time></trkpt><trkpt lat="45.58527245323176" lon="9.448039256036424"><ele>173.0</ele><time>2026-04-05T16:37:00.001Z</time></trkpt><trkpt lat="45.58520567346767" lon="9.44765933104513"><ele>173.0</ele><time>2026-04-05T16:37:01.001Z</time></trkpt><trkpt lat="45.585137620872224" lon="9.447265327623507"><ele>173.5</ele><time>2026-04-05T16:37:02.001Z</time></trkpt><trkpt lat="45.58506429641" lon="9.446863706629332"><ele>174.0</ele><time>2026-04-05T16:37:03.001Z</time></trkpt><trkpt lat="45.58498686272348" lon="9.446460599131424"><ele>175.0</ele><time>2026-04-05T16:37:04.001Z</time></trkpt><trkpt lat="45.58490650436438" lon="9.446052935695683"><ele>176.0</ele><time>2026-04-05T16:37:05Z</time></trkpt><trkpt lat="45.5848266711722" lon="9.44564189972214"><ele>177.5</ele><time>2026-04-05T16:37:06Z</time></trkpt><trkpt lat="45.58474753721643" lon="9.445226630876958"><ele>179.0</ele><time>2026-04-05T16:37:07Z</time></trkpt><trkpt lat="45.58466651839281" lon="9.444813133567447"><ele>178.5</ele><time>2026-04-05T16:37:08Z</time></trkpt><trkpt lat="45.584587567622634" lon="9.444397156496585"><ele>178.0</ele><time>2026-04-05T16:37:09Z</time></trkpt><trkpt lat="45.584513467989524" lon="9.44399960569726"><ele>175.5</ele><time>2026-04-05T16:37:10Z</time></trkpt><trkpt lat="45.58444144478312" lon="9.443623998615895"><ele>173.0</ele><time>2026-04-05T16:37:11Z</time></trkpt><trkpt lat="45.584370961890066" lon="9.443250180411994"><ele>173.0</ele><time>2026-04-05T16:37:12Z</time></trkpt><trkpt lat="45.58429923211059" lon="9.44287546518576"><ele>173.0</ele><time>2026-04-05T16:37:13Z</time></trkpt><trkpt lat="45.58422907118535" lon="9.442497718335966"><ele>173.0</ele><time>2026-04-05T16:37:14Z</time></trkpt><trkpt lat="45.58415490079225" lon="9.442121140823124"><ele>173.0</ele><time>2026-04-05T16:37:15Z</time></trkpt><trkpt lat="45.58408240002035" lon="9.441743335946457"><ele>173.0</ele><time>2026-04-05T16:37:16Z</time></trkpt><trkpt lat="45.58401054175079" lon="9.44136396046401"><ele>173.0</ele><time>2026-04-05T16:37:17Z</time></trkpt><trkpt lat="45.5839363530162" lon="9.440985099352849"><ele>173.0</ele><time>2026-04-05T16:37:18Z</time></trkpt><trkpt lat="45.5838681102929" lon="9.44063037204864"><ele>173.0</ele><time>2026-04-05T16:37:19Z</time></trkpt><trkpt lat="45.58379954283903" lon="9.440278495152283"><ele>172.5</ele><time>2026-04-05T16:37:20Z</time></trkpt><trkpt lat="45.58373302109335" lon="9.43992427740572"><ele>172.0</ele><time>2026-04-05T16:37:21Z</time></trkpt><trkpt lat="45.58365981690414" lon="9.43954964283629"><ele>172.0</ele><time>2026-04-05T16:37:22Z</time></trkpt><trkpt lat="45.58357910820104" lon="9.439161792089742"><ele>172.0</ele><time>2026-04-05T16:37:23Z</time></trkpt><trkpt lat="45.58349349328857" lon="9.438757803359717"><ele>171.5</ele><time>2026-04-05T16:37:24Z</time></trkpt><trkpt lat="45.583422185018435" lon="9.43836746847546"><ele>171.0</ele><time>2026-04-05T16:37:25Z</time></trkpt><trkpt lat="45.58335725856713" lon="9.438001556727793"><ele>172.0</ele><time>2026-04-05T16:37:26Z</time></trkpt><trkpt lat="45.58329339832798" lon="9.437658530935217"><ele>173.0</ele><time>2026-04-05T16:37:27Z</time></trkpt><trkpt lat="45.583233591843246" lon="9.437344670143375"><ele>173.0</ele><time>2026-04-05T16:37:28Z</time></trkpt><trkpt lat="45.58317814671123" lon="9.437044964996167"><ele>173.0</ele><time>2026-04-05T16:37:29Z</time></trkpt><trkpt lat="45.58312638879064" lon="9.436754408611263"><ele>173.0</ele><time>2026-04-05T16:37:30Z</time></trkpt><trkpt lat="45.58307470441761" lon="9.436456278125725"><ele>173.33333333333331</ele><time>2026-04-05T16:37:31Z</time></trkpt><trkpt lat="45.5830120030217" lon="9.436161318141297"><ele>173.66666666666666</ele><time>2026-04-05T16:37:32Z</time></trkpt><trkpt lat="45.58294851624663" lon="9.43587235088243"><ele>174.0</ele><time>2026-04-05T16:37:33Z</time></trkpt><trkpt lat="45.58288479871529" lon="9.435561988593259"><ele>172.66666666666666</ele><time>2026-04-05T16:37:34Z</time></trkpt><trkpt lat="45.58282965325651" lon="9.435279060490588"><ele>171.33333333333331</ele><time>2026-04-05T16:37:35Z</time></trkpt><trkpt lat="45.582779339803956" lon="9.435003878329718"><ele>170.0</ele><time>2026-04-05T16:37:36Z</time></trkpt><trkpt lat="45.58272207206279" lon="9.43471911905675"><ele>170.0</ele><time>2026-04-05T16:37:37Z</time></trkpt><trkpt lat="45.58266885150025" lon="9.434436784636105"><ele>170.0</ele><time>2026-04-05T16:37:38Z</time></trkpt><trkpt lat="45.5826211758359" lon="9.434170282677657"><ele>170.0</ele><time>2026-04-05T16:37:39Z</time></trkpt><trkpt lat="45.582571379314274" lon="9.43391561998131"><ele>170.66666666666666</ele><time>2026-04-05T16:37:40Z</time></trkpt><trkpt lat="45.582511092284776" lon="9.433633454403516"><ele>171.33333333333334</ele><time>2026-04-05T16:37:41Z</time></trkpt><trkpt lat="45.58245403545947" lon="9.433339239500274"><ele>172.0</ele><time>2026-04-05T16:37:42Z</time></trkpt><trkpt lat="45.58240143570789" lon="9.433041551197304"><ele>171.66666666666669</ele><time>2026-04-05T16:37:43Z</time></trkpt><trkpt lat="45.582349378608455" lon="9.432734704160353"><ele>171.33333333333334</ele><time>2026-04-05T16:37:44Z</time></trkpt><trkpt lat="45.58229273276295" lon="9.432419648503725"><ele>171.0</ele><time>2026-04-05T16:37:45Z</time></trkpt><trkpt lat="45.58222819936369" lon="9.432097625858992"><ele>169.5</ele><time>2026-04-05T16:37:46Z</time></trkpt><trkpt lat="45.5821622610534" lon="9.43177327206732"><ele>168.0</ele><time>2026-04-05T16:37:47Z</time></trkpt><trkpt lat="45.582096014997006" lon="9.431446948997262"><ele>167.5</ele><time>2026-04-05T16:37:48Z</time></trkpt><trkpt lat="45.58202791751956" lon="9.431109886372088"><ele>167.0</ele><time>2026-04-05T16:37:49Z</time></trkpt><trkpt lat="45.58195934585837" lon="9.43076264786351"><ele>167.0</ele><time>2026-04-05T16:37:50Z</time></trkpt><trkpt lat="45.58189041204561" lon="9.430406364837678"><ele>167.0</ele><time>2026-04-05T16:37:51Z</time></trkpt><trkpt lat="45.581819919253206" lon="9.43004618212342"><ele>167.0</ele><time>2026-04-05T16:37:52Z</time></trkpt><trkpt lat="45.581752299810596" lon="9.429694001917406"><ele>167.0</ele><time>2026-04-05T16:37:53.001Z</time></trkpt><trkpt lat="45.581689334915154" lon="9.429365891882675"><ele>168.0</ele><time>2026-04-05T16:37:54.001Z</time></trkpt><trkpt lat="45.58162790716237" lon="9.429051777108414"><ele>169.0</ele><time>2026-04-05T16:37:55.001Z</time></trkpt><trkpt lat="45.58156938505895" lon="9.428743653787029"><ele>169.33333333333334</ele><time>2026-04-05T16:37:56.001Z</time></trkpt><trkpt lat="45.58151659636576" lon="9.428461155351883"><ele>169.66666666666666</ele><time>2026-04-05T16:37:57.001Z</time></trkpt><trkpt lat="45.5814698412224" lon="9.428210075240417"><ele>170.0</ele><time>2026-04-05T16:37:58.001Z</time></trkpt><trkpt lat="45.58142847237507" lon="9.427972506788791"><ele>170.0</ele><time>2026-04-05T16:37:59.001Z</time></trkpt><trkpt lat="45.581388619525455" lon="9.427745067501991"><ele>170.0</ele><time>2026-04-05T16:38:00.001Z</time></trkpt><trkpt lat="45.581337943103044" lon="9.427492796847309"><ele>170.0</ele><time>2026-04-05T16:38:01.001Z</time></trkpt><trkpt lat="45.581277634629515" lon="9.427212928342275"><ele>170.0</ele><time>2026-04-05T16:38:02.001Z</time></trkpt><trkpt lat="45.581212184271386" lon="9.426913474772403"><ele>170.0</ele><time>2026-04-05T16:38:03.001Z</time></trkpt><trkpt lat="45.581152299853635" lon="9.42659814260325"><ele>170.0</ele><time>2026-04-05T16:38:04.001Z</time></trkpt><trkpt lat="45.581097714237266" lon="9.426274508738835"><ele>170.0</ele><time>2026-04-05T16:38:05.001Z</time></trkpt><trkpt lat="45.58104043450318" lon="9.42595373245075"><ele>170.0</ele><time>2026-04-05T16:38:06.001Z</time></trkpt><trkpt lat="45.58098093714515" lon="9.425637530652539"><ele>170.0</ele><time>2026-04-05T16:38:07.001Z</time></trkpt><trkpt lat="45.5809202287046" lon="9.425326815740158"><ele>170.0</ele><time>2026-04-05T16:38:08.001Z</time></trkpt><trkpt lat="45.58085585012254" lon="9.425009730970496"><ele>170.0</ele><time>2026-04-05T16:38:09.001Z</time></trkpt><trkpt lat="45.58078270058104" lon="9.424672441218153"><ele>170.0</ele><time>2026-04-05T16:38:10.001Z</time></trkpt><trkpt lat="45.58071173533018" lon="9.424323069187638"><ele>169.5</ele><time>2026-04-05T16:38:11.001Z</time></trkpt><trkpt lat="45.58064635639473" lon="9.4239793151386"><ele>169.0</ele><time>2026-04-05T16:38:12.001Z</time></trkpt><trkpt lat="45.58058790372371" lon="9.423654013410667"><ele>168.0</ele><time>2026-04-05T16:38:13.001Z</time></trkpt><trkpt lat="45.580529336610496" lon="9.42333635614599"><ele>167.0</ele><time>2026-04-05T16:38:14.001Z</time></trkpt><trkpt lat="45.58046818187028" lon="9.423022491340035"><ele>167.0</ele><time>2026-04-05T16:38:15.001Z</time></trkpt><trkpt lat="45.580404080692546" lon="9.42270573686087"><ele>167.0</ele><time>2026-04-05T16:38:16.001Z</time></trkpt><trkpt lat="45.580339085767086" lon="9.42238782835522"><ele>167.0</ele><time>2026-04-05T16:38:17.001Z</time></trkpt><trkpt lat="45.58027529991169" lon="9.422073671011193"><ele>167.0</ele><time>2026-04-05T16:38:18.001Z</time></trkpt><trkpt lat="45.58020877952568" lon="9.421749075528343"><ele>167.0</ele><time>2026-04-05T16:38:19.001Z</time></trkpt><trkpt lat="45.580146211542186" lon="9.421418063142822"><ele>167.0</ele><time>2026-04-05T16:38:20.001Z</time></trkpt><trkpt lat="45.58008078406242" lon="9.4210798689839"><ele>167.5</ele><time>2026-04-05T16:38:21.001Z</time></trkpt><trkpt lat="45.58001054561659" lon="9.420735629494283"><ele>168.0</ele><time>2026-04-05T16:38:22.001Z</time></trkpt><trkpt lat="45.57993419388882" lon="9.420385341342104"><ele>168.5</ele><time>2026-04-05T16:38:23.001Z</time></trkpt><trkpt lat="45.57985906330356" lon="9.420033237646386"><ele>169.0</ele><time>2026-04-05T16:38:24.001Z</time></trkpt><trkpt lat="45.57978380661792" lon="9.419682897186771"><ele>169.0</ele><time>2026-04-05T16:38:25.001Z</time></trkpt><trkpt lat="45.579710789985924" lon="9.41932846006887"><ele>169.0</ele><time>2026-04-05T16:38:26.001Z</time></trkpt><trkpt lat="45.57963945911402" lon="9.418978835997475"><ele>168.5</ele><time>2026-04-05T16:38:27.001Z</time></trkpt><trkpt lat="45.57957559797974" lon="9.418646896103457"><ele>168.0</ele><time>2026-04-05T16:38:28.001Z</time></trkpt><trkpt lat="45.57950902775216" lon="9.418313557416633"><ele>167.0</ele><time>2026-04-05T16:38:29.001Z</time></trkpt><trkpt lat="45.57943769363483" lon="9.417978569138455"><ele>166.0</ele><time>2026-04-05T16:38:30.001Z</time></trkpt><trkpt lat="45.57937267066054" lon="9.417641489209588"><ele>166.0</ele><time>2026-04-05T16:38:31.001Z</time></trkpt><trkpt lat="45.57930726670007" lon="9.417293201739646"><ele>166.0</ele><time>2026-04-05T16:38:32.001Z</time></trkpt><trkpt lat="45.57924195778778" lon="9.416938580517062"><ele>165.5</ele><time>2026-04-05T16:38:33.001Z</time></trkpt><trkpt lat="45.579179237203526" lon="9.41657778221784"><ele>165.0</ele><time>2026-04-05T16:38:34.001Z</time></trkpt><trkpt lat="45.57911195201554" lon="9.416204805202945"><ele>166.0</ele><time>2026-04-05T16:38:35.001Z</time></trkpt><trkpt lat="45.579036726507944" lon="9.415818357083356"><ele>167.0</ele><time>2026-04-05T16:38:36.001Z</time></trkpt><trkpt lat="45.57896215688433" lon="9.415425854124532"><ele>168.0</ele><time>2026-04-05T16:38:37.001Z</time></trkpt><trkpt lat="45.5788833400371" lon="9.415027741179411"><ele>169.0</ele><time>2026-04-05T16:38:38.001Z</time></trkpt><trkpt lat="45.57880131736705" lon="9.414620339465712"><ele>169.0</ele><time>2026-04-05T16:38:39.001Z</time></trkpt><trkpt lat="45.57871560921413" lon="9.414209330577954"><ele>169.0</ele><time>2026-04-05T16:38:40.001Z</time></trkpt><trkpt lat="45.578633448754466" lon="9.413793688601288"><ele>168.0</ele><time>2026-04-05T16:38:41.001Z</time></trkpt><trkpt lat="45.57855813015512" lon="9.413370653670176"><ele>167.0</ele><time>2026-04-05T16:38:42.001Z</time></trkpt><trkpt lat="45.57848288152963" lon="9.412943525605908"><ele>167.0</ele><time>2026-04-05T16:38:43.001Z</time></trkpt><trkpt lat="45.57840800815057" lon="9.41252129620162"><ele>167.0</ele><time>2026-04-05T16:38:44.001Z</time></trkpt><trkpt lat="45.57833549594736" lon="9.412098973054915"><ele>167.0</ele><time>2026-04-05T16:38:45.001Z</time></trkpt><trkpt lat="45.578267883477686" lon="9.411680951078267"><ele>167.0</ele><time>2026-04-05T16:38:46.001Z</time></trkpt><trkpt lat="45.57819933023611" lon="9.411276650462995"><ele>167.0</ele><time>2026-04-05T16:38:47.001Z</time></trkpt><trkpt lat="45.578129649129785" lon="9.41088209883657"><ele>167.0</ele><time>2026-04-05T16:38:48.001Z</time></trkpt><trkpt lat="45.57806099374187" lon="9.4104893997201"><ele>167.0</ele><time>2026-04-05T16:38:49.001Z</time></trkpt><trkpt lat="45.57799090486964" lon="9.410105885590234"><ele>167.0</ele><time>2026-04-05T16:38:50.001Z</time></trkpt><trkpt lat="45.57792157932187" lon="9.40973158550173"><ele>166.0</ele><time>2026-04-05T16:38:51.001Z</time></trkpt><trkpt lat="45.577851006277946" lon="9.409348707822774"><ele>165.0</ele><time>2026-04-05T16:38:52.001Z</time></trkpt><trkpt lat="45.577774523866246" lon="9.408954683744264"><ele>164.5</ele><time>2026-04-05T16:38:53.001Z</time></trkpt><trkpt lat="45.57769311525099" lon="9.408553699500658"><ele>164.0</ele><time>2026-04-05T16:38:54.001Z</time></trkpt><trkpt lat="45.57761000059241" lon="9.408146899192866"><ele>164.0</ele><time>2026-04-05T16:38:55.001Z</time></trkpt><trkpt lat="45.577536126385574" lon="9.407739654801965"><ele>164.0</ele><time>2026-04-05T16:38:56.001Z</time></trkpt><trkpt lat="45.57746806926049" lon="9.407332006044575"><ele>165.5</ele><time>2026-04-05T16:38:57.001Z</time></trkpt><trkpt lat="45.577396769514436" lon="9.406925726138141"><ele>167.0</ele><time>2026-04-05T16:38:58.001Z</time></trkpt><trkpt lat="45.57731874798969" lon="9.406522727326497"><ele>166.0</ele><time>2026-04-05T16:38:59.001Z</time></trkpt><trkpt lat="45.577241221756985" lon="9.40612389236586"><ele>165.0</ele><time>2026-04-05T16:39:00.001Z</time></trkpt><trkpt lat="45.57716447995782" lon="9.405734324902147"><ele>165.0</ele><time>2026-04-05T16:39:01.001Z</time></trkpt><trkpt lat="45.57708940093595" lon="9.405353171509972"><ele>165.0</ele><time>2026-04-05T16:39:02.001Z</time></trkpt><trkpt lat="45.57701505601708" lon="9.40497119820673"><ele>164.5</ele><time>2026-04-05T16:39:03.001Z</time></trkpt><trkpt lat="45.57694161438041" lon="9.404588610627991"><ele>164.0</ele><time>2026-04-05T16:39:04.001Z</time></trkpt><trkpt lat="45.576869739082774" lon="9.404205522983034"><ele>164.5</ele><time>2026-04-05T16:39:05.002Z</time></trkpt><trkpt lat="45.57679899019876" lon="9.403827242613687"><ele>165.0</ele><time>2026-04-05T16:39:06.002Z</time></trkpt><trkpt lat="45.57672970527368" lon="9.403452547741573"><ele>165.0</ele><time>2026-04-05T16:39:07.002Z</time></trkpt><trkpt lat="45.57665919687346" lon="9.403085269063533"><ele>165.0</ele><time>2026-04-05T16:39:08.002Z</time></trkpt><trkpt lat="45.576591707717945" lon="9.402741095566835"><ele>165.5</ele><time>2026-04-05T16:39:09.002Z</time></trkpt><trkpt lat="45.57652726693704" lon="9.402405605360936"><ele>166.0</ele><time>2026-04-05T16:39:10.002Z</time></trkpt><trkpt lat="45.576462453185215" lon="9.40206856016919"><ele>166.0</ele><time>2026-04-05T16:39:11Z</time></trkpt><trkpt lat="45.57639453416438" lon="9.401731415036027"><ele>166.0</ele><time>2026-04-05T16:39:12Z</time></trkpt><trkpt lat="45.57632613273778" lon="9.401390986789288"><ele>166.0</ele><time>2026-04-05T16:39:13Z</time></trkpt><trkpt lat="45.5762598123536" lon="9.401046646282357"><ele>166.0</ele><time>2026-04-05T16:39:14Z</time></trkpt><trkpt lat="45.5761860052279" lon="9.400687065720113"><ele>166.0</ele><time>2026-04-05T16:39:15Z</time></trkpt><trkpt lat="45.5761018929765" lon="9.400321226623415"><ele>166.0</ele><time>2026-04-05T16:39:16Z</time></trkpt><trkpt lat="45.576021184800034" lon="9.39995209817761"><ele>166.5</ele><time>2026-04-05T16:39:17Z</time></trkpt><trkpt lat="45.57594977162651" lon="9.39957477335978"><ele>167.0</ele><time>2026-04-05T16:39:18Z</time></trkpt><trkpt lat="45.57588239306957" lon="9.399188408115206"><ele>165.0</ele><time>2026-04-05T16:39:19Z</time></trkpt><trkpt lat="45.57580929426517" lon="9.398795637381859"><ele>163.0</ele><time>2026-04-05T16:39:20Z</time></trkpt><trkpt lat="45.57573246228781" lon="9.398399779062698"><ele>163.0</ele><time>2026-04-05T16:39:21Z</time></trkpt><trkpt lat="45.57566035588485" lon="9.398004677289471"><ele>163.0</ele><time>2026-04-05T16:39:22Z</time></trkpt><trkpt lat="45.57558849148362" lon="9.397609384802912"><ele>163.0</ele><time>2026-04-05T16:39:23Z</time></trkpt><trkpt lat="45.57551640942278" lon="9.397225452792993"><ele>163.0</ele><time>2026-04-05T16:39:24Z</time></trkpt><trkpt lat="45.575442319658066" lon="9.396851364029775"><ele>163.0</ele><time>2026-04-05T16:39:25Z</time></trkpt><trkpt lat="45.575372997718326" lon="9.396503535473693"><ele>163.0</ele><time>2026-04-05T16:39:26Z</time></trkpt><trkpt lat="45.57530943210505" lon="9.396163001654099"><ele>163.0</ele><time>2026-04-05T16:39:27Z</time></trkpt><trkpt lat="45.57523636830509" lon="9.39579837658343"><ele>163.0</ele><time>2026-04-05T16:39:28Z</time></trkpt><trkpt lat="45.57515629088867" lon="9.395415203076519"><ele>163.0</ele><time>2026-04-05T16:39:29Z</time></trkpt><trkpt lat="45.57507385611098" lon="9.395024522433069"><ele>163.0</ele><time>2026-04-05T16:39:30Z</time></trkpt><trkpt lat="45.57499505693686" lon="9.394630293380713"><ele>163.0</ele><time>2026-04-05T16:39:31Z</time></trkpt><trkpt lat="45.57491984164662" lon="9.394232066469066"><ele>163.0</ele><time>2026-04-05T16:39:32Z</time></trkpt><trkpt lat="45.574842544049304" lon="9.393832403690874"><ele>162.5</ele><time>2026-04-05T16:39:33Z</time></trkpt><trkpt lat="45.57476457433121" lon="9.393431248461155"><ele>162.0</ele><time>2026-04-05T16:39:34Z</time></trkpt><trkpt lat="45.57468637880515" lon="9.393027444210631"><ele>162.0</ele><time>2026-04-05T16:39:35Z</time></trkpt><trkpt lat="45.57460996368569" lon="9.392620011243352"><ele>162.0</ele><time>2026-04-05T16:39:36Z</time></trkpt><trkpt lat="45.57453503308459" lon="9.392211980862072"><ele>162.5</ele><time>2026-04-05T16:39:37Z</time></trkpt><trkpt lat="45.5744596771616" lon="9.391806115566435"><ele>163.0</ele><time>2026-04-05T16:39:38Z</time></trkpt><trkpt lat="45.57438415774467" lon="9.391403761350285"><ele>163.0</ele><time>2026-04-05T16:39:39Z</time></trkpt><trkpt lat="45.57431396921842" lon="9.391015851506092"><ele>163.0</ele><time>2026-04-05T16:39:40Z</time></trkpt><trkpt lat="45.574246731342235" lon="9.390635248471071"><ele>163.0</ele><time>2026-04-05T16:39:41Z</time></trkpt><trkpt lat="45.57418167992396" lon="9.390256862870244"><ele>163.0</ele><time>2026-04-05T16:39:42Z</time></trkpt><trkpt lat="45.574119545805125" lon="9.389875638308162"><ele>163.5</ele><time>2026-04-05T16:39:43Z</time></trkpt><trkpt lat="45.574058823248535" lon="9.389492261950245"><ele>164.0</ele><time>2026-04-05T16:39:44Z</time></trkpt><trkpt lat="45.57400243434264" lon="9.389104609878324"><ele>163.0</ele><time>2026-04-05T16:39:45Z</time></trkpt><trkpt lat="45.57395205560076" lon="9.388715540602567"><ele>162.0</ele><time>2026-04-05T16:39:46.001Z</time></trkpt><trkpt lat="45.573904794979946" lon="9.38832170065325"><ele>162.0</ele><time>2026-04-05T16:39:47.001Z</time></trkpt><trkpt lat="45.57385536140466" lon="9.38792635123954"><ele>162.0</ele><time>2026-04-05T16:39:48.001Z</time></trkpt><trkpt lat="45.57379994376531" lon="9.38753126292586"><ele>161.5</ele><time>2026-04-05T16:39:49.001Z</time></trkpt><trkpt lat="45.57374011363758" lon="9.387132086108078"><ele>161.0</ele><time>2026-04-05T16:39:50.001Z</time></trkpt><trkpt lat="45.573683097895476" lon="9.386727099773898"><ele>161.0</ele><time>2026-04-05T16:39:51.001Z</time></trkpt><trkpt lat="45.573625295524884" lon="9.38632119465325"><ele>161.0</ele><time>2026-04-05T16:39:52.001Z</time></trkpt><trkpt lat="45.57356557788322" lon="9.385915435688506"><ele>162.5</ele><time>2026-04-05T16:39:53.001Z</time></trkpt><trkpt lat="45.57350542971887" lon="9.385509583304557"><ele>164.0</ele><time>2026-04-05T16:39:54.001Z</time></trkpt><trkpt lat="45.573444557965175" lon="9.385104678695207"><ele>164.0</ele><time>2026-04-05T16:39:55.001Z</time></trkpt><trkpt lat="45.57338668968144" lon="9.384707820217649"><ele>164.0</ele><time>2026-04-05T16:39:56.001Z</time></trkpt><trkpt lat="45.5733326604737" lon="9.384333777700993"><ele>164.0</ele><time>2026-04-05T16:39:57.001Z</time></trkpt><trkpt lat="45.57327881286667" lon="9.38396710256988"><ele>164.0</ele><time>2026-04-05T16:39:58.001Z</time></trkpt><trkpt lat="45.573224604134744" lon="9.383605928409004"><ele>162.5</ele><time>2026-04-05T16:39:59.001Z</time></trkpt><trkpt lat="45.57317189485897" lon="9.383251334883596"><ele>161.0</ele><time>2026-04-05T16:40:00.001Z</time></trkpt><trkpt lat="45.57312152383463" lon="9.382904134086793"><ele>161.0</ele><time>2026-04-05T16:40:01.001Z</time></trkpt><trkpt lat="45.5730717480905" lon="9.382558947473234"><ele>161.0</ele><time>2026-04-05T16:40:02.001Z</time></trkpt><trkpt lat="45.57302322425516" lon="9.382216785801011"><ele>162.5</ele><time>2026-04-05T16:40:03.001Z</time></trkpt><trkpt lat="45.57297283692566" lon="9.381870696654284"><ele>164.0</ele><time>2026-04-05T16:40:04.001Z</time></trkpt><trkpt lat="45.57292144235655" lon="9.381518806740372"><ele>164.5</ele><time>2026-04-05T16:40:05.001Z</time></trkpt><trkpt lat="45.57287294654764" lon="9.381163753503303"><ele>165.0</ele><time>2026-04-05T16:40:06.001Z</time></trkpt><trkpt lat="45.57282349492532" lon="9.38080936788354"><ele>163.5</ele><time>2026-04-05T16:40:07.001Z</time></trkpt><trkpt lat="45.57277274070396" lon="9.380454684688855"><ele>162.0</ele><time>2026-04-05T16:40:08.001Z</time></trkpt><trkpt lat="45.57272025779754" lon="9.380103305292023"><ele>162.0</ele><time>2026-04-05T16:40:09.001Z</time></trkpt><trkpt lat="45.572671517721574" lon="9.37975936532074"><ele>162.0</ele><time>2026-04-05T16:40:10.001Z</time></trkpt><trkpt lat="45.57261873377913" lon="9.379420803995119"><ele>162.0</ele><time>2026-04-05T16:40:11.001Z</time></trkpt><trkpt lat="45.57256728119252" lon="9.379086385359802"><ele>162.0</ele><time>2026-04-05T16:40:12.001Z</time></trkpt><trkpt lat="45.57251603504918" lon="9.378752053861312"><ele>162.0</ele><time>2026-04-05T16:40:13.001Z</time></trkpt><trkpt lat="45.572464084960416" lon="9.378417700481645"><ele>162.0</ele><time>2026-04-05T16:40:14.001Z</time></trkpt><trkpt lat="45.57241225199628" lon="9.378074551043422"><ele>161.5</ele><time>2026-04-05T16:40:15.001Z</time></trkpt><trkpt lat="45.5723592355072" lon="9.377722896499778"><ele>161.0</ele><time>2026-04-05T16:40:16.001Z</time></trkpt><trkpt lat="45.572305690326075" lon="9.377366424691942"><ele>161.5</ele><time>2026-04-05T16:40:17.001Z</time></trkpt><trkpt lat="45.57225205105295" lon="9.37700721093239"><ele>162.0</ele><time>2026-04-05T16:40:18.001Z</time></trkpt><trkpt lat="45.572202242546645" lon="9.376662871639677"><ele>162.5</ele><time>2026-04-05T16:40:19.001Z</time></trkpt><trkpt lat="45.57215382619202" lon="9.376329016500863"><ele>163.0</ele><time>2026-04-05T16:40:20.001Z</time></trkpt><trkpt lat="45.57210320809288" lon="9.37599583707045"><ele>163.0</ele><time>2026-04-05T16:40:21.001Z</time></trkpt><trkpt lat="45.572047568838364" lon="9.375647122309454"><ele>163.0</ele><time>2026-04-05T16:40:22.001Z</time></trkpt><trkpt lat="45.57199320804662" lon="9.375290845170358"><ele>163.0</ele><time>2026-04-05T16:40:23.001Z</time></trkpt><trkpt lat="45.57194369321937" lon="9.374902162726894"><ele>163.0</ele><time>2026-04-05T16:40:24.001Z</time></trkpt><trkpt lat="45.571895915763776" lon="9.374483528327277"><ele>163.0</ele><time>2026-04-05T16:40:25.001Z</time></trkpt><trkpt lat="45.57184355479566" lon="9.374047256730089"><ele>163.0</ele><time>2026-04-05T16:40:26.001Z</time></trkpt><trkpt lat="45.57178288338328" lon="9.37361903700024"><ele>163.0</ele><time>2026-04-05T16:40:27.001Z</time></trkpt><trkpt lat="45.57172336676127" lon="9.37322614528315"><ele>163.0</ele><time>2026-04-05T16:40:28.001Z</time></trkpt><trkpt lat="45.57166385441672" lon="9.372837594557454"><ele>163.0</ele><time>2026-04-05T16:40:29.001Z</time></trkpt><trkpt lat="45.5715991207255" lon="9.372460689041299"><ele>163.0</ele><time>2026-04-05T16:40:30.001Z</time></trkpt><trkpt lat="45.57153940982747" lon="9.372114749238966"><ele>163.0</ele><time>2026-04-05T16:40:31.001Z</time></trkpt><trkpt lat="45.571496852061394" lon="9.371767476268948"><ele>163.0</ele><time>2026-04-05T16:40:32.001Z</time></trkpt><trkpt lat="45.57145119526113" lon="9.37143570925187"><ele>163.33333333333334</ele><time>2026-04-05T16:40:33.001Z</time></trkpt><trkpt lat="45.57140828015309" lon="9.37112477586844"><ele>163.66666666666666</ele><time>2026-04-05T16:40:34.001Z</time></trkpt><trkpt lat="45.57136218413931" lon="9.370819464362848"><ele>164.0</ele><time>2026-04-05T16:40:35.001Z</time></trkpt><trkpt lat="45.57131842859869" lon="9.370529925578102"><ele>164.0</ele><time>2026-04-05T16:40:36.001Z</time></trkpt><trkpt lat="45.571277162377676" lon="9.37025676513489"><ele>164.0</ele><time>2026-04-05T16:40:37.001Z</time></trkpt><trkpt lat="45.57123574025589" lon="9.36997964483246"><ele>164.0</ele><time>2026-04-05T16:40:38.001Z</time></trkpt><trkpt lat="45.571193123062294" lon="9.369697917795229"><ele>164.0</ele><time>2026-04-05T16:40:39.001Z</time></trkpt><trkpt lat="45.57114880478706" lon="9.369407247657724"><ele>164.0</ele><time>2026-04-05T16:40:40.001Z</time></trkpt><trkpt lat="45.57110933397229" lon="9.369083910481102"><ele>164.0</ele><time>2026-04-05T16:40:41.001Z</time></trkpt><trkpt lat="45.571065847092065" lon="9.368738527468865"><ele>164.0</ele><time>2026-04-05T16:40:42.001Z</time></trkpt><trkpt lat="45.571006682745875" lon="9.368378207965259"><ele>164.0</ele><time>2026-04-05T16:40:43.001Z</time></trkpt><trkpt lat="45.57093753370689" lon="9.368011464518837"><ele>164.0</ele><time>2026-04-05T16:40:44.001Z</time></trkpt><trkpt lat="45.570871914126485" lon="9.3676538665764"><ele>164.0</ele><time>2026-04-05T16:40:45.001Z</time></trkpt><trkpt lat="45.5708154001719" lon="9.367311244574102"><ele>164.5</ele><time>2026-04-05T16:40:46.001Z</time></trkpt><trkpt lat="45.570766238669165" lon="9.366966292709716"><ele>165.0</ele><time>2026-04-05T16:40:47.001Z</time></trkpt><trkpt lat="45.5707211827092" lon="9.366640506008352"><ele>165.5</ele><time>2026-04-05T16:40:48.001Z</time></trkpt><trkpt lat="45.57067911405384" lon="9.366310536447678"><ele>166.0</ele><time>2026-04-05T16:40:49.001Z</time></trkpt><trkpt lat="45.57064191026572" lon="9.36597569597445"><ele>166.0</ele><time>2026-04-05T16:40:50.001Z</time></trkpt><trkpt lat="45.570602728459214" lon="9.365641498975524"><ele>166.0</ele><time>2026-04-05T16:40:51.001Z</time></trkpt><trkpt lat="45.570557552828795" lon="9.365320317652186"><ele>165.0</ele><time>2026-04-05T16:40:52.001Z</time></trkpt><trkpt lat="45.57050833898791" lon="9.365002311159978"><ele>164.0</ele><time>2026-04-05T16:40:53.001Z</time></trkpt><trkpt lat="45.570453215922264" lon="9.364671788277736"><ele>164.0</ele><time>2026-04-05T16:40:54.001Z</time></trkpt><trkpt lat="45.57039880884063" lon="9.364346760640846"><ele>164.0</ele><time>2026-04-05T16:40:55.001Z</time></trkpt><trkpt lat="45.57034949341652" lon="9.36400351453062"><ele>163.0</ele><time>2026-04-05T16:40:56.001Z</time></trkpt><trkpt lat="45.57030690393604" lon="9.363645226918901"><ele>162.0</ele><time>2026-04-05T16:40:57.001Z</time></trkpt><trkpt lat="45.570256617147464" lon="9.363286901427514"><ele>162.0</ele><time>2026-04-05T16:40:58.001Z</time></trkpt><trkpt lat="45.57020515172207" lon="9.362924565440283"><ele>162.0</ele><time>2026-04-05T16:40:59.001Z</time></trkpt><trkpt lat="45.5701512379223" lon="9.362559117413138"><ele>161.0</ele><time>2026-04-05T16:41:00.001Z</time></trkpt><trkpt lat="45.57009787458114" lon="9.36219432505506"><ele>160.0</ele><time>2026-04-05T16:41:01.001Z</time></trkpt><trkpt lat="45.57003995102193" lon="9.36183333340094"><ele>160.0</ele><time>2026-04-05T16:41:02.001Z</time></trkpt><trkpt lat="45.56997596159714" lon="9.36146957576031"><ele>160.0</ele><time>2026-04-05T16:41:03.001Z</time></trkpt><trkpt lat="45.56991337407318" lon="9.36110353504295"><ele>160.0</ele><time>2026-04-05T16:41:04.001Z</time></trkpt><trkpt lat="45.56985090042387" lon="9.360735986771003"><ele>160.0</ele><time>2026-04-05T16:41:05.001Z</time></trkpt><trkpt lat="45.569791164382934" lon="9.360367954111924"><ele>160.5</ele><time>2026-04-05T16:41:06.001Z</time></trkpt><trkpt lat="45.5697279082902" lon="9.360001300682343"><ele>161.0</ele><time>2026-04-05T16:41:07.001Z</time></trkpt><trkpt lat="45.56966481875369" lon="9.359634685252429"><ele>161.0</ele><time>2026-04-05T16:41:08.002Z</time></trkpt><trkpt lat="45.56959765506396" lon="9.359259971164441"><ele>161.0</ele><time>2026-04-05T16:41:09.002Z</time></trkpt><trkpt lat="45.569524226264214" lon="9.358867488011391"><ele>161.0</ele><time>2026-04-05T16:41:10.002Z</time></trkpt><trkpt lat="45.56945644591727" lon="9.358457715439066"><ele>161.0</ele><time>2026-04-05T16:41:11.002Z</time></trkpt><trkpt lat="45.569396414131475" lon="9.358044098186863"><ele>160.0</ele><time>2026-04-05T16:41:12.002Z</time></trkpt><trkpt lat="45.56933263556427" lon="9.357611719802854"><ele>159.0</ele><time>2026-04-05T16:41:13.002Z</time></trkpt><trkpt lat="45.569267273920936" lon="9.357175120295269"><ele>159.0</ele><time>2026-04-05T16:41:14.002Z</time></trkpt><trkpt lat="45.56920153955497" lon="9.356739930646635"><ele>159.0</ele><time>2026-04-05T16:41:15.002Z</time></trkpt><trkpt lat="45.5691364396478" lon="9.356302536754427"><ele>159.5</ele><time>2026-04-05T16:41:16.002Z</time></trkpt><trkpt lat="45.56907143298467" lon="9.355860928553101"><ele>160.0</ele><time>2026-04-05T16:41:17Z</time></trkpt><trkpt lat="45.56900681491364" lon="9.355422813412954"><ele>160.5</ele><time>2026-04-05T16:41:18Z</time></trkpt><trkpt lat="45.56894347970404" lon="9.354986841606422"><ele>161.0</ele><time>2026-04-05T16:41:19Z</time></trkpt><trkpt lat="45.56888293862763" lon="9.354577264532189"><ele>161.5</ele><time>2026-04-05T16:41:20Z</time></trkpt><trkpt lat="45.56882831084759" lon="9.354194547782356"><ele>162.0</ele><time>2026-04-05T16:41:21Z</time></trkpt><trkpt lat="45.56877485152515" lon="9.353833755631102"><ele>162.0</ele><time>2026-04-05T16:41:22Z</time></trkpt><trkpt lat="45.56872349105266" lon="9.353490754437827"><ele>162.0</ele><time>2026-04-05T16:41:23Z</time></trkpt><trkpt lat="45.5686683191539" lon="9.353123663369313"><ele>160.5</ele><time>2026-04-05T16:41:24Z</time></trkpt><trkpt lat="45.56861073568104" lon="9.35274292991263"><ele>159.0</ele><time>2026-04-05T16:41:25Z</time></trkpt><trkpt lat="45.568548853961445" lon="9.352349009235578"><ele>159.5</ele><time>2026-04-05T16:41:26Z</time></trkpt><trkpt lat="45.56849214604629" lon="9.351949256178928"><ele>160.0</ele><time>2026-04-05T16:41:27Z</time></trkpt><trkpt lat="45.568435008306004" lon="9.351549557693044"><ele>160.5</ele><time>2026-04-05T16:41:28Z</time></trkpt><trkpt lat="45.568382121855294" lon="9.351172847835818"><ele>161.0</ele><time>2026-04-05T16:41:29Z</time></trkpt><trkpt lat="45.56833130297012" lon="9.350821039056985"><ele>161.5</ele><time>2026-04-05T16:41:30Z</time></trkpt><trkpt lat="45.56827944961395" lon="9.350479722785266"><ele>162.0</ele><time>2026-04-05T16:41:31Z</time></trkpt><trkpt lat="45.56822692118094" lon="9.350118588515572"><ele>162.0</ele><time>2026-04-05T16:41:32Z</time></trkpt><trkpt lat="45.568175071398514" lon="9.34974790263317"><ele>162.0</ele><time>2026-04-05T16:41:33Z</time></trkpt><trkpt lat="45.56812269385262" lon="9.349366199797728"><ele>161.0</ele><time>2026-04-05T16:41:34Z</time></trkpt><trkpt lat="45.568072885114645" lon="9.348976696922618"><ele>160.0</ele><time>2026-04-05T16:41:35Z</time></trkpt><trkpt lat="45.568021103417756" lon="9.348583896073688"><ele>160.0</ele><time>2026-04-05T16:41:36Z</time></trkpt><trkpt lat="45.56796983737991" lon="9.3481947719734"><ele>160.0</ele><time>2026-04-05T16:41:37Z</time></trkpt><trkpt lat="45.56791872932135" lon="9.347807357418745"><ele>160.0</ele><time>2026-04-05T16:41:38Z</time></trkpt><trkpt lat="45.56786690588395" lon="9.34742006337624"><ele>160.0</ele><time>2026-04-05T16:41:39Z</time></trkpt><trkpt lat="45.567811866854456" lon="9.347033409501377"><ele>160.0</ele><time>2026-04-05T16:41:40Z</time></trkpt><trkpt lat="45.56775228968522" lon="9.34664566151713"><ele>160.0</ele><time>2026-04-05T16:41:41Z</time></trkpt><trkpt lat="45.567694155473326" lon="9.346255920606492"><ele>159.0</ele><time>2026-04-05T16:41:42Z</time></trkpt><trkpt lat="45.56763829454723" lon="9.345865024212948"><ele>158.0</ele><time>2026-04-05T16:41:43Z</time></trkpt><trkpt lat="45.567582526399235" lon="9.345476130042254"><ele>157.5</ele><time>2026-04-05T16:41:44Z</time></trkpt><trkpt lat="45.567527444569244" lon="9.345099724584646"><ele>157.0</ele><time>2026-04-05T16:41:45Z</time></trkpt><trkpt lat="45.56747428438692" lon="9.344725608871109"><ele>156.5</ele><time>2026-04-05T16:41:46Z</time></trkpt><trkpt lat="45.56742173579975" lon="9.344352295750065"><ele>156.0</ele><time>2026-04-05T16:41:47Z</time></trkpt><trkpt lat="45.56736724870586" lon="9.343977844190245"><ele>156.0</ele><time>2026-04-05T16:41:48Z</time></trkpt><trkpt lat="45.567314680426314" lon="9.343602378188793"><ele>156.0</ele><time>2026-04-05T16:41:49Z</time></trkpt><trkpt lat="45.56725664937429" lon="9.343220423031173"><ele>156.0</ele><time>2026-04-05T16:41:50Z</time></trkpt><trkpt lat="45.567198130912665" lon="9.3428341277843"><ele>156.0</ele><time>2026-04-05T16:41:51Z</time></trkpt><trkpt lat="45.567139726410055" lon="9.342449332605643"><ele>156.0</ele><time>2026-04-05T16:41:52Z</time></trkpt><trkpt lat="45.567082834480146" lon="9.342060606591714"><ele>156.0</ele><time>2026-04-05T16:41:53Z</time></trkpt><trkpt lat="45.56702741002283" lon="9.341670675451901"><ele>157.0</ele><time>2026-04-05T16:41:54Z</time></trkpt><trkpt lat="45.566971786171784" lon="9.341267272134308"><ele>158.0</ele><time>2026-04-05T16:41:55Z</time></trkpt><trkpt lat="45.56692384792572" lon="9.340849193223827"><ele>158.0</ele><time>2026-04-05T16:41:56Z</time></trkpt><trkpt lat="45.56687709437891" lon="9.340436625518814"><ele>158.0</ele><time>2026-04-05T16:41:57Z</time></trkpt><trkpt lat="45.56682894508272" lon="9.340021099754615"><ele>157.5</ele><time>2026-04-05T16:41:58Z</time></trkpt><trkpt lat="45.56677802806892" lon="9.339590007209493"><ele>157.0</ele><time>2026-04-05T16:41:59Z</time></trkpt><trkpt lat="45.56671479861649" lon="9.339144494643685"><ele>157.0</ele><time>2026-04-05T16:42:00Z</time></trkpt><trkpt lat="45.56664563259882" lon="9.33867989526589"><ele>157.0</ele><time>2026-04-05T16:42:01.001Z</time></trkpt><trkpt lat="45.566573111474135" lon="9.338201855071306"><ele>157.5</ele><time>2026-04-05T16:42:02.001Z</time></trkpt><trkpt lat="45.56650099379475" lon="9.337715182973009"><ele>158.0</ele><time>2026-04-05T16:42:03.001Z</time></trkpt><trkpt lat="45.56642904646556" lon="9.337222692875246"><ele>158.0</ele><time>2026-04-05T16:42:04.001Z</time></trkpt><trkpt lat="45.566358858151816" lon="9.336731478867659"><ele>158.0</ele><time>2026-04-05T16:42:05.001Z</time></trkpt><trkpt lat="45.56628873361793" lon="9.336243597965682"><ele>158.0</ele><time>2026-04-05T16:42:06.001Z</time></trkpt><trkpt lat="45.566213716869164" lon="9.335763762194745"><ele>158.0</ele><time>2026-04-05T16:42:07.001Z</time></trkpt><trkpt lat="45.56613446229348" lon="9.335284459839611"><ele>158.5</ele><time>2026-04-05T16:42:08.001Z</time></trkpt><trkpt lat="45.566053765252725" lon="9.334805123189579"><ele>159.0</ele><time>2026-04-05T16:42:09.001Z</time></trkpt><trkpt lat="45.56597556075846" lon="9.33432864018349"><ele>157.5</ele><time>2026-04-05T16:42:10.001Z</time></trkpt><trkpt lat="45.5659020587457" lon="9.333857152629463"><ele>156.0</ele><time>2026-04-05T16:42:11.001Z</time></trkpt><trkpt lat="45.56583403113348" lon="9.333384299982042"><ele>156.0</ele><time>2026-04-05T16:42:12.001Z</time></trkpt><trkpt lat="45.56576669546425" lon="9.332915775051228"><ele>156.0</ele><time>2026-04-05T16:42:13.001Z</time></trkpt><trkpt lat="45.565700606928495" lon="9.332458709184058"><ele>156.5</ele><time>2026-04-05T16:42:14.001Z</time></trkpt><trkpt lat="45.5656337649665" lon="9.332009857166176"><ele>157.0</ele><time>2026-04-05T16:42:15.001Z</time></trkpt><trkpt lat="45.56556810554206" lon="9.331566472711856"><ele>155.5</ele><time>2026-04-05T16:42:16.001Z</time></trkpt><trkpt lat="45.565503343806824" lon="9.331124279864524"><ele>154.0</ele><time>2026-04-05T16:42:17.001Z</time></trkpt><trkpt lat="45.56544003889241" lon="9.330687089205329"><ele>154.0</ele><time>2026-04-05T16:42:18.001Z</time></trkpt><trkpt lat="45.56538334612566" lon="9.330248837023165"><ele>154.0</ele><time>2026-04-05T16:42:19.001Z</time></trkpt><trkpt lat="45.56533037453171" lon="9.329808093769078"><ele>153.5</ele><time>2026-04-05T16:42:20.001Z</time></trkpt><trkpt lat="45.56527146022418" lon="9.329376396603099"><ele>153.0</ele><time>2026-04-05T16:42:21.001Z</time></trkpt><trkpt lat="45.56521025297244" lon="9.328951957359072"><ele>153.0</ele><time>2026-04-05T16:42:22.001Z</time></trkpt><trkpt lat="45.56514868822224" lon="9.328544831268418"><ele>153.0</ele><time>2026-04-05T16:42:23.001Z</time></trkpt><trkpt lat="45.56509032246848" lon="9.32814922980414"><ele>154.0</ele><time>2026-04-05T16:42:24.001Z</time></trkpt><trkpt lat="45.56503136469171" lon="9.32776334495375"><ele>155.0</ele><time>2026-04-05T16:42:25.001Z</time></trkpt><trkpt lat="45.564975784583595" lon="9.327384222733903"><ele>154.0</ele><time>2026-04-05T16:42:26.001Z</time></trkpt><trkpt lat="45.56492119612718" lon="9.32700255469857"><ele>153.0</ele><time>2026-04-05T16:42:27.001Z</time></trkpt><trkpt lat="45.56486312620596" lon="9.326624231019656"><ele>153.5</ele><time>2026-04-05T16:42:28.001Z</time></trkpt><trkpt lat="45.56480711812188" lon="9.326247547616504"><ele>154.0</ele><time>2026-04-05T16:42:29.001Z</time></trkpt><trkpt lat="45.56475223559097" lon="9.32587295223101"><ele>154.5</ele><time>2026-04-05T16:42:30.001Z</time></trkpt><trkpt lat="45.56469633337398" lon="9.3254991228942"><ele>155.0</ele><time>2026-04-05T16:42:31.001Z</time></trkpt><trkpt lat="45.564639736765685" lon="9.3251189035219"><ele>155.0</ele><time>2026-04-05T16:42:32.001Z</time></trkpt><trkpt lat="45.56458064001986" lon="9.324737979890141"><ele>155.0</ele><time>2026-04-05T16:42:33.001Z</time></trkpt><trkpt lat="45.564523636348845" lon="9.324355611337587"><ele>153.5</ele><time>2026-04-05T16:42:34.001Z</time></trkpt><trkpt lat="45.56446814536848" lon="9.323969686733214"><ele>152.0</ele><time>2026-04-05T16:42:35.001Z</time></trkpt><trkpt lat="45.56441523553519" lon="9.32358432983416"><ele>152.0</ele><time>2026-04-05T16:42:36.001Z</time></trkpt><trkpt lat="45.564361031183985" lon="9.323198706521685"><ele>152.0</ele><time>2026-04-05T16:42:37.001Z</time></trkpt><trkpt lat="45.56430477624987" lon="9.32281073655082"><ele>152.0</ele><time>2026-04-05T16:42:38.001Z</time></trkpt><trkpt lat="45.56424459259904" lon="9.322418198297829"><ele>152.0</ele><time>2026-04-05T16:42:39.001Z</time></trkpt><trkpt lat="45.56418492726281" lon="9.322019957539606"><ele>152.0</ele><time>2026-04-05T16:42:40.001Z</time></trkpt><trkpt lat="45.564125858279425" lon="9.321614031018237"><ele>152.0</ele><time>2026-04-05T16:42:41.001Z</time></trkpt><trkpt lat="45.56406431206522" lon="9.321206244959317"><ele>152.5</ele><time>2026-04-05T16:42:42.001Z</time></trkpt><trkpt lat="45.5640002126538" lon="9.320794271121889"><ele>153.0</ele><time>2026-04-05T16:42:43.001Z</time></trkpt><trkpt lat="45.563938674737905" lon="9.320381127676356"><ele>153.0</ele><time>2026-04-05T16:42:44.001Z</time></trkpt><trkpt lat="45.56387445632835" lon="9.319962533277344"><ele>153.0</ele><time>2026-04-05T16:42:45.001Z</time></trkpt><trkpt lat="45.563809011939526" lon="9.31954011567528"><ele>153.0</ele><time>2026-04-05T16:42:46.001Z</time></trkpt><trkpt lat="45.56374402964345" lon="9.319109591542261"><ele>153.0</ele><time>2026-04-05T16:42:47.001Z</time></trkpt><trkpt lat="45.56368116883448" lon="9.318674664125489"><ele>153.0</ele><time>2026-04-05T16:42:48.001Z</time></trkpt><trkpt lat="45.563613003142656" lon="9.318230637930045"><ele>153.0</ele><time>2026-04-05T16:42:49.001Z</time></trkpt><trkpt lat="45.563538131153955" lon="9.317785762990779"><ele>152.5</ele><time>2026-04-05T16:42:50.001Z</time></trkpt><trkpt lat="45.56345826714297" lon="9.3173288788756"><ele>152.0</ele><time>2026-04-05T16:42:51.001Z</time></trkpt><trkpt lat="45.56337731635587" lon="9.31685593776646"><ele>152.0</ele><time>2026-04-05T16:42:52.001Z</time></trkpt><trkpt lat="45.5633063804714" lon="9.316367075773455"><ele>152.0</ele><time>2026-04-05T16:42:53.001Z</time></trkpt><trkpt lat="45.56323475781009" lon="9.315874975714115"><ele>151.0</ele><time>2026-04-05T16:42:54.001Z</time></trkpt><trkpt lat="45.563164413279694" lon="9.315375763565534"><ele>150.0</ele><time>2026-04-05T16:42:55.001Z</time></trkpt><trkpt lat="45.56309351873831" lon="9.314881104765753"><ele>149.5</ele><time>2026-04-05T16:42:56.001Z</time></trkpt><trkpt lat="45.56302340606528" lon="9.314394249400436"><ele>149.0</ele><time>2026-04-05T16:42:57.001Z</time></trkpt><trkpt lat="45.562954053745365" lon="9.313906585304576"><ele>149.5</ele><time>2026-04-05T16:42:58.001Z</time></trkpt><trkpt lat="45.56288360342842" lon="9.31342196292746"><ele>150.0</ele><time>2026-04-05T16:42:59.001Z</time></trkpt><trkpt lat="45.56281073086201" lon="9.312937682123263"><ele>151.5</ele><time>2026-04-05T16:43:00.001Z</time></trkpt><trkpt lat="45.56273859600406" lon="9.312452431852938"><ele>153.0</ele><time>2026-04-05T16:43:01.001Z</time></trkpt><trkpt lat="45.56266412309854" lon="9.31196734475175"><ele>153.0</ele><time>2026-04-05T16:43:02.001Z</time></trkpt><trkpt lat="45.56259492925184" lon="9.311487926997962"><ele>153.0</ele><time>2026-04-05T16:43:03.001Z</time></trkpt><trkpt lat="45.56252513071073" lon="9.311011439806816"><ele>151.5</ele><time>2026-04-05T16:43:04.001Z</time></trkpt><trkpt lat="45.56245290709407" lon="9.310528985833786"><ele>150.0</ele><time>2026-04-05T16:43:05.001Z</time></trkpt><trkpt lat="45.562383601341715" lon="9.31005616022505"><ele>150.5</ele><time>2026-04-05T16:43:06.001Z</time></trkpt><trkpt lat="45.56231689998654" lon="9.309592509003835"><ele>151.0</ele><time>2026-04-05T16:43:07.001Z</time></trkpt><trkpt lat="45.56224748555487" lon="9.309143372155102"><ele>151.5</ele><time>2026-04-05T16:43:08.001Z</time></trkpt><trkpt lat="45.56217717395534" lon="9.308698134121041"><ele>152.0</ele><time>2026-04-05T16:43:09.001Z</time></trkpt><trkpt lat="45.56210888837096" lon="9.308262310822974"><ele>151.5</ele><time>2026-04-05T16:43:10.001Z</time></trkpt><trkpt lat="45.562036002624254" lon="9.30782405417167"><ele>151.0</ele><time>2026-04-05T16:43:11.001Z</time></trkpt><trkpt lat="45.5619649395132" lon="9.307388047554047"><ele>150.5</ele><time>2026-04-05T16:43:12.001Z</time></trkpt><trkpt lat="45.56190143896791" lon="9.306966837606817"><ele>150.0</ele><time>2026-04-05T16:43:13.001Z</time></trkpt><trkpt lat="45.56183906349709" lon="9.306549925193373"><ele>150.0</ele><time>2026-04-05T16:43:14.001Z</time></trkpt><trkpt lat="45.561779486364664" lon="9.306138468736137"><ele>150.0</ele><time>2026-04-05T16:43:15.001Z</time></trkpt><trkpt lat="45.56172350200224" lon="9.305725327666405"><ele>150.5</ele><time>2026-04-05T16:43:16.001Z</time></trkpt><trkpt lat="45.56166843154648" lon="9.305317063629602"><ele>151.0</ele><time>2026-04-05T16:43:17.001Z</time></trkpt><trkpt lat="45.56161419548996" lon="9.304915869060586"><ele>151.5</ele><time>2026-04-05T16:43:18.001Z</time></trkpt><trkpt lat="45.561555460780276" lon="9.304510493334746"><ele>152.0</ele><time>2026-04-05T16:43:19.001Z</time></trkpt><trkpt lat="45.561490442874856" lon="9.304072693020869"><ele>152.5</ele><time>2026-04-05T16:43:20.001Z</time></trkpt><trkpt lat="45.561419825614486" lon="9.303614355868254"><ele>153.0</ele><time>2026-04-05T16:43:21.001Z</time></trkpt><trkpt lat="45.56135112000722" lon="9.303145575393025"><ele>152.5</ele><time>2026-04-05T16:43:22.001Z</time></trkpt><trkpt lat="45.561281280180395" lon="9.302668079520855"><ele>152.0</ele><time>2026-04-05T16:43:23Z</time></trkpt><trkpt lat="45.561211576555195" lon="9.302181446446005"><ele>150.5</ele><time>2026-04-05T16:43:24Z</time></trkpt><trkpt lat="45.56113522666296" lon="9.301694499248164"><ele>149.0</ele><time>2026-04-05T16:43:25Z</time></trkpt><trkpt lat="45.561054884584216" lon="9.301193292687579"><ele>149.0</ele><time>2026-04-05T16:43:26Z</time></trkpt><trkpt lat="45.56096983493665" lon="9.300690597161612"><ele>149.0</ele><time>2026-04-05T16:43:27Z</time></trkpt><trkpt lat="45.56088692413156" lon="9.3001992670945"><ele>150.5</ele><time>2026-04-05T16:43:28Z</time></trkpt><trkpt lat="45.560804643954796" lon="9.299717747418653"><ele>152.0</ele><time>2026-04-05T16:43:29Z</time></trkpt><trkpt lat="45.56072363623341" lon="9.299235996046258"><ele>152.5</ele><time>2026-04-05T16:43:30Z</time></trkpt><trkpt lat="45.56064654101303" lon="9.298760806767172"><ele>153.0</ele><time>2026-04-05T16:43:31Z</time></trkpt><trkpt lat="45.560571267487376" lon="9.298291167256016"><ele>152.0</ele><time>2026-04-05T16:43:32Z</time></trkpt><trkpt lat="45.560497730546146" lon="9.297822316412866"><ele>151.0</ele><time>2026-04-05T16:43:33Z</time></trkpt><trkpt lat="45.560423594957314" lon="9.297345127425274"><ele>150.5</ele><time>2026-04-05T16:43:34Z</time></trkpt><trkpt lat="45.560351144474936" lon="9.296864246762134"><ele>150.0</ele><time>2026-04-05T16:43:35Z</time></trkpt><trkpt lat="45.560279725416244" lon="9.296388605208884"><ele>149.5</ele><time>2026-04-05T16:43:36Z</time></trkpt><trkpt lat="45.560205372675604" lon="9.295919346069448"><ele>149.0</ele><time>2026-04-05T16:43:37Z</time></trkpt><trkpt lat="45.560124404247006" lon="9.29543969245675"><ele>148.0</ele><time>2026-04-05T16:43:38Z</time></trkpt><trkpt lat="45.560046323979584" lon="9.294959326104417"><ele>147.0</ele><time>2026-04-05T16:43:39Z</time></trkpt><trkpt lat="45.5599777017474" lon="9.294478781805763"><ele>147.0</ele><time>2026-04-05T16:43:40Z</time></trkpt><trkpt lat="45.55991587826176" lon="9.294007612294378"><ele>147.0</ele><time>2026-04-05T16:43:41Z</time></trkpt><trkpt lat="45.55984844765975" lon="9.29355748685486"><ele>147.0</ele><time>2026-04-05T16:43:42Z</time></trkpt><trkpt lat="45.55979205171334" lon="9.293137792645839"><ele>147.0</ele><time>2026-04-05T16:43:43Z</time></trkpt><trkpt lat="45.55973574066405" lon="9.292709423773763"><ele>146.5</ele><time>2026-04-05T16:43:44Z</time></trkpt><trkpt lat="45.5596740568785" lon="9.292268367710625"><ele>146.0</ele><time>2026-04-05T16:43:45Z</time></trkpt><trkpt lat="45.55960847861832" lon="9.291814844414853"><ele>147.0</ele><time>2026-04-05T16:43:46Z</time></trkpt><trkpt lat="45.55954167143401" lon="9.291367889424839"><ele>148.0</ele><time>2026-04-05T16:43:47Z</time></trkpt><trkpt lat="45.559480092721095" lon="9.290924977993308"><ele>149.0</ele><time>2026-04-05T16:43:48Z</time></trkpt><trkpt lat="45.55941572995868" lon="9.290487300755673"><ele>150.0</ele><time>2026-04-05T16:43:49Z</time></trkpt><trkpt lat="45.55935386550248" lon="9.290058273645716"><ele>148.0</ele><time>2026-04-05T16:43:50Z</time></trkpt><trkpt lat="45.559296530406634" lon="9.289655483771845"><ele>146.0</ele><time>2026-04-05T16:43:51Z</time></trkpt><trkpt lat="45.55924151175278" lon="9.289264093718058"><ele>145.5</ele><time>2026-04-05T16:43:52Z</time></trkpt><trkpt lat="45.5591863610416" lon="9.288873941352671"><ele>145.0</ele><time>2026-04-05T16:43:53Z</time></trkpt><trkpt lat="45.559130574660344" lon="9.288493526766779"><ele>145.0</ele><time>2026-04-05T16:43:54Z</time></trkpt><trkpt lat="45.55907923137839" lon="9.288126311966852"><ele>145.0</ele><time>2026-04-05T16:43:55Z</time></trkpt><trkpt lat="45.55902877482414" lon="9.287765701506796"><ele>146.0</ele><time>2026-04-05T16:43:56Z</time></trkpt><trkpt lat="45.55897095318453" lon="9.287399541917718"><ele>147.0</ele><time>2026-04-05T16:43:57Z</time></trkpt><trkpt lat="45.558914787555004" lon="9.287025391148406"><ele>148.0</ele><time>2026-04-05T16:43:58Z</time></trkpt><trkpt lat="45.558856912219504" lon="9.286646100212039"><ele>149.0</ele><time>2026-04-05T16:43:59Z</time></trkpt><trkpt lat="45.5588110423036" lon="9.286286216451595"><ele>149.0</ele><time>2026-04-05T16:44:00Z</time></trkpt><trkpt lat="45.55874528586821" lon="9.285868788314179"><ele>149.0</ele><time>2026-04-05T16:44:01Z</time></trkpt><trkpt lat="45.5586933258666" lon="9.285477851775042"><ele>149.0</ele><time>2026-04-05T16:44:02Z</time></trkpt><trkpt lat="45.55863719714063" lon="9.285108415675166"><ele>149.0</ele><time>2026-04-05T16:44:03Z</time></trkpt><trkpt lat="45.55858465903482" lon="9.284723232692404"><ele>148.5</ele><time>2026-04-05T16:44:04Z</time></trkpt><trkpt lat="45.558536616289345" lon="9.284322965287691"><ele>148.0</ele><time>2026-04-05T16:44:05Z</time></trkpt><trkpt lat="45.55848408152453" lon="9.283913499918683"><ele>147.5</ele><time>2026-04-05T16:44:06Z</time></trkpt><trkpt lat="45.55842271715992" lon="9.283498931435116"><ele>147.0</ele><time>2026-04-05T16:44:07Z</time></trkpt><trkpt lat="45.558358601815506" lon="9.28307967734411"><ele>146.5</ele><time>2026-04-05T16:44:08Z</time></trkpt><trkpt lat="45.55829143479835" lon="9.282659015796094"><ele>146.0</ele><time>2026-04-05T16:44:09Z</time></trkpt><trkpt lat="45.55822041419572" lon="9.282239417680078"><ele>146.0</ele><time>2026-04-05T16:44:10Z</time></trkpt><trkpt lat="45.55815571538549" lon="9.281828971233933"><ele>146.0</ele><time>2026-04-05T16:44:11Z</time></trkpt><trkpt lat="45.55809537529871" lon="9.281425177833846"><ele>147.0</ele><time>2026-04-05T16:44:12Z</time></trkpt><trkpt lat="45.55803894871486" lon="9.281032680869165"><ele>148.0</ele><time>2026-04-05T16:44:13Z</time></trkpt><trkpt lat="45.55798889921596" lon="9.280649070176278"><ele>146.5</ele><time>2026-04-05T16:44:14Z</time></trkpt><trkpt lat="45.55793941453844" lon="9.280275611298215"><ele>145.0</ele><time>2026-04-05T16:44:15Z</time></trkpt><trkpt lat="45.5578926124989" lon="9.27991282271413"><ele>145.0</ele><time>2026-04-05T16:44:16Z</time></trkpt><trkpt lat="45.55783847582266" lon="9.279547801355713"><ele>145.0</ele><time>2026-04-05T16:44:17Z</time></trkpt><trkpt lat="45.55778408888502" lon="9.279187554952152"><ele>145.0</ele><time>2026-04-05T16:44:18Z</time></trkpt><trkpt lat="45.557733137162366" lon="9.278843958281437"><ele>145.0</ele><time>2026-04-05T16:44:19.001Z</time></trkpt><trkpt lat="45.557683586252196" lon="9.278499913478402"><ele>145.0</ele><time>2026-04-05T16:44:20.001Z</time></trkpt><trkpt lat="45.557632985607185" lon="9.278150753780515"><ele>145.0</ele><time>2026-04-05T16:44:21.001Z</time></trkpt><trkpt lat="45.557582837596996" lon="9.277806239980999"><ele>145.0</ele><time>2026-04-05T16:44:22.001Z</time></trkpt><trkpt lat="45.557532897026455" lon="9.277465401474224"><ele>145.0</ele><time>2026-04-05T16:44:23.001Z</time></trkpt><trkpt lat="45.55748239542142" lon="9.27712736924157"><ele>145.0</ele><time>2026-04-05T16:44:24.001Z</time></trkpt><trkpt lat="45.5574335523915" lon="9.276788345888892"><ele>145.0</ele><time>2026-04-05T16:44:25.001Z</time></trkpt><trkpt lat="45.557386523048955" lon="9.276450490389852"><ele>145.33333333333334</ele><time>2026-04-05T16:44:26.001Z</time></trkpt><trkpt lat="45.55733725241666" lon="9.276128940833214"><ele>145.66666666666666</ele><time>2026-04-05T16:44:27.001Z</time></trkpt><trkpt lat="45.55729080348822" lon="9.275823308157111"><ele>146.0</ele><time>2026-04-05T16:44:28.001Z</time></trkpt><trkpt lat="45.55724330041972" lon="9.275523770370818"><ele>146.33333333333331</ele><time>2026-04-05T16:44:29.001Z</time></trkpt><trkpt lat="45.557198428730516" lon="9.275238774016021"><ele>146.66666666666666</ele><time>2026-04-05T16:44:30.001Z</time></trkpt><trkpt lat="45.55715400149991" lon="9.27497327769683"><ele>147.0</ele><time>2026-04-05T16:44:31.001Z</time></trkpt><trkpt lat="45.55710988277668" lon="9.27472346923146"><ele>147.66666666666666</ele><time>2026-04-05T16:44:32.001Z</time></trkpt><trkpt lat="45.55706600575415" lon="9.274486431238918"><ele>148.33333333333331</ele><time>2026-04-05T16:44:33.001Z</time></trkpt><trkpt lat="45.557026551491596" lon="9.274258520802908"><ele>149.0</ele><time>2026-04-05T16:44:34.001Z</time></trkpt><trkpt lat="45.55699043894441" lon="9.274046210892706"><ele>148.0</ele><time>2026-04-05T16:44:35.001Z</time></trkpt><trkpt lat="45.55696220929044" lon="9.273847293200403"><ele>147.0</ele><time>2026-04-05T16:44:36.001Z</time></trkpt><trkpt lat="45.556936085950404" lon="9.273653367675912"><ele>146.0</ele><time>2026-04-05T16:44:37.001Z</time></trkpt><trkpt lat="45.55691032453108" lon="9.273460969144663"><ele>145.0</ele><time>2026-04-05T16:44:38.001Z</time></trkpt><trkpt lat="45.55688187043841" lon="9.273260053273194"><ele>144.75</ele><time>2026-04-05T16:44:39.001Z</time></trkpt><trkpt lat="45.55685329521599" lon="9.273058151848437"><ele>144.5</ele><time>2026-04-05T16:44:40.001Z</time></trkpt><trkpt lat="45.55682610014346" lon="9.272870101995274"><ele>144.25</ele><time>2026-04-05T16:44:41.001Z</time></trkpt><trkpt lat="45.556804944377134" lon="9.272709518575445"><ele>144.0</ele><time>2026-04-05T16:44:42.001Z</time></trkpt><trkpt lat="45.55678760320375" lon="9.272571715612896"><ele>144.0</ele><time>2026-04-05T16:44:43.001Z</time></trkpt><trkpt lat="45.55676531806259" lon="9.27244617300777"><ele>144.0</ele><time>2026-04-05T16:44:44.001Z</time></trkpt><trkpt lat="45.5567457113314" lon="9.272314696061898"><ele>144.0</ele><time>2026-04-05T16:44:45.001Z</time></trkpt><trkpt lat="45.55672051154301" lon="9.272180499173901"><ele>144.0</ele><time>2026-04-05T16:44:46.001Z</time></trkpt><trkpt lat="45.556690844052795" lon="9.272041862794127"><ele>144.0</ele><time>2026-04-05T16:44:47.001Z</time></trkpt><trkpt lat="45.55666001424195" lon="9.271902212879871"><ele>144.0</ele><time>2026-04-05T16:44:48.001Z</time></trkpt><trkpt lat="45.55663100748837" lon="9.271753297881462"><ele>144.0</ele><time>2026-04-05T16:44:49.001Z</time></trkpt><trkpt lat="45.55661104392391" lon="9.271614014827584"><ele>144.0</ele><time>2026-04-05T16:44:50.001Z</time></trkpt><trkpt lat="45.55659175254917" lon="9.271488663817237"><ele>144.0</ele><time>2026-04-05T16:44:51.001Z</time></trkpt><trkpt lat="45.5565743452407" lon="9.271375051964265"><ele>144.0</ele><time>2026-04-05T16:44:52.001Z</time></trkpt><trkpt lat="45.55655325283912" lon="9.271262498921693"><ele>143.75</ele><time>2026-04-05T16:44:53.001Z</time></trkpt><trkpt lat="45.55652909486964" lon="9.271139993093016"><ele>143.5</ele><time>2026-04-05T16:44:54.001Z</time></trkpt><trkpt lat="45.55651050558241" lon="9.270986640451882"><ele>143.25</ele><time>2026-04-05T16:44:55.001Z</time></trkpt><trkpt lat="45.556485547517994" lon="9.270811166546416"><ele>143.0</ele><time>2026-04-05T16:44:56.001Z</time></trkpt><trkpt lat="45.556455383133724" lon="9.270620065183778"><ele>143.75</ele><time>2026-04-05T16:44:57.001Z</time></trkpt><trkpt lat="45.556480637033225" lon="9.270444183966305"><ele>144.5</ele><time>2026-04-05T16:44:58.001Z</time></trkpt><trkpt lat="45.55649084752667" lon="9.270266852473663"><ele>145.25</ele><time>2026-04-05T16:44:59.001Z</time></trkpt><trkpt lat="45.55650177368108" lon="9.270090221102379"><ele>146.0</ele><time>2026-04-05T16:45:00.001Z</time></trkpt><trkpt lat="45.55650916536912" lon="9.269912444847222"><ele>146.25</ele><time>2026-04-05T16:45:01.001Z</time></trkpt><trkpt lat="45.556509007623326" lon="9.269729811601694"><ele>146.5</ele><time>2026-04-05T16:45:02.001Z</time></trkpt><trkpt lat="45.55649920471336" lon="9.269540465671147"><ele>146.75</ele><time>2026-04-05T16:45:03.001Z</time></trkpt><trkpt lat="45.55648290711785" lon="9.26937811297958"><ele>147.0</ele><time>2026-04-05T16:45:04.001Z</time></trkpt><trkpt lat="45.5564647183434" lon="9.26922472944586"><ele>147.0</ele><time>2026-04-05T16:45:05.001Z</time></trkpt><trkpt lat="45.55644435558825" lon="9.269075551891365"><ele>147.0</ele><time>2026-04-05T16:45:06.001Z</time></trkpt><trkpt lat="45.55642387086724" lon="9.268935466859837"><ele>147.0</ele><time>2026-04-05T16:45:07.001Z</time></trkpt><trkpt lat="45.55640493820403" lon="9.268809279533711"><ele>147.0</ele><time>2026-04-05T16:45:08.001Z</time></trkpt><trkpt lat="45.55638925872039" lon="9.268706000672825"><ele>147.0</ele><time>2026-04-05T16:45:09.001Z</time></trkpt><trkpt lat="45.55637566658248" lon="9.268616470912894"><ele>147.0</ele><time>2026-04-05T16:45:10.001Z</time></trkpt><trkpt lat="45.556353796315456" lon="9.268472414104044"><ele>146.6</ele><time>2026-04-05T16:45:12.001Z</time></trkpt><trkpt lat="45.55633683727582" lon="9.268359752677341"><ele>146.2</ele><time>2026-04-05T16:45:23.001Z</time></trkpt><trkpt lat="45.5563177891623" lon="9.268232713186416"><ele>145.8</ele><time>2026-04-05T16:45:24.001Z</time></trkpt><trkpt lat="45.556292406484594" lon="9.268065794814348"><ele>145.4</ele><time>2026-04-05T16:45:25.001Z</time></trkpt><trkpt lat="45.55626681250499" lon="9.267900979296009"><ele>145.0</ele><time>2026-04-05T16:45:26.001Z</time></trkpt><trkpt lat="45.55623579497189" lon="9.267712402671528"><ele>144.66666666666669</ele><time>2026-04-05T16:45:27.001Z</time></trkpt><trkpt lat="45.55618756542782" lon="9.267475391915903"><ele>144.33333333333334</ele><time>2026-04-05T16:45:28.001Z</time></trkpt><trkpt lat="45.5560945606889" lon="9.26722000514423"><ele>144.0</ele><time>2026-04-05T16:45:29Z</time></trkpt><trkpt lat="45.55602866843703" lon="9.267054713374147"><ele>144.4</ele><time>2026-04-05T16:45:30Z</time></trkpt><trkpt lat="45.555978057089646" lon="9.266901336459552"><ele>144.8</ele><time>2026-04-05T16:45:31Z</time></trkpt><trkpt lat="45.555933960525735" lon="9.266755141319956"><ele>145.2</ele><time>2026-04-05T16:45:32Z</time></trkpt><trkpt lat="45.555895799272804" lon="9.266626799496509"><ele>145.6</ele><time>2026-04-05T16:45:33Z</time></trkpt><trkpt lat="45.55585169295217" lon="9.266530093039366"><ele>146.0</ele><time>2026-04-05T16:45:34Z</time></trkpt><trkpt lat="45.55582811426913" lon="9.266377714519333"><ele>146.0</ele><time>2026-04-05T16:45:36Z</time></trkpt><trkpt lat="45.55581311962292" lon="9.266286099988793"><ele>146.0</ele><time>2026-04-05T16:45:37Z</time></trkpt><trkpt lat="45.555790432537876" lon="9.26619174908175"><ele>146.0</ele><time>2026-04-05T16:45:38Z</time></trkpt><trkpt lat="45.55575061072416" lon="9.266023091567472"><ele>146.0</ele><time>2026-04-05T16:45:40Z</time></trkpt><trkpt lat="45.55572672977297" lon="9.265913975804617"><ele>146.0</ele><time>2026-04-05T16:45:41Z</time></trkpt><trkpt lat="45.55570736846865" lon="9.265795859343612"><ele>146.0</ele><time>2026-04-05T16:45:42Z</time></trkpt><trkpt lat="45.555687963844484" lon="9.265685142850007"><ele>145.83333333333331</ele><time>2026-04-05T16:45:43Z</time></trkpt><trkpt lat="45.555671434373764" lon="9.265580360868315"><ele>145.66666666666666</ele><time>2026-04-05T16:45:44Z</time></trkpt><trkpt lat="45.55565540750663" lon="9.265483092354147"><ele>145.5</ele><time>2026-04-05T16:45:45Z</time></trkpt><trkpt lat="45.55563959759078" lon="9.265387728518451"><ele>145.33333333333334</ele><time>2026-04-05T16:45:46Z</time></trkpt><trkpt lat="45.55561253994129" lon="9.26522875170258"><ele>145.16666666666669</ele><time>2026-04-05T16:45:48Z</time></trkpt><trkpt lat="45.55559180734169" lon="9.265094633060503"><ele>145.0</ele><time>2026-04-05T16:45:50Z</time></trkpt><trkpt lat="45.55557747655887" lon="9.264982115103198"><ele>145.0</ele><time>2026-04-05T16:45:52Z</time></trkpt><trkpt lat="45.55555541985236" lon="9.264859190499722"><ele>145.0</ele><time>2026-04-05T16:45:54Z</time></trkpt><trkpt lat="45.55553162328235" lon="9.264705167230701"><ele>145.0</ele><time>2026-04-05T16:45:56Z</time></trkpt><trkpt lat="45.555507576493504" lon="9.264536145889188"><ele>145.0</ele><time>2026-04-05T16:45:58Z</time></trkpt><trkpt lat="45.55549313219421" lon="9.264435526070368"><ele>145.0</ele><time>2026-04-05T16:45:59Z</time></trkpt><trkpt lat="45.555474466921765" lon="9.264327750369215"><ele>144.6</ele><time>2026-04-05T16:46:00Z</time></trkpt><trkpt lat="45.55545401174706" lon="9.264205712060262"><ele>144.2</ele><time>2026-04-05T16:46:01Z</time></trkpt><trkpt lat="45.555435137408196" lon="9.26407191702275"><ele>143.8</ele><time>2026-04-05T16:46:02Z</time></trkpt><trkpt lat="45.55541545594399" lon="9.263930914479499"><ele>143.4</ele><time>2026-04-05T16:46:03Z</time></trkpt><trkpt lat="45.555396396147714" lon="9.263783839179755"><ele>143.0</ele><time>2026-04-05T16:46:04Z</time></trkpt><trkpt lat="45.55537610564226" lon="9.26364069578532"><ele>143.20000000000002</ele><time>2026-04-05T16:46:05Z</time></trkpt><trkpt lat="45.555356102905705" lon="9.263500065320606"><ele>143.4</ele><time>2026-04-05T16:46:06Z</time></trkpt><trkpt lat="45.555335404957" lon="9.263356644141275"><ele>143.60000000000002</ele><time>2026-04-05T16:46:07Z</time></trkpt><trkpt lat="45.5553129763173" lon="9.263196710426465"><ele>143.8</ele><time>2026-04-05T16:46:08Z</time></trkpt><trkpt lat="45.55528978573737" lon="9.263014240071536"><ele>144.0</ele><time>2026-04-05T16:46:09Z</time></trkpt><trkpt lat="45.55526683165885" lon="9.262813159042992"><ele>144.0</ele><time>2026-04-05T16:46:10Z</time></trkpt><trkpt lat="45.55523746988076" lon="9.262599635767959"><ele>144.0</ele><time>2026-04-05T16:46:11Z</time></trkpt><trkpt lat="45.55520370447059" lon="9.262394532524754"><ele>144.0</ele><time>2026-04-05T16:46:12Z</time></trkpt><trkpt lat="45.555176974965924" lon="9.26221617703033"><ele>144.0</ele><time>2026-04-05T16:46:13Z</time></trkpt><trkpt lat="45.555150102941546" lon="9.262047584103861"><ele>144.25</ele><time>2026-04-05T16:46:14Z</time></trkpt><trkpt lat="45.55512412713108" lon="9.261897312041908"><ele>144.5</ele><time>2026-04-05T16:46:15Z</time></trkpt><trkpt lat="45.555100580056404" lon="9.261738363024424"><ele>144.75</ele><time>2026-04-05T16:46:16Z</time></trkpt><trkpt lat="45.555077056318524" lon="9.261573778852878"><ele>145.0</ele><time>2026-04-05T16:46:17Z</time></trkpt><trkpt lat="45.555052192729335" lon="9.261393364732783"><ele>146.0</ele><time>2026-04-05T16:46:18Z</time></trkpt><trkpt lat="45.55502666816191" lon="9.261194742330588"><ele>147.0</ele><time>2026-04-05T16:46:19Z</time></trkpt><trkpt lat="45.55499705172509" lon="9.260991701399528"><ele>148.0</ele><time>2026-04-05T16:46:20Z</time></trkpt><trkpt lat="45.55495587339757" lon="9.260762165532169"><ele>148.0</ele><time>2026-04-05T16:46:21Z</time></trkpt><trkpt lat="45.55491957396039" lon="9.260527635707557"><ele>148.0</ele><time>2026-04-05T16:46:22Z</time></trkpt><trkpt lat="45.55488409418409" lon="9.260274060173563"><ele>148.0</ele><time>2026-04-05T16:46:23.001Z</time></trkpt><trkpt lat="45.554854864616935" lon="9.260031080714732"><ele>148.0</ele><time>2026-04-05T16:46:24.001Z</time></trkpt><trkpt lat="45.5548189526033" lon="9.259794514218894"><ele>148.0</ele><time>2026-04-05T16:46:25.001Z</time></trkpt><trkpt lat="45.55478606401459" lon="9.259569288152116"><ele>148.0</ele><time>2026-04-05T16:46:26.001Z</time></trkpt><trkpt lat="45.55475331095722" lon="9.259365166638203"><ele>148.0</ele><time>2026-04-05T16:46:27.001Z</time></trkpt><trkpt lat="45.55472531436943" lon="9.259175211336217"><ele>148.0</ele><time>2026-04-05T16:46:28.001Z</time></trkpt><trkpt lat="45.55469928932031" lon="9.258998523682287"><ele>148.0</ele><time>2026-04-05T16:46:29.001Z</time></trkpt><trkpt lat="45.554676783143435" lon="9.258834801220484"><ele>148.0</ele><time>2026-04-05T16:46:30.001Z</time></trkpt><trkpt lat="45.554660076181555" lon="9.258699828754963"><ele>148.0</ele><time>2026-04-05T16:46:31.001Z</time></trkpt><trkpt lat="45.554642252609554" lon="9.258571962190029"><ele>148.0</ele><time>2026-04-05T16:46:32.001Z</time></trkpt><trkpt lat="45.55462490985813" lon="9.258451052361012"><ele>148.0</ele><time>2026-04-05T16:46:33.001Z</time></trkpt><trkpt lat="45.55460992627975" lon="9.258359416672528"><ele>148.0</ele><time>2026-04-05T16:46:34.001Z</time></trkpt><trkpt lat="45.55458814680328" lon="9.25818872427588"><ele>148.0</ele><time>2026-04-05T16:46:36.001Z</time></trkpt><trkpt lat="45.5545739610502" lon="9.258088342656338"><ele>148.0</ele><time>2026-04-05T16:46:37.001Z</time></trkpt><trkpt lat="45.554564954478614" lon="9.25799606353928"><ele>148.0</ele><time>2026-04-05T16:46:38.001Z</time></trkpt><trkpt lat="45.55454658370316" lon="9.25783654738542"><ele>148.0</ele><time>2026-04-05T16:46:40.001Z</time></trkpt><trkpt lat="45.5545289750535" lon="9.257743694368045"><ele>148.0</ele><time>2026-04-05T16:46:41.001Z</time></trkpt><trkpt lat="45.55450561320781" lon="9.257619610428904"><ele>148.0</ele><time>2026-04-05T16:46:42.001Z</time></trkpt><trkpt lat="45.55448363646904" lon="9.25747523855892"><ele>148.0</ele><time>2026-04-05T16:46:43.001Z</time></trkpt><trkpt lat="45.55446408396448" lon="9.257333996294093"><ele>147.8</ele><time>2026-04-05T16:46:44.001Z</time></trkpt><trkpt lat="45.554444147983695" lon="9.257192634103241"><ele>147.60000000000002</ele><time>2026-04-05T16:46:45.001Z</time></trkpt><trkpt lat="45.55442373991398" lon="9.257043920373938"><ele>147.39999999999998</ele><time>2026-04-05T16:46:46.001Z</time></trkpt><trkpt lat="45.55441242034609" lon="9.256913275361425"><ele>147.2</ele><time>2026-04-05T16:46:47.001Z</time></trkpt><trkpt lat="45.55438786305857" lon="9.25675766277505"><ele>147.0</ele><time>2026-04-05T16:46:48.001Z</time></trkpt><trkpt lat="45.554354885657105" lon="9.256567064359167"><ele>147.25</ele><time>2026-04-05T16:46:49.001Z</time></trkpt><trkpt lat="45.5543301353548" lon="9.256358478695644"><ele>147.5</ele><time>2026-04-05T16:46:50.001Z</time></trkpt><trkpt lat="45.55430095156183" lon="9.256166110001693"><ele>147.75</ele><time>2026-04-05T16:46:51.001Z</time></trkpt><trkpt lat="45.55427828174061" lon="9.25599566052678"><ele>148.0</ele><time>2026-04-05T16:46:52.001Z</time></trkpt><trkpt lat="45.55425928585528" lon="9.255833449437118"><ele>148.0</ele><time>2026-04-05T16:46:53.001Z</time></trkpt><trkpt lat="45.554239713907485" lon="9.255654866272984"><ele>148.0</ele><time>2026-04-05T16:46:54.001Z</time></trkpt><trkpt lat="45.55421455260726" lon="9.25546870919364"><ele>148.0</ele><time>2026-04-05T16:46:55.001Z</time></trkpt><trkpt lat="45.55418574874547" lon="9.255272083034265"><ele>148.0</ele><time>2026-04-05T16:46:56.001Z</time></trkpt><trkpt lat="45.55415455632878" lon="9.255054577430622"><ele>148.0</ele><time>2026-04-05T16:46:57.001Z</time></trkpt><trkpt lat="45.554120174405114" lon="9.254826027346883"><ele>148.0</ele><time>2026-04-05T16:46:58.001Z</time></trkpt><trkpt lat="45.554079077561276" lon="9.25458600945681"><ele>148.0</ele><time>2026-04-05T16:46:59.001Z</time></trkpt><trkpt lat="45.554035194465" lon="9.254339905090179"><ele>148.0</ele><time>2026-04-05T16:47:00.001Z</time></trkpt><trkpt lat="45.55399303418977" lon="9.254101242720994"><ele>148.0</ele><time>2026-04-05T16:47:01.001Z</time></trkpt><trkpt lat="45.55394888570099" lon="9.253839573930614"><ele>148.0</ele><time>2026-04-05T16:47:02.001Z</time></trkpt><trkpt lat="45.55389511940208" lon="9.253561648532127"><ele>148.0</ele><time>2026-04-05T16:47:03.001Z</time></trkpt><trkpt lat="45.55384133253219" lon="9.253271091713964"><ele>148.0</ele><time>2026-04-05T16:47:04.001Z</time></trkpt><trkpt lat="45.553792013704665" lon="9.25297438138291"><ele>148.0</ele><time>2026-04-05T16:47:05.001Z</time></trkpt><trkpt lat="45.55375420386509" lon="9.252702344034809"><ele>148.66666666666669</ele><time>2026-04-05T16:47:06.001Z</time></trkpt><trkpt lat="45.55371914966859" lon="9.25244940533964"><ele>149.33333333333334</ele><time>2026-04-05T16:47:07.001Z</time></trkpt><trkpt lat="45.55368577418366" lon="9.252213061198432"><ele>150.0</ele><time>2026-04-05T16:47:08.001Z</time></trkpt><trkpt lat="45.55364727060025" lon="9.251978496758529"><ele>150.0</ele><time>2026-04-05T16:47:09.001Z</time></trkpt><trkpt lat="45.553609487672524" lon="9.251737366528564"><ele>150.0</ele><time>2026-04-05T16:47:10.001Z</time></trkpt><trkpt lat="45.553575280299114" lon="9.25150920028279"><ele>150.0</ele><time>2026-04-05T16:47:11.001Z</time></trkpt><trkpt lat="45.553543455995595" lon="9.25128982236622"><ele>150.25</ele><time>2026-04-05T16:47:12.001Z</time></trkpt><trkpt lat="45.55351270784076" lon="9.251077762985897"><ele>150.5</ele><time>2026-04-05T16:47:13.001Z</time></trkpt><trkpt lat="45.553482975168436" lon="9.250878270193324"><ele>150.75</ele><time>2026-04-05T16:47:14.001Z</time></trkpt><trkpt lat="45.55345304492597" lon="9.250681366206942"><ele>151.0</ele><time>2026-04-05T16:47:15.001Z</time></trkpt><trkpt lat="45.5534249270729" lon="9.250486376863487"><ele>151.5</ele><time>2026-04-05T16:47:16.001Z</time></trkpt><trkpt lat="45.55339513622723" lon="9.250305317165413"><ele>152.0</ele><time>2026-04-05T16:47:17.001Z</time></trkpt><trkpt lat="45.55336946028702" lon="9.25012848570004"><ele>152.5</ele><time>2026-04-05T16:47:18.001Z</time></trkpt><trkpt lat="45.55334536048167" lon="9.249956510764688"><ele>153.0</ele><time>2026-04-05T16:47:19.001Z</time></trkpt><trkpt lat="45.553325986179516" lon="9.249829446687299"><ele>152.8</ele><time>2026-04-05T16:47:20.001Z</time></trkpt><trkpt lat="45.55330618847895" lon="9.24969770506903"><ele>152.60000000000002</ele><time>2026-04-05T16:47:22.001Z</time></trkpt><trkpt lat="45.55328346492797" lon="9.249593399853872"><ele>152.39999999999998</ele><time>2026-04-05T16:47:24.001Z</time></trkpt><trkpt lat="45.553259550950706" lon="9.249454767514656"><ele>152.2</ele><time>2026-04-05T16:47:26.001Z</time></trkpt><trkpt lat="45.55322684739504" lon="9.24927423503434"><ele>152.0</ele><time>2026-04-05T16:47:28.001Z</time></trkpt><trkpt lat="45.553215304759036" lon="9.249157726090234"><ele>152.0</ele><time>2026-04-05T16:47:29.001Z</time></trkpt><trkpt lat="45.5532080339915" lon="9.249042912933378"><ele>152.0</ele><time>2026-04-05T16:47:30.001Z</time></trkpt><trkpt lat="45.5532000385526" lon="9.248947868689584"><ele>152.0</ele><time>2026-04-05T16:47:31.001Z</time></trkpt><trkpt lat="45.55319239271112" lon="9.248835303704519"><ele>152.0</ele><time>2026-04-05T16:47:32.001Z</time></trkpt><trkpt lat="45.55317609299102" lon="9.248682412860587"><ele>152.0</ele><time>2026-04-05T16:47:33.001Z</time></trkpt><trkpt lat="45.55314388805797" lon="9.248494234060342"><ele>151.66666666666666</ele><time>2026-04-05T16:47:34.001Z</time></trkpt><trkpt lat="45.553113100069815" lon="9.248277046591314"><ele>151.33333333333334</ele><time>2026-04-05T16:47:35Z</time></trkpt><trkpt lat="45.55308129281016" lon="9.248061089085489"><ele>151.0</ele><time>2026-04-05T16:47:36Z</time></trkpt><trkpt lat="45.55305048882223" lon="9.247853595942862"><ele>151.5</ele><time>2026-04-05T16:47:37Z</time></trkpt><trkpt lat="45.55301916433316" lon="9.247645307396791"><ele>152.0</ele><time>2026-04-05T16:47:38Z</time></trkpt><trkpt lat="45.5529870212096" lon="9.247439821215059"><ele>152.5</ele><time>2026-04-05T16:47:39Z</time></trkpt><trkpt lat="45.55295646628415" lon="9.247240712013896"><ele>153.0</ele><time>2026-04-05T16:47:40Z</time></trkpt><trkpt lat="45.55292708870313" lon="9.247048064484149"><ele>153.0</ele><time>2026-04-05T16:47:41Z</time></trkpt><trkpt lat="45.55289888234853" lon="9.246856564449315"><ele>153.0</ele><time>2026-04-05T16:47:42Z</time></trkpt><trkpt lat="45.55286896364276" lon="9.246665718115064"><ele>153.0</ele><time>2026-04-05T16:47:43Z</time></trkpt><trkpt lat="45.55283655636607" lon="9.246461276066295"><ele>153.0</ele><time>2026-04-05T16:47:44Z</time></trkpt><trkpt lat="45.5528038317816" lon="9.246240380732536"><ele>152.0</ele><time>2026-04-05T16:47:45Z</time></trkpt><trkpt lat="45.552765766829296" lon="9.246008715293963"><ele>151.0</ele><time>2026-04-05T16:47:46Z</time></trkpt><trkpt lat="45.55272231238639" lon="9.245769669872539"><ele>150.0</ele><time>2026-04-05T16:47:47Z</time></trkpt><trkpt lat="45.55267947199182" lon="9.245528921667178"><ele>149.33333333333334</ele><time>2026-04-05T16:47:48Z</time></trkpt><trkpt lat="45.552647050903595" lon="9.245288881213597"><ele>148.66666666666669</ele><time>2026-04-05T16:47:49Z</time></trkpt><trkpt lat="45.55260584161447" lon="9.245017991865044"><ele>148.0</ele><time>2026-04-05T16:47:50Z</time></trkpt><trkpt lat="45.552575921662466" lon="9.244727998227166"><ele>149.33333333333334</ele><time>2026-04-05T16:47:51Z</time></trkpt><trkpt lat="45.55253767317268" lon="9.244425098469403"><ele>150.66666666666666</ele><time>2026-04-05T16:47:52Z</time></trkpt><trkpt lat="45.55249274740313" lon="9.24411661422243"><ele>152.0</ele><time>2026-04-05T16:47:53Z</time></trkpt><trkpt lat="45.552449273810176" lon="9.243825844102835"><ele>152.0</ele><time>2026-04-05T16:47:54Z</time></trkpt><trkpt lat="45.55240582891325" lon="9.243535286023231"><ele>152.0</ele><time>2026-04-05T16:47:55Z</time></trkpt><trkpt lat="45.55236074915402" lon="9.243240595978829"><ele>152.0</ele><time>2026-04-05T16:47:56Z</time></trkpt><trkpt lat="45.552317425789475" lon="9.24294396606759"><ele>151.66666666666666</ele><time>2026-04-05T16:47:57Z</time></trkpt><trkpt lat="45.552275117237464" lon="9.242655221302345"><ele>151.33333333333334</ele><time>2026-04-05T16:47:58Z</time></trkpt><trkpt lat="45.55223395061073" lon="9.242390270763858"><ele>151.0</ele><time>2026-04-05T16:47:59Z</time></trkpt><trkpt lat="45.5521971946428" lon="9.242142632198243"><ele>151.0</ele><time>2026-04-05T16:48:00Z</time></trkpt><trkpt lat="45.552163222659566" lon="9.241907592247854"><ele>151.0</ele><time>2026-04-05T16:48:01Z</time></trkpt><trkpt lat="45.552134983054415" lon="9.241683724078902"><ele>151.0</ele><time>2026-04-05T16:48:02Z</time></trkpt><trkpt lat="45.5521026684462" lon="9.241462614327435"><ele>151.0</ele><time>2026-04-05T16:48:03Z</time></trkpt><trkpt lat="45.55207613058847" lon="9.241237118712382"><ele>151.0</ele><time>2026-04-05T16:48:04Z</time></trkpt><trkpt lat="45.55203802488413" lon="9.241017334510374"><ele>151.0</ele><time>2026-04-05T16:48:05Z</time></trkpt><trkpt lat="45.55200497395824" lon="9.240797622477888"><ele>151.0</ele><time>2026-04-05T16:48:06Z</time></trkpt><trkpt lat="45.551970134269155" lon="9.24057724947366"><ele>151.0</ele><time>2026-04-05T16:48:07Z</time></trkpt><trkpt lat="45.55193817467168" lon="9.240367502082172"><ele>151.0</ele><time>2026-04-05T16:48:08Z</time></trkpt><trkpt lat="45.55190540926621" lon="9.240169206679207"><ele>151.0</ele><time>2026-04-05T16:48:09Z</time></trkpt><trkpt lat="45.55186995327621" lon="9.239980313605587"><ele>151.0</ele><time>2026-04-05T16:48:10Z</time></trkpt><trkpt lat="45.551842609553724" lon="9.239793496982875"><ele>151.0</ele><time>2026-04-05T16:48:11Z</time></trkpt><trkpt lat="45.55181786277476" lon="9.23961685361193"><ele>151.0</ele><time>2026-04-05T16:48:12Z</time></trkpt><trkpt lat="45.551791787767726" lon="9.239444725780727"><ele>151.0</ele><time>2026-04-05T16:48:13Z</time></trkpt><trkpt lat="45.55176793715839" lon="9.239284212993613"><ele>151.0</ele><time>2026-04-05T16:48:14Z</time></trkpt><trkpt lat="45.55174478750086" lon="9.239145009285986"><ele>151.0</ele><time>2026-04-05T16:48:15Z</time></trkpt><trkpt lat="45.55172356945345" lon="9.239008579352491"><ele>151.0</ele><time>2026-04-05T16:48:16Z</time></trkpt><trkpt lat="45.551702546590384" lon="9.238868878195548"><ele>151.0</ele><time>2026-04-05T16:48:17Z</time></trkpt><trkpt lat="45.55168172048489" lon="9.23872803377344"><ele>151.0</ele><time>2026-04-05T16:48:18Z</time></trkpt><trkpt lat="45.551665486245334" lon="9.238613452561246"><ele>151.0</ele><time>2026-04-05T16:48:19Z</time></trkpt><trkpt lat="45.551648727367414" lon="9.238515230759187"><ele>151.0</ele><time>2026-04-05T16:48:20Z</time></trkpt><trkpt lat="45.55162414504985" lon="9.23835204965245"><ele>151.0</ele><time>2026-04-05T16:48:22Z</time></trkpt><trkpt lat="45.55159933030655" lon="9.23819318672487"><ele>151.0</ele><time>2026-04-05T16:48:24Z</time></trkpt><trkpt lat="45.551567662417284" lon="9.238015973428174"><ele>150.66666666666669</ele><time>2026-04-05T16:48:26Z</time></trkpt><trkpt lat="45.55154833938928" lon="9.237908253390103"><ele>150.33333333333334</ele><time>2026-04-05T16:48:27Z</time></trkpt><trkpt lat="45.551542579248604" lon="9.237797939169777"><ele>150.0</ele><time>2026-04-05T16:48:28Z</time></trkpt><trkpt lat="45.55152573206706" lon="9.2376861275544"><ele>149.66666666666666</ele><time>2026-04-05T16:48:29Z</time></trkpt><trkpt lat="45.551509107488535" lon="9.237578693335438"><ele>149.33333333333331</ele><time>2026-04-05T16:48:30Z</time></trkpt><trkpt lat="45.55149093184151" lon="9.237480665176761"><ele>149.0</ele><time>2026-04-05T16:48:31Z</time></trkpt><trkpt lat="45.551472301754266" lon="9.237376422060542"><ele>148.8</ele><time>2026-04-05T16:48:32Z</time></trkpt><trkpt lat="45.551455499656306" lon="9.237270027057624"><ele>148.60000000000002</ele><time>2026-04-05T16:48:33Z</time></trkpt><trkpt lat="45.55143874749021" lon="9.237146074298183"><ele>148.4</ele><time>2026-04-05T16:48:34Z</time></trkpt><trkpt lat="45.55142297814086" lon="9.236990819451469"><ele>148.20000000000002</ele><time>2026-04-05T16:48:35Z</time></trkpt><trkpt lat="45.55139504259738" lon="9.236817993212808"><ele>148.0</ele><time>2026-04-05T16:48:36Z</time></trkpt><trkpt lat="45.55135958944122" lon="9.236631926944455"><ele>149.0</ele><time>2026-04-05T16:48:37Z</time></trkpt><trkpt lat="45.55133039886794" lon="9.236431219382025"><ele>150.0</ele><time>2026-04-05T16:48:38Z</time></trkpt><trkpt lat="45.55130635839638" lon="9.236196413184562"><ele>151.0</ele><time>2026-04-05T16:48:39Z</time></trkpt><trkpt lat="45.55128294510171" lon="9.235975303636938"><ele>151.0</ele><time>2026-04-05T16:48:40Z</time></trkpt><trkpt lat="45.55125554872277" lon="9.235745463703035"><ele>151.0</ele><time>2026-04-05T16:48:41Z</time></trkpt><trkpt lat="45.55122403542596" lon="9.235498971163354"><ele>151.0</ele><time>2026-04-05T16:48:42Z</time></trkpt><trkpt lat="45.55119087194356" lon="9.235245698224393"><ele>151.66666666666669</ele><time>2026-04-05T16:48:43.001Z</time></trkpt><trkpt lat="45.55115620773931" lon="9.234997031056233"><ele>152.33333333333334</ele><time>2026-04-05T16:48:44.001Z</time></trkpt><trkpt lat="45.55111918865298" lon="9.234774856416944"><ele>153.0</ele><time>2026-04-05T16:48:45.001Z</time></trkpt><trkpt lat="45.55108702087021" lon="9.234575108111853"><ele>153.25</ele><time>2026-04-05T16:48:46.001Z</time></trkpt><trkpt lat="45.551062251319564" lon="9.234407978055632"><ele>153.5</ele><time>2026-04-05T16:48:47.001Z</time></trkpt><trkpt lat="45.55104305702069" lon="9.234268000677186"><ele>153.75</ele><time>2026-04-05T16:48:48.001Z</time></trkpt><trkpt lat="45.5510227909552" lon="9.234137092292116"><ele>154.0</ele><time>2026-04-05T16:48:49.014Z</time></trkpt><trkpt lat="45.55037298709671" lon="9.230401804679287"><ele>152.75</ele><time>2026-04-05T16:49:10.001Z</time></trkpt><trkpt lat="45.55047537204395" lon="9.230428123855246"><ele>151.5</ele><time>2026-04-05T16:49:11.001Z</time></trkpt><trkpt lat="45.5504466206517" lon="9.230222397932586"><ele>150.25</ele><time>2026-04-05T16:49:12.001Z</time></trkpt><trkpt lat="45.55050197245419" lon="9.230287359223126"><ele>149.0</ele><time>2026-04-05T16:49:13.001Z</time></trkpt><trkpt lat="45.550452320260305" lon="9.230067146195802"><ele>149.0</ele><time>2026-04-05T16:49:14.001Z</time></trkpt><trkpt lat="45.55041619986721" lon="9.229885993143924"><ele>149.0</ele><time>2026-04-05T16:49:15.001Z</time></trkpt><trkpt lat="45.55039145018129" lon="9.229717373574829"><ele>149.0</ele><time>2026-04-05T16:49:16.001Z</time></trkpt><trkpt lat="45.550354760551144" lon="9.2295277988246"><ele>149.0</ele><time>2026-04-05T16:49:17.001Z</time></trkpt><trkpt lat="45.55032301356133" lon="9.22935611757209"><ele>149.0</ele><time>2026-04-05T16:49:18.001Z</time></trkpt><trkpt lat="45.550292252348434" lon="9.229165222125781"><ele>149.0</ele><time>2026-04-05T16:49:19.001Z</time></trkpt><trkpt lat="45.55026329662759" lon="9.228963752403262"><ele>149.0</ele><time>2026-04-05T16:49:20.001Z</time></trkpt><trkpt lat="45.55023062471431" lon="9.228765879133807"><ele>149.0</ele><time>2026-04-05T16:49:21.001Z</time></trkpt><trkpt lat="45.550198073497576" lon="9.228572783902381"><ele>148.75</ele><time>2026-04-05T16:49:22.001Z</time></trkpt><trkpt lat="45.55016770864058" lon="9.228375631243546"><ele>148.5</ele><time>2026-04-05T16:49:23.001Z</time></trkpt><trkpt lat="45.550133821543106" lon="9.228174148700022"><ele>148.25</ele><time>2026-04-05T16:49:24.001Z</time></trkpt><trkpt lat="45.55009422623498" lon="9.227965814132494"><ele>148.0</ele><time>2026-04-05T16:49:25.001Z</time></trkpt><trkpt lat="45.55006314372189" lon="9.227761018940772"><ele>147.75</ele><time>2026-04-05T16:49:26.001Z</time></trkpt><trkpt lat="45.55003475208381" lon="9.227568319843872"><ele>147.5</ele><time>2026-04-05T16:49:27.001Z</time></trkpt><trkpt lat="45.55000719870409" lon="9.227370818795634"><ele>147.25</ele><time>2026-04-05T16:49:28.001Z</time></trkpt><trkpt lat="45.549976520180635" lon="9.227167895000715"><ele>147.0</ele><time>2026-04-05T16:49:29.001Z</time></trkpt><trkpt lat="45.549940397294726" lon="9.22696012709037"><ele>148.0</ele><time>2026-04-05T16:49:30.001Z</time></trkpt><trkpt lat="45.549910203149466" lon="9.226750246152525"><ele>149.0</ele><time>2026-04-05T16:49:31.001Z</time></trkpt><trkpt lat="45.5498719651722" lon="9.226536368066228"><ele>150.0</ele><time>2026-04-05T16:49:32.001Z</time></trkpt><trkpt lat="45.54983567352353" lon="9.226318423893106"><ele>150.0</ele><time>2026-04-05T16:49:33.001Z</time></trkpt><trkpt lat="45.54980049986947" lon="9.226109700437412"><ele>150.0</ele><time>2026-04-05T16:49:34.001Z</time></trkpt><trkpt lat="45.549771163896274" lon="9.225906914460747"><ele>150.0</ele><time>2026-04-05T16:49:35.001Z</time></trkpt><trkpt lat="45.54973830422185" lon="9.225702421020427"><ele>150.0</ele><time>2026-04-05T16:49:36.001Z</time></trkpt><trkpt lat="45.54970630002491" lon="9.225489995016602"><ele>149.66666666666666</ele><time>2026-04-05T16:49:37.001Z</time></trkpt><trkpt lat="45.54967204244108" lon="9.225284077213354"><ele>149.33333333333331</ele><time>2026-04-05T16:49:38.001Z</time></trkpt><trkpt lat="45.5496481753192" lon="9.225075768296993"><ele>149.0</ele><time>2026-04-05T16:49:39.001Z</time></trkpt><trkpt lat="45.54961760613773" lon="9.224846387659925"><ele>148.75</ele><time>2026-04-05T16:49:40.001Z</time></trkpt><trkpt lat="45.549588912381076" lon="9.224637810600749"><ele>148.5</ele><time>2026-04-05T16:49:40.999Z</time></trkpt><trkpt lat="45.54956389562147" lon="9.224449468074036"><ele>148.25</ele><time>2026-04-05T16:49:41.999Z</time></trkpt><trkpt lat="45.549539133631995" lon="9.224271806332672"><ele>148.0</ele><time>2026-04-05T16:49:42.999Z</time></trkpt><trkpt lat="45.54951629649458" lon="9.224092519710956"><ele>148.0</ele><time>2026-04-05T16:49:43.999Z</time></trkpt><trkpt lat="45.549490555152886" lon="9.223915392550758"><ele>148.0</ele><time>2026-04-05T16:49:44.999Z</time></trkpt><trkpt lat="45.549466256187756" lon="9.223753534925214"><ele>148.0</ele><time>2026-04-05T16:49:45.999Z</time></trkpt><trkpt lat="45.54944148352889" lon="9.22360189664541"><ele>148.0</ele><time>2026-04-05T16:49:46.999Z</time></trkpt><trkpt lat="45.549409774869304" lon="9.223439730683824"><ele>148.0</ele><time>2026-04-05T16:49:47.999Z</time></trkpt><trkpt lat="45.54937938289703" lon="9.223273811962628"><ele>148.0</ele><time>2026-04-05T16:49:49Z</time></trkpt><trkpt lat="45.54935685352763" lon="9.223120394582399"><ele>148.0</ele><time>2026-04-05T16:49:50Z</time></trkpt><trkpt lat="45.549337619200806" lon="9.222979737163055"><ele>148.0</ele><time>2026-04-05T16:49:51Z</time></trkpt><trkpt lat="45.549312440469045" lon="9.222831628748004"><ele>148.0</ele><time>2026-04-05T16:49:52Z</time></trkpt><trkpt lat="45.549286434361754" lon="9.222671831618992"><ele>148.33333333333334</ele><time>2026-04-05T16:49:53Z</time></trkpt><trkpt lat="45.549255471275195" lon="9.22246372084411"><ele>148.66666666666666</ele><time>2026-04-05T16:49:54Z</time></trkpt><trkpt lat="45.54923218285289" lon="9.222232974218919"><ele>149.0</ele><time>2026-04-05T16:49:55Z</time></trkpt><trkpt lat="45.549194993606626" lon="9.221979459833186"><ele>149.0</ele><time>2026-04-05T16:49:56Z</time></trkpt><trkpt lat="45.549152277823794" lon="9.221732659954226"><ele>149.0</ele><time>2026-04-05T16:49:57Z</time></trkpt><trkpt lat="45.54911776243466" lon="9.221514386104033"><ele>149.0</ele><time>2026-04-05T16:49:58Z</time></trkpt><trkpt lat="45.5490874563917" lon="9.221305837012206"><ele>149.0</ele><time>2026-04-05T16:49:59Z</time></trkpt><trkpt lat="45.54905521802806" lon="9.221086802198947"><ele>149.0</ele><time>2026-04-05T16:50:00Z</time></trkpt><trkpt lat="45.549021380355704" lon="9.220861937703871"><ele>149.0</ele><time>2026-04-05T16:50:01Z</time></trkpt><trkpt lat="45.54899184792972" lon="9.220632762164803"><ele>149.66666666666666</ele><time>2026-04-05T16:50:02Z</time></trkpt><trkpt lat="45.548967703273796" lon="9.220391385577233"><ele>150.33333333333334</ele><time>2026-04-05T16:50:03Z</time></trkpt><trkpt lat="45.54894717114989" lon="9.220137281602726"><ele>151.0</ele><time>2026-04-05T16:50:04Z</time></trkpt><trkpt lat="45.54891533651947" lon="9.219882686438579"><ele>151.33333333333334</ele><time>2026-04-05T16:50:05Z</time></trkpt><trkpt lat="45.54888077598725" lon="9.219620402398903"><ele>151.66666666666666</ele><time>2026-04-05T16:50:06Z</time></trkpt><trkpt lat="45.54885824591261" lon="9.21935060791309"><ele>152.0</ele><time>2026-04-05T16:50:07Z</time></trkpt><trkpt lat="45.548846278138356" lon="9.219044753665665"><ele>151.66666666666666</ele><time>2026-04-05T16:50:08Z</time></trkpt><trkpt lat="45.548824106744924" lon="9.218742612945402"><ele>151.33333333333334</ele><time>2026-04-05T16:50:09Z</time></trkpt><trkpt lat="45.54880842088836" lon="9.218431139816584"><ele>151.0</ele><time>2026-04-05T16:50:10Z</time></trkpt><trkpt lat="45.54879430087856" lon="9.218139859121443"><ele>151.0</ele><time>2026-04-05T16:50:11Z</time></trkpt><trkpt lat="45.54877775473742" lon="9.217862443922566"><ele>151.0</ele><time>2026-04-05T16:50:12Z</time></trkpt><trkpt lat="45.54876123560432" lon="9.217586547365961"><ele>151.0</ele><time>2026-04-05T16:50:13Z</time></trkpt><trkpt lat="45.54874719248972" lon="9.217323585154157"><ele>150.66666666666669</ele><time>2026-04-05T16:50:14Z</time></trkpt><trkpt lat="45.54873615460989" lon="9.21706499532094"><ele>150.33333333333334</ele><time>2026-04-05T16:50:15Z</time></trkpt><trkpt lat="45.54872867975539" lon="9.216805811266788"><ele>150.0</ele><time>2026-04-05T16:50:16Z</time></trkpt><trkpt lat="45.54872236117046" lon="9.216548336130025"><ele>150.0</ele><time>2026-04-05T16:50:17Z</time></trkpt><trkpt lat="45.548714967838144" lon="9.21628500886427"><ele>150.0</ele><time>2026-04-05T16:50:18Z</time></trkpt><trkpt lat="45.54870622861472" lon="9.216023385915326"><ele>150.0</ele><time>2026-04-05T16:50:19Z</time></trkpt><trkpt lat="45.54869896055082" lon="9.215777570126273"><ele>149.66666666666666</ele><time>2026-04-05T16:50:20Z</time></trkpt><trkpt lat="45.548692298322976" lon="9.215535451368423"><ele>149.33333333333331</ele><time>2026-04-05T16:50:21Z</time></trkpt><trkpt lat="45.54868452973539" lon="9.21528358693504"><ele>149.0</ele><time>2026-04-05T16:50:22Z</time></trkpt><trkpt lat="45.54867418678142" lon="9.215028071163024"><ele>148.0</ele><time>2026-04-05T16:50:23Z</time></trkpt><trkpt lat="45.54866561073008" lon="9.214782440948154"><ele>147.0</ele><time>2026-04-05T16:50:24Z</time></trkpt><trkpt lat="45.54865824064996" lon="9.214535896555828"><ele>146.0</ele><time>2026-04-05T16:50:25Z</time></trkpt><trkpt lat="45.54864873818381" lon="9.214290720354022"><ele>146.0</ele><time>2026-04-05T16:50:26Z</time></trkpt><trkpt lat="45.54864181193009" lon="9.214043943128033"><ele>146.0</ele><time>2026-04-05T16:50:27Z</time></trkpt><trkpt lat="45.54863807999097" lon="9.213799213374422"><ele>146.0</ele><time>2026-04-05T16:50:28Z</time></trkpt><trkpt lat="45.54863074338291" lon="9.213556486307699"><ele>146.0</ele><time>2026-04-05T16:50:29Z</time></trkpt><trkpt lat="45.54862277276486" lon="9.21331877169263"><ele>146.0</ele><time>2026-04-05T16:50:30Z</time></trkpt><trkpt lat="45.5486142930127" lon="9.213079451193014"><ele>146.0</ele><time>2026-04-05T16:50:31Z</time></trkpt><trkpt lat="45.54860596389363" lon="9.212836078575847"><ele>146.66666666666666</ele><time>2026-04-05T16:50:32Z</time></trkpt><trkpt lat="45.54859964551109" lon="9.212595101134653"><ele>147.33333333333334</ele><time>2026-04-05T16:50:33Z</time></trkpt><trkpt lat="45.5485931654462" lon="9.212354299238793"><ele>148.0</ele><time>2026-04-05T16:50:34Z</time></trkpt><trkpt lat="45.54858585867996" lon="9.21211649367049"><ele>148.0</ele><time>2026-04-05T16:50:35Z</time></trkpt><trkpt lat="45.54857966415821" lon="9.211880991108881"><ele>148.0</ele><time>2026-04-05T16:50:36Z</time></trkpt><trkpt lat="45.54857357057158" lon="9.211647614757874"><ele>148.0</ele><time>2026-04-05T16:50:37Z</time></trkpt><trkpt lat="45.54856937509122" lon="9.21141419089932"><ele>148.33333333333334</ele><time>2026-04-05T16:50:38Z</time></trkpt><trkpt lat="45.54856437413106" lon="9.211184215579516"><ele>148.66666666666666</ele><time>2026-04-05T16:50:39Z</time></trkpt><trkpt lat="45.548557435881904" lon="9.210957214467287"><ele>149.0</ele><time>2026-04-05T16:50:40Z</time></trkpt><trkpt lat="45.548552830419915" lon="9.210732683890514"><ele>149.33333333333331</ele><time>2026-04-05T16:50:41Z</time></trkpt><trkpt lat="45.54854901995311" lon="9.210507099325786"><ele>149.66666666666666</ele><time>2026-04-05T16:50:42Z</time></trkpt><trkpt lat="45.548546826729904" lon="9.210280908569315"><ele>150.0</ele><time>2026-04-05T16:50:43Z</time></trkpt><trkpt lat="45.5485431208616" lon="9.210047348795488"><ele>149.66666666666666</ele><time>2026-04-05T16:50:44Z</time></trkpt><trkpt lat="45.54853861532743" lon="9.209812916118324"><ele>149.33333333333331</ele><time>2026-04-05T16:50:45Z</time></trkpt><trkpt lat="45.54853636974456" lon="9.209588211473369"><ele>149.0</ele><time>2026-04-05T16:50:46Z</time></trkpt><trkpt lat="45.548533678419204" lon="9.209362330055106"><ele>149.0</ele><time>2026-04-05T16:50:47Z</time></trkpt><trkpt lat="45.54852869106211" lon="9.209129321630128"><ele>149.0</ele><time>2026-04-05T16:50:48.001Z</time></trkpt><trkpt lat="45.54852042191778" lon="9.208899763973912"><ele>149.0</ele><time>2026-04-05T16:50:49.001Z</time></trkpt><trkpt lat="45.548513266140866" lon="9.208672199688012"><ele>149.0</ele><time>2026-04-05T16:50:50.001Z</time></trkpt><trkpt lat="45.54850470873054" lon="9.208437422741474"><ele>149.0</ele><time>2026-04-05T16:50:51.001Z</time></trkpt><trkpt lat="45.54849722774774" lon="9.208195652488472"><ele>149.0</ele><time>2026-04-05T16:50:52.001Z</time></trkpt><trkpt lat="45.548490535870975" lon="9.20794631508879"><ele>149.0</ele><time>2026-04-05T16:50:53.001Z</time></trkpt><trkpt lat="45.54848537348212" lon="9.207684901330195"><ele>149.0</ele><time>2026-04-05T16:50:54.001Z</time></trkpt><trkpt lat="45.54847313628464" lon="9.207410314841626"><ele>149.0</ele><time>2026-04-05T16:50:55.001Z</time></trkpt><trkpt lat="45.54846146518828" lon="9.20712904111619"><ele>149.0</ele><time>2026-04-05T16:50:56.001Z</time></trkpt><trkpt lat="45.54845169374602" lon="9.206835109171037"><ele>149.0</ele><time>2026-04-05T16:50:57.001Z</time></trkpt><trkpt lat="45.54844213086652" lon="9.206527650605546"><ele>149.0</ele><time>2026-04-05T16:50:58.001Z</time></trkpt><trkpt lat="45.5484363535755" lon="9.206205591105256"><ele>149.0</ele><time>2026-04-05T16:50:59.001Z</time></trkpt><trkpt lat="45.54843258997134" lon="9.205871075892249"><ele>149.0</ele><time>2026-04-05T16:51:00.001Z</time></trkpt><trkpt lat="45.54843100393955" lon="9.20552334710126"><ele>149.0</ele><time>2026-04-05T16:51:01.001Z</time></trkpt><trkpt lat="45.548423860546144" lon="9.205185703685087"><ele>149.0</ele><time>2026-04-05T16:51:02.001Z</time></trkpt><trkpt lat="45.54841114825667" lon="9.20482069689229"><ele>149.0</ele><time>2026-04-05T16:51:03.001Z</time></trkpt><trkpt lat="45.54839730099704" lon="9.204445940893105"><ele>149.0</ele><time>2026-04-05T16:51:04.001Z</time></trkpt><trkpt lat="45.54838094012786" lon="9.204078570269777"><ele>148.5</ele><time>2026-04-05T16:51:05.001Z</time></trkpt><trkpt lat="45.54836178058829" lon="9.203716375803854"><ele>148.0</ele><time>2026-04-05T16:51:06.001Z</time></trkpt><trkpt lat="45.54833264295159" lon="9.20336308109055"><ele>147.5</ele><time>2026-04-05T16:51:07.001Z</time></trkpt><trkpt lat="45.54829697921836" lon="9.203017623531586"><ele>147.0</ele><time>2026-04-05T16:51:08.001Z</time></trkpt><trkpt lat="45.54825822074648" lon="9.202673043281289"><ele>148.0</ele><time>2026-04-05T16:51:09.001Z</time></trkpt><trkpt lat="45.54821320303714" lon="9.202320698618264"><ele>149.0</ele><time>2026-04-05T16:51:10.001Z</time></trkpt><trkpt lat="45.548170259470965" lon="9.201960361187382"><ele>149.0</ele><time>2026-04-05T16:51:11.001Z</time></trkpt><trkpt lat="45.54812490744467" lon="9.201602975709166"><ele>149.0</ele><time>2026-04-05T16:51:12.001Z</time></trkpt><trkpt lat="45.548078113061365" lon="9.201274325854698"><ele>149.0</ele><time>2026-04-05T16:51:13.001Z</time></trkpt><trkpt lat="45.54803384562444" lon="9.20096715589923"><ele>149.0</ele><time>2026-04-05T16:51:14.001Z</time></trkpt><trkpt lat="45.547990890598946" lon="9.200683880553633"><ele>149.0</ele><time>2026-04-05T16:51:15.001Z</time></trkpt><trkpt lat="45.54795379277747" lon="9.200430668807758"><ele>148.66666666666666</ele><time>2026-04-05T16:51:16.001Z</time></trkpt><trkpt lat="45.54791720118815" lon="9.20020348739368"><ele>148.33333333333334</ele><time>2026-04-05T16:51:17.001Z</time></trkpt><trkpt lat="45.54787496853789" lon="9.199992460223475"><ele>148.0</ele><time>2026-04-05T16:51:18.001Z</time></trkpt><trkpt lat="45.54783635263263" lon="9.199787303284237"><ele>148.0</ele><time>2026-04-05T16:51:19.001Z</time></trkpt><trkpt lat="45.547795846822915" lon="9.199591267175595"><ele>148.0</ele><time>2026-04-05T16:51:20.001Z</time></trkpt><trkpt lat="45.54775216872442" lon="9.199404434475715"><ele>148.0</ele><time>2026-04-05T16:51:21.001Z</time></trkpt><trkpt lat="45.547710208933545" lon="9.199219994733642"><ele>148.0</ele><time>2026-04-05T16:51:22.001Z</time></trkpt><trkpt lat="45.5476672658577" lon="9.199033544410343"><ele>147.75</ele><time>2026-04-05T16:51:23.001Z</time></trkpt><trkpt lat="45.547628079947664" lon="9.198866321264108"><ele>147.5</ele><time>2026-04-05T16:51:24.001Z</time></trkpt><trkpt lat="45.54758889550622" lon="9.198697759225205"><ele>147.25</ele><time>2026-04-05T16:51:25.001Z</time></trkpt><trkpt lat="45.54754892022484" lon="9.198526850873034"><ele>147.0</ele><time>2026-04-05T16:51:26.001Z</time></trkpt><trkpt lat="45.54750850758439" lon="9.198353090231127"><ele>147.0</ele><time>2026-04-05T16:51:27.001Z</time></trkpt><trkpt lat="45.54747258486552" lon="9.198185547825462"><ele>147.0</ele><time>2026-04-05T16:51:28.001Z</time></trkpt><trkpt lat="45.547434508178405" lon="9.198004044036562"><ele>147.0</ele><time>2026-04-05T16:51:29.001Z</time></trkpt><trkpt lat="45.5473862914473" lon="9.19779494802856"><ele>147.0</ele><time>2026-04-05T16:51:30.001Z</time></trkpt><trkpt lat="45.5473371850407" lon="9.197581051368358"><ele>147.66666666666666</ele><time>2026-04-05T16:51:31.001Z</time></trkpt><trkpt lat="45.54728181579725" lon="9.197386339083211"><ele>148.33333333333331</ele><time>2026-04-05T16:51:32.001Z</time></trkpt><trkpt lat="45.54721996791463" lon="9.197179794398915"><ele>149.0</ele><time>2026-04-05T16:51:33.001Z</time></trkpt><trkpt lat="45.54716420486587" lon="9.196972368134114"><ele>148.66666666666666</ele><time>2026-04-05T16:51:34.001Z</time></trkpt><trkpt lat="45.54711258180827" lon="9.19675542431274"><ele>148.33333333333334</ele><time>2026-04-05T16:51:35.001Z</time></trkpt><trkpt lat="45.54706750833388" lon="9.196541885276634"><ele>148.0</ele><time>2026-04-05T16:51:36.001Z</time></trkpt><trkpt lat="45.54702660200357" lon="9.196339096709716"><ele>148.0</ele><time>2026-04-05T16:51:37.001Z</time></trkpt><trkpt lat="45.54698672331223" lon="9.196139103421688"><ele>148.0</ele><time>2026-04-05T16:51:38.001Z</time></trkpt><trkpt lat="45.54692035027892" lon="9.195926174254646"><ele>148.0</ele><time>2026-04-05T16:51:39.001Z</time></trkpt><trkpt lat="45.54686582054172" lon="9.195740169554893"><ele>148.25</ele><time>2026-04-05T16:51:40.001Z</time></trkpt><trkpt lat="45.54681345683832" lon="9.195570030740607"><ele>148.5</ele><time>2026-04-05T16:51:41.001Z</time></trkpt><trkpt lat="45.546763598934845" lon="9.195412446341667"><ele>148.75</ele><time>2026-04-05T16:51:42.001Z</time></trkpt><trkpt lat="45.54670732309265" lon="9.195250812271455"><ele>149.0</ele><time>2026-04-05T16:51:43.001Z</time></trkpt><trkpt lat="45.54665278029209" lon="9.195083961504377"><ele>149.0</ele><time>2026-04-05T16:51:44.001Z</time></trkpt><trkpt lat="45.5466235620278" lon="9.194924043701393"><ele>149.0</ele><time>2026-04-05T16:51:45.001Z</time></trkpt><trkpt lat="45.54659183340635" lon="9.194741321568172"><ele>149.0</ele><time>2026-04-05T16:51:46.001Z</time></trkpt><trkpt lat="45.546538256978565" lon="9.19453121090299"><ele>149.0</ele><time>2026-04-05T16:51:46.999Z</time></trkpt><trkpt lat="45.54647230758718" lon="9.194308969409052"><ele>149.33333333333331</ele><time>2026-04-05T16:51:47.999Z</time></trkpt><trkpt lat="45.546406299674295" lon="9.194056113940226"><ele>149.66666666666666</ele><time>2026-04-05T16:51:48.999Z</time></trkpt><trkpt lat="45.546337067513946" lon="9.19379254387514"><ele>150.0</ele><time>2026-04-05T16:51:49.999Z</time></trkpt><trkpt lat="45.546267501294516" lon="9.193528112859473"><ele>150.0</ele><time>2026-04-05T16:51:50.999Z</time></trkpt><trkpt lat="45.54620220434161" lon="9.193278213965876"><ele>150.0</ele><time>2026-04-05T16:51:52Z</time></trkpt><trkpt lat="45.54613642463663" lon="9.19302801987808"><ele>150.0</ele><time>2026-04-05T16:51:53Z</time></trkpt><trkpt lat="45.546069342700534" lon="9.192779348023379"><ele>150.0</ele><time>2026-04-05T16:51:54Z</time></trkpt><trkpt lat="45.54599758382139" lon="9.19253069970308"><ele>150.0</ele><time>2026-04-05T16:51:55Z</time></trkpt><trkpt lat="45.5459311741568" lon="9.19228746159485"><ele>150.0</ele><time>2026-04-05T16:51:56Z</time></trkpt><trkpt lat="45.54587228313012" lon="9.19205610624503"><ele>150.0</ele><time>2026-04-05T16:51:57Z</time></trkpt><trkpt lat="45.54581596122551" lon="9.191849401887936"><ele>150.0</ele><time>2026-04-05T16:51:58Z</time></trkpt><trkpt lat="45.54576414582586" lon="9.191650687661667"><ele>150.0</ele><time>2026-04-05T16:51:59Z</time></trkpt><trkpt lat="45.54572074024487" lon="9.191474205096977"><ele>150.0</ele><time>2026-04-05T16:52:00Z</time></trkpt><trkpt lat="45.545683086505576" lon="9.191318794886921"><ele>150.5</ele><time>2026-04-05T16:52:01Z</time></trkpt><trkpt lat="45.54564950960132" lon="9.191186900099364"><ele>151.0</ele><time>2026-04-05T16:52:02Z</time></trkpt><trkpt lat="45.545612894736124" lon="9.191060565161559"><ele>151.5</ele><time>2026-04-05T16:52:03Z</time></trkpt><trkpt lat="45.5455830481664" lon="9.19095251503851"><ele>152.0</ele><time>2026-04-05T16:52:04Z</time></trkpt><trkpt lat="45.54555601970686" lon="9.190845395373112"><ele>152.5</ele><time>2026-04-05T16:52:05Z</time></trkpt><trkpt lat="45.54552765136035" lon="9.190734526472696"><ele>153.0</ele><time>2026-04-05T16:52:06Z</time></trkpt><trkpt lat="45.54548769086528" lon="9.19059613452504"><ele>153.0</ele><time>2026-04-05T16:52:07Z</time></trkpt><trkpt lat="45.545444374255545" lon="9.190436637970906"><ele>153.0</ele><time>2026-04-05T16:52:08Z</time></trkpt><trkpt lat="45.54540706179045" lon="9.190279982803968"><ele>153.0</ele><time>2026-04-05T16:52:09Z</time></trkpt><trkpt lat="45.545367761768766" lon="9.190129878963388"><ele>153.0</ele><time>2026-04-05T16:52:10Z</time></trkpt><trkpt lat="45.54532886736231" lon="9.189988591685006"><ele>152.5</ele><time>2026-04-05T16:52:11Z</time></trkpt><trkpt lat="45.545296182103726" lon="9.189860499701231"><ele>152.0</ele><time>2026-04-05T16:52:12Z</time></trkpt><trkpt lat="45.54525877302668" lon="9.189718210134775"><ele>151.5</ele><time>2026-04-05T16:52:13Z</time></trkpt><trkpt lat="45.54521511129751" lon="9.189547131621763"><ele>151.0</ele><time>2026-04-05T16:52:14Z</time></trkpt><trkpt lat="45.54516136332958" lon="9.189359873147914"><ele>151.0</ele><time>2026-04-05T16:52:15Z</time></trkpt><trkpt lat="45.54510951622433" lon="9.189165122938855"><ele>151.0</ele><time>2026-04-05T16:52:16Z</time></trkpt><trkpt lat="45.54506855651824" lon="9.188960621576346"><ele>151.0</ele><time>2026-04-05T16:52:17Z</time></trkpt><trkpt lat="45.54501702559342" lon="9.188763604568289"><ele>151.0</ele><time>2026-04-05T16:52:18Z</time></trkpt><trkpt lat="45.54495492504166" lon="9.188565824238786"><ele>151.0</ele><time>2026-04-05T16:52:19Z</time></trkpt><trkpt lat="45.54490256625923" lon="9.188360859497674"><ele>151.0</ele><time>2026-04-05T16:52:20Z</time></trkpt><trkpt lat="45.54484966345066" lon="9.18815546529969"><ele>151.0</ele><time>2026-04-05T16:52:21Z</time></trkpt><trkpt lat="45.544796374024465" lon="9.187958839262114"><ele>150.8</ele><time>2026-04-05T16:52:22Z</time></trkpt><trkpt lat="45.54475686705938" lon="9.187812349792388"><ele>150.6</ele><time>2026-04-05T16:52:23Z</time></trkpt><trkpt lat="45.54472722697959" lon="9.18770079176171"><ele>150.4</ele><time>2026-04-05T16:52:24Z</time></trkpt><trkpt lat="45.54470456648624" lon="9.187607832264662"><ele>150.2</ele><time>2026-04-05T16:52:25Z</time></trkpt><trkpt lat="45.54468695144859" lon="9.187513876541265"><ele>150.0</ele><time>2026-04-05T16:52:26Z</time></trkpt><trkpt lat="45.544647873102676" lon="9.187334821302219"><ele>150.0</ele><time>2026-04-05T16:52:28Z</time></trkpt><trkpt lat="45.54460757457771" lon="9.187191026127"><ele>150.0</ele><time>2026-04-05T16:52:30Z</time></trkpt><trkpt lat="45.54456287700946" lon="9.18705049428831"><ele>150.0</ele><time>2026-04-05T16:52:32Z</time></trkpt><trkpt lat="45.54453281207584" lon="9.186952539266185"><ele>150.0</ele><time>2026-04-05T16:52:33Z</time></trkpt><trkpt lat="45.544508660442375" lon="9.186842573826214"><ele>150.0</ele><time>2026-04-05T16:52:34Z</time></trkpt><trkpt lat="45.5444819131545" lon="9.186697239598198"><ele>150.0</ele><time>2026-04-05T16:52:35Z</time></trkpt><trkpt lat="45.54443568028841" lon="9.186531038592534"><ele>150.0</ele><time>2026-04-05T16:52:36Z</time></trkpt><trkpt lat="45.54439250964144" lon="9.186382493741958"><ele>150.0</ele><time>2026-04-05T16:52:37Z</time></trkpt><trkpt lat="45.54435498534054" lon="9.186237724760307"><ele>150.0</ele><time>2026-04-05T16:52:38Z</time></trkpt><trkpt lat="45.54431359323124" lon="9.186088988507112"><ele>150.25</ele><time>2026-04-05T16:52:39Z</time></trkpt><trkpt lat="45.544271531336754" lon="9.185921540079086"><ele>150.5</ele><time>2026-04-05T16:52:40Z</time></trkpt><trkpt lat="45.544228655543854" lon="9.185723351840139"><ele>150.75</ele><time>2026-04-05T16:52:41Z</time></trkpt><trkpt lat="45.54418084731383" lon="9.185525661994035"><ele>151.0</ele><time>2026-04-05T16:52:42Z</time></trkpt><trkpt lat="45.54413761931293" lon="9.18535556319292"><ele>150.5</ele><time>2026-04-05T16:52:43Z</time></trkpt><trkpt lat="45.54408709334664" lon="9.18518439356937"><ele>150.0</ele><time>2026-04-05T16:52:44Z</time></trkpt><trkpt lat="45.544039141033274" lon="9.185034742216807"><ele>149.5</ele><time>2026-04-05T16:52:45Z</time></trkpt><trkpt lat="45.544000609760616" lon="9.184892509402399"><ele>149.0</ele><time>2026-04-05T16:52:46Z</time></trkpt><trkpt lat="45.54396858185716" lon="9.184758964052168"><ele>148.83333333333331</ele><time>2026-04-05T16:52:47Z</time></trkpt><trkpt lat="45.54394242907718" lon="9.184634211134533"><ele>148.66666666666666</ele><time>2026-04-05T16:52:48Z</time></trkpt><trkpt lat="45.543916119461954" lon="9.184510627792893"><ele>148.5</ele><time>2026-04-05T16:52:49Z</time></trkpt><trkpt lat="45.54388972594429" lon="9.184388372872"><ele>148.33333333333334</ele><time>2026-04-05T16:52:50.001Z</time></trkpt><trkpt lat="45.543863673680995" lon="9.184279958065732"><ele>148.16666666666669</ele><time>2026-04-05T16:52:51.001Z</time></trkpt><trkpt lat="45.54383901147221" lon="9.184177605805951"><ele>148.0</ele><time>2026-04-05T16:52:52.001Z</time></trkpt><trkpt lat="45.543819019276896" lon="9.184078563239417"><ele>148.0</ele><time>2026-04-05T16:52:53.001Z</time></trkpt><trkpt lat="45.54379681872929" lon="9.183947087781126"><ele>148.0</ele><time>2026-04-05T16:52:54.001Z</time></trkpt><trkpt lat="45.54376761460426" lon="9.18378393224315"><ele>148.0</ele><time>2026-04-05T16:52:55.001Z</time></trkpt><trkpt lat="45.54371471461763" lon="9.18359603791307"><ele>148.0</ele><time>2026-04-05T16:52:56.001Z</time></trkpt><trkpt lat="45.54366142103651" lon="9.183402711821765"><ele>148.0</ele><time>2026-04-05T16:52:57.001Z</time></trkpt><trkpt lat="45.54361322195391" lon="9.183223256689292"><ele>148.0</ele><time>2026-04-05T16:52:58.001Z</time></trkpt><trkpt lat="45.54356056112669" lon="9.183059853197014"><ele>148.0</ele><time>2026-04-05T16:52:59.001Z</time></trkpt><trkpt lat="45.54351270184425" lon="9.18289663451403"><ele>148.0</ele><time>2026-04-05T16:53:00.001Z</time></trkpt><trkpt lat="45.54346946541935" lon="9.182706249088975"><ele>148.0</ele><time>2026-04-05T16:53:01.001Z</time></trkpt><trkpt lat="45.543426171286335" lon="9.182529659608567"><ele>148.0</ele><time>2026-04-05T16:53:02.001Z</time></trkpt><trkpt lat="45.54338642252706" lon="9.182367618490419"><ele>148.0</ele><time>2026-04-05T16:53:03.001Z</time></trkpt><trkpt lat="45.5433428230442" lon="9.182205178744205"><ele>148.0</ele><time>2026-04-05T16:53:04.001Z</time></trkpt><trkpt lat="45.54328702848409" lon="9.182041680814423"><ele>147.8</ele><time>2026-04-05T16:53:05.001Z</time></trkpt><trkpt lat="45.54322323678181" lon="9.181882798692664"><ele>147.60000000000002</ele><time>2026-04-05T16:53:06.001Z</time></trkpt><trkpt lat="45.54316339151148" lon="9.181726019336319"><ele>147.39999999999998</ele><time>2026-04-05T16:53:07.001Z</time></trkpt><trkpt lat="45.5431305515697" lon="9.181586174468597"><ele>147.2</ele><time>2026-04-05T16:53:08.001Z</time></trkpt><trkpt lat="45.54310871587813" lon="9.181483675802681"><ele>147.0</ele><time>2026-04-05T16:53:09.001Z</time></trkpt><trkpt lat="45.54308435390664" lon="9.181393980979422"><ele>147.0</ele><time>2026-04-05T16:53:10.001Z</time></trkpt><trkpt lat="45.543060555549395" lon="9.181298513357207"><ele>147.0</ele><time>2026-04-05T16:53:11.001Z</time></trkpt><trkpt lat="45.543040945490404" lon="9.18119281274253"><ele>147.0</ele><time>2026-04-05T16:53:12.001Z</time></trkpt><trkpt lat="45.54301881779196" lon="9.181085062720344"><ele>147.0</ele><time>2026-04-05T16:53:13.001Z</time></trkpt><trkpt lat="45.54299359190936" lon="9.180983077701582"><ele>147.0</ele><time>2026-04-05T16:53:14.001Z</time></trkpt><trkpt lat="45.542971763629524" lon="9.180885093666575"><ele>147.0</ele><time>2026-04-05T16:53:15.001Z</time></trkpt><trkpt lat="45.54295664292485" lon="9.180784763055874"><ele>147.0</ele><time>2026-04-05T16:53:16.001Z</time></trkpt><trkpt lat="45.54293003651341" lon="9.180670261444389"><ele>147.0</ele><time>2026-04-05T16:53:17.001Z</time></trkpt><trkpt lat="45.542896621079606" lon="9.180552959877819"><ele>147.0</ele><time>2026-04-05T16:53:18.001Z</time></trkpt><trkpt lat="45.54286975214704" lon="9.180445839480619"><ele>147.0</ele><time>2026-04-05T16:53:19.001Z</time></trkpt><trkpt lat="45.542844244496614" lon="9.180349435946516"><ele>147.0</ele><time>2026-04-05T16:53:20.001Z</time></trkpt><trkpt lat="45.54281647365509" lon="9.18025356013898"><ele>147.0</ele><time>2026-04-05T16:53:21.001Z</time></trkpt><trkpt lat="45.54278137360823" lon="9.18013718509592"><ele>147.0</ele><time>2026-04-05T16:53:22.001Z</time></trkpt><trkpt lat="45.542743869153334" lon="9.180004211552859"><ele>147.6</ele><time>2026-04-05T16:53:23.001Z</time></trkpt><trkpt lat="45.54271165273053" lon="9.179872136235197"><ele>148.2</ele><time>2026-04-05T16:53:24.001Z</time></trkpt><trkpt lat="45.54267887349036" lon="9.179752942985365"><ele>148.8</ele><time>2026-04-05T16:53:25.001Z</time></trkpt><trkpt lat="45.54264805264484" lon="9.17964749780548"><ele>149.4</ele><time>2026-04-05T16:53:28.001Z</time></trkpt><trkpt lat="45.54260697584677" lon="9.17948604618411"><ele>150.0</ele><time>2026-04-05T16:53:30.001Z</time></trkpt><trkpt lat="45.54256460322721" lon="9.179324031638489"><ele>150.0</ele><time>2026-04-05T16:53:32.001Z</time></trkpt><trkpt lat="45.54252445711976" lon="9.179221853365469"><ele>150.0</ele><time>2026-04-05T16:53:33.001Z</time></trkpt><trkpt lat="45.54248230598324" lon="9.179099150090956"><ele>150.0</ele><time>2026-04-05T16:53:34.001Z</time></trkpt><trkpt lat="45.542431399908764" lon="9.178960318298397"><ele>150.0</ele><time>2026-04-05T16:53:35.001Z</time></trkpt><trkpt lat="45.54237844997633" lon="9.178810625531339"><ele>150.0</ele><time>2026-04-05T16:53:36.001Z</time></trkpt><trkpt lat="45.542335830786094" lon="9.178676590204322"><ele>150.0</ele><time>2026-04-05T16:53:37.001Z</time></trkpt><trkpt lat="45.54230371026436" lon="9.178553726494409"><ele>150.0</ele><time>2026-04-05T16:53:38.001Z</time></trkpt><trkpt lat="45.54226780132736" lon="9.178440262805928"><ele>150.0</ele><time>2026-04-05T16:53:39.001Z</time></trkpt><trkpt lat="45.54223186482051" lon="9.178330501499039"><ele>150.0</ele><time>2026-04-05T16:53:40.001Z</time></trkpt><trkpt lat="45.54220225430584" lon="9.17821221403096"><ele>150.0</ele><time>2026-04-05T16:53:41.001Z</time></trkpt><trkpt lat="45.542171201918705" lon="9.178089829693237"><ele>150.0</ele><time>2026-04-05T16:53:42.001Z</time></trkpt><trkpt lat="45.542183810658514" lon="9.177952661714233"><ele>150.0</ele><time>2026-04-05T16:53:43.001Z</time></trkpt><trkpt lat="45.542168638094545" lon="9.177797383542991"><ele>150.0</ele><time>2026-04-05T16:53:44.001Z</time></trkpt><trkpt lat="45.54203969157519" lon="9.177667849028442"><ele>150.0</ele><time>2026-04-05T16:53:45.001Z</time></trkpt><trkpt lat="45.54199079013155" lon="9.177499225823789"><ele>150.0</ele><time>2026-04-05T16:53:46.001Z</time></trkpt><trkpt lat="45.54194386444008" lon="9.17734174818166"><ele>149.83333333333334</ele><time>2026-04-05T16:53:47.001Z</time></trkpt><trkpt lat="45.54190689679758" lon="9.177205296398055"><ele>149.66666666666666</ele><time>2026-04-05T16:53:48.001Z</time></trkpt><trkpt lat="45.54187643823029" lon="9.177085800751042"><ele>149.5</ele><time>2026-04-05T16:53:49.001Z</time></trkpt><trkpt lat="45.54185162740022" lon="9.176979843371315"><ele>149.33333333333331</ele><time>2026-04-05T16:53:50.001Z</time></trkpt><trkpt lat="45.54181990798624" lon="9.176866689495663"><ele>149.16666666666666</ele><time>2026-04-05T16:53:51.001Z</time></trkpt><trkpt lat="45.5417860380614" lon="9.176748782439333"><ele>149.0</ele><time>2026-04-05T16:53:52.001Z</time></trkpt><trkpt lat="45.5417596365775" lon="9.176635363238134"><ele>149.0</ele><time>2026-04-05T16:53:52.999Z</time></trkpt><trkpt lat="45.54173584092341" lon="9.176544698898269"><ele>149.0</ele><time>2026-04-05T16:53:53.999Z</time></trkpt><trkpt lat="45.54169851023766" lon="9.176404696355174"><ele>149.0</ele><time>2026-04-05T16:53:55.999Z</time></trkpt><trkpt lat="45.54166550560775" lon="9.17628862189459"><ele>149.0</ele><time>2026-04-05T16:53:58Z</time></trkpt><trkpt lat="45.541638812816764" lon="9.17618165531699"><ele>149.0</ele><time>2026-04-05T16:54:00Z</time></trkpt><trkpt lat="45.54160400244748" lon="9.176069668868733"><ele>149.0</ele><time>2026-04-05T16:54:02Z</time></trkpt><trkpt lat="45.54158081250441" lon="9.175985553699467"><ele>149.0</ele><time>2026-04-05T16:54:03Z</time></trkpt><trkpt lat="45.541546121528945" lon="9.175880628200348"><ele>149.0</ele><time>2026-04-05T16:54:04Z</time></trkpt><trkpt lat="45.5415069205833" lon="9.17575942738507"><ele>149.0</ele><time>2026-04-05T16:54:05Z</time></trkpt><trkpt lat="45.541471868715284" lon="9.175623934700223"><ele>149.0</ele><time>2026-04-05T16:54:06Z</time></trkpt><trkpt lat="45.54143867702096" lon="9.175485662690884"><ele>149.0</ele><time>2026-04-05T16:54:07Z</time></trkpt><trkpt lat="45.541404583056526" lon="9.175371361622055"><ele>149.0</ele><time>2026-04-05T16:54:08Z</time></trkpt><trkpt lat="45.54137320795954" lon="9.175272901213798"><ele>149.0</ele><time>2026-04-05T16:54:09Z</time></trkpt><trkpt lat="45.54134744698589" lon="9.175180973451846"><ele>149.0</ele><time>2026-04-05T16:54:10Z</time></trkpt><trkpt lat="45.54130175451957" lon="9.175029701599007"><ele>149.0</ele><time>2026-04-05T16:54:12Z</time></trkpt><trkpt lat="45.54125816601916" lon="9.174872312999236"><ele>149.0</ele><time>2026-04-05T16:54:14Z</time></trkpt><trkpt lat="45.541233473654295" lon="9.174781561516383"><ele>149.0</ele><time>2026-04-05T16:54:15Z</time></trkpt><trkpt lat="45.54120506867084" lon="9.174687739363673"><ele>149.0</ele><time>2026-04-05T16:54:16Z</time></trkpt><trkpt lat="45.54117677744342" lon="9.17459062890044"><ele>149.0</ele><time>2026-04-05T16:54:17Z</time></trkpt><trkpt lat="45.54114631263795" lon="9.174492453669396"><ele>149.0</ele><time>2026-04-05T16:54:18Z</time></trkpt><trkpt lat="45.541115695016806" lon="9.174389959678306"><ele>149.0</ele><time>2026-04-05T16:54:19Z</time></trkpt><trkpt lat="45.54108615959224" lon="9.174290152682413"><ele>149.0</ele><time>2026-04-05T16:54:20Z</time></trkpt><trkpt lat="45.54105707618693" lon="9.174174857613657"><ele>149.0</ele><time>2026-04-05T16:54:21Z</time></trkpt><trkpt lat="45.54102283122284" lon="9.174049425658746"><ele>149.2</ele><time>2026-04-05T16:54:22Z</time></trkpt><trkpt lat="45.54098283440317" lon="9.17392337350851"><ele>149.4</ele><time>2026-04-05T16:54:23Z</time></trkpt><trkpt lat="45.54094560103204" lon="9.173776397060584"><ele>149.6</ele><time>2026-04-05T16:54:24Z</time></trkpt><trkpt lat="45.54090350629665" lon="9.173644291164138"><ele>149.8</ele><time>2026-04-05T16:54:25Z</time></trkpt><trkpt lat="45.540867770496874" lon="9.173536646400912"><ele>150.0</ele><time>2026-04-05T16:54:26Z</time></trkpt><trkpt lat="45.540840499362396" lon="9.173452769012266"><ele>150.0</ele><time>2026-04-05T16:54:27Z</time></trkpt><trkpt lat="45.54079433124157" lon="9.173313659949123"><ele>150.0</ele><time>2026-04-05T16:54:29Z</time></trkpt><trkpt lat="45.54075040334888" lon="9.173184163065132"><ele>150.0</ele><time>2026-04-05T16:54:31Z</time></trkpt><trkpt lat="45.54068889873016" lon="9.173001426093174"><ele>150.0</ele><time>2026-04-05T16:54:33Z</time></trkpt><trkpt lat="45.54064563544186" lon="9.172872886090708"><ele>150.0</ele><time>2026-04-05T16:54:34Z</time></trkpt><trkpt lat="45.5405803423701" lon="9.172678893220278"><ele>150.0</ele><time>2026-04-05T16:54:35Z</time></trkpt><trkpt lat="45.5405032492238" lon="9.172457071888505"><ele>150.0</ele><time>2026-04-05T16:54:36Z</time></trkpt><trkpt lat="45.54042419093627" lon="9.172230323953947"><ele>149.66666666666666</ele><time>2026-04-05T16:54:37Z</time></trkpt><trkpt lat="45.54033276931048" lon="9.171970323114833"><ele>149.33333333333331</ele><time>2026-04-05T16:54:38Z</time></trkpt><trkpt lat="45.54023146822667" lon="9.171688826903063"><ele>149.0</ele><time>2026-04-05T16:54:39Z</time></trkpt><trkpt lat="45.540121635334046" lon="9.171428955376262"><ele>149.0</ele><time>2026-04-05T16:54:40Z</time></trkpt><trkpt lat="45.54003120764188" lon="9.171137331328588"><ele>149.0</ele><time>2026-04-05T16:54:41Z</time></trkpt><trkpt lat="45.539928338860825" lon="9.170842254959283"><ele>149.5</ele><time>2026-04-05T16:54:42Z</time></trkpt><trkpt lat="45.53980812717411" lon="9.170542751532698"><ele>150.0</ele><time>2026-04-05T16:54:43Z</time></trkpt><trkpt lat="45.53967974350511" lon="9.170235753913069"><ele>149.0</ele><time>2026-04-05T16:54:44Z</time></trkpt><trkpt lat="45.539547109009234" lon="9.169918090829341"><ele>148.0</ele><time>2026-04-05T16:54:45Z</time></trkpt><trkpt lat="45.53941995396871" lon="9.16961121255489"><ele>148.0</ele><time>2026-04-05T16:54:46Z</time></trkpt><trkpt lat="45.53928795311313" lon="9.169292453940692"><ele>148.0</ele><time>2026-04-05T16:54:47Z</time></trkpt><trkpt lat="45.539151753736725" lon="9.168969421880794"><ele>149.0</ele><time>2026-04-05T16:54:48Z</time></trkpt><trkpt lat="45.539014407335124" lon="9.168645349341821"><ele>150.0</ele><time>2026-04-05T16:54:49Z</time></trkpt><trkpt lat="45.538876484599726" lon="9.168324502162244"><ele>150.5</ele><time>2026-04-05T16:54:50.001Z</time></trkpt><trkpt lat="45.53873651864795" lon="9.16800451513278"><ele>151.0</ele><time>2026-04-05T16:54:51.001Z</time></trkpt><trkpt lat="45.53859396119008" lon="9.16768231257186"><ele>151.0</ele><time>2026-04-05T16:54:52.001Z</time></trkpt><trkpt lat="45.538448247207896" lon="9.167363598935397"><ele>151.0</ele><time>2026-04-05T16:54:53.001Z</time></trkpt><trkpt lat="45.53829778689415" lon="9.16705041812906"><ele>150.5</ele><time>2026-04-05T16:54:54.001Z</time></trkpt><trkpt lat="45.53814325723354" lon="9.16674002541638"><ele>150.0</ele><time>2026-04-05T16:54:55.001Z</time></trkpt><trkpt lat="45.5379865180401" lon="9.166429219978177"><ele>148.0</ele><time>2026-04-05T16:54:56.001Z</time></trkpt><trkpt lat="45.53782855972082" lon="9.166109931514185"><ele>146.0</ele><time>2026-04-05T16:54:57.001Z</time></trkpt><trkpt lat="45.537670658656516" lon="9.165788122966902"><ele>146.5</ele><time>2026-04-05T16:54:58.001Z</time></trkpt><trkpt lat="45.53752196490567" lon="9.165477593052735"><ele>147.0</ele><time>2026-04-05T16:54:59.001Z</time></trkpt><trkpt lat="45.53736951060231" lon="9.165165654580443"><ele>148.0</ele><time>2026-04-05T16:55:00.001Z</time></trkpt><trkpt lat="45.537221152356416" lon="9.164852624297795"><ele>149.0</ele><time>2026-04-05T16:55:01.001Z</time></trkpt><trkpt lat="45.53706918238223" lon="9.164544099100375"><ele>148.0</ele><time>2026-04-05T16:55:02.001Z</time></trkpt><trkpt lat="45.536923915560465" lon="9.164230190529679"><ele>147.0</ele><time>2026-04-05T16:55:03.001Z</time></trkpt><trkpt lat="45.536781639716345" lon="9.16392061686216"><ele>147.0</ele><time>2026-04-05T16:55:04.001Z</time></trkpt><trkpt lat="45.536634148419225" lon="9.163609786280345"><ele>147.0</ele><time>2026-04-05T16:55:05.001Z</time></trkpt><trkpt lat="45.53648611414328" lon="9.163303344877777"><ele>146.5</ele><time>2026-04-05T16:55:06.001Z</time></trkpt><trkpt lat="45.5363424808101" lon="9.162989091500984"><ele>146.0</ele><time>2026-04-05T16:55:07.001Z</time></trkpt><trkpt lat="45.53619235029206" lon="9.16268287343631"><ele>146.0</ele><time>2026-04-05T16:55:08.001Z</time></trkpt><trkpt lat="45.5360425975717" lon="9.162378062920299"><ele>146.0</ele><time>2026-04-05T16:55:09.001Z</time></trkpt><trkpt lat="45.53589400320828" lon="9.162069749870405"><ele>146.0</ele><time>2026-04-05T16:55:10.001Z</time></trkpt><trkpt lat="45.535744593293806" lon="9.161762190794866"><ele>146.0</ele><time>2026-04-05T16:55:11.001Z</time></trkpt><trkpt lat="45.53559486155371" lon="9.161453435936451"><ele>146.0</ele><time>2026-04-05T16:55:12.001Z</time></trkpt><trkpt lat="45.535444070935924" lon="9.161142736427276"><ele>146.0</ele><time>2026-04-05T16:55:13.001Z</time></trkpt><trkpt lat="45.53529398492712" lon="9.16083253360328"><ele>147.0</ele><time>2026-04-05T16:55:14.001Z</time></trkpt><trkpt lat="45.5351429998732" lon="9.160525396495798"><ele>148.0</ele><time>2026-04-05T16:55:15.001Z</time></trkpt><trkpt lat="45.534990000747676" lon="9.160213256914417"><ele>148.0</ele><time>2026-04-05T16:55:16.001Z</time></trkpt><trkpt lat="45.534838179748625" lon="9.159900604192421"><ele>148.0</ele><time>2026-04-05T16:55:17.001Z</time></trkpt><trkpt lat="45.5346885200967" lon="9.159587135295121"><ele>147.0</ele><time>2026-04-05T16:55:18.001Z</time></trkpt><trkpt lat="45.53454266505269" lon="9.159282543528056"><ele>146.0</ele><time>2026-04-05T16:55:19.001Z</time></trkpt><trkpt lat="45.534399466184304" lon="9.158986471388475"><ele>146.0</ele><time>2026-04-05T16:55:20.001Z</time></trkpt><trkpt lat="45.5342582517842" lon="9.158695367380998"><ele>146.0</ele><time>2026-04-05T16:55:21.001Z</time></trkpt><trkpt lat="45.534117391380335" lon="9.158406031796519"><ele>147.0</ele><time>2026-04-05T16:55:22.001Z</time></trkpt><trkpt lat="45.53397613904232" lon="9.158117696634772"><ele>148.0</ele><time>2026-04-05T16:55:23.001Z</time></trkpt><trkpt lat="45.5338333140794" lon="9.157829741087676"><ele>147.5</ele><time>2026-04-05T16:55:24.001Z</time></trkpt><trkpt lat="45.53369892379909" lon="9.15755343333768"><ele>147.0</ele><time>2026-04-05T16:55:25.001Z</time></trkpt><trkpt lat="45.53356540326364" lon="9.157280675762584"><ele>146.0</ele><time>2026-04-05T16:55:26.001Z</time></trkpt><trkpt lat="45.53343255416643" lon="9.15700291111592"><ele>145.0</ele><time>2026-04-05T16:55:27.001Z</time></trkpt><trkpt lat="45.53330003237129" lon="9.15672309007661"><ele>146.0</ele><time>2026-04-05T16:55:28.001Z</time></trkpt><trkpt lat="45.53316543182752" lon="9.156443725991235"><ele>147.0</ele><time>2026-04-05T16:55:29.001Z</time></trkpt><trkpt lat="45.533029939822065" lon="9.156165365054289"><ele>147.0</ele><time>2026-04-05T16:55:30.001Z</time></trkpt><trkpt lat="45.5328956731508" lon="9.15588395069067"><ele>147.0</ele><time>2026-04-05T16:55:31.001Z</time></trkpt><trkpt lat="45.53276235778796" lon="9.155602424429244"><ele>147.5</ele><time>2026-04-05T16:55:32.001Z</time></trkpt><trkpt lat="45.532627173137136" lon="9.15531967553722"><ele>148.0</ele><time>2026-04-05T16:55:33.001Z</time></trkpt><trkpt lat="45.53249462857847" lon="9.155036703675503"><ele>147.5</ele><time>2026-04-05T16:55:34.001Z</time></trkpt><trkpt lat="45.53236341770555" lon="9.1547550529218"><ele>147.0</ele><time>2026-04-05T16:55:35.001Z</time></trkpt><trkpt lat="45.53223652577018" lon="9.154471965171618"><ele>147.0</ele><time>2026-04-05T16:55:36.001Z</time></trkpt><trkpt lat="45.532110296947366" lon="9.154194047942743"><ele>147.0</ele><time>2026-04-05T16:55:37.001Z</time></trkpt><trkpt lat="45.53198529643007" lon="9.153918947168169"><ele>145.5</ele><time>2026-04-05T16:55:38.001Z</time></trkpt><trkpt lat="45.53186109098548" lon="9.153649147885883"><ele>144.0</ele><time>2026-04-05T16:55:39.001Z</time></trkpt><trkpt lat="45.5317363475414" lon="9.153378711693339"><ele>144.33333333333334</ele><time>2026-04-05T16:55:40.001Z</time></trkpt><trkpt lat="45.531614623148215" lon="9.1531112013151"><ele>144.66666666666669</ele><time>2026-04-05T16:55:41.001Z</time></trkpt><trkpt lat="45.53149455612011" lon="9.152841854479382"><ele>145.0</ele><time>2026-04-05T16:55:42.001Z</time></trkpt><trkpt lat="45.531375974649556" lon="9.152573418921572"><ele>145.0</ele><time>2026-04-05T16:55:43.001Z</time></trkpt><trkpt lat="45.531249173507085" lon="9.152309272227267"><ele>145.0</ele><time>2026-04-05T16:55:44.001Z</time></trkpt><trkpt lat="45.531117179557896" lon="9.15205120687689"><ele>145.0</ele><time>2026-04-05T16:55:45.001Z</time></trkpt><trkpt lat="45.53099177438771" lon="9.151790521417"><ele>145.0</ele><time>2026-04-05T16:55:46.001Z</time></trkpt><trkpt lat="45.53086593021488" lon="9.15152503265894"><ele>145.0</ele><time>2026-04-05T16:55:47.001Z</time></trkpt><trkpt lat="45.530741599530394" lon="9.151260410069948"><ele>145.0</ele><time>2026-04-05T16:55:48.001Z</time></trkpt><trkpt lat="45.53061154854509" lon="9.150994850318774"><ele>145.0</ele><time>2026-04-05T16:55:49.001Z</time></trkpt><trkpt lat="45.53047680639584" lon="9.150733427767424"><ele>145.0</ele><time>2026-04-05T16:55:50.001Z</time></trkpt><trkpt lat="45.53034286589305" lon="9.150467330220703"><ele>144.0</ele><time>2026-04-05T16:55:51.002Z</time></trkpt><trkpt lat="45.53020958067704" lon="9.150199953789956"><ele>143.0</ele><time>2026-04-05T16:55:52.002Z</time></trkpt><trkpt lat="45.53007931428802" lon="9.149929874614802"><ele>143.5</ele><time>2026-04-05T16:55:53.002Z</time></trkpt><trkpt lat="45.529948342077404" lon="9.14966041455707"><ele>144.0</ele><time>2026-04-05T16:55:54.002Z</time></trkpt><trkpt lat="45.52981500269724" lon="9.149392205649809"><ele>144.0</ele><time>2026-04-05T16:55:55.002Z</time></trkpt><trkpt lat="45.529681514340176" lon="9.149125152942656"><ele>144.0</ele><time>2026-04-05T16:55:56.002Z</time></trkpt><trkpt lat="45.529550296644885" lon="9.148858231562981"><ele>143.5</ele><time>2026-04-05T16:55:57.002Z</time></trkpt><trkpt lat="45.52941806967435" lon="9.148590708487344"><ele>143.0</ele><time>2026-04-05T16:55:58.002Z</time></trkpt><trkpt lat="45.52928264121097" lon="9.148324681863846"><ele>143.0</ele><time>2026-04-05T16:55:59Z</time></trkpt><trkpt lat="45.52915060621562" lon="9.148057542940217"><ele>143.0</ele><time>2026-04-05T16:56:00Z</time></trkpt><trkpt lat="45.52901929066163" lon="9.147786598196648"><ele>143.0</ele><time>2026-04-05T16:56:01Z</time></trkpt><trkpt lat="45.52888817426099" lon="9.147514683483159"><ele>143.0</ele><time>2026-04-05T16:56:02Z</time></trkpt><trkpt lat="45.52875825146626" lon="9.147244954341772"><ele>143.0</ele><time>2026-04-05T16:56:03Z</time></trkpt><trkpt lat="45.52862770766059" lon="9.146973246942435"><ele>143.0</ele><time>2026-04-05T16:56:04Z</time></trkpt><trkpt lat="45.52849614546596" lon="9.14670305326092"><ele>143.0</ele><time>2026-04-05T16:56:05Z</time></trkpt><trkpt lat="45.52836406592242" lon="9.14642184473302"><ele>143.0</ele><time>2026-04-05T16:56:06Z</time></trkpt><trkpt lat="45.528232105585715" lon="9.146144660803783"><ele>143.0</ele><time>2026-04-05T16:56:07Z</time></trkpt><trkpt lat="45.52810094115566" lon="9.145861606521796"><ele>143.0</ele><time>2026-04-05T16:56:08Z</time></trkpt><trkpt lat="45.527968332693774" lon="9.145578616072935"><ele>142.0</ele><time>2026-04-05T16:56:09Z</time></trkpt><trkpt lat="45.527835858354656" lon="9.145294919591354"><ele>141.0</ele><time>2026-04-05T16:56:10Z</time></trkpt><trkpt lat="45.52770020793814" lon="9.145012525409753"><ele>142.0</ele><time>2026-04-05T16:56:11Z</time></trkpt><trkpt lat="45.52756324732409" lon="9.144728447667768"><ele>143.0</ele><time>2026-04-05T16:56:12Z</time></trkpt><trkpt lat="45.52742788126794" lon="9.144439370299489"><ele>143.0</ele><time>2026-04-05T16:56:13Z</time></trkpt><trkpt lat="45.52728710246902" lon="9.144150396603395"><ele>143.0</ele><time>2026-04-05T16:56:14Z</time></trkpt><trkpt lat="45.527147801261506" lon="9.143858659985584"><ele>142.5</ele><time>2026-04-05T16:56:15Z</time></trkpt><trkpt lat="45.527006953910394" lon="9.143571232348199"><ele>142.0</ele><time>2026-04-05T16:56:16Z</time></trkpt><trkpt lat="45.52686768510013" lon="9.14328591079673"><ele>143.0</ele><time>2026-04-05T16:56:17Z</time></trkpt><trkpt lat="45.52672982972616" lon="9.143000100671467"><ele>144.0</ele><time>2026-04-05T16:56:18Z</time></trkpt><trkpt lat="45.52658866029375" lon="9.142716000980993"><ele>144.0</ele><time>2026-04-05T16:56:19Z</time></trkpt><trkpt lat="45.52644999185719" lon="9.142422846152446"><ele>144.0</ele><time>2026-04-05T16:56:20Z</time></trkpt><trkpt lat="45.52631413479376" lon="9.142135556757248"><ele>143.5</ele><time>2026-04-05T16:56:21Z</time></trkpt><trkpt lat="45.5261802001765" lon="9.141848170409643"><ele>143.0</ele><time>2026-04-05T16:56:22Z</time></trkpt><trkpt lat="45.52604506080745" lon="9.14156255869055"><ele>145.0</ele><time>2026-04-05T16:56:23Z</time></trkpt><trkpt lat="45.525905506775665" lon="9.141270302807477"><ele>147.0</ele><time>2026-04-05T16:56:24Z</time></trkpt><trkpt lat="45.52576265584514" lon="9.140981091509257"><ele>146.0</ele><time>2026-04-05T16:56:25Z</time></trkpt><trkpt lat="45.525620264442445" lon="9.140688229419048"><ele>145.0</ele><time>2026-04-05T16:56:26Z</time></trkpt><trkpt lat="45.52547820830265" lon="9.140394901101237"><ele>144.5</ele><time>2026-04-05T16:56:27Z</time></trkpt><trkpt lat="45.52534333470102" lon="9.140114478215198"><ele>144.0</ele><time>2026-04-05T16:56:28Z</time></trkpt><trkpt lat="45.525211399418694" lon="9.139837693591689"><ele>143.5</ele><time>2026-04-05T16:56:29Z</time></trkpt><trkpt lat="45.52507779864476" lon="9.139560404315244"><ele>143.0</ele><time>2026-04-05T16:56:30Z</time></trkpt><trkpt lat="45.52494722789989" lon="9.13928233553786"><ele>143.0</ele><time>2026-04-05T16:56:31Z</time></trkpt><trkpt lat="45.52481276308885" lon="9.13900483697389"><ele>143.0</ele><time>2026-04-05T16:56:32Z</time></trkpt><trkpt lat="45.52467579793614" lon="9.138726787187746"><ele>142.5</ele><time>2026-04-05T16:56:33Z</time></trkpt><trkpt lat="45.524536951727505" lon="9.138445105558752"><ele>142.0</ele><time>2026-04-05T16:56:34Z</time></trkpt><trkpt lat="45.5243919412038" lon="9.138161795149564"><ele>142.0</ele><time>2026-04-05T16:56:35Z</time></trkpt><trkpt lat="45.524245719508286" lon="9.137871418555271"><ele>142.0</ele><time>2026-04-05T16:56:36Z</time></trkpt><trkpt lat="45.52409879298888" lon="9.137579527810702"><ele>143.5</ele><time>2026-04-05T16:56:37Z</time></trkpt><trkpt lat="45.523952329422045" lon="9.137285807132592"><ele>145.0</ele><time>2026-04-05T16:56:38Z</time></trkpt><trkpt lat="45.5238078548031" lon="9.13698457597899"><ele>143.5</ele><time>2026-04-05T16:56:39Z</time></trkpt><trkpt lat="45.52366377104795" lon="9.1366801139573"><ele>142.0</ele><time>2026-04-05T16:56:40Z</time></trkpt><trkpt lat="45.523521487885965" lon="9.136384219416117"><ele>142.0</ele><time>2026-04-05T16:56:41Z</time></trkpt><trkpt lat="45.52338363690812" lon="9.136091010362708"><ele>142.0</ele><time>2026-04-05T16:56:42Z</time></trkpt><trkpt lat="45.52325004623811" lon="9.135794328880396"><ele>142.5</ele><time>2026-04-05T16:56:43Z</time></trkpt><trkpt lat="45.52311516346248" lon="9.135509584464115"><ele>143.0</ele><time>2026-04-05T16:56:44Z</time></trkpt><trkpt lat="45.52298024480001" lon="9.13523078060713"><ele>143.0</ele><time>2026-04-05T16:56:45Z</time></trkpt><trkpt lat="45.522847129387756" lon="9.134956620574444"><ele>143.0</ele><time>2026-04-05T16:56:46Z</time></trkpt><trkpt lat="45.52271427666643" lon="9.134686624798677"><ele>143.0</ele><time>2026-04-05T16:56:47Z</time></trkpt><trkpt lat="45.5225855134344" lon="9.134418419257246"><ele>143.0</ele><time>2026-04-05T16:56:48.001Z</time></trkpt><trkpt lat="45.52245379977929" lon="9.134152522909416"><ele>141.5</ele><time>2026-04-05T16:56:49.001Z</time></trkpt><trkpt lat="45.52231963309561" lon="9.133891078677161"><ele>140.0</ele><time>2026-04-05T16:56:50.001Z</time></trkpt><trkpt lat="45.52218938170874" lon="9.133625827812693"><ele>140.0</ele><time>2026-04-05T16:56:51.001Z</time></trkpt><trkpt lat="45.522055990938014" lon="9.133361189852605"><ele>140.0</ele><time>2026-04-05T16:56:52.001Z</time></trkpt><trkpt lat="45.52192394670176" lon="9.133100982366454"><ele>140.0</ele><time>2026-04-05T16:56:53.001Z</time></trkpt><trkpt lat="45.521793773416896" lon="9.132836047444423"><ele>140.0</ele><time>2026-04-05T16:56:54.001Z</time></trkpt><trkpt lat="45.521662744704344" lon="9.132569501638287"><ele>140.0</ele><time>2026-04-05T16:56:55.001Z</time></trkpt><trkpt lat="45.52153237830664" lon="9.132304069663283"><ele>140.0</ele><time>2026-04-05T16:56:56.001Z</time></trkpt><trkpt lat="45.52139953809604" lon="9.132037114831727"><ele>140.0</ele><time>2026-04-05T16:56:57.001Z</time></trkpt><trkpt lat="45.52126592559377" lon="9.131770642785213"><ele>140.0</ele><time>2026-04-05T16:56:58.001Z</time></trkpt><trkpt lat="45.52113270204041" lon="9.131499413009614"><ele>141.0</ele><time>2026-04-05T16:56:59.001Z</time></trkpt><trkpt lat="45.52099741734817" lon="9.131225230947576"><ele>142.0</ele><time>2026-04-05T16:57:00.001Z</time></trkpt><trkpt lat="45.52085672657826" lon="9.13094748899276"><ele>141.5</ele><time>2026-04-05T16:57:01.001Z</time></trkpt><trkpt lat="45.52071200934061" lon="9.130665100827356"><ele>141.0</ele><time>2026-04-05T16:57:02.001Z</time></trkpt><trkpt lat="45.520565447302324" lon="9.130371520753505"><ele>141.0</ele><time>2026-04-05T16:57:03.001Z</time></trkpt><trkpt lat="45.520418180479595" lon="9.130065370779787"><ele>141.0</ele><time>2026-04-05T16:57:04.001Z</time></trkpt><trkpt lat="45.52026460519395" lon="9.129752862303878"><ele>140.5</ele><time>2026-04-05T16:57:05.001Z</time></trkpt><trkpt lat="45.52010715028957" lon="9.129428797589647"><ele>140.0</ele><time>2026-04-05T16:57:06.001Z</time></trkpt><trkpt lat="45.51994552913776" lon="9.129096288522717"><ele>139.5</ele><time>2026-04-05T16:57:07.001Z</time></trkpt><trkpt lat="45.51978093259919" lon="9.128755082299515"><ele>139.0</ele><time>2026-04-05T16:57:08.001Z</time></trkpt><trkpt lat="45.519609363598065" lon="9.128406678286249"><ele>140.0</ele><time>2026-04-05T16:57:09.001Z</time></trkpt><trkpt lat="45.5194334116743" lon="9.128048632493957"><ele>141.0</ele><time>2026-04-05T16:57:10.001Z</time></trkpt><trkpt lat="45.51925503695488" lon="9.12768162313086"><ele>141.5</ele><time>2026-04-05T16:57:11.001Z</time></trkpt><trkpt lat="45.51907826188822" lon="9.127323072194002"><ele>142.0</ele><time>2026-04-05T16:57:12.001Z</time></trkpt><trkpt lat="45.51890415407205" lon="9.126995253176412"><ele>141.5</ele><time>2026-04-05T16:57:13.001Z</time></trkpt><trkpt lat="45.518733951419634" lon="9.126678016470514"><ele>141.0</ele><time>2026-04-05T16:57:14.001Z</time></trkpt><trkpt lat="45.51856125230167" lon="9.126337687082684"><ele>141.0</ele><time>2026-04-05T16:57:15.001Z</time></trkpt><trkpt lat="45.51835789784274" lon="9.125996845909684"><ele>141.0</ele><time>2026-04-05T16:57:16.001Z</time></trkpt><trkpt lat="45.51814158702736" lon="9.125659500505124"><ele>141.5</ele><time>2026-04-05T16:57:17.001Z</time></trkpt><trkpt lat="45.517913446545236" lon="9.125315026693611"><ele>142.0</ele><time>2026-04-05T16:57:18.001Z</time></trkpt><trkpt lat="45.51768259638934" lon="9.124965027626235"><ele>140.5</ele><time>2026-04-05T16:57:19.001Z</time></trkpt><trkpt lat="45.517460348713904" lon="9.12461227596003"><ele>139.0</ele><time>2026-04-05T16:57:20.001Z</time></trkpt><trkpt lat="45.517253902432095" lon="9.124281060374653"><ele>138.5</ele><time>2026-04-05T16:57:21.001Z</time></trkpt><trkpt lat="45.51705594485978" lon="9.12396986891582"><ele>138.0</ele><time>2026-04-05T16:57:22.001Z</time></trkpt><trkpt lat="45.51687117784548" lon="9.123668806670697"><ele>138.0</ele><time>2026-04-05T16:57:23.001Z</time></trkpt><trkpt lat="45.51669439400215" lon="9.123363232718427"><ele>138.0</ele><time>2026-04-05T16:57:24.001Z</time></trkpt><trkpt lat="45.51653060378846" lon="9.123074407812695"><ele>138.5</ele><time>2026-04-05T16:57:25.001Z</time></trkpt><trkpt lat="45.51637781269359" lon="9.122790246384383"><ele>139.0</ele><time>2026-04-05T16:57:26.001Z</time></trkpt><trkpt lat="45.516232319721894" lon="9.122476002357295"><ele>139.0</ele><time>2026-04-05T16:57:27.001Z</time></trkpt><trkpt lat="45.51609881519251" lon="9.12213121563956"><ele>139.0</ele><time>2026-04-05T16:57:28.001Z</time></trkpt><trkpt lat="45.515971116125186" lon="9.121765180897771"><ele>138.0</ele><time>2026-04-05T16:57:29.001Z</time></trkpt><trkpt lat="45.51585459940107" lon="9.121375472881292"><ele>137.0</ele><time>2026-04-05T16:57:30.001Z</time></trkpt><trkpt lat="45.51574932974182" lon="9.12095697177234"><ele>138.5</ele><time>2026-04-05T16:57:31.001Z</time></trkpt><trkpt lat="45.51567524716618" lon="9.12051759847702"><ele>140.0</ele><time>2026-04-05T16:57:32.001Z</time></trkpt><trkpt lat="45.51562938112282" lon="9.120052386011794"><ele>140.0</ele><time>2026-04-05T16:57:33.001Z</time></trkpt><trkpt lat="45.51559794704669" lon="9.119557099808285"><ele>140.0</ele><time>2026-04-05T16:57:34.001Z</time></trkpt><trkpt lat="45.51558337011418" lon="9.119057429733619"><ele>138.5</ele><time>2026-04-05T16:57:35.001Z</time></trkpt><trkpt lat="45.51556477195446" lon="9.11854262260201"><ele>137.0</ele><time>2026-04-05T16:57:36.001Z</time></trkpt><trkpt lat="45.51553747882222" lon="9.118034801987692"><ele>136.5</ele><time>2026-04-05T16:57:37.001Z</time></trkpt><trkpt lat="45.51551083446026" lon="9.117524261041991"><ele>136.0</ele><time>2026-04-05T16:57:38.001Z</time></trkpt><trkpt lat="45.515487358326695" lon="9.117011455581101"><ele>136.0</ele><time>2026-04-05T16:57:39.001Z</time></trkpt><trkpt lat="45.515460271744104" lon="9.116472330684127"><ele>136.0</ele><time>2026-04-05T16:57:40.001Z</time></trkpt><trkpt lat="45.51543592039799" lon="9.115915565092918"><ele>135.5</ele><time>2026-04-05T16:57:41.001Z</time></trkpt><trkpt lat="45.51540713974671" lon="9.115338029548258"><ele>135.0</ele><time>2026-04-05T16:57:42.001Z</time></trkpt><trkpt lat="45.51538789224513" lon="9.114828614448733"><ele>136.0</ele><time>2026-04-05T16:57:43.001Z</time></trkpt><trkpt lat="45.51536786145378" lon="9.114326024014483"><ele>137.0</ele><time>2026-04-05T16:57:44.002Z</time></trkpt><trkpt lat="45.51535069744187" lon="9.113838857778942"><ele>137.0</ele><time>2026-04-05T16:57:45.002Z</time></trkpt><trkpt lat="45.515343872310034" lon="9.11335318108451"><ele>137.0</ele><time>2026-04-05T16:57:46.002Z</time></trkpt><trkpt lat="45.5153362964209" lon="9.112885838263825"><ele>137.0</ele><time>2026-04-05T16:57:47.002Z</time></trkpt><trkpt lat="45.51533152470925" lon="9.112445230472744"><ele>137.0</ele><time>2026-04-05T16:57:48.002Z</time></trkpt><trkpt lat="45.51530286995078" lon="9.112041562518664"><ele>137.0</ele><time>2026-04-05T16:57:49.002Z</time></trkpt><trkpt lat="45.51529250537385" lon="9.111663955972134"><ele>137.0</ele><time>2026-04-05T16:57:50.002Z</time></trkpt><trkpt lat="45.515284079371476" lon="9.111317786730496"><ele>139.5</ele><time>2026-04-05T16:57:51.002Z</time></trkpt><trkpt lat="45.51526999130154" lon="9.110998349973972"><ele>142.0</ele><time>2026-04-05T16:57:52.002Z</time></trkpt><trkpt lat="45.515240130263514" lon="9.110672853322395"><ele>142.5</ele><time>2026-04-05T16:57:53.002Z</time></trkpt><trkpt lat="45.51521190200109" lon="9.110307363745175"><ele>143.0</ele><time>2026-04-05T16:57:54.002Z</time></trkpt><trkpt lat="45.51519215011211" lon="9.10991531328614"><ele>142.5</ele><time>2026-04-05T16:57:55.002Z</time></trkpt><trkpt lat="45.515176343514405" lon="9.109498287190116"><ele>142.0</ele><time>2026-04-05T16:57:56.002Z</time></trkpt><trkpt lat="45.51516019886573" lon="9.109066727854625"><ele>142.0</ele><time>2026-04-05T16:57:57.002Z</time></trkpt><trkpt lat="45.51513909196047" lon="9.108620469933038"><ele>142.0</ele><time>2026-04-05T16:57:58.002Z</time></trkpt><trkpt lat="45.515118517873866" lon="9.108162373381978"><ele>142.0</ele><time>2026-04-05T16:57:59.002Z</time></trkpt><trkpt lat="45.51510187822426" lon="9.107702989178371"><ele>142.0</ele><time>2026-04-05T16:58:00.002Z</time></trkpt><trkpt lat="45.51508664497704" lon="9.107237084934026"><ele>142.5</ele><time>2026-04-05T16:58:01.002Z</time></trkpt><trkpt lat="45.515068004407475" lon="9.106787321686664"><ele>143.0</ele><time>2026-04-05T16:58:02.002Z</time></trkpt><trkpt lat="45.515049088244126" lon="9.106329667437988"><ele>142.0</ele><time>2026-04-05T16:58:03.002Z</time></trkpt><trkpt lat="45.515026170361054" lon="9.10586584540241"><ele>141.0</ele><time>2026-04-05T16:58:04.002Z</time></trkpt><trkpt lat="45.515005347890636" lon="9.105412546602516"><ele>141.0</ele><time>2026-04-05T16:58:05Z</time></trkpt><trkpt lat="45.51498448302446" lon="9.104966272339064"><ele>141.0</ele><time>2026-04-05T16:58:06Z</time></trkpt><trkpt lat="45.514963836180094" lon="9.104508531437707"><ele>142.5</ele><time>2026-04-05T16:58:07Z</time></trkpt><trkpt lat="45.51494334277521" lon="9.104047520883602"><ele>144.0</ele><time>2026-04-05T16:58:08Z</time></trkpt><trkpt lat="45.51492371028835" lon="9.103574279755376"><ele>143.5</ele><time>2026-04-05T16:58:09Z</time></trkpt><trkpt lat="45.514901606060725" lon="9.103088931544294"><ele>143.0</ele><time>2026-04-05T16:58:10Z</time></trkpt><trkpt lat="45.514881281965664" lon="9.102594361120905"><ele>142.5</ele><time>2026-04-05T16:58:11Z</time></trkpt><trkpt lat="45.514856794874404" lon="9.102089755437095"><ele>142.0</ele><time>2026-04-05T16:58:12Z</time></trkpt><trkpt lat="45.51483270241053" lon="9.101577154690156"><ele>142.0</ele><time>2026-04-05T16:58:13Z</time></trkpt><trkpt lat="45.51481104782845" lon="9.101030128641275"><ele>142.0</ele><time>2026-04-05T16:58:14Z</time></trkpt><trkpt lat="45.51478393521619" lon="9.100457660004487"><ele>142.5</ele><time>2026-04-05T16:58:15Z</time></trkpt><trkpt lat="45.51475576667417" lon="9.099870091403007"><ele>143.0</ele><time>2026-04-05T16:58:16Z</time></trkpt><trkpt lat="45.51472982508439" lon="9.099267211047932"><ele>143.0</ele><time>2026-04-05T16:58:17Z</time></trkpt><trkpt lat="45.51470568917702" lon="9.098648163468685"><ele>143.0</ele><time>2026-04-05T16:58:18Z</time></trkpt><trkpt lat="45.5146868688996" lon="9.098026702452573"><ele>142.0</ele><time>2026-04-05T16:58:19Z</time></trkpt><trkpt lat="45.51466661100434" lon="9.097384129023686"><ele>142.0</ele><time>2026-04-05T16:58:20Z</time></trkpt><trkpt lat="45.514645222359356" lon="9.096733730631595"><ele>142.0</ele><time>2026-04-05T16:58:21Z</time></trkpt><trkpt lat="45.514621513807924" lon="9.096081382886096"><ele>143.0</ele><time>2026-04-05T16:58:22Z</time></trkpt><trkpt lat="45.514592585140996" lon="9.095422916898753"><ele>143.0</ele><time>2026-04-05T16:58:23Z</time></trkpt><trkpt lat="45.51456265867078" lon="9.094762622982957"><ele>143.0</ele><time>2026-04-05T16:58:24Z</time></trkpt><trkpt lat="45.514534644322836" lon="9.094105825442163"><ele>142.0</ele><time>2026-04-05T16:58:25Z</time></trkpt><trkpt lat="45.51450889747891" lon="9.093448107151787"><ele>143.0</ele><time>2026-04-05T16:58:26Z</time></trkpt><trkpt lat="45.51447854594109" lon="9.092782430705322"><ele>142.0</ele><time>2026-04-05T16:58:27Z</time></trkpt><trkpt lat="45.51444921518712" lon="9.092123359723352"><ele>141.0</ele><time>2026-04-05T16:58:28Z</time></trkpt><trkpt lat="45.51441835179093" lon="9.091479647231111"><ele>141.0</ele><time>2026-04-05T16:58:29Z</time></trkpt><trkpt lat="45.51439167334957" lon="9.090879798972662"><ele>141.0</ele><time>2026-04-05T16:58:30Z</time></trkpt><trkpt lat="45.51436332898885" lon="9.090314014585111"><ele>141.0</ele><time>2026-04-05T16:58:31Z</time></trkpt><trkpt lat="45.51433865195358" lon="9.089783546725965"><ele>141.0</ele><time>2026-04-05T16:58:32Z</time></trkpt><trkpt lat="45.514309932302055" lon="9.089265232941289"><ele>141.5</ele><time>2026-04-05T16:58:33Z</time></trkpt><trkpt lat="45.51427914021629" lon="9.088747285745253"><ele>142.0</ele><time>2026-04-05T16:58:34Z</time></trkpt><trkpt lat="45.51425148953018" lon="9.088235987702767"><ele>143.0</ele><time>2026-04-05T16:58:35Z</time></trkpt><trkpt lat="45.51422498433647" lon="9.087721666037114"><ele>144.0</ele><time>2026-04-05T16:58:36Z</time></trkpt><trkpt lat="45.514205893939966" lon="9.087225434536549"><ele>144.0</ele><time>2026-04-05T16:58:37Z</time></trkpt><trkpt lat="45.514181091161305" lon="9.08672590298008"><ele>144.0</ele><time>2026-04-05T16:58:38Z</time></trkpt><trkpt lat="45.51415902449377" lon="9.086230087617443"><ele>143.5</ele><time>2026-04-05T16:58:39Z</time></trkpt><trkpt lat="45.514132457567634" lon="9.085735836911606"><ele>143.0</ele><time>2026-04-05T16:58:40Z</time></trkpt><trkpt lat="45.51410722362656" lon="9.085250312458744"><ele>142.5</ele><time>2026-04-05T16:58:41Z</time></trkpt><trkpt lat="45.514082761356114" lon="9.084769770296"><ele>142.0</ele><time>2026-04-05T16:58:42Z</time></trkpt><trkpt lat="45.514060808407464" lon="9.084297504136675"><ele>142.5</ele><time>2026-04-05T16:58:43Z</time></trkpt><trkpt lat="45.51404086028482" lon="9.083839301601678"><ele>143.0</ele><time>2026-04-05T16:58:44Z</time></trkpt><trkpt lat="45.5140188067775" lon="9.083383882472935"><ele>143.5</ele><time>2026-04-05T16:58:45Z</time></trkpt><trkpt lat="45.51399576050702" lon="9.08293237666843"><ele>144.0</ele><time>2026-04-05T16:58:46Z</time></trkpt><trkpt lat="45.51397073924344" lon="9.082476115651966"><ele>143.5</ele><time>2026-04-05T16:58:47Z</time></trkpt><trkpt lat="45.5139492888538" lon="9.082022050276896"><ele>143.0</ele><time>2026-04-05T16:58:48Z</time></trkpt><trkpt lat="45.5139277847028" lon="9.081566237192176"><ele>143.0</ele><time>2026-04-05T16:58:49Z</time></trkpt><trkpt lat="45.513906201120406" lon="9.081118079124032"><ele>143.0</ele><time>2026-04-05T16:58:50Z</time></trkpt><trkpt lat="45.513886473832926" lon="9.080690605202982"><ele>143.5</ele><time>2026-04-05T16:58:51.001Z</time></trkpt><trkpt lat="45.51386646145023" lon="9.08027957484009"><ele>144.0</ele><time>2026-04-05T16:58:52.001Z</time></trkpt><trkpt lat="45.5138456404284" lon="9.079870859572548"><ele>145.0</ele><time>2026-04-05T16:58:53.001Z</time></trkpt><trkpt lat="45.5138276930891" lon="9.079468935017262"><ele>146.0</ele><time>2026-04-05T16:58:54.001Z</time></trkpt><trkpt lat="45.513810285601785" lon="9.079072440865373"><ele>146.0</ele><time>2026-04-05T16:58:55.001Z</time></trkpt><trkpt lat="45.51379751011493" lon="9.078655238845238"><ele>146.0</ele><time>2026-04-05T16:58:56.001Z</time></trkpt><trkpt lat="45.51378797342294" lon="9.078237994814154"><ele>146.0</ele><time>2026-04-05T16:58:57.001Z</time></trkpt><trkpt lat="45.51376923275385" lon="9.077803928086347"><ele>146.0</ele><time>2026-04-05T16:58:58.001Z</time></trkpt><trkpt lat="45.51374618545081" lon="9.077365643821466"><ele>145.5</ele><time>2026-04-05T16:58:59.001Z</time></trkpt><trkpt lat="45.51371900861179" lon="9.076934409566359"><ele>145.0</ele><time>2026-04-05T16:59:00.001Z</time></trkpt><trkpt lat="45.51368753842198" lon="9.076512034918418"><ele>144.5</ele><time>2026-04-05T16:59:01.001Z</time></trkpt><trkpt lat="45.51365399047647" lon="9.076077122640667"><ele>144.0</ele><time>2026-04-05T16:59:02.001Z</time></trkpt><trkpt lat="45.51361840356663" lon="9.075616243896704"><ele>144.0</ele><time>2026-04-05T16:59:03.001Z</time></trkpt><trkpt lat="45.51359388706507" lon="9.07514433787935"><ele>144.0</ele><time>2026-04-05T16:59:04.001Z</time></trkpt><trkpt lat="45.513583239645946" lon="9.074643462123007"><ele>144.0</ele><time>2026-04-05T16:59:05.001Z</time></trkpt><trkpt lat="45.51356049632929" lon="9.074152564877275"><ele>144.0</ele><time>2026-04-05T16:59:06.001Z</time></trkpt><trkpt lat="45.51352542330177" lon="9.073634709232229"><ele>143.5</ele><time>2026-04-05T16:59:07.001Z</time></trkpt><trkpt lat="45.51346936172255" lon="9.073130361129762"><ele>143.0</ele><time>2026-04-05T16:59:08.001Z</time></trkpt><trkpt lat="45.51346948725511" lon="9.07261741099112"><ele>143.0</ele><time>2026-04-05T16:59:09.001Z</time></trkpt><trkpt lat="45.51341053217538" lon="9.072084138926582"><ele>143.0</ele><time>2026-04-05T16:59:10.001Z</time></trkpt><trkpt lat="45.51337881991956" lon="9.071567718245642"><ele>143.0</ele><time>2026-04-05T16:59:11.001Z</time></trkpt><trkpt lat="45.51334840328891" lon="9.071081732040048"><ele>143.0</ele><time>2026-04-05T16:59:12.001Z</time></trkpt><trkpt lat="45.513313916474196" lon="9.070609937305223"><ele>143.0</ele><time>2026-04-05T16:59:13.001Z</time></trkpt><trkpt lat="45.513278047398146" lon="9.070144941568584"><ele>143.0</ele><time>2026-04-05T16:59:14.001Z</time></trkpt><trkpt lat="45.51324263426675" lon="9.06969098749684"><ele>143.5</ele><time>2026-04-05T16:59:15.001Z</time></trkpt><trkpt lat="45.51320447752064" lon="9.069240428441779"><ele>144.0</ele><time>2026-04-05T16:59:16.001Z</time></trkpt><trkpt lat="45.51316418928596" lon="9.068791766105011"><ele>144.0</ele><time>2026-04-05T16:59:17.001Z</time></trkpt><trkpt lat="45.51311992932391" lon="9.068349331800414"><ele>144.0</ele><time>2026-04-05T16:59:18.001Z</time></trkpt><trkpt lat="45.51308178354369" lon="9.067943975209623"><ele>144.5</ele><time>2026-04-05T16:59:19.001Z</time></trkpt><trkpt lat="45.5130502337658" lon="9.067556747384184"><ele>145.0</ele><time>2026-04-05T16:59:20.001Z</time></trkpt><trkpt lat="45.51302859072647" lon="9.067196563786204"><ele>145.0</ele><time>2026-04-05T16:59:21.001Z</time></trkpt><trkpt lat="45.51300297094569" lon="9.066857960897805"><ele>145.0</ele><time>2026-04-05T16:59:22.001Z</time></trkpt><trkpt lat="45.512975103154375" lon="9.066512358480987"><ele>145.0</ele><time>2026-04-05T16:59:23.001Z</time></trkpt><trkpt lat="45.51294685904296" lon="9.066167933128982"><ele>145.0</ele><time>2026-04-05T16:59:24.001Z</time></trkpt><trkpt lat="45.51292090372191" lon="9.065834756572727"><ele>146.0</ele><time>2026-04-05T16:59:25.001Z</time></trkpt><trkpt lat="45.51289218478061" lon="9.065519474825177"><ele>147.0</ele><time>2026-04-05T16:59:26.001Z</time></trkpt><trkpt lat="45.5128579642026" lon="9.06523371129181"><ele>148.0</ele><time>2026-04-05T16:59:27.001Z</time></trkpt><trkpt lat="45.51283453248848" lon="9.064950374645747"><ele>147.66666666666669</ele><time>2026-04-05T16:59:28.001Z</time></trkpt><trkpt lat="45.51281023513707" lon="9.064695456914485"><ele>147.33333333333334</ele><time>2026-04-05T16:59:29.001Z</time></trkpt><trkpt lat="45.5127861824366" lon="9.064461886456769"><ele>147.0</ele><time>2026-04-05T16:59:30.001Z</time></trkpt><trkpt lat="45.51276765122904" lon="9.064256599928399"><ele>147.0</ele><time>2026-04-05T16:59:31.001Z</time></trkpt><trkpt lat="45.512750445373705" lon="9.064072068957323"><ele>147.0</ele><time>2026-04-05T16:59:32.001Z</time></trkpt><trkpt lat="45.51273635139159" lon="9.063899620436855"><ele>147.0</ele><time>2026-04-05T16:59:33.001Z</time></trkpt><trkpt lat="45.51272921066715" lon="9.06372528619873"><ele>147.0</ele><time>2026-04-05T16:59:34.001Z</time></trkpt><trkpt lat="45.51272745170273" lon="9.063559264275987"><ele>147.0</ele><time>2026-04-05T16:59:35.001Z</time></trkpt><trkpt lat="45.51274339756426" lon="9.063399053197912"><ele>147.0</ele><time>2026-04-05T16:59:36.001Z</time></trkpt><trkpt lat="45.51277294947491" lon="9.063245862849248"><ele>147.0</ele><time>2026-04-05T16:59:37.001Z</time></trkpt><trkpt lat="45.51282007620968" lon="9.063098054816273"><ele>147.0</ele><time>2026-04-05T16:59:38.001Z</time></trkpt><trkpt lat="45.51287436623684" lon="9.062955028894411"><ele>147.0</ele><time>2026-04-05T16:59:39.001Z</time></trkpt><trkpt lat="45.51292899871206" lon="9.062824653415166"><ele>147.0</ele><time>2026-04-05T16:59:40.001Z</time></trkpt><trkpt lat="45.51297928692103" lon="9.062707332246111"><ele>147.0</ele><time>2026-04-05T16:59:41.001Z</time></trkpt><trkpt lat="45.51302432512943" lon="9.06258969880093"><ele>147.0</ele><time>2026-04-05T16:59:42.001Z</time></trkpt><trkpt lat="45.51306716503915" lon="9.062473587441572"><ele>147.0</ele><time>2026-04-05T16:59:43.001Z</time></trkpt><trkpt lat="45.51311385577351" lon="9.06234984480116"><ele>146.79999999999998</ele><time>2026-04-05T16:59:44.001Z</time></trkpt><trkpt lat="45.51316782505606" lon="9.062213926380032"><ele>146.6</ele><time>2026-04-05T16:59:45.001Z</time></trkpt><trkpt lat="45.51322573582716" lon="9.062076690665151"><ele>146.39999999999998</ele><time>2026-04-05T16:59:46.001Z</time></trkpt><trkpt lat="45.51328426281437" lon="9.061952969628338"><ele>146.2</ele><time>2026-04-05T16:59:47.001Z</time></trkpt><trkpt lat="45.51333995110953" lon="9.061847627127472"><ele>146.0</ele><time>2026-04-05T16:59:48.001Z</time></trkpt><trkpt lat="45.51340098836078" lon="9.061779459331115"><ele>146.0</ele><time>2026-04-05T16:59:49.002Z</time></trkpt><trkpt lat="45.513471066832146" lon="9.06172895422606"><ele>146.0</ele><time>2026-04-05T16:59:50.002Z</time></trkpt><trkpt lat="45.513551454932006" lon="9.061697803636479"><ele>146.0</ele><time>2026-04-05T16:59:51.002Z</time></trkpt><trkpt lat="45.51363224289091" lon="9.061696785989005"><ele>146.0</ele><time>2026-04-05T16:59:52.002Z</time></trkpt><trkpt lat="45.51370092318443" lon="9.06171497909012"><ele>146.0</ele><time>2026-04-05T16:59:53.002Z</time></trkpt><trkpt lat="45.51376409387504" lon="9.061749521799099"><ele>146.0</ele><time>2026-04-05T16:59:54.002Z</time></trkpt><trkpt lat="45.51382115400285" lon="9.061792789846175"><ele>146.0</ele><time>2026-04-05T16:59:55.002Z</time></trkpt><trkpt lat="45.513908067016956" lon="9.061899332227362"><ele>146.14285714285714</ele><time>2026-04-05T16:59:57.002Z</time></trkpt><trkpt lat="45.5139446698093" lon="9.061972644558416"><ele>146.28571428571428</ele><time>2026-04-05T16:59:58.002Z</time></trkpt><trkpt lat="45.513979012901" lon="9.062059128014846"><ele>146.42857142857144</ele><time>2026-04-05T16:59:59.002Z</time></trkpt><trkpt lat="45.51400263305926" lon="9.062151239095998"><ele>146.57142857142856</ele><time>2026-04-05T17:00:00.002Z</time></trkpt><trkpt lat="45.51401143612461" lon="9.062245218374928"><ele>146.71428571428572</ele><time>2026-04-05T17:00:01.002Z</time></trkpt><trkpt lat="45.51401714217238" lon="9.062339034580933"><ele>146.85714285714286</ele><time>2026-04-05T17:00:02.002Z</time></trkpt><trkpt lat="45.51400996758908" lon="9.062437660968808"><ele>147.0</ele><time>2026-04-05T17:00:03.002Z</time></trkpt><trkpt lat="45.51398823575116" lon="9.062539196399559"><ele>147.0</ele><time>2026-04-05T17:00:04.002Z</time></trkpt><trkpt lat="45.51395525253478" lon="9.062654101933786"><ele>147.0</ele><time>2026-04-05T17:00:05.002Z</time></trkpt><trkpt lat="45.513913143204974" lon="9.062773822493854"><ele>147.0</ele><time>2026-04-05T17:00:06.002Z</time></trkpt><trkpt lat="45.51385610243642" lon="9.06289111874807"><ele>147.0</ele><time>2026-04-05T17:00:07.002Z</time></trkpt><trkpt lat="45.51378290501954" lon="9.063001997672703"><ele>147.0</ele><time>2026-04-05T17:00:08.002Z</time></trkpt><trkpt lat="45.51369940573577" lon="9.063109666492306"><ele>147.0</ele><time>2026-04-05T17:00:09.002Z</time></trkpt><trkpt lat="45.51360159698645" lon="9.06322338746509"><ele>147.0</ele><time>2026-04-05T17:00:10.002Z</time></trkpt><trkpt lat="45.51347150278466" lon="9.063315282959406"><ele>147.0</ele><time>2026-04-05T17:00:11Z</time></trkpt><trkpt lat="45.513322515623514" lon="9.063407734164665"><ele>147.0</ele><time>2026-04-05T17:00:12Z</time></trkpt><trkpt lat="45.51318260757776" lon="9.063505107366895"><ele>147.0</ele><time>2026-04-05T17:00:13Z</time></trkpt><trkpt lat="45.51300832911026" lon="9.063599955594126"><ele>147.0</ele><time>2026-04-05T17:00:14Z</time></trkpt><trkpt lat="45.512809415979554" lon="9.06368677757233"><ele>147.0</ele><time>2026-04-05T17:00:15Z</time></trkpt><trkpt lat="45.512587869249536" lon="9.063766056137975"><ele>147.0</ele><time>2026-04-05T17:00:16Z</time></trkpt><trkpt lat="45.51236574043549" lon="9.063839714707218"><ele>147.0</ele><time>2026-04-05T17:00:17Z</time></trkpt><trkpt lat="45.51214402285839" lon="9.063906495095718"><ele>146.66666666666666</ele><time>2026-04-05T17:00:18Z</time></trkpt><trkpt lat="45.51191890492858" lon="9.063959559399976"><ele>146.33333333333331</ele><time>2026-04-05T17:00:19Z</time></trkpt><trkpt lat="45.511707692673916" lon="9.063979482748122"><ele>146.0</ele><time>2026-04-05T17:00:20Z</time></trkpt><trkpt lat="45.51151464598651" lon="9.06398259694249"><ele>146.0</ele><time>2026-04-05T17:00:21Z</time></trkpt><trkpt lat="45.51132206552913" lon="9.06397637864659"><ele>146.0</ele><time>2026-04-05T17:00:22Z</time></trkpt><trkpt lat="45.511131032205675" lon="9.063969819244257"><ele>146.0</ele><time>2026-04-05T17:00:23Z</time></trkpt><trkpt lat="45.51093044162211" lon="9.063943356879735"><ele>146.5</ele><time>2026-04-05T17:00:24Z</time></trkpt><trkpt lat="45.51070944630207" lon="9.063899063646971"><ele>147.0</ele><time>2026-04-05T17:00:25Z</time></trkpt><trkpt lat="45.51048344552227" lon="9.063839905927557"><ele>145.0</ele><time>2026-04-05T17:00:26Z</time></trkpt><trkpt lat="45.510250214494555" lon="9.063758068016948"><ele>143.0</ele><time>2026-04-05T17:00:27Z</time></trkpt><trkpt lat="45.510013932160525" lon="9.063673145569533"><ele>143.0</ele><time>2026-04-05T17:00:28Z</time></trkpt><trkpt lat="45.509772561723025" lon="9.06360882415546"><ele>143.0</ele><time>2026-04-05T17:00:29Z</time></trkpt><trkpt lat="45.50954408225806" lon="9.063550724241125"><ele>144.0</ele><time>2026-04-05T17:00:30Z</time></trkpt><trkpt lat="45.50933899409385" lon="9.063495447203456"><ele>145.0</ele><time>2026-04-05T17:00:31Z</time></trkpt><trkpt lat="45.50914505715963" lon="9.06345240254486"><ele>146.0</ele><time>2026-04-05T17:00:32Z</time></trkpt><trkpt lat="45.50896008760434" lon="9.063426197950253"><ele>146.0</ele><time>2026-04-05T17:00:33Z</time></trkpt><trkpt lat="45.508772542711355" lon="9.063410166386126"><ele>146.0</ele><time>2026-04-05T17:00:34Z</time></trkpt><trkpt lat="45.50859559363794" lon="9.06341777464864"><ele>146.0</ele><time>2026-04-05T17:00:35Z</time></trkpt><trkpt lat="45.508431428219005" lon="9.063469693290047"><ele>146.0</ele><time>2026-04-05T17:00:36Z</time></trkpt><trkpt lat="45.508270072228235" lon="9.063502364890445"><ele>146.0</ele><time>2026-04-05T17:00:37Z</time></trkpt><trkpt lat="45.50810050910502" lon="9.063534172910586"><ele>146.0</ele><time>2026-04-05T17:00:38Z</time></trkpt><trkpt lat="45.50795234261011" lon="9.063560774348153"><ele>145.0</ele><time>2026-04-05T17:00:39Z</time></trkpt><trkpt lat="45.50779894636661" lon="9.06359208585957"><ele>144.0</ele><time>2026-04-05T17:00:40Z</time></trkpt><trkpt lat="45.507640421187794" lon="9.063628541391212"><ele>143.0</ele><time>2026-04-05T17:00:41Z</time></trkpt><trkpt lat="45.50747621872769" lon="9.06366472296678"><ele>143.0</ele><time>2026-04-05T17:00:42Z</time></trkpt><trkpt lat="45.50731831920596" lon="9.06370050356872"><ele>143.0</ele><time>2026-04-05T17:00:43Z</time></trkpt><trkpt lat="45.50716098534558" lon="9.063746740718129"><ele>143.0</ele><time>2026-04-05T17:00:44Z</time></trkpt><trkpt lat="45.50700606579824" lon="9.06380330128031"><ele>143.0</ele><time>2026-04-05T17:00:45Z</time></trkpt><trkpt lat="45.50685211370519" lon="9.063859235013929"><ele>143.0</ele><time>2026-04-05T17:00:46Z</time></trkpt><trkpt lat="45.50670357897477" lon="9.06391654347842"><ele>143.0</ele><time>2026-04-05T17:00:47Z</time></trkpt><trkpt lat="45.506553877804826" lon="9.06398333854613"><ele>143.0</ele><time>2026-04-05T17:00:48Z</time></trkpt><trkpt lat="45.50640428803699" lon="9.064055095396169"><ele>143.0</ele><time>2026-04-05T17:00:49Z</time></trkpt><trkpt lat="45.50625864137943" lon="9.064134375262414"><ele>143.0</ele><time>2026-04-05T17:00:50Z</time></trkpt><trkpt lat="45.50610575583351" lon="9.064222785750442"><ele>143.33333333333331</ele><time>2026-04-05T17:00:51Z</time></trkpt><trkpt lat="45.505950960008256" lon="9.064312366032981"><ele>143.66666666666666</ele><time>2026-04-05T17:00:52Z</time></trkpt><trkpt lat="45.50578631505699" lon="9.06440954231049"><ele>144.0</ele><time>2026-04-05T17:00:53Z</time></trkpt><trkpt lat="45.50561114601894" lon="9.064521030236847"><ele>144.0</ele><time>2026-04-05T17:00:54Z</time></trkpt><trkpt lat="45.50542200195929" lon="9.064641272962987"><ele>144.0</ele><time>2026-04-05T17:00:55.001Z</time></trkpt><trkpt lat="45.50521709583273" lon="9.064764532737698"><ele>144.0</ele><time>2026-04-05T17:00:56.001Z</time></trkpt><trkpt lat="45.50499364414029" lon="9.064886927842009"><ele>142.5</ele><time>2026-04-05T17:00:57.001Z</time></trkpt><trkpt lat="45.504760706465206" lon="9.065010540190768"><ele>141.0</ele><time>2026-04-05T17:00:58.001Z</time></trkpt><trkpt lat="45.504515969918934" lon="9.065139084831838"><ele>140.0</ele><time>2026-04-05T17:00:59.001Z</time></trkpt><trkpt lat="45.50426461030005" lon="9.065265541709788"><ele>139.0</ele><time>2026-04-05T17:01:00.001Z</time></trkpt><trkpt lat="45.50400343204398" lon="9.065390979439716"><ele>140.5</ele><time>2026-04-05T17:01:01.001Z</time></trkpt><trkpt lat="45.50373479952356" lon="9.065511350788588"><ele>142.0</ele><time>2026-04-05T17:01:02.001Z</time></trkpt><trkpt lat="45.503460136745055" lon="9.065632407143232"><ele>142.0</ele><time>2026-04-05T17:01:03.001Z</time></trkpt><trkpt lat="45.5031867259853" lon="9.065749013787975"><ele>142.0</ele><time>2026-04-05T17:01:04.001Z</time></trkpt><trkpt lat="45.502917216112145" lon="9.065870676581918"><ele>141.5</ele><time>2026-04-05T17:01:05.001Z</time></trkpt><trkpt lat="45.50266181000018" lon="9.065984333751361"><ele>141.0</ele><time>2026-04-05T17:01:06.001Z</time></trkpt><trkpt lat="45.50241273387888" lon="9.066086109884205"><ele>141.0</ele><time>2026-04-05T17:01:07.001Z</time></trkpt><trkpt lat="45.50216585660172" lon="9.066183037542825"><ele>141.0</ele><time>2026-04-05T17:01:08.001Z</time></trkpt><trkpt lat="45.501913159745285" lon="9.066275624808904"><ele>139.5</ele><time>2026-04-05T17:01:09.001Z</time></trkpt><trkpt lat="45.50165014565405" lon="9.066370523603593"><ele>138.0</ele><time>2026-04-05T17:01:10.001Z</time></trkpt><trkpt lat="45.50137650116249" lon="9.066448159355957"><ele>137.5</ele><time>2026-04-05T17:01:11.001Z</time></trkpt><trkpt lat="45.50109680963349" lon="9.066515271874378"><ele>137.0</ele><time>2026-04-05T17:01:12.001Z</time></trkpt><trkpt lat="45.500808382559754" lon="9.066579459503775"><ele>137.0</ele><time>2026-04-05T17:01:13.001Z</time></trkpt><trkpt lat="45.500513730992694" lon="9.066624785588425"><ele>137.0</ele><time>2026-04-05T17:01:14.001Z</time></trkpt><trkpt lat="45.500215447677704" lon="9.066656197562732"><ele>137.5</ele><time>2026-04-05T17:01:15.001Z</time></trkpt><trkpt lat="45.49991440077283" lon="9.06667787580933"><ele>138.0</ele><time>2026-04-05T17:01:16.001Z</time></trkpt><trkpt lat="45.49961264164732" lon="9.066697505510065"><ele>136.5</ele><time>2026-04-05T17:01:17.001Z</time></trkpt><trkpt lat="45.49930868980929" lon="9.066709126942055"><ele>135.0</ele><time>2026-04-05T17:01:18.001Z</time></trkpt><trkpt lat="45.49900636644064" lon="9.066707971640431"><ele>135.5</ele><time>2026-04-05T17:01:19.001Z</time></trkpt><trkpt lat="45.49870535742167" lon="9.066699217338401"><ele>136.0</ele><time>2026-04-05T17:01:20.001Z</time></trkpt><trkpt lat="45.49840549940704" lon="9.066683605083519"><ele>136.0</ele><time>2026-04-05T17:01:21.001Z</time></trkpt><trkpt lat="45.498108817545265" lon="9.066673142868016"><ele>136.0</ele><time>2026-04-05T17:01:22.001Z</time></trkpt><trkpt lat="45.497811391588606" lon="9.06666394735363"><ele>136.5</ele><time>2026-04-05T17:01:23.001Z</time></trkpt><trkpt lat="45.497521458255754" lon="9.066658313261234"><ele>137.0</ele><time>2026-04-05T17:01:24.001Z</time></trkpt><trkpt lat="45.497252948967976" lon="9.066645031761839"><ele>137.0</ele><time>2026-04-05T17:01:25.001Z</time></trkpt><trkpt lat="45.49698966143112" lon="9.06664060151852"><ele>137.0</ele><time>2026-04-05T17:01:26.001Z</time></trkpt><trkpt lat="45.49672799426399" lon="9.066637554362611"><ele>137.0</ele><time>2026-04-05T17:01:27.001Z</time></trkpt><trkpt lat="45.496471503482006" lon="9.066630743049428"><ele>137.0</ele><time>2026-04-05T17:01:28.001Z</time></trkpt><trkpt lat="45.49620994366978" lon="9.066623136292165"><ele>137.0</ele><time>2026-04-05T17:01:29.001Z</time></trkpt><trkpt lat="45.49594280787427" lon="9.06661453749466"><ele>137.0</ele><time>2026-04-05T17:01:30.001Z</time></trkpt><trkpt lat="45.495676273235475" lon="9.06659712654874"><ele>137.0</ele><time>2026-04-05T17:01:31.001Z</time></trkpt><trkpt lat="45.49540968323945" lon="9.06658132312917"><ele>137.0</ele><time>2026-04-05T17:01:32.001Z</time></trkpt><trkpt lat="45.49514694382302" lon="9.066569882539978"><ele>137.0</ele><time>2026-04-05T17:01:33.001Z</time></trkpt><trkpt lat="45.49488234457677" lon="9.066567800445426"><ele>137.0</ele><time>2026-04-05T17:01:34.001Z</time></trkpt><trkpt lat="45.494627518310494" lon="9.066565110795011"><ele>136.0</ele><time>2026-04-05T17:01:35.001Z</time></trkpt><trkpt lat="45.49438775263305" lon="9.066561059243181"><ele>135.0</ele><time>2026-04-05T17:01:36.001Z</time></trkpt><trkpt lat="45.494153755255525" lon="9.066557056383756"><ele>135.0</ele><time>2026-04-05T17:01:37.001Z</time></trkpt><trkpt lat="45.49393096266912" lon="9.066558222800225"><ele>135.0</ele><time>2026-04-05T17:01:38.001Z</time></trkpt><trkpt lat="45.49369138811015" lon="9.06656913226744"><ele>135.5</ele><time>2026-04-05T17:01:39.001Z</time></trkpt><trkpt lat="45.49343732038616" lon="9.066565915610784"><ele>136.0</ele><time>2026-04-05T17:01:40.001Z</time></trkpt><trkpt lat="45.49317649062757" lon="9.066557802173307"><ele>134.0</ele><time>2026-04-05T17:01:41.001Z</time></trkpt><trkpt lat="45.49291833214073" lon="9.066556049711167"><ele>132.0</ele><time>2026-04-05T17:01:42.001Z</time></trkpt><trkpt lat="45.4926924376678" lon="9.066541106876906"><ele>132.0</ele><time>2026-04-05T17:01:43.001Z</time></trkpt><trkpt lat="45.4924757578675" lon="9.066537663918728"><ele>132.0</ele><time>2026-04-05T17:01:44.001Z</time></trkpt><trkpt lat="45.4922554287212" lon="9.06653095102292"><ele>132.0</ele><time>2026-04-05T17:01:45.001Z</time></trkpt><trkpt lat="45.492030542154396" lon="9.06652274758369"><ele>133.0</ele><time>2026-04-05T17:01:46.001Z</time></trkpt><trkpt lat="45.49179894224425" lon="9.06651472155803"><ele>134.0</ele><time>2026-04-05T17:01:47.001Z</time></trkpt><trkpt lat="45.491560110905446" lon="9.066508137834772"><ele>134.0</ele><time>2026-04-05T17:01:48.001Z</time></trkpt><trkpt lat="45.49132077107773" lon="9.066502135246804"><ele>134.0</ele><time>2026-04-05T17:01:49.001Z</time></trkpt><trkpt lat="45.49107791743727" lon="9.066499432136053"><ele>134.0</ele><time>2026-04-05T17:01:50.001Z</time></trkpt><trkpt lat="45.49083979998907" lon="9.066505316196887"><ele>134.0</ele><time>2026-04-05T17:01:51.001Z</time></trkpt><trkpt lat="45.49060425774097" lon="9.066523446678662"><ele>134.0</ele><time>2026-04-05T17:01:52.002Z</time></trkpt><trkpt lat="45.49036463001895" lon="9.066548902731675"><ele>134.0</ele><time>2026-04-05T17:01:53.002Z</time></trkpt><trkpt lat="45.490123916545095" lon="9.066575045250907"><ele>134.0</ele><time>2026-04-05T17:01:54.002Z</time></trkpt><trkpt lat="45.489888005709936" lon="9.066604121725208"><ele>134.0</ele><time>2026-04-05T17:01:55.002Z</time></trkpt><trkpt lat="45.4896552886209" lon="9.066644156858581"><ele>135.0</ele><time>2026-04-05T17:01:56.002Z</time></trkpt><trkpt lat="45.48942416186709" lon="9.066696661574774"><ele>136.0</ele><time>2026-04-05T17:01:57.002Z</time></trkpt><trkpt lat="45.48919175165507" lon="9.06675477356761"><ele>136.0</ele><time>2026-04-05T17:01:58.002Z</time></trkpt><trkpt lat="45.48895472965699" lon="9.066823868083281"><ele>136.0</ele><time>2026-04-05T17:01:59.002Z</time></trkpt><trkpt lat="45.488711979056426" lon="9.066901813804995"><ele>136.0</ele><time>2026-04-05T17:02:00.002Z</time></trkpt><trkpt lat="45.48847334367375" lon="9.066982580503103"><ele>136.0</ele><time>2026-04-05T17:02:01.002Z</time></trkpt><trkpt lat="45.488251781754656" lon="9.067064183511357"><ele>136.0</ele><time>2026-04-05T17:02:02.002Z</time></trkpt><trkpt lat="45.48803680293836" lon="9.067154365346553"><ele>136.0</ele><time>2026-04-05T17:02:03.002Z</time></trkpt><trkpt lat="45.48782345059809" lon="9.067250264886683"><ele>136.0</ele><time>2026-04-05T17:02:04.002Z</time></trkpt><trkpt lat="45.487613946926885" lon="9.067352323780916"><ele>136.0</ele><time>2026-04-05T17:02:05.002Z</time></trkpt><trkpt lat="45.48739778677577" lon="9.06746077843522"><ele>136.0</ele><time>2026-04-05T17:02:06.002Z</time></trkpt><trkpt lat="45.487180234717904" lon="9.067576172158342"><ele>135.0</ele><time>2026-04-05T17:02:07.002Z</time></trkpt><trkpt lat="45.48696157230419" lon="9.067705336893441"><ele>134.0</ele><time>2026-04-05T17:02:08.002Z</time></trkpt><trkpt lat="45.486737199754145" lon="9.06784356846496"><ele>134.0</ele><time>2026-04-05T17:02:09.002Z</time></trkpt><trkpt lat="45.48651046611257" lon="9.0679942312502"><ele>134.0</ele><time>2026-04-05T17:02:10.002Z</time></trkpt><trkpt lat="45.48628070850465" lon="9.068156558645462"><ele>133.0</ele><time>2026-04-05T17:02:11.002Z</time></trkpt><trkpt lat="45.48604697583528" lon="9.068331283567021"><ele>132.0</ele><time>2026-04-05T17:02:12.002Z</time></trkpt><trkpt lat="45.48581016849041" lon="9.068518043611983"><ele>132.0</ele><time>2026-04-05T17:02:13.002Z</time></trkpt><trkpt lat="45.48557019210976" lon="9.068716969206458"><ele>132.0</ele><time>2026-04-05T17:02:14.002Z</time></trkpt><trkpt lat="45.485330199305245" lon="9.068928241250202"><ele>132.5</ele><time>2026-04-05T17:02:15.002Z</time></trkpt><trkpt lat="45.48508954372025" lon="9.069150456110144"><ele>133.0</ele><time>2026-04-05T17:02:16.002Z</time></trkpt><trkpt lat="45.48485190146721" lon="9.069373901743285"><ele>133.0</ele><time>2026-04-05T17:02:17Z</time></trkpt><trkpt lat="45.4846149549856" lon="9.069596960394241"><ele>133.0</ele><time>2026-04-05T17:02:18Z</time></trkpt><trkpt lat="45.484372354538166" lon="9.069824763075431"><ele>131.0</ele><time>2026-04-05T17:02:19Z</time></trkpt><trkpt lat="45.48413012071567" lon="9.070042774629044"><ele>129.0</ele><time>2026-04-05T17:02:20Z</time></trkpt><trkpt lat="45.48389163802345" lon="9.070261368971698"><ele>129.0</ele><time>2026-04-05T17:02:21Z</time></trkpt><trkpt lat="45.48366909726329" lon="9.070476451174018"><ele>129.0</ele><time>2026-04-05T17:02:22Z</time></trkpt><trkpt lat="45.48343669747672" lon="9.070701272279235"><ele>130.0</ele><time>2026-04-05T17:02:23Z</time></trkpt><trkpt lat="45.48320446475301" lon="9.070927706013325"><ele>131.0</ele><time>2026-04-05T17:02:24Z</time></trkpt><trkpt lat="45.48297069100129" lon="9.071159172007704"><ele>130.5</ele><time>2026-04-05T17:02:25Z</time></trkpt><trkpt lat="45.482738294528104" lon="9.07139569425524"><ele>130.0</ele><time>2026-04-05T17:02:26Z</time></trkpt><trkpt lat="45.4825029811479" lon="9.071624877341753"><ele>130.0</ele><time>2026-04-05T17:02:27Z</time></trkpt><trkpt lat="45.482255866667685" lon="9.071848065894256"><ele>130.0</ele><time>2026-04-05T17:02:28Z</time></trkpt><trkpt lat="45.48200265761226" lon="9.07207520347558"><ele>130.0</ele><time>2026-04-05T17:02:29Z</time></trkpt><trkpt lat="45.48175118779837" lon="9.072306442875618"><ele>130.0</ele><time>2026-04-05T17:02:30Z</time></trkpt><trkpt lat="45.4815031326165" lon="9.07254374413772"><ele>129.5</ele><time>2026-04-05T17:02:31Z</time></trkpt><trkpt lat="45.4812566810865" lon="9.072781857939411"><ele>129.0</ele><time>2026-04-05T17:02:32Z</time></trkpt><trkpt lat="45.48101169682584" lon="9.073020476021425"><ele>129.0</ele><time>2026-04-05T17:02:33Z</time></trkpt><trkpt lat="45.4807791805087" lon="9.073246863534555"><ele>129.0</ele><time>2026-04-05T17:02:34Z</time></trkpt><trkpt lat="45.480545744012744" lon="9.073468646112472"><ele>130.5</ele><time>2026-04-05T17:02:35Z</time></trkpt><trkpt lat="45.48031042293186" lon="9.07368771850008"><ele>132.0</ele><time>2026-04-05T17:02:36Z</time></trkpt><trkpt lat="45.48007857966284" lon="9.073912883589058"><ele>133.0</ele><time>2026-04-05T17:02:37Z</time></trkpt><trkpt lat="45.47984706949696" lon="9.074135857949548"><ele>134.0</ele><time>2026-04-05T17:02:38Z</time></trkpt><trkpt lat="45.47961957392883" lon="9.074347762781466"><ele>134.0</ele><time>2026-04-05T17:02:39Z</time></trkpt><trkpt lat="45.47938330663549" lon="9.074555504141454"><ele>134.0</ele><time>2026-04-05T17:02:40Z</time></trkpt><trkpt lat="45.479148394582204" lon="9.074766702025311"><ele>133.0</ele><time>2026-04-05T17:02:41Z</time></trkpt><trkpt lat="45.47891760662665" lon="9.074987415114668"><ele>132.0</ele><time>2026-04-05T17:02:42Z</time></trkpt><trkpt lat="45.47868541987308" lon="9.075209433621412"><ele>132.0</ele><time>2026-04-05T17:02:43Z</time></trkpt><trkpt lat="45.47845693232353" lon="9.075427087710489"><ele>132.0</ele><time>2026-04-05T17:02:44Z</time></trkpt><trkpt lat="45.478230631363466" lon="9.075648986738809"><ele>132.0</ele><time>2026-04-05T17:02:45Z</time></trkpt><trkpt lat="45.4780115701443" lon="9.075859994542979"><ele>132.0</ele><time>2026-04-05T17:02:46Z</time></trkpt><trkpt lat="45.47778790728219" lon="9.076065252053924"><ele>131.5</ele><time>2026-04-05T17:02:47Z</time></trkpt><trkpt lat="45.47755248811457" lon="9.076282749072394"><ele>131.0</ele><time>2026-04-05T17:02:48Z</time></trkpt><trkpt lat="45.477309788122106" lon="9.076512019265056"><ele>130.5</ele><time>2026-04-05T17:02:49Z</time></trkpt><trkpt lat="45.47706797295017" lon="9.076752211704338"><ele>130.0</ele><time>2026-04-05T17:02:50.001Z</time></trkpt><trkpt lat="45.476828194794045" lon="9.076992484897401"><ele>130.0</ele><time>2026-04-05T17:02:51.001Z</time></trkpt><trkpt lat="45.476587053292135" lon="9.077225966585406"><ele>130.0</ele><time>2026-04-05T17:02:52.001Z</time></trkpt><trkpt lat="45.47635616172226" lon="9.077446282624939"><ele>130.5</ele><time>2026-04-05T17:02:53.001Z</time></trkpt><trkpt lat="45.476141415635084" lon="9.077652435195631"><ele>131.0</ele><time>2026-04-05T17:02:54.001Z</time></trkpt><trkpt lat="45.47593204567904" lon="9.077849053881396"><ele>131.0</ele><time>2026-04-05T17:02:55.001Z</time></trkpt><trkpt lat="45.47573208490183" lon="9.078032007398788"><ele>131.0</ele><time>2026-04-05T17:02:56.001Z</time></trkpt><trkpt lat="45.475539125406534" lon="9.078214163269887"><ele>131.5</ele><time>2026-04-05T17:02:57.001Z</time></trkpt><trkpt lat="45.47534748522502" lon="9.078391994460471"><ele>132.0</ele><time>2026-04-05T17:02:58.001Z</time></trkpt><trkpt lat="45.47514581805244" lon="9.078563453740987"><ele>132.0</ele><time>2026-04-05T17:02:59.001Z</time></trkpt><trkpt lat="45.474952273476504" lon="9.078716274049667"><ele>132.0</ele><time>2026-04-05T17:03:00.001Z</time></trkpt><trkpt lat="45.47474820894459" lon="9.078859851223545"><ele>132.0</ele><time>2026-04-05T17:03:01.001Z</time></trkpt><trkpt lat="45.47454068742737" lon="9.078991350935734"><ele>131.0</ele><time>2026-04-05T17:03:02.001Z</time></trkpt><trkpt lat="45.47432780925783" lon="9.079112305303397"><ele>130.0</ele><time>2026-04-05T17:03:03.001Z</time></trkpt><trkpt lat="45.474113118719245" lon="9.079225517674411"><ele>130.0</ele><time>2026-04-05T17:03:04.001Z</time></trkpt><trkpt lat="45.47389682935414" lon="9.079319820809074"><ele>130.0</ele><time>2026-04-05T17:03:05.001Z</time></trkpt><trkpt lat="45.473680311368646" lon="9.079399788429624"><ele>130.0</ele><time>2026-04-05T17:03:06.001Z</time></trkpt><trkpt lat="45.473460032630975" lon="9.07946808013265"><ele>130.0</ele><time>2026-04-05T17:03:07.001Z</time></trkpt><trkpt lat="45.47323795672223" lon="9.079524359101516"><ele>130.0</ele><time>2026-04-05T17:03:08.001Z</time></trkpt><trkpt lat="45.473010698346016" lon="9.079564204724866"><ele>130.0</ele><time>2026-04-05T17:03:09.001Z</time></trkpt><trkpt lat="45.472781445908474" lon="9.079594414578997"><ele>129.0</ele><time>2026-04-05T17:03:10.001Z</time></trkpt><trkpt lat="45.47254618521337" lon="9.079600433061367"><ele>128.0</ele><time>2026-04-05T17:03:11.001Z</time></trkpt><trkpt lat="45.47230743778966" lon="9.07959778618187"><ele>128.0</ele><time>2026-04-05T17:03:12.001Z</time></trkpt><trkpt lat="45.47206723657986" lon="9.079587659711878"><ele>128.0</ele><time>2026-04-05T17:03:13.001Z</time></trkpt><trkpt lat="45.47183118293054" lon="9.07955225765379"><ele>128.0</ele><time>2026-04-05T17:03:14.001Z</time></trkpt><trkpt lat="45.471597513217624" lon="9.079505381960729"><ele>128.0</ele><time>2026-04-05T17:03:15.001Z</time></trkpt><trkpt lat="45.471366333272364" lon="9.079439380454136"><ele>128.0</ele><time>2026-04-05T17:03:16.001Z</time></trkpt><trkpt lat="45.47114067341729" lon="9.079354524839841"><ele>128.0</ele><time>2026-04-05T17:03:17.001Z</time></trkpt><trkpt lat="45.47090894210254" lon="9.07926460679472"><ele>128.0</ele><time>2026-04-05T17:03:18.001Z</time></trkpt><trkpt lat="45.47068213290245" lon="9.07915939778479"><ele>128.0</ele><time>2026-04-05T17:03:19.001Z</time></trkpt><trkpt lat="45.47045808300393" lon="9.079044616268579"><ele>128.0</ele><time>2026-04-05T17:03:20.001Z</time></trkpt><trkpt lat="45.4702376766255" lon="9.078922979286899"><ele>128.0</ele><time>2026-04-05T17:03:21.001Z</time></trkpt><trkpt lat="45.47002011145387" lon="9.078798075000664"><ele>128.0</ele><time>2026-04-05T17:03:22.001Z</time></trkpt><trkpt lat="45.469800623675" lon="9.078669443676498"><ele>128.0</ele><time>2026-04-05T17:03:23.001Z</time></trkpt><trkpt lat="45.46958000186107" lon="9.078538139904943"><ele>129.0</ele><time>2026-04-05T17:03:24.001Z</time></trkpt><trkpt lat="45.46935827932943" lon="9.07840902797177"><ele>130.0</ele><time>2026-04-05T17:03:25.001Z</time></trkpt><trkpt lat="45.46913685696722" lon="9.078282824342585"><ele>128.5</ele><time>2026-04-05T17:03:26.001Z</time></trkpt><trkpt lat="45.46891363017114" lon="9.078153630461442"><ele>127.0</ele><time>2026-04-05T17:03:27.001Z</time></trkpt><trkpt lat="45.468693343033124" lon="9.078025399156786"><ele>127.0</ele><time>2026-04-05T17:03:28.001Z</time></trkpt><trkpt lat="45.46847098668894" lon="9.077896656978954"><ele>127.0</ele><time>2026-04-05T17:03:29.001Z</time></trkpt><trkpt lat="45.46824680903727" lon="9.077767331970383"><ele>127.0</ele><time>2026-04-05T17:03:30.001Z</time></trkpt><trkpt lat="45.46802721941273" lon="9.077641202144703"><ele>127.0</ele><time>2026-04-05T17:03:31.001Z</time></trkpt><trkpt lat="45.46780670957328" lon="9.077516058358421"><ele>126.5</ele><time>2026-04-05T17:03:32.001Z</time></trkpt><trkpt lat="45.46758725312966" lon="9.077386345026596"><ele>126.0</ele><time>2026-04-05T17:03:33.001Z</time></trkpt><trkpt lat="45.467371859071825" lon="9.07725943680653"><ele>126.0</ele><time>2026-04-05T17:03:34.001Z</time></trkpt><trkpt lat="45.46715337405703" lon="9.0771339596764"><ele>126.0</ele><time>2026-04-05T17:03:35.001Z</time></trkpt><trkpt lat="45.466938258398635" lon="9.077007848331611"><ele>127.0</ele><time>2026-04-05T17:03:36.001Z</time></trkpt><trkpt lat="45.4667234302163" lon="9.076880629929772"><ele>128.0</ele><time>2026-04-05T17:03:37.001Z</time></trkpt><trkpt lat="45.46650682699258" lon="9.07675668839284"><ele>128.0</ele><time>2026-04-05T17:03:38.001Z</time></trkpt><trkpt lat="45.466285814540754" lon="9.076636804337312"><ele>128.0</ele><time>2026-04-05T17:03:39.001Z</time></trkpt><trkpt lat="45.466062894857494" lon="9.07652628038051"><ele>127.5</ele><time>2026-04-05T17:03:40.001Z</time></trkpt><trkpt lat="45.465838190595484" lon="9.076424411939385"><ele>127.0</ele><time>2026-04-05T17:03:41.001Z</time></trkpt><trkpt lat="45.46561156492237" lon="9.07633361716192"><ele>128.5</ele><time>2026-04-05T17:03:42.001Z</time></trkpt><trkpt lat="45.465383652253955" lon="9.076254545287561"><ele>130.0</ele><time>2026-04-05T17:03:43.001Z</time></trkpt><trkpt lat="45.465158062034014" lon="9.07618762954134"><ele>130.0</ele><time>2026-04-05T17:03:44.001Z</time></trkpt><trkpt lat="45.46494860684474" lon="9.076143845526035"><ele>130.0</ele><time>2026-04-05T17:03:45.001Z</time></trkpt><trkpt lat="45.46474299522017" lon="9.076097603134935"><ele>130.0</ele><time>2026-04-05T17:03:46.001Z</time></trkpt><trkpt lat="45.46451188527881" lon="9.076083560083113"><ele>130.0</ele><time>2026-04-05T17:03:47.001Z</time></trkpt><trkpt lat="45.464330209960714" lon="9.076041535522137"><ele>130.0</ele><time>2026-04-05T17:03:48.001Z</time></trkpt><trkpt lat="45.46412933265576" lon="9.076019117705748"><ele>130.0</ele><time>2026-04-05T17:03:49.002Z</time></trkpt><trkpt lat="45.463926175091444" lon="9.076010032702019"><ele>129.66666666666669</ele><time>2026-04-05T17:03:50.002Z</time></trkpt><trkpt lat="45.46372099105618" lon="9.07600899765964"><ele>129.33333333333334</ele><time>2026-04-05T17:03:51.002Z</time></trkpt><trkpt lat="45.46351596183146" lon="9.076016461225105"><ele>129.0</ele><time>2026-04-05T17:03:52.002Z</time></trkpt><trkpt lat="45.46330540039046" lon="9.076031882759713"><ele>129.0</ele><time>2026-04-05T17:03:53.002Z</time></trkpt><trkpt lat="45.46309705890736" lon="9.076058183053062"><ele>129.0</ele><time>2026-04-05T17:03:54.002Z</time></trkpt><trkpt lat="45.46288487831227" lon="9.076094709699282"><ele>129.0</ele><time>2026-04-05T17:03:55.002Z</time></trkpt><trkpt lat="45.46267125444176" lon="9.076137565129518"><ele>128.33333333333334</ele><time>2026-04-05T17:03:56.002Z</time></trkpt><trkpt lat="45.46245715447514" lon="9.076186019044409"><ele>127.66666666666667</ele><time>2026-04-05T17:03:57.002Z</time></trkpt><trkpt lat="45.46224139604282" lon="9.07624797859315"><ele>127.0</ele><time>2026-04-05T17:03:58.002Z</time></trkpt><trkpt lat="45.46202315476997" lon="9.076312184734304"><ele>126.5</ele><time>2026-04-05T17:03:59.002Z</time></trkpt><trkpt lat="45.46179929122729" lon="9.076374234429858"><ele>126.0</ele><time>2026-04-05T17:04:00.002Z</time></trkpt><trkpt lat="45.46157705494351" lon="9.07643608846709"><ele>126.0</ele><time>2026-04-05T17:04:01.002Z</time></trkpt><trkpt lat="45.461350572059004" lon="9.076500813655384"><ele>126.0</ele><time>2026-04-05T17:04:02.002Z</time></trkpt><trkpt lat="45.46112075307645" lon="9.076557484753584"><ele>127.5</ele><time>2026-04-05T17:04:03.002Z</time></trkpt><trkpt lat="45.46089079681867" lon="9.07661596186559"><ele>129.0</ele><time>2026-04-05T17:04:04.002Z</time></trkpt><trkpt lat="45.46065976659914" lon="9.076674455498319"><ele>128.0</ele><time>2026-04-05T17:04:05.002Z</time></trkpt><trkpt lat="45.46042361173206" lon="9.076736045763955"><ele>127.0</ele><time>2026-04-05T17:04:06.002Z</time></trkpt><trkpt lat="45.46018779506138" lon="9.076794212867055"><ele>127.0</ele><time>2026-04-05T17:04:07.002Z</time></trkpt><trkpt lat="45.45994984174934" lon="9.076850222986426"><ele>127.0</ele><time>2026-04-05T17:04:08.002Z</time></trkpt><trkpt lat="45.459708994773784" lon="9.076909103521182"><ele>127.0</ele><time>2026-04-05T17:04:09.002Z</time></trkpt><trkpt lat="45.45946993890118" lon="9.0769687953083"><ele>127.0</ele><time>2026-04-05T17:04:10.002Z</time></trkpt><trkpt lat="45.45922928355628" lon="9.077028044494117"><ele>127.0</ele><time>2026-04-05T17:04:11.002Z</time></trkpt><trkpt lat="45.45898721000894" lon="9.077089714579282"><ele>127.0</ele><time>2026-04-05T17:04:12.002Z</time></trkpt><trkpt lat="45.45874650423865" lon="9.07715145173979"><ele>127.5</ele><time>2026-04-05T17:04:13.002Z</time></trkpt><trkpt lat="45.45850307116963" lon="9.077209746220607"><ele>128.0</ele><time>2026-04-05T17:04:14.002Z</time></trkpt><trkpt lat="45.45825636669409" lon="9.077263567867254"><ele>128.0</ele><time>2026-04-05T17:04:15.002Z</time></trkpt><trkpt lat="45.45801452760966" lon="9.077300902887746"><ele>128.0</ele><time>2026-04-05T17:04:16.002Z</time></trkpt><trkpt lat="45.45777344016373" lon="9.077325313583643"><ele>126.0</ele><time>2026-04-05T17:04:17.002Z</time></trkpt><trkpt lat="45.45753269985968" lon="9.077349346055476"><ele>124.0</ele><time>2026-04-05T17:04:18.002Z</time></trkpt><trkpt lat="45.45730482806638" lon="9.077365581367095"><ele>123.66666666666667</ele><time>2026-04-05T17:04:19.002Z</time></trkpt><trkpt lat="45.45709052088687" lon="9.077362124185699"><ele>123.33333333333334</ele><time>2026-04-05T17:04:20.002Z</time></trkpt><trkpt lat="45.45688567243122" lon="9.07735442064931"><ele>123.0</ele><time>2026-04-05T17:04:21.002Z</time></trkpt><trkpt lat="45.45668786130966" lon="9.077344542022091"><ele>123.0</ele><time>2026-04-05T17:04:22.002Z</time></trkpt><trkpt lat="45.45650034698994" lon="9.077330314207138"><ele>123.0</ele><time>2026-04-05T17:04:23Z</time></trkpt><trkpt lat="45.45630366275601" lon="9.077321118634236"><ele>123.0</ele><time>2026-04-05T17:04:24Z</time></trkpt><trkpt lat="45.456105886811564" lon="9.077294140881738"><ele>123.0</ele><time>2026-04-05T17:04:25Z</time></trkpt><trkpt lat="45.45590861354635" lon="9.077254487806638"><ele>123.0</ele><time>2026-04-05T17:04:26Z</time></trkpt><trkpt lat="45.455708450130984" lon="9.07720823953991"><ele>123.0</ele><time>2026-04-05T17:04:27Z</time></trkpt><trkpt lat="45.45550596388842" lon="9.077158190018176"><ele>122.66666666666666</ele><time>2026-04-05T17:04:28Z</time></trkpt><trkpt lat="45.455304845100976" lon="9.077104885740415"><ele>122.33333333333333</ele><time>2026-04-05T17:04:29Z</time></trkpt><trkpt lat="45.45510511801403" lon="9.077046932774975"><ele>122.0</ele><time>2026-04-05T17:04:30Z</time></trkpt><trkpt lat="45.45490012669623" lon="9.076989428431812"><ele>122.0</ele><time>2026-04-05T17:04:31Z</time></trkpt><trkpt lat="45.45469690572257" lon="9.076930182847548"><ele>122.0</ele><time>2026-04-05T17:04:32Z</time></trkpt><trkpt lat="45.45449971412806" lon="9.076871842190418"><ele>122.0</ele><time>2026-04-05T17:04:33Z</time></trkpt><trkpt lat="45.45430835821376" lon="9.076812236747548"><ele>122.33333333333333</ele><time>2026-04-05T17:04:34Z</time></trkpt><trkpt lat="45.45411839294706" lon="9.076753958068222"><ele>122.66666666666666</ele><time>2026-04-05T17:04:35Z</time></trkpt><trkpt lat="45.45392907714233" lon="9.076697255976613"><ele>123.0</ele><time>2026-04-05T17:04:36Z</time></trkpt><trkpt lat="45.45374168359022" lon="9.076639409471221"><ele>122.33333333333334</ele><time>2026-04-05T17:04:37Z</time></trkpt><trkpt lat="45.45355469197497" lon="9.076580104339685"><ele>121.66666666666667</ele><time>2026-04-05T17:04:38Z</time></trkpt><trkpt lat="45.453361661559974" lon="9.076526938447397"><ele>121.0</ele><time>2026-04-05T17:04:39Z</time></trkpt><trkpt lat="45.45316166171026" lon="9.076473412102217"><ele>121.33333333333334</ele><time>2026-04-05T17:04:40Z</time></trkpt><trkpt lat="45.45295373888778" lon="9.076419263122487"><ele>121.66666666666666</ele><time>2026-04-05T17:04:41Z</time></trkpt><trkpt lat="45.45274241998296" lon="9.076357342305206"><ele>122.0</ele><time>2026-04-05T17:04:42Z</time></trkpt><trkpt lat="45.452525616080415" lon="9.076294913987974"><ele>122.0</ele><time>2026-04-05T17:04:43Z</time></trkpt><trkpt lat="45.4523065185839" lon="9.076228976613228"><ele>122.0</ele><time>2026-04-05T17:04:44Z</time></trkpt><trkpt lat="45.45208673364479" lon="9.076161680096758"><ele>122.0</ele><time>2026-04-05T17:04:45Z</time></trkpt><trkpt lat="45.45186764579871" lon="9.076096294911451"><ele>122.0</ele><time>2026-04-05T17:04:46Z</time></trkpt><trkpt lat="45.45165454217755" lon="9.076032251756804"><ele>122.0</ele><time>2026-04-05T17:04:47Z</time></trkpt><trkpt lat="45.451449489684094" lon="9.07597316612468"><ele>122.0</ele><time>2026-04-05T17:04:48Z</time></trkpt><trkpt lat="45.45124920441283" lon="9.075912603141623"><ele>122.0</ele><time>2026-04-05T17:04:49Z</time></trkpt><trkpt lat="45.45105188545584" lon="9.075851253186926"><ele>122.0</ele><time>2026-04-05T17:04:50Z</time></trkpt><trkpt lat="45.45085627808489" lon="9.075791266262899"><ele>122.0</ele><time>2026-04-05T17:04:51Z</time></trkpt><trkpt lat="45.450659828020655" lon="9.075732374113956"><ele>122.0</ele><time>2026-04-05T17:04:52Z</time></trkpt><trkpt lat="45.45046406565484" lon="9.07567085820305"><ele>122.0</ele><time>2026-04-05T17:04:53.001Z</time></trkpt><trkpt lat="45.450267881524326" lon="9.075604943654914"><ele>122.0</ele><time>2026-04-05T17:04:54.001Z</time></trkpt><trkpt lat="45.45006994475938" lon="9.075545297102922"><ele>122.0</ele><time>2026-04-05T17:04:55.001Z</time></trkpt><trkpt lat="45.44986851068353" lon="9.075486655108499"><ele>122.0</ele><time>2026-04-05T17:04:56.001Z</time></trkpt><trkpt lat="45.44966516699201" lon="9.075422817770539"><ele>122.0</ele><time>2026-04-05T17:04:57.001Z</time></trkpt><trkpt lat="45.449458863898315" lon="9.07536312148338"><ele>122.0</ele><time>2026-04-05T17:04:58.001Z</time></trkpt><trkpt lat="45.449252532638894" lon="9.075300401633367"><ele>122.0</ele><time>2026-04-05T17:04:59.001Z</time></trkpt><trkpt lat="45.449041280203126" lon="9.075243815967454"><ele>122.0</ele><time>2026-04-05T17:05:00.001Z</time></trkpt><trkpt lat="45.44882848076805" lon="9.07517538487806"><ele>121.66666666666666</ele><time>2026-04-05T17:05:01.001Z</time></trkpt><trkpt lat="45.44861429457545" lon="9.07510378397215"><ele>121.33333333333334</ele><time>2026-04-05T17:05:02.001Z</time></trkpt><trkpt lat="45.44839555344812" lon="9.075027899702004"><ele>121.0</ele><time>2026-04-05T17:05:03.001Z</time></trkpt><trkpt lat="45.448174561894234" lon="9.074951157559989"><ele>120.5</ele><time>2026-04-05T17:05:04.001Z</time></trkpt><trkpt lat="45.44794432571035" lon="9.07487392751551"><ele>120.0</ele><time>2026-04-05T17:05:05.001Z</time></trkpt><trkpt lat="45.4477110864459" lon="9.074797269169826"><ele>120.0</ele><time>2026-04-05T17:05:06.001Z</time></trkpt><trkpt lat="45.44747157342562" lon="9.074726235338979"><ele>120.0</ele><time>2026-04-05T17:05:07.001Z</time></trkpt><trkpt lat="45.44723443151242" lon="9.074648833156667"><ele>120.5</ele><time>2026-04-05T17:05:08.001Z</time></trkpt><trkpt lat="45.44699355456757" lon="9.074572152094568"><ele>121.0</ele><time>2026-04-05T17:05:09.001Z</time></trkpt><trkpt lat="45.44675050691231" lon="9.074496262705592"><ele>121.0</ele><time>2026-04-05T17:05:10.001Z</time></trkpt><trkpt lat="45.446508047379524" lon="9.07442145324716"><ele>121.0</ele><time>2026-04-05T17:05:11.001Z</time></trkpt><trkpt lat="45.446264981416334" lon="9.07434546810277"><ele>121.5</ele><time>2026-04-05T17:05:12.001Z</time></trkpt><trkpt lat="45.446017644410745" lon="9.074273445839678"><ele>122.0</ele><time>2026-04-05T17:05:13.001Z</time></trkpt><trkpt lat="45.445770976413904" lon="9.074197290741303"><ele>122.0</ele><time>2026-04-05T17:05:14.001Z</time></trkpt><trkpt lat="45.445530017693564" lon="9.07412478509941"><ele>122.0</ele><time>2026-04-05T17:05:15.001Z</time></trkpt><trkpt lat="45.44528918425537" lon="9.07405825350837"><ele>122.0</ele><time>2026-04-05T17:05:16.001Z</time></trkpt><trkpt lat="45.44504961961003" lon="9.073996531351566"><ele>122.0</ele><time>2026-04-05T17:05:17.001Z</time></trkpt><trkpt lat="45.444811912345685" lon="9.073939250189865"><ele>121.5</ele><time>2026-04-05T17:05:18.001Z</time></trkpt><trkpt lat="45.444576708124835" lon="9.073891880833882"><ele>121.0</ele><time>2026-04-05T17:05:19.001Z</time></trkpt><trkpt lat="45.44434038360862" lon="9.073841558938792"><ele>121.0</ele><time>2026-04-05T17:05:20.001Z</time></trkpt><trkpt lat="45.44410545949313" lon="9.073793038085876"><ele>121.0</ele><time>2026-04-05T17:05:21.001Z</time></trkpt><trkpt lat="45.44386804143476" lon="9.073757569400284"><ele>120.0</ele><time>2026-04-05T17:05:22.001Z</time></trkpt><trkpt lat="45.4436305662345" lon="9.073734123333912"><ele>119.0</ele><time>2026-04-05T17:05:23.001Z</time></trkpt><trkpt lat="45.44339827835803" lon="9.073710340841433"><ele>119.0</ele><time>2026-04-05T17:05:24.001Z</time></trkpt><trkpt lat="45.44316695775969" lon="9.073689141360553"><ele>119.0</ele><time>2026-04-05T17:05:25.001Z</time></trkpt><trkpt lat="45.44293549657581" lon="9.073670449527619"><ele>117.5</ele><time>2026-04-05T17:05:26.001Z</time></trkpt><trkpt lat="45.4427051932148" lon="9.07365504351439"><ele>116.0</ele><time>2026-04-05T17:05:27.001Z</time></trkpt><trkpt lat="45.44247500804486" lon="9.073647837437226"><ele>116.0</ele><time>2026-04-05T17:05:28.001Z</time></trkpt><trkpt lat="45.442239329762444" lon="9.073643399604526"><ele>116.0</ele><time>2026-04-05T17:05:29.001Z</time></trkpt><trkpt lat="45.44200021180095" lon="9.073640631723903"><ele>118.5</ele><time>2026-04-05T17:05:30.001Z</time></trkpt><trkpt lat="45.44175745724301" lon="9.07363938226142"><ele>121.0</ele><time>2026-04-05T17:05:31.001Z</time></trkpt><trkpt lat="45.44151439321172" lon="9.073642200383901"><ele>120.0</ele><time>2026-04-05T17:05:32.001Z</time></trkpt><trkpt lat="45.44127276902895" lon="9.073650923961692"><ele>119.0</ele><time>2026-04-05T17:05:33.001Z</time></trkpt><trkpt lat="45.44103017093473" lon="9.073663330380636"><ele>119.0</ele><time>2026-04-05T17:05:34.001Z</time></trkpt><trkpt lat="45.44078679117311" lon="9.073680031999523"><ele>119.0</ele><time>2026-04-05T17:05:35.001Z</time></trkpt><trkpt lat="45.44054410186564" lon="9.073701865466143"><ele>118.5</ele><time>2026-04-05T17:05:36.001Z</time></trkpt><trkpt lat="45.44030072700961" lon="9.073724787456547"><ele>118.0</ele><time>2026-04-05T17:05:37.001Z</time></trkpt><trkpt lat="45.440054820280416" lon="9.073752851937192"><ele>118.0</ele><time>2026-04-05T17:05:38.001Z</time></trkpt><trkpt lat="45.43980302352365" lon="9.073786094191734"><ele>118.0</ele><time>2026-04-05T17:05:39.001Z</time></trkpt><trkpt lat="45.439545083985884" lon="9.073816773972124"><ele>117.0</ele><time>2026-04-05T17:05:40.001Z</time></trkpt><trkpt lat="45.4392821570452" lon="9.073842882025598"><ele>116.0</ele><time>2026-04-05T17:05:41.001Z</time></trkpt><trkpt lat="45.43901470738283" lon="9.073871954922609"><ele>116.5</ele><time>2026-04-05T17:05:42.001Z</time></trkpt><trkpt lat="45.43874423742442" lon="9.073904476447122"><ele>117.0</ele><time>2026-04-05T17:05:43.001Z</time></trkpt><trkpt lat="45.43847058502737" lon="9.073934295329646"><ele>117.0</ele><time>2026-04-05T17:05:44.001Z</time></trkpt><trkpt lat="45.43819135702378" lon="9.073965279315516"><ele>117.0</ele><time>2026-04-05T17:05:45.001Z</time></trkpt><trkpt lat="45.4379113580012" lon="9.07399808284276"><ele>116.5</ele><time>2026-04-05T17:05:46.001Z</time></trkpt><trkpt lat="45.437629020868926" lon="9.074026913539031"><ele>116.0</ele><time>2026-04-05T17:05:47.001Z</time></trkpt><trkpt lat="45.43734244948828" lon="9.074057661095583"><ele>115.5</ele><time>2026-04-05T17:05:48.001Z</time></trkpt><trkpt lat="45.43705270290418" lon="9.07409305255723"><ele>115.0</ele><time>2026-04-05T17:05:49.001Z</time></trkpt><trkpt lat="45.436761762126984" lon="9.074124568229056"><ele>115.0</ele><time>2026-04-05T17:05:50.001Z</time></trkpt><trkpt lat="45.43646971339427" lon="9.074154202805131"><ele>115.0</ele><time>2026-04-05T17:05:51.001Z</time></trkpt><trkpt lat="45.43617498329793" lon="9.074185236539531"><ele>116.5</ele><time>2026-04-05T17:05:52.001Z</time></trkpt><trkpt lat="45.43587727827485" lon="9.074214785323793"><ele>118.0</ele><time>2026-04-05T17:05:53.001Z</time></trkpt><trkpt lat="45.43558117741512" lon="9.07424540762738"><ele>118.0</ele><time>2026-04-05T17:05:54.001Z</time></trkpt><trkpt lat="45.43528585439378" lon="9.074278059634265"><ele>118.0</ele><time>2026-04-05T17:05:55.001Z</time></trkpt><trkpt lat="45.43498965760256" lon="9.074311483455137"><ele>118.0</ele><time>2026-04-05T17:05:56.001Z</time></trkpt><trkpt lat="45.434695652678265" lon="9.074343349072544"><ele>118.0</ele><time>2026-04-05T17:05:57.001Z</time></trkpt><trkpt lat="45.43440183689851" lon="9.074374490528378"><ele>117.5</ele><time>2026-04-05T17:05:58.002Z</time></trkpt><trkpt lat="45.434110149094565" lon="9.074400467144791"><ele>117.0</ele><time>2026-04-05T17:05:59.002Z</time></trkpt><trkpt lat="45.43381858311226" lon="9.07443269127443"><ele>117.5</ele><time>2026-04-05T17:06:00.002Z</time></trkpt><trkpt lat="45.43352975807885" lon="9.074468519750406"><ele>118.0</ele><time>2026-04-05T17:06:01.002Z</time></trkpt><trkpt lat="45.43324309398976" lon="9.074507473687436"><ele>116.0</ele><time>2026-04-05T17:06:02.002Z</time></trkpt><trkpt lat="45.432956542406686" lon="9.074554280725236"><ele>114.0</ele><time>2026-04-05T17:06:03.002Z</time></trkpt><trkpt lat="45.4326729428007" lon="9.074605590380338"><ele>114.0</ele><time>2026-04-05T17:06:04.002Z</time></trkpt><trkpt lat="45.43239022230492" lon="9.074664319767905"><ele>114.0</ele><time>2026-04-05T17:06:05.002Z</time></trkpt><trkpt lat="45.43210776323178" lon="9.074731296420342"><ele>115.0</ele><time>2026-04-05T17:06:06.002Z</time></trkpt><trkpt lat="45.43182669944967" lon="9.074803915102562"><ele>116.0</ele><time>2026-04-05T17:06:07.002Z</time></trkpt><trkpt lat="45.43154729015437" lon="9.074883777670891"><ele>116.0</ele><time>2026-04-05T17:06:08.002Z</time></trkpt><trkpt lat="45.43126785334088" lon="9.07496777756897"><ele>116.0</ele><time>2026-04-05T17:06:09.002Z</time></trkpt><trkpt lat="45.43099366042856" lon="9.075058169532507"><ele>116.0</ele><time>2026-04-05T17:06:10.002Z</time></trkpt><trkpt lat="45.43071634480088" lon="9.075161728392493"><ele>116.0</ele><time>2026-04-05T17:06:11.002Z</time></trkpt><trkpt lat="45.43044329241207" lon="9.075268390192495"><ele>116.5</ele><time>2026-04-05T17:06:12.002Z</time></trkpt><trkpt lat="45.43017219995859" lon="9.075386057875024"><ele>117.0</ele><time>2026-04-05T17:06:13.002Z</time></trkpt><trkpt lat="45.42990201969532" lon="9.07551216577303"><ele>117.0</ele><time>2026-04-05T17:06:14.002Z</time></trkpt><trkpt lat="45.429633141560586" lon="9.07564303103763"><ele>117.0</ele><time>2026-04-05T17:06:15.002Z</time></trkpt><trkpt lat="45.42936808117148" lon="9.075775411479428"><ele>117.5</ele><time>2026-04-05T17:06:16.002Z</time></trkpt><trkpt lat="45.42910726178016" lon="9.075914050737039"><ele>118.0</ele><time>2026-04-05T17:06:17.002Z</time></trkpt><trkpt lat="45.428848182810135" lon="9.07606283674526"><ele>116.5</ele><time>2026-04-05T17:06:18.002Z</time></trkpt><trkpt lat="45.42859119197788" lon="9.076222410725599"><ele>115.0</ele><time>2026-04-05T17:06:19.002Z</time></trkpt><trkpt lat="45.428333693682184" lon="9.076381058023353"><ele>115.0</ele><time>2026-04-05T17:06:20.002Z</time></trkpt><trkpt lat="45.428080631449625" lon="9.076539800892538"><ele>115.0</ele><time>2026-04-05T17:06:21.002Z</time></trkpt><trkpt lat="45.427823211417554" lon="9.07669678993952"><ele>117.0</ele><time>2026-04-05T17:06:22.002Z</time></trkpt><trkpt lat="45.42756876811811" lon="9.076846010948536"><ele>119.0</ele><time>2026-04-05T17:06:23.002Z</time></trkpt><trkpt lat="45.427308854853" lon="9.076995816353008"><ele>119.0</ele><time>2026-04-05T17:06:24.002Z</time></trkpt><trkpt lat="45.42705170791538" lon="9.077139865971404"><ele>119.0</ele><time>2026-04-05T17:06:25.002Z</time></trkpt><trkpt lat="45.42679653110245" lon="9.077288322922245"><ele>119.5</ele><time>2026-04-05T17:06:26.002Z</time></trkpt><trkpt lat="45.426538516880846" lon="9.077447984538956"><ele>120.0</ele><time>2026-04-05T17:06:27.002Z</time></trkpt><trkpt lat="45.426283380645145" lon="9.077603639597037"><ele>119.0</ele><time>2026-04-05T17:06:28.002Z</time></trkpt><trkpt lat="45.426032145614634" lon="9.077758473253907"><ele>118.0</ele><time>2026-04-05T17:06:29.001Z</time></trkpt><trkpt lat="45.42578694325639" lon="9.077910697958158"><ele>118.0</ele><time>2026-04-05T17:06:30.001Z</time></trkpt><trkpt lat="45.42555602513856" lon="9.078054084351319"><ele>118.0</ele><time>2026-04-05T17:06:31.001Z</time></trkpt><trkpt lat="45.425343943250915" lon="9.078186457365302"><ele>118.33333333333334</ele><time>2026-04-05T17:06:32.001Z</time></trkpt><trkpt lat="45.42513715622602" lon="9.078306992968177"><ele>118.66666666666666</ele><time>2026-04-05T17:06:33.001Z</time></trkpt><trkpt lat="45.42494268799548" lon="9.078425510293464"><ele>119.0</ele><time>2026-04-05T17:06:34.001Z</time></trkpt><trkpt lat="45.424747461376526" lon="9.07855045679814"><ele>117.0</ele><time>2026-04-05T17:06:35.001Z</time></trkpt><trkpt lat="45.42453705375979" lon="9.07869302567683"><ele>115.0</ele><time>2026-04-05T17:06:36.001Z</time></trkpt><trkpt lat="45.424316188950435" lon="9.078820000450062"><ele>115.0</ele><time>2026-04-05T17:06:37.001Z</time></trkpt><trkpt lat="45.42409534710487" lon="9.078936287809857"><ele>115.0</ele><time>2026-04-05T17:06:38.001Z</time></trkpt><trkpt lat="45.42386615407694" lon="9.079076783363313"><ele>114.0</ele><time>2026-04-05T17:06:39Z</time></trkpt><trkpt lat="45.423631183381445" lon="9.079213322077273"><ele>113.0</ele><time>2026-04-05T17:06:40Z</time></trkpt><trkpt lat="45.4233954096675" lon="9.079356622105232"><ele>113.0</ele><time>2026-04-05T17:06:41Z</time></trkpt><trkpt lat="45.423153156680534" lon="9.07950194403096"><ele>113.0</ele><time>2026-04-05T17:06:42Z</time></trkpt><trkpt lat="45.42291113460375" lon="9.079645222685981"><ele>114.5</ele><time>2026-04-05T17:06:43Z</time></trkpt><trkpt lat="45.422669194997596" lon="9.079791843909067"><ele>116.0</ele><time>2026-04-05T17:06:44Z</time></trkpt><trkpt lat="45.42242616519012" lon="9.079938268093791"><ele>116.0</ele><time>2026-04-05T17:06:45Z</time></trkpt><trkpt lat="45.422184021445275" lon="9.080083120754288"><ele>116.0</ele><time>2026-04-05T17:06:46Z</time></trkpt><trkpt lat="45.42194306808041" lon="9.080235803271423"><ele>116.5</ele><time>2026-04-05T17:06:47Z</time></trkpt><trkpt lat="45.42170323591467" lon="9.080387122974814"><ele>117.0</ele><time>2026-04-05T17:06:48Z</time></trkpt><trkpt lat="45.421470893180555" lon="9.080534133334705"><ele>116.5</ele><time>2026-04-05T17:06:49Z</time></trkpt><trkpt lat="45.42125304610412" lon="9.08067031692559"><ele>116.0</ele><time>2026-04-05T17:06:50Z</time></trkpt><trkpt lat="45.42105280485036" lon="9.080802161872956"><ele>116.0</ele><time>2026-04-05T17:06:51Z</time></trkpt><trkpt lat="45.42086505713647" lon="9.08093020989315"><ele>116.0</ele><time>2026-04-05T17:06:52Z</time></trkpt><trkpt lat="45.42069239053207" lon="9.081055961993071"><ele>116.0</ele><time>2026-04-05T17:06:53Z</time></trkpt><trkpt lat="45.42052358515652" lon="9.081174397922291"><ele>115.0</ele><time>2026-04-05T17:06:54Z</time></trkpt><trkpt lat="45.42036670274597" lon="9.081291628997233"><ele>114.0</ele><time>2026-04-05T17:06:55Z</time></trkpt><trkpt lat="45.4202202800035" lon="9.081412478371231"><ele>113.0</ele><time>2026-04-05T17:06:56Z</time></trkpt><trkpt lat="45.42008099683332" lon="9.08152239775289"><ele>113.25</ele><time>2026-04-05T17:06:57.001Z</time></trkpt><trkpt lat="45.41994591662217" lon="9.081628436637715"><ele>113.5</ele><time>2026-04-05T17:06:58.001Z</time></trkpt><trkpt lat="45.41983786555655" lon="9.081727876296153"><ele>113.75</ele><time>2026-04-05T17:06:59.001Z</time></trkpt><trkpt lat="45.41973497776795" lon="9.081806623034883"><ele>114.0</ele><time>2026-04-05T17:07:00.001Z</time></trkpt><trkpt lat="45.41963318898264" lon="9.081854283683654"><ele>114.0</ele><time>2026-04-05T17:07:01.001Z</time></trkpt><trkpt lat="45.41954180310367" lon="9.081848634506917"><ele>114.0</ele><time>2026-04-05T17:07:02.001Z</time></trkpt><trkpt lat="45.419463098149436" lon="9.081785478004589"><ele>114.0</ele><time>2026-04-05T17:07:03.001Z</time></trkpt><trkpt lat="45.419405920713224" lon="9.081667390118955"><ele>114.0</ele><time>2026-04-05T17:07:04.001Z</time></trkpt><trkpt lat="45.41937653940847" lon="9.081527518740614"><ele>114.0</ele><time>2026-04-05T17:07:05.001Z</time></trkpt><trkpt lat="45.41944430425798" lon="9.081378384728582"><ele>114.0</ele><time>2026-04-05T17:07:06.001Z</time></trkpt><trkpt lat="45.41955494923652" lon="9.081291039349061"><ele>114.0</ele><time>2026-04-05T17:07:07.001Z</time></trkpt><trkpt lat="45.41968090229254" lon="9.081230472564359"><ele>114.0</ele><time>2026-04-05T17:07:08.001Z</time></trkpt><trkpt lat="45.419822879290926" lon="9.08118787288499"><ele>114.0</ele><time>2026-04-05T17:07:09.001Z</time></trkpt><trkpt lat="45.419973782098076" lon="9.08113542351082"><ele>113.66666666666666</ele><time>2026-04-05T17:07:10.001Z</time></trkpt><trkpt lat="45.420126654277304" lon="9.081073467443602"><ele>113.33333333333333</ele><time>2026-04-05T17:07:11.001Z</time></trkpt><trkpt lat="45.420276445813535" lon="9.081011193893136"><ele>113.0</ele><time>2026-04-05T17:07:12.001Z</time></trkpt><trkpt lat="45.420417221002495" lon="9.08094083871843"><ele>113.25</ele><time>2026-04-05T17:07:13.001Z</time></trkpt><trkpt lat="45.420543620612044" lon="9.080863716497474"><ele>113.5</ele><time>2026-04-05T17:07:14.001Z</time></trkpt><trkpt lat="45.42066088224075" lon="9.080766155126726"><ele>113.75</ele><time>2026-04-05T17:07:15.001Z</time></trkpt><trkpt lat="45.420773026500136" lon="9.080694114827592"><ele>114.0</ele><time>2026-04-05T17:07:16.001Z</time></trkpt><trkpt lat="45.42086645655676" lon="9.08063429685261"><ele>114.0</ele><time>2026-04-05T17:07:17.001Z</time></trkpt><trkpt lat="45.42094324266277" lon="9.080585093160913"><ele>114.0</ele><time>2026-04-05T17:07:18.001Z</time></trkpt><trkpt lat="45.42092814324712" lon="9.080331780385906"><ele>114.0</ele><time>2026-04-05T17:07:19.001Z</time></trkpt><trkpt lat="45.420928802957036" lon="9.08022822571242"><ele>114.0</ele><time>2026-04-05T17:07:20.001Z</time></trkpt><trkpt lat="45.42083689609426" lon="9.08007576963303"><ele>114.0</ele><time>2026-04-05T17:07:22.001Z</time></trkpt><trkpt lat="45.42070271062231" lon="9.080086256400303"><ele>114.0</ele><time>2026-04-05T17:07:24.001Z</time></trkpt><trkpt lat="45.4206355173947" lon="9.080166069614647"><ele>114.0</ele><time>2026-04-05T17:07:25.001Z</time></trkpt><trkpt lat="45.42057205057933" lon="9.080289043572849"><ele>114.0</ele><time>2026-04-05T17:07:26.001Z</time></trkpt><trkpt lat="45.42050235268269" lon="9.080439753016877"><ele>113.75</ele><time>2026-04-05T17:07:27.001Z</time></trkpt><trkpt lat="45.42042073602919" lon="9.08058512418508"><ele>113.5</ele><time>2026-04-05T17:07:28.001Z</time></trkpt><trkpt lat="45.420326047870596" lon="9.080683338504869"><ele>113.25</ele><time>2026-04-05T17:07:29.001Z</time></trkpt><trkpt lat="45.420213845917125" lon="9.080722869579118"><ele>113.0</ele><time>2026-04-05T17:07:30.001Z</time></trkpt><trkpt lat="45.42009985842135" lon="9.080719871953697"><ele>113.0</ele><time>2026-04-05T17:07:31.001Z</time></trkpt><trkpt lat="45.420009023248426" lon="9.080655078984217"><ele>113.0</ele><time>2026-04-05T17:07:32.001Z</time></trkpt><trkpt lat="45.41994851891377" lon="9.080540605284359"><ele>113.0</ele><time>2026-04-05T17:07:33.001Z</time></trkpt><trkpt lat="45.419884982093215" lon="9.080394042396074"><ele>113.0</ele><time>2026-04-05T17:07:34.001Z</time></trkpt><trkpt lat="45.41982373559109" lon="9.080234173908178"><ele>113.0</ele><time>2026-04-05T17:07:35.001Z</time></trkpt><trkpt lat="45.4197464924069" lon="9.08008019595843"><ele>113.0</ele><time>2026-04-05T17:07:36.001Z</time></trkpt><trkpt lat="45.419653281418015" lon="9.079895890067034"><ele>113.0</ele><time>2026-04-05T17:07:37.001Z</time></trkpt><trkpt lat="45.41956793834648" lon="9.079732249888432"><ele>113.0</ele><time>2026-04-05T17:07:38.001Z</time></trkpt><trkpt lat="45.419480618714665" lon="9.079555840412965"><ele>113.33333333333333</ele><time>2026-04-05T17:07:39.001Z</time></trkpt><trkpt lat="45.419371342972674" lon="9.07932468416546"><ele>113.66666666666666</ele><time>2026-04-05T17:07:40.001Z</time></trkpt><trkpt lat="45.419262041783" lon="9.079119931946012"><ele>114.0</ele><time>2026-04-05T17:07:41.001Z</time></trkpt><trkpt lat="45.419153760434384" lon="9.078934040527752"><ele>114.0</ele><time>2026-04-05T17:07:42.001Z</time></trkpt><trkpt lat="45.41906336074698" lon="9.078742805731896"><ele>114.0</ele><time>2026-04-05T17:07:43.001Z</time></trkpt><trkpt lat="45.41897965424906" lon="9.078568156490135"><ele>114.0</ele><time>2026-04-05T17:07:44.001Z</time></trkpt><trkpt lat="45.41890523935268" lon="9.078403935538644"><ele>114.0</ele><time>2026-04-05T17:07:45.001Z</time></trkpt><trkpt lat="45.41882664953497" lon="9.078248986413024"><ele>114.2</ele><time>2026-04-05T17:07:46.001Z</time></trkpt><trkpt lat="45.418752648365476" lon="9.078109998591497"><ele>114.4</ele><time>2026-04-05T17:07:47.001Z</time></trkpt><trkpt lat="45.4186888730189" lon="9.077989111823339"><ele>114.6</ele><time>2026-04-05T17:07:48.001Z</time></trkpt><trkpt lat="45.41864007898134" lon="9.07788537165423"><ele>114.8</ele><time>2026-04-05T17:07:49.001Z</time></trkpt><trkpt lat="45.41860702621457" lon="9.07780775650894"><ele>115.0</ele><time>2026-04-05T17:07:50.001Z</time></trkpt><trkpt lat="45.41858278314724" lon="9.077712177586637"><ele>115.0</ele><time>2026-04-05T17:07:51.001Z</time></trkpt><trkpt lat="45.418537795946236" lon="9.077601424872807"><ele>115.0</ele><time>2026-04-05T17:07:52.001Z</time></trkpt><trkpt lat="45.418464614558026" lon="9.077523637178386"><ele>115.0</ele><time>2026-04-05T17:07:53.001Z</time></trkpt><trkpt lat="45.41838437404604" lon="9.07740078045128"><ele>115.0</ele><time>2026-04-05T17:07:54.001Z</time></trkpt><trkpt lat="45.418316141158" lon="9.07723550957367"><ele>115.0</ele><time>2026-04-05T17:07:55.001Z</time></trkpt><trkpt lat="45.4182471113481" lon="9.077080834942736"><ele>115.0</ele><time>2026-04-05T17:07:56.001Z</time></trkpt><trkpt lat="45.41817715071293" lon="9.076958431148936"><ele>115.0</ele><time>2026-04-05T17:07:57.001Z</time></trkpt><trkpt lat="45.41811532073769" lon="9.07683343729465"><ele>115.0</ele><time>2026-04-05T17:07:58.001Z</time></trkpt><trkpt lat="45.418064264633365" lon="9.076698083966082"><ele>115.0</ele><time>2026-04-05T17:07:59.001Z</time></trkpt><trkpt lat="45.418009466199344" lon="9.076585539289178"><ele>115.0</ele><time>2026-04-05T17:08:00.001Z</time></trkpt><trkpt lat="45.4179548753704" lon="9.076472323978235"><ele>115.00000000000001</ele><time>2026-04-05T17:08:01.001Z</time></trkpt><trkpt lat="45.417895400206035" lon="9.076349142608535"><ele>115.0</ele><time>2026-04-05T17:08:02.001Z</time></trkpt><trkpt lat="45.417840457429925" lon="9.07623534845303"><ele>115.0</ele><time>2026-04-05T17:08:03.001Z</time></trkpt><trkpt lat="45.41778263200904" lon="9.076147979213525"><ele>115.0</ele><time>2026-04-05T17:08:04.001Z</time></trkpt><trkpt lat="45.417748447622934" lon="9.076067258795716"><ele>115.00000000000001</ele><time>2026-04-05T17:08:05.001Z</time></trkpt><trkpt lat="45.41769327275842" lon="9.075965089885296"><ele>115.0</ele><time>2026-04-05T17:08:07.001Z</time></trkpt><trkpt lat="45.417644706100305" lon="9.075863856784773"><ele>115.0</ele><time>2026-04-05T17:08:10.001Z</time></trkpt><trkpt lat="45.41760927276582" lon="9.075760078698027"><ele>115.0</ele><time>2026-04-05T17:08:14.002Z</time></trkpt><trkpt lat="45.41747823823561" lon="9.07580789960946"><ele>115.0</ele><time>2026-04-05T17:08:16.002Z</time></trkpt><trkpt lat="45.41741027718331" lon="9.075871901095072"><ele>115.0</ele><time>2026-04-05T17:08:17.002Z</time></trkpt><trkpt lat="45.41734392288305" lon="9.075931768892811"><ele>115.0</ele><time>2026-04-05T17:08:18.002Z</time></trkpt><trkpt lat="45.41728005564035" lon="9.075992346975323"><ele>115.00000000000001</ele><time>2026-04-05T17:08:19.002Z</time></trkpt><trkpt lat="45.41722240935301" lon="9.076050178767993"><ele>115.0</ele><time>2026-04-05T17:08:20.002Z</time></trkpt><trkpt lat="45.41716977120441" lon="9.07612571604381"><ele>115.0</ele><time>2026-04-05T17:08:21.002Z</time></trkpt><trkpt lat="45.41711305518038" lon="9.076174193239195"><ele>115.0</ele><time>2026-04-05T17:08:22.002Z</time></trkpt><trkpt lat="45.41704441483053" lon="9.076200403389151"><ele>115.00000000000001</ele><time>2026-04-05T17:08:25.002Z</time></trkpt><trkpt lat="45.41695935410191" lon="9.07607646110429"><ele>115.0</ele><time>2026-04-05T17:08:27.002Z</time></trkpt><trkpt lat="45.416928204627965" lon="9.075996007215126"><ele>115.14285714285712</ele><time>2026-04-05T17:08:28.002Z</time></trkpt><trkpt lat="45.41689068334807" lon="9.075921160951108"><ele>115.28571428571428</ele><time>2026-04-05T17:08:29.002Z</time></trkpt><trkpt lat="45.41685134949964" lon="9.075846879596956"><ele>115.42857142857143</ele><time>2026-04-05T17:08:30.002Z</time></trkpt><trkpt lat="45.416810796085834" lon="9.075764688931217"><ele>115.57142857142857</ele><time>2026-04-05T17:08:31.002Z</time></trkpt><trkpt lat="45.416765567613325" lon="9.075676258388391"><ele>115.71428571428572</ele><time>2026-04-05T17:08:32.002Z</time></trkpt><trkpt lat="45.416724096733454" lon="9.07559316688003"><ele>115.85714285714288</ele><time>2026-04-05T17:08:33.002Z</time></trkpt><trkpt lat="45.41668615083868" lon="9.075518567963758"><ele>116.00000000000001</ele><time>2026-04-05T17:08:34.002Z</time></trkpt><trkpt lat="45.416645467603125" lon="9.075435464739208"><ele>116.16666666666666</ele><time>2026-04-05T17:08:34.999Z</time></trkpt><trkpt lat="45.416592174489885" lon="9.075331082859268"><ele>116.33333333333333</ele><time>2026-04-05T17:08:35.999Z</time></trkpt><trkpt lat="45.4165352446087" lon="9.075235026221376"><ele>116.5</ele><time>2026-04-05T17:08:36.999Z</time></trkpt><trkpt lat="45.41649396013085" lon="9.07515507351437"><ele>116.66666666666666</ele><time>2026-04-05T17:08:37.999Z</time></trkpt><trkpt lat="45.416454714128115" lon="9.075063878020066"><ele>116.83333333333333</ele><time>2026-04-05T17:08:38.999Z</time></trkpt><trkpt lat="45.416400620356356" lon="9.074953659734762"><ele>117.0</ele><time>2026-04-05T17:08:39.999Z</time></trkpt><trkpt lat="45.41633675232512" lon="9.07483784004946"><ele>117.0</ele><time>2026-04-05T17:08:40.999Z</time></trkpt><trkpt lat="45.41628074069991" lon="9.074729172600858"><ele>116.99999999999999</ele><time>2026-04-05T17:08:41.999Z</time></trkpt><trkpt lat="45.416223210736696" lon="9.0746178047732"><ele>116.99999999999999</ele><time>2026-04-05T17:08:42.999Z</time></trkpt><trkpt lat="45.416169659244936" lon="9.07450574047177"><ele>117.0</ele><time>2026-04-05T17:08:43.999Z</time></trkpt><trkpt lat="45.416117710835756" lon="9.07439662850435"><ele>117.0</ele><time>2026-04-05T17:08:44.999Z</time></trkpt><trkpt lat="45.41607056709479" lon="9.074306106712298"><ele>117.0</ele><time>2026-04-05T17:08:45.999Z</time></trkpt><trkpt lat="45.41602923977599" lon="9.074228846310103"><ele>117.0</ele><time>2026-04-05T17:08:46.999Z</time></trkpt><trkpt lat="45.41601580484395" lon="9.074079245536584"><ele>117.0</ele><time>2026-04-05T17:08:48.999Z</time></trkpt><trkpt lat="45.416059412000784" lon="9.073998229197398"><ele>117.0</ele><time>2026-04-05T17:08:49.999Z</time></trkpt><trkpt lat="45.41613891170572" lon="9.073930441535682"><ele>117.0</ele><time>2026-04-05T17:08:50.999Z</time></trkpt><trkpt lat="45.4162044702087" lon="9.073878357371052"><ele>117.0</ele><time>2026-04-05T17:08:51.999Z</time></trkpt><trkpt lat="45.4162638011427" lon="9.073821256570135"><ele>116.75</ele><time>2026-04-05T17:08:52.999Z</time></trkpt><trkpt lat="45.416328146784835" lon="9.073752592966253"><ele>116.5</ele><time>2026-04-05T17:08:54Z</time></trkpt><trkpt lat="45.416386790852" lon="9.073697174145485"><ele>116.25</ele><time>2026-04-05T17:08:55Z</time></trkpt><trkpt lat="45.41646529640943" lon="9.073598032139623"><ele>116.0</ele><time>2026-04-05T17:08:57Z</time></trkpt><trkpt lat="45.416658310236244" lon="9.073754547175533"><ele>115.99999999999999</ele><time>2026-04-05T17:09:03Z</time></trkpt><trkpt lat="45.41672865709091" lon="9.073694909809275"><ele>116.0</ele><time>2026-04-05T17:09:53.001Z</time></trkpt><trkpt lat="45.41681195644093" lon="9.073744762272511"><ele>116.0</ele><time>2026-04-05T17:09:56.001Z</time></trkpt><trkpt lat="45.41684551492632" lon="9.073821414639372"><ele>116.0</ele><time>2026-04-05T17:09:57.001Z</time></trkpt><trkpt lat="45.416879442695915" lon="9.07392030299566"><ele>115.99999999999999</ele><time>2026-04-05T17:09:58.001Z</time></trkpt><trkpt lat="45.416949206243316" lon="9.074029589780125"><ele>116.0</ele><time>2026-04-05T17:10:00.001Z</time></trkpt><trkpt lat="45.41699073041116" lon="9.074106858144003"><ele>117.0</ele><time>2026-04-05T17:10:04.016Z</time></trkpt></trkseg></trk></gpx>